<?xml version="1.0" encoding="UTF-8"?><gpx xmlns="http://www.topografix.com/GPX/1/1" version="1.1" creator="iOrient"><trk><name>Большая прогулка. Первая гонка</name><trkseg><trkpt lat="55.8343033" lon="48.9581483"><time>2021-04-17T07:25:37.560</time></trkpt><trkpt lat="55.8342567" lon="48.9580917"><time>2021-04-17T07:25:39.063</time></trkpt><trkpt lat="55.8342033" lon="48.9581117"><time>2021-04-17T07:25:41.063</time></trkpt><trkpt lat="55.8341467" lon="48.9581650"><time>2021-04-17T07:25:44.060</time></trkpt><trkpt lat="55.8340900" lon="48.9582200"><time>2021-04-17T07:25:47.067</time></trkpt><trkpt lat="55.8340350" lon="48.9582833"><time>2021-04-17T07:25:50.067</time></trkpt><trkpt lat="55.8339950" lon="48.9583417"><time>2021-04-17T07:25:52.063</time></trkpt><trkpt lat="55.8339517" lon="48.9584050"><time>2021-04-17T07:25:54.060</time></trkpt><trkpt lat="55.8338983" lon="48.9584833"><time>2021-04-17T07:25:56.170</time></trkpt><trkpt lat="55.8338517" lon="48.9585117"><time>2021-04-17T07:25:58.177</time></trkpt><trkpt lat="55.8338050" lon="48.9585200"><time>2021-04-17T07:26:00.170</time></trkpt><trkpt lat="55.8337517" lon="48.9585233"><time>2021-04-17T07:26:02.180</time></trkpt><trkpt lat="55.8337000" lon="48.9585317"><time>2021-04-17T07:26:04.177</time></trkpt><trkpt lat="55.8336483" lon="48.9585450"><time>2021-04-17T07:26:06.177</time></trkpt><trkpt lat="55.8335917" lon="48.9585683"><time>2021-04-17T07:26:08.177</time></trkpt><trkpt lat="55.8335383" lon="48.9586133"><time>2021-04-17T07:26:10.200</time></trkpt><trkpt lat="55.8334767" lon="48.9586567"><time>2021-04-17T07:26:12.277</time></trkpt><trkpt lat="55.8334133" lon="48.9586483"><time>2021-04-17T07:26:14.173</time></trkpt><trkpt lat="55.8333650" lon="48.9586150"><time>2021-04-17T07:26:15.173</time></trkpt><trkpt lat="55.8333183" lon="48.9586000"><time>2021-04-17T07:26:16.173</time></trkpt><trkpt lat="55.8332517" lon="48.9586317"><time>2021-04-17T07:26:18.177</time></trkpt><trkpt lat="55.8331983" lon="48.9586633"><time>2021-04-17T07:26:20.173</time></trkpt><trkpt lat="55.8331483" lon="48.9587017"><time>2021-04-17T07:26:22.177</time></trkpt><trkpt lat="55.8330883" lon="48.9587417"><time>2021-04-17T07:26:24.173</time></trkpt><trkpt lat="55.8330383" lon="48.9588000"><time>2021-04-17T07:26:26.177</time></trkpt><trkpt lat="55.8329833" lon="48.9588400"><time>2021-04-17T07:26:28.177</time></trkpt><trkpt lat="55.8329350" lon="48.9588767"><time>2021-04-17T07:26:30.177</time></trkpt><trkpt lat="55.8328833" lon="48.9589083"><time>2021-04-17T07:26:32.180</time></trkpt><trkpt lat="55.8328267" lon="48.9588967"><time>2021-04-17T07:26:35.280</time></trkpt><trkpt lat="55.8327850" lon="48.9588483"><time>2021-04-17T07:26:39.173</time></trkpt><trkpt lat="55.8327417" lon="48.9587833"><time>2021-04-17T07:26:43.177</time></trkpt><trkpt lat="55.8327033" lon="48.9587033"><time>2021-04-17T07:26:46.187</time></trkpt><trkpt lat="55.8326717" lon="48.9586317"><time>2021-04-17T07:26:49.173</time></trkpt><trkpt lat="55.8326283" lon="48.9585617"><time>2021-04-17T07:26:52.183</time></trkpt><trkpt lat="55.8325767" lon="48.9585217"><time>2021-04-17T07:26:55.173</time></trkpt><trkpt lat="55.8325183" lon="48.9584850"><time>2021-04-17T07:26:58.177</time></trkpt><trkpt lat="55.8324467" lon="48.9583400"><time>2021-04-17T07:26:59.183</time></trkpt><trkpt lat="55.8323700" lon="48.9583117"><time>2021-04-17T07:27:00.177</time></trkpt><trkpt lat="55.8323083" lon="48.9582433"><time>2021-04-17T07:27:02.177</time></trkpt><trkpt lat="55.8322900" lon="48.9581567"><time>2021-04-17T07:27:04.177</time></trkpt><trkpt lat="55.8322833" lon="48.9580533"><time>2021-04-17T07:27:06.177</time></trkpt><trkpt lat="55.8322767" lon="48.9579417"><time>2021-04-17T07:27:08.177</time></trkpt><trkpt lat="55.8322833" lon="48.9578533"><time>2021-04-17T07:27:10.177</time></trkpt><trkpt lat="55.8322850" lon="48.9577550"><time>2021-04-17T07:27:13.177</time></trkpt><trkpt lat="55.8322983" lon="48.9576667"><time>2021-04-17T07:27:15.177</time></trkpt><trkpt lat="55.8322967" lon="48.9575783"><time>2021-04-17T07:27:17.177</time></trkpt><trkpt lat="55.8322883" lon="48.9574967"><time>2021-04-17T07:27:20.173</time></trkpt><trkpt lat="55.8322767" lon="48.9573733"><time>2021-04-17T07:27:23.177</time></trkpt><trkpt lat="55.8322717" lon="48.9572933"><time>2021-04-17T07:27:25.177</time></trkpt><trkpt lat="55.8322550" lon="48.9572150"><time>2021-04-17T07:27:27.177</time></trkpt><trkpt lat="55.8322333" lon="48.9571350"><time>2021-04-17T07:27:29.177</time></trkpt><trkpt lat="55.8321817" lon="48.9570567"><time>2021-04-17T07:27:32.190</time></trkpt><trkpt lat="55.8321417" lon="48.9569883"><time>2021-04-17T07:27:34.173</time></trkpt><trkpt lat="55.8321117" lon="48.9569050"><time>2021-04-17T07:27:36.177</time></trkpt><trkpt lat="55.8320850" lon="48.9568350"><time>2021-04-17T07:27:38.173</time></trkpt><trkpt lat="55.8320417" lon="48.9567567"><time>2021-04-17T07:27:41.177</time></trkpt><trkpt lat="55.8319983" lon="48.9566850"><time>2021-04-17T07:27:44.177</time></trkpt><trkpt lat="55.8319683" lon="48.9566783"><time>2021-04-17T07:27:47.157</time></trkpt><trkpt lat="55.8319450" lon="48.9567033"><time>2021-04-17T07:27:47.217</time></trkpt><trkpt lat="55.8319750" lon="48.9566400"><time>2021-04-17T07:28:00.980</time></trkpt><trkpt lat="55.8320150" lon="48.9565867"><time>2021-04-17T07:28:02.177</time></trkpt><trkpt lat="55.8320567" lon="48.9565217"><time>2021-04-17T07:28:09.177</time></trkpt><trkpt lat="55.8320850" lon="48.9564500"><time>2021-04-17T07:28:12.177</time></trkpt><trkpt lat="55.8321183" lon="48.9563667"><time>2021-04-17T07:28:14.177</time></trkpt><trkpt lat="55.8321617" lon="48.9563033"><time>2021-04-17T07:28:16.177</time></trkpt><trkpt lat="55.8322100" lon="48.9562467"><time>2021-04-17T07:28:18.177</time></trkpt><trkpt lat="55.8322633" lon="48.9562050"><time>2021-04-17T07:28:20.180</time></trkpt><trkpt lat="55.8322783" lon="48.9561200"><time>2021-04-17T07:28:24.177</time></trkpt><trkpt lat="55.8322350" lon="48.9560183"><time>2021-04-17T07:28:27.177</time></trkpt><trkpt lat="55.8322033" lon="48.9559317"><time>2021-04-17T07:28:29.177</time></trkpt><trkpt lat="55.8321733" lon="48.9558483"><time>2021-04-17T07:28:31.177</time></trkpt><trkpt lat="55.8321450" lon="48.9557600"><time>2021-04-17T07:28:33.177</time></trkpt><trkpt lat="55.8321217" lon="48.9556900"><time>2021-04-17T07:28:35.177</time></trkpt><trkpt lat="55.8320867" lon="48.9555850"><time>2021-04-17T07:28:38.177</time></trkpt><trkpt lat="55.8320650" lon="48.9555033"><time>2021-04-17T07:28:40.177</time></trkpt><trkpt lat="55.8320450" lon="48.9554217"><time>2021-04-17T07:28:42.177</time></trkpt><trkpt lat="55.8320250" lon="48.9553500"><time>2021-04-17T07:28:44.177</time></trkpt><trkpt lat="55.8320100" lon="48.9552583"><time>2021-04-17T07:28:46.177</time></trkpt><trkpt lat="55.8319883" lon="48.9551667"><time>2021-04-17T07:28:48.177</time></trkpt><trkpt lat="55.8319717" lon="48.9550717"><time>2021-04-17T07:28:50.177</time></trkpt><trkpt lat="55.8319500" lon="48.9549917"><time>2021-04-17T07:28:52.177</time></trkpt><trkpt lat="55.8319217" lon="48.9549000"><time>2021-04-17T07:28:54.180</time></trkpt><trkpt lat="55.8318933" lon="48.9547950"><time>2021-04-17T07:28:56.177</time></trkpt><trkpt lat="55.8318650" lon="48.9547033"><time>2021-04-17T07:28:58.177</time></trkpt><trkpt lat="55.8318300" lon="48.9546183"><time>2021-04-17T07:29:00.177</time></trkpt><trkpt lat="55.8317950" lon="48.9545383"><time>2021-04-17T07:29:02.177</time></trkpt><trkpt lat="55.8317583" lon="48.9544633"><time>2021-04-17T07:29:04.177</time></trkpt><trkpt lat="55.8317183" lon="48.9543983"><time>2021-04-17T07:29:06.177</time></trkpt><trkpt lat="55.8316767" lon="48.9543367"><time>2021-04-17T07:29:08.177</time></trkpt><trkpt lat="55.8316367" lon="48.9542750"><time>2021-04-17T07:29:10.177</time></trkpt><trkpt lat="55.8315983" lon="48.9542117"><time>2021-04-17T07:29:12.177</time></trkpt><trkpt lat="55.8315533" lon="48.9541533"><time>2021-04-17T07:29:14.177</time></trkpt><trkpt lat="55.8315133" lon="48.9540950"><time>2021-04-17T07:29:16.173</time></trkpt><trkpt lat="55.8314750" lon="48.9540333"><time>2021-04-17T07:29:18.177</time></trkpt><trkpt lat="55.8314383" lon="48.9539700"><time>2021-04-17T07:29:20.177</time></trkpt><trkpt lat="55.8314033" lon="48.9539033"><time>2021-04-17T07:29:22.177</time></trkpt><trkpt lat="55.8313617" lon="48.9538517"><time>2021-04-17T07:29:24.180</time></trkpt><trkpt lat="55.8313200" lon="48.9537950"><time>2021-04-17T07:29:26.177</time></trkpt><trkpt lat="55.8312917" lon="48.9537150"><time>2021-04-17T07:29:28.177</time></trkpt><trkpt lat="55.8312567" lon="48.9536350"><time>2021-04-17T07:29:31.177</time></trkpt><trkpt lat="55.8312000" lon="48.9536500"><time>2021-04-17T07:29:36.177</time></trkpt><trkpt lat="55.8311450" lon="48.9536067"><time>2021-04-17T07:29:39.177</time></trkpt><trkpt lat="55.8311100" lon="48.9535517"><time>2021-04-17T07:29:41.177</time></trkpt><trkpt lat="55.8310633" lon="48.9534683"><time>2021-04-17T07:29:44.177</time></trkpt><trkpt lat="55.8310117" lon="48.9533900"><time>2021-04-17T07:29:47.177</time></trkpt><trkpt lat="55.8309617" lon="48.9533167"><time>2021-04-17T07:29:50.173</time></trkpt><trkpt lat="55.8309167" lon="48.9532383"><time>2021-04-17T07:29:53.177</time></trkpt><trkpt lat="55.8308917" lon="48.9531633"><time>2021-04-17T07:29:56.177</time></trkpt><trkpt lat="55.8308600" lon="48.9530867"><time>2021-04-17T07:29:59.177</time></trkpt><trkpt lat="55.8308417" lon="48.9530017"><time>2021-04-17T07:30:01.177</time></trkpt><trkpt lat="55.8308017" lon="48.9529117"><time>2021-04-17T07:30:04.177</time></trkpt><trkpt lat="55.8307733" lon="48.9528417"><time>2021-04-17T07:30:06.283</time></trkpt><trkpt lat="55.8307433" lon="48.9527600"><time>2021-04-17T07:30:08.177</time></trkpt><trkpt lat="55.8307217" lon="48.9526817"><time>2021-04-17T07:30:10.173</time></trkpt><trkpt lat="55.8306933" lon="48.9525983"><time>2021-04-17T07:30:12.177</time></trkpt><trkpt lat="55.8306650" lon="48.9525183"><time>2021-04-17T07:30:14.177</time></trkpt><trkpt lat="55.8306400" lon="48.9524267"><time>2021-04-17T07:30:16.177</time></trkpt><trkpt lat="55.8306150" lon="48.9523483"><time>2021-04-17T07:30:18.180</time></trkpt><trkpt lat="55.8305750" lon="48.9523050"><time>2021-04-17T07:30:21.177</time></trkpt><trkpt lat="55.8305400" lon="48.9522267"><time>2021-04-17T07:30:24.180</time></trkpt><trkpt lat="55.8304983" lon="48.9521433"><time>2021-04-17T07:30:27.177</time></trkpt><trkpt lat="55.8304617" lon="48.9520483"><time>2021-04-17T07:30:30.177</time></trkpt><trkpt lat="55.8304367" lon="48.9519767"><time>2021-04-17T07:30:32.177</time></trkpt><trkpt lat="55.8304183" lon="48.9518833"><time>2021-04-17T07:30:34.173</time></trkpt><trkpt lat="55.8303983" lon="48.9518050"><time>2021-04-17T07:30:36.177</time></trkpt><trkpt lat="55.8303650" lon="48.9517300"><time>2021-04-17T07:30:38.173</time></trkpt><trkpt lat="55.8303233" lon="48.9516800"><time>2021-04-17T07:30:40.177</time></trkpt><trkpt lat="55.8302667" lon="48.9516283"><time>2021-04-17T07:30:43.177</time></trkpt><trkpt lat="55.8302167" lon="48.9515633"><time>2021-04-17T07:30:46.177</time></trkpt><trkpt lat="55.8301817" lon="48.9514683"><time>2021-04-17T07:30:49.177</time></trkpt><trkpt lat="55.8301617" lon="48.9513950"><time>2021-04-17T07:30:51.177</time></trkpt><trkpt lat="55.8301433" lon="48.9513167"><time>2021-04-17T07:30:53.177</time></trkpt><trkpt lat="55.8301150" lon="48.9512283"><time>2021-04-17T07:30:56.177</time></trkpt><trkpt lat="55.8300850" lon="48.9511483"><time>2021-04-17T07:30:59.177</time></trkpt><trkpt lat="55.8300533" lon="48.9510783"><time>2021-04-17T07:31:03.177</time></trkpt><trkpt lat="55.8300217" lon="48.9510117"><time>2021-04-17T07:31:08.177</time></trkpt><trkpt lat="55.8300000" lon="48.9509400"><time>2021-04-17T07:31:11.177</time></trkpt><trkpt lat="55.8299600" lon="48.9508867"><time>2021-04-17T07:31:15.177</time></trkpt><trkpt lat="55.8298917" lon="48.9508700"><time>2021-04-17T07:31:18.177</time></trkpt><trkpt lat="55.8298317" lon="48.9508767"><time>2021-04-17T07:31:21.177</time></trkpt><trkpt lat="55.8297683" lon="48.9508483"><time>2021-04-17T07:31:24.177</time></trkpt><trkpt lat="55.8297217" lon="48.9508383"><time>2021-04-17T07:31:26.177</time></trkpt><trkpt lat="55.8296767" lon="48.9508217"><time>2021-04-17T07:31:28.177</time></trkpt><trkpt lat="55.8296250" lon="48.9508167"><time>2021-04-17T07:31:30.177</time></trkpt><trkpt lat="55.8295717" lon="48.9507933"><time>2021-04-17T07:31:32.177</time></trkpt><trkpt lat="55.8295183" lon="48.9507767"><time>2021-04-17T07:31:34.177</time></trkpt><trkpt lat="55.8294583" lon="48.9507767"><time>2021-04-17T07:31:37.177</time></trkpt><trkpt lat="55.8294067" lon="48.9507417"><time>2021-04-17T07:31:40.177</time></trkpt><trkpt lat="55.8293633" lon="48.9506883"><time>2021-04-17T07:31:44.177</time></trkpt><trkpt lat="55.8293267" lon="48.9506183"><time>2021-04-17T07:31:48.177</time></trkpt><trkpt lat="55.8292683" lon="48.9505833"><time>2021-04-17T07:31:51.177</time></trkpt><trkpt lat="55.8292250" lon="48.9505617"><time>2021-04-17T07:31:53.177</time></trkpt><trkpt lat="55.8291950" lon="48.9504917"><time>2021-04-17T07:31:57.177</time></trkpt><trkpt lat="55.8291600" lon="48.9504200"><time>2021-04-17T07:32:02.177</time></trkpt><trkpt lat="55.8291217" lon="48.9503583"><time>2021-04-17T07:32:06.177</time></trkpt><trkpt lat="55.8290783" lon="48.9502867"><time>2021-04-17T07:32:11.177</time></trkpt><trkpt lat="55.8290517" lon="48.9502200"><time>2021-04-17T07:32:14.177</time></trkpt><trkpt lat="55.8290033" lon="48.9501583"><time>2021-04-17T07:32:18.177</time></trkpt><trkpt lat="55.8289583" lon="48.9501150"><time>2021-04-17T07:32:22.173</time></trkpt><trkpt lat="55.8289067" lon="48.9500767"><time>2021-04-17T07:32:26.833</time></trkpt><trkpt lat="55.8288550" lon="48.9500300"><time>2021-04-17T07:32:30.193</time></trkpt><trkpt lat="55.8288383" lon="48.9499433"><time>2021-04-17T07:32:35.173</time></trkpt><trkpt lat="55.8287917" lon="48.9499200"><time>2021-04-17T07:32:37.173</time></trkpt><trkpt lat="55.8287450" lon="48.9499300"><time>2021-04-17T07:32:43.180</time></trkpt><trkpt lat="55.8287983" lon="48.9499283"><time>2021-04-17T07:32:46.170</time></trkpt><trkpt lat="55.8288683" lon="48.9498633"><time>2021-04-17T07:32:49.177</time></trkpt><trkpt lat="55.8289283" lon="48.9497483"><time>2021-04-17T07:32:50.173</time></trkpt><trkpt lat="55.8289633" lon="48.9498050"><time>2021-04-17T07:32:51.177</time></trkpt><trkpt lat="55.8288800" lon="48.9498167"><time>2021-04-17T07:33:02.173</time></trkpt><trkpt lat="55.8288417" lon="48.9498633"><time>2021-04-17T07:33:04.177</time></trkpt><trkpt lat="55.8287733" lon="48.9499167"><time>2021-04-17T07:33:06.177</time></trkpt><trkpt lat="55.8287183" lon="48.9498750"><time>2021-04-17T07:33:10.177</time></trkpt><trkpt lat="55.8286850" lon="48.9498033"><time>2021-04-17T07:33:13.177</time></trkpt><trkpt lat="55.8286317" lon="48.9497817"><time>2021-04-17T07:33:17.187</time></trkpt><trkpt lat="55.8286050" lon="48.9497167"><time>2021-04-17T07:33:20.177</time></trkpt><trkpt lat="55.8285750" lon="48.9496450"><time>2021-04-17T07:33:24.177</time></trkpt><trkpt lat="55.8285250" lon="48.9496083"><time>2021-04-17T07:33:37.177</time></trkpt><trkpt lat="55.8284683" lon="48.9496117"><time>2021-04-17T07:33:40.177</time></trkpt><trkpt lat="55.8284150" lon="48.9495883"><time>2021-04-17T07:33:43.177</time></trkpt><trkpt lat="55.8283733" lon="48.9496350"><time>2021-04-17T07:33:47.177</time></trkpt><trkpt lat="55.8283217" lon="48.9496417"><time>2021-04-17T07:33:53.177</time></trkpt><trkpt lat="55.8282817" lon="48.9496350"><time>2021-04-17T07:33:57.287</time></trkpt><trkpt lat="55.8282733" lon="48.9496333"><time>2021-04-17T07:33:58.173</time></trkpt><trkpt lat="55.8282283" lon="48.9496383"><time>2021-04-17T07:34:02.177</time></trkpt><trkpt lat="55.8281867" lon="48.9495917"><time>2021-04-17T07:34:07.170</time></trkpt><trkpt lat="55.8281700" lon="48.9495067"><time>2021-04-17T07:34:13.277</time></trkpt><trkpt lat="55.8281000" lon="48.9495950"><time>2021-04-17T07:34:14.177</time></trkpt><trkpt lat="55.8281617" lon="48.9495383"><time>2021-04-17T07:34:18.177</time></trkpt><trkpt lat="55.8281883" lon="48.9494717"><time>2021-04-17T07:34:23.177</time></trkpt><trkpt lat="55.8282367" lon="48.9494583"><time>2021-04-17T07:34:27.177</time></trkpt><trkpt lat="55.8282917" lon="48.9494783"><time>2021-04-17T07:34:29.177</time></trkpt><trkpt lat="55.8283533" lon="48.9495033"><time>2021-04-17T07:34:31.177</time></trkpt><trkpt lat="55.8283983" lon="48.9495017"><time>2021-04-17T07:34:33.177</time></trkpt><trkpt lat="55.8284383" lon="48.9494567"><time>2021-04-17T07:34:36.177</time></trkpt><trkpt lat="55.8284767" lon="48.9494083"><time>2021-04-17T07:34:40.177</time></trkpt><trkpt lat="55.8285033" lon="48.9493033"><time>2021-04-17T07:34:43.177</time></trkpt><trkpt lat="55.8285267" lon="48.9492117"><time>2021-04-17T07:34:47.177</time></trkpt><trkpt lat="55.8285517" lon="48.9491167"><time>2021-04-17T07:34:49.177</time></trkpt><trkpt lat="55.8285783" lon="48.9490433"><time>2021-04-17T07:34:51.177</time></trkpt><trkpt lat="55.8286000" lon="48.9489183"><time>2021-04-17T07:34:54.180</time></trkpt><trkpt lat="55.8286300" lon="48.9487900"><time>2021-04-17T07:34:56.177</time></trkpt><trkpt lat="55.8286567" lon="48.9486900"><time>2021-04-17T07:34:58.177</time></trkpt><trkpt lat="55.8286883" lon="48.9485800"><time>2021-04-17T07:35:01.177</time></trkpt><trkpt lat="55.8287083" lon="48.9484550"><time>2021-04-17T07:35:04.177</time></trkpt><trkpt lat="55.8287150" lon="48.9483383"><time>2021-04-17T07:35:07.177</time></trkpt><trkpt lat="55.8287283" lon="48.9482400"><time>2021-04-17T07:35:10.177</time></trkpt><trkpt lat="55.8287317" lon="48.9481200"><time>2021-04-17T07:35:13.177</time></trkpt><trkpt lat="55.8287467" lon="48.9480150"><time>2021-04-17T07:35:16.177</time></trkpt><trkpt lat="55.8287483" lon="48.9479233"><time>2021-04-17T07:35:19.173</time></trkpt><trkpt lat="55.8287550" lon="48.9477817"><time>2021-04-17T07:35:21.173</time></trkpt><trkpt lat="55.8287600" lon="48.9476483"><time>2021-04-17T07:35:23.173</time></trkpt><trkpt lat="55.8287617" lon="48.9475450"><time>2021-04-17T07:35:26.173</time></trkpt><trkpt lat="55.8287867" lon="48.9474400"><time>2021-04-17T07:35:29.177</time></trkpt><trkpt lat="55.8288283" lon="48.9473567"><time>2021-04-17T07:35:32.173</time></trkpt><trkpt lat="55.8288483" lon="48.9472467"><time>2021-04-17T07:35:36.177</time></trkpt><trkpt lat="55.8288717" lon="48.9471417"><time>2021-04-17T07:35:38.173</time></trkpt><trkpt lat="55.8288850" lon="48.9470517"><time>2021-04-17T07:35:40.173</time></trkpt><trkpt lat="55.8289183" lon="48.9469383"><time>2021-04-17T07:35:42.177</time></trkpt><trkpt lat="55.8289450" lon="48.9468350"><time>2021-04-17T07:35:44.173</time></trkpt><trkpt lat="55.8289783" lon="48.9467183"><time>2021-04-17T07:35:47.173</time></trkpt><trkpt lat="55.8289950" lon="48.9466133"><time>2021-04-17T07:35:50.193</time></trkpt><trkpt lat="55.8290200" lon="48.9465150"><time>2021-04-17T07:35:52.170</time></trkpt><trkpt lat="55.8290433" lon="48.9464200"><time>2021-04-17T07:35:54.180</time></trkpt><trkpt lat="55.8290667" lon="48.9463350"><time>2021-04-17T07:35:56.173</time></trkpt><trkpt lat="55.8290783" lon="48.9462400"><time>2021-04-17T07:35:59.183</time></trkpt><trkpt lat="55.8290867" lon="48.9461200"><time>2021-04-17T07:36:03.177</time></trkpt><trkpt lat="55.8291100" lon="48.9460400"><time>2021-04-17T07:36:05.180</time></trkpt><trkpt lat="55.8291183" lon="48.9459533"><time>2021-04-17T07:36:07.177</time></trkpt><trkpt lat="55.8291333" lon="48.9458667"><time>2021-04-17T07:36:09.187</time></trkpt><trkpt lat="55.8291550" lon="48.9457917"><time>2021-04-17T07:36:11.177</time></trkpt><trkpt lat="55.8291717" lon="48.9457117"><time>2021-04-17T07:36:13.177</time></trkpt><trkpt lat="55.8291917" lon="48.9456183"><time>2021-04-17T07:36:15.177</time></trkpt><trkpt lat="55.8292000" lon="48.9455133"><time>2021-04-17T07:36:18.177</time></trkpt><trkpt lat="55.8292100" lon="48.9454133"><time>2021-04-17T07:36:21.200</time></trkpt><trkpt lat="55.8292183" lon="48.9453250"><time>2021-04-17T07:36:24.180</time></trkpt><trkpt lat="55.8292400" lon="48.9452100"><time>2021-04-17T07:36:27.173</time></trkpt><trkpt lat="55.8292650" lon="48.9451200"><time>2021-04-17T07:36:29.187</time></trkpt><trkpt lat="55.8292650" lon="48.9450117"><time>2021-04-17T07:36:32.177</time></trkpt><trkpt lat="55.8292650" lon="48.9449033"><time>2021-04-17T07:36:35.177</time></trkpt><trkpt lat="55.8292833" lon="48.9448033"><time>2021-04-17T07:36:37.177</time></trkpt><trkpt lat="55.8292767" lon="48.9446800"><time>2021-04-17T07:36:40.173</time></trkpt><trkpt lat="55.8292950" lon="48.9445800"><time>2021-04-17T07:36:42.177</time></trkpt><trkpt lat="55.8293150" lon="48.9445083"><time>2021-04-17T07:36:44.177</time></trkpt><trkpt lat="55.8293283" lon="48.9444183"><time>2021-04-17T07:36:48.177</time></trkpt><trkpt lat="55.8293417" lon="48.9443350"><time>2021-04-17T07:36:50.177</time></trkpt><trkpt lat="55.8293617" lon="48.9442317"><time>2021-04-17T07:36:52.177</time></trkpt><trkpt lat="55.8293700" lon="48.9441483"><time>2021-04-17T07:36:54.180</time></trkpt><trkpt lat="55.8293817" lon="48.9440617"><time>2021-04-17T07:36:56.177</time></trkpt><trkpt lat="55.8294017" lon="48.9439467"><time>2021-04-17T07:36:59.177</time></trkpt><trkpt lat="55.8294167" lon="48.9438600"><time>2021-04-17T07:37:01.177</time></trkpt><trkpt lat="55.8294317" lon="48.9437683"><time>2021-04-17T07:37:03.177</time></trkpt><trkpt lat="55.8294283" lon="48.9436633"><time>2021-04-17T07:37:06.177</time></trkpt><trkpt lat="55.8294417" lon="48.9435533"><time>2021-04-17T07:37:09.177</time></trkpt><trkpt lat="55.8294483" lon="48.9434517"><time>2021-04-17T07:37:12.180</time></trkpt><trkpt lat="55.8294617" lon="48.9433583"><time>2021-04-17T07:37:15.177</time></trkpt><trkpt lat="55.8294900" lon="48.9432917"><time>2021-04-17T07:37:19.177</time></trkpt><trkpt lat="55.8295383" lon="48.9432950"><time>2021-04-17T07:37:28.177</time></trkpt><trkpt lat="55.8295750" lon="48.9432333"><time>2021-04-17T07:37:35.177</time></trkpt><trkpt lat="55.8295633" lon="48.9431467"><time>2021-04-17T07:37:38.177</time></trkpt><trkpt lat="55.8295617" lon="48.9430333"><time>2021-04-17T07:37:42.180</time></trkpt><trkpt lat="55.8295850" lon="48.9430217"><time>2021-04-17T07:38:01.037</time></trkpt><trkpt lat="55.8296117" lon="48.9430917"><time>2021-04-17T07:38:04.180</time></trkpt><trkpt lat="55.8295667" lon="48.9431083"><time>2021-04-17T07:38:15.177</time></trkpt><trkpt lat="55.8295200" lon="48.9430817"><time>2021-04-17T07:38:18.177</time></trkpt><trkpt lat="55.8294817" lon="48.9430333"><time>2021-04-17T07:38:24.347</time></trkpt><trkpt lat="55.8294350" lon="48.9430133"><time>2021-04-17T07:38:34.173</time></trkpt><trkpt lat="55.8293800" lon="48.9430050"><time>2021-04-17T07:38:41.177</time></trkpt><trkpt lat="55.8293367" lon="48.9429800"><time>2021-04-17T07:38:45.177</time></trkpt><trkpt lat="55.8292817" lon="48.9429383"><time>2021-04-17T07:38:50.177</time></trkpt><trkpt lat="55.8292350" lon="48.9428950"><time>2021-04-17T07:38:53.177</time></trkpt><trkpt lat="55.8291883" lon="48.9428733"><time>2021-04-17T07:38:55.177</time></trkpt><trkpt lat="55.8291467" lon="48.9427700"><time>2021-04-17T07:38:58.173</time></trkpt><trkpt lat="55.8291117" lon="48.9426967"><time>2021-04-17T07:39:00.177</time></trkpt><trkpt lat="55.8290600" lon="48.9426183"><time>2021-04-17T07:39:03.177</time></trkpt><trkpt lat="55.8290250" lon="48.9425483"><time>2021-04-17T07:39:05.173</time></trkpt><trkpt lat="55.8289967" lon="48.9424567"><time>2021-04-17T07:39:07.177</time></trkpt><trkpt lat="55.8289617" lon="48.9423900"><time>2021-04-17T07:39:10.177</time></trkpt><trkpt lat="55.8289233" lon="48.9423350"><time>2021-04-17T07:39:14.173</time></trkpt><trkpt lat="55.8288817" lon="48.9421600"><time>2021-04-17T07:39:27.177</time></trkpt><trkpt lat="55.8288267" lon="48.9421900"><time>2021-04-17T07:39:44.190</time></trkpt><trkpt lat="55.8287833" lon="48.9422183"><time>2021-04-17T07:39:48.177</time></trkpt><trkpt lat="55.8287267" lon="48.9422350"><time>2021-04-17T07:39:53.170</time></trkpt><trkpt lat="55.8286817" lon="48.9421317"><time>2021-04-17T07:40:18.177</time></trkpt><trkpt lat="55.8286983" lon="48.9420483"><time>2021-04-17T07:40:23.177</time></trkpt><trkpt lat="55.8286900" lon="48.9419617"><time>2021-04-17T07:40:26.177</time></trkpt><trkpt lat="55.8286667" lon="48.9418900"><time>2021-04-17T07:40:28.173</time></trkpt><trkpt lat="55.8286500" lon="48.9417817"><time>2021-04-17T07:40:31.177</time></trkpt><trkpt lat="55.8286367" lon="48.9416917"><time>2021-04-17T07:40:34.173</time></trkpt><trkpt lat="55.8286350" lon="48.9415783"><time>2021-04-17T07:40:37.177</time></trkpt><trkpt lat="55.8286417" lon="48.9414900"><time>2021-04-17T07:40:40.363</time></trkpt><trkpt lat="55.8286150" lon="48.9414200"><time>2021-04-17T07:40:43.173</time></trkpt><trkpt lat="55.8286067" lon="48.9413233"><time>2021-04-17T07:40:46.173</time></trkpt><trkpt lat="55.8285817" lon="48.9412233"><time>2021-04-17T07:40:49.177</time></trkpt><trkpt lat="55.8285583" lon="48.9411500"><time>2021-04-17T07:40:51.177</time></trkpt><trkpt lat="55.8285350" lon="48.9410483"><time>2021-04-17T07:40:54.177</time></trkpt><trkpt lat="55.8285150" lon="48.9409383"><time>2021-04-17T07:40:57.177</time></trkpt><trkpt lat="55.8285183" lon="48.9408450"><time>2021-04-17T07:40:59.177</time></trkpt><trkpt lat="55.8285333" lon="48.9407133"><time>2021-04-17T07:41:01.177</time></trkpt><trkpt lat="55.8285400" lon="48.9406100"><time>2021-04-17T07:41:03.177</time></trkpt><trkpt lat="55.8285417" lon="48.9405250"><time>2021-04-17T07:41:05.177</time></trkpt><trkpt lat="55.8285267" lon="48.9404250"><time>2021-04-17T07:41:08.177</time></trkpt><trkpt lat="55.8285100" lon="48.9403400"><time>2021-04-17T07:41:12.190</time></trkpt><trkpt lat="55.8284933" lon="48.9401900"><time>2021-04-17T07:41:22.177</time></trkpt><trkpt lat="55.8284567" lon="48.9401350"><time>2021-04-17T07:41:25.177</time></trkpt><trkpt lat="55.8284050" lon="48.9400450"><time>2021-04-17T07:41:29.177</time></trkpt><trkpt lat="55.8283667" lon="48.9399767"><time>2021-04-17T07:41:31.177</time></trkpt><trkpt lat="55.8283383" lon="48.9399083"><time>2021-04-17T07:41:33.177</time></trkpt><trkpt lat="55.8283117" lon="48.9398383"><time>2021-04-17T07:41:36.177</time></trkpt><trkpt lat="55.8282783" lon="48.9397617"><time>2021-04-17T07:41:40.177</time></trkpt><trkpt lat="55.8282550" lon="48.9396817"><time>2021-04-17T07:41:43.177</time></trkpt><trkpt lat="55.8282317" lon="48.9396033"><time>2021-04-17T07:41:46.177</time></trkpt><trkpt lat="55.8281983" lon="48.9394967"><time>2021-04-17T07:41:50.177</time></trkpt><trkpt lat="55.8281650" lon="48.9394133"><time>2021-04-17T07:41:53.177</time></trkpt><trkpt lat="55.8281283" lon="48.9393600"><time>2021-04-17T07:41:57.177</time></trkpt><trkpt lat="55.8281283" lon="48.9392650"><time>2021-04-17T07:42:00.177</time></trkpt><trkpt lat="55.8281417" lon="48.9391800"><time>2021-04-17T07:42:03.177</time></trkpt><trkpt lat="55.8281633" lon="48.9390900"><time>2021-04-17T07:42:06.177</time></trkpt><trkpt lat="55.8281683" lon="48.9389533"><time>2021-04-17T07:42:09.173</time></trkpt><trkpt lat="55.8281783" lon="48.9388700"><time>2021-04-17T07:42:11.173</time></trkpt><trkpt lat="55.8282067" lon="48.9387750"><time>2021-04-17T07:42:14.173</time></trkpt><trkpt lat="55.8282450" lon="48.9387000"><time>2021-04-17T07:42:16.173</time></trkpt><trkpt lat="55.8282783" lon="48.9386383"><time>2021-04-17T07:42:18.177</time></trkpt><trkpt lat="55.8283283" lon="48.9385883"><time>2021-04-17T07:42:20.177</time></trkpt><trkpt lat="55.8283733" lon="48.9385533"><time>2021-04-17T07:42:22.177</time></trkpt><trkpt lat="55.8284233" lon="48.9385217"><time>2021-04-17T07:42:25.177</time></trkpt><trkpt lat="55.8284700" lon="48.9384900"><time>2021-04-17T07:42:28.177</time></trkpt><trkpt lat="55.8285183" lon="48.9384517"><time>2021-04-17T07:42:31.177</time></trkpt><trkpt lat="55.8285650" lon="48.9383883"><time>2021-04-17T07:42:35.173</time></trkpt><trkpt lat="55.8285983" lon="48.9383300"><time>2021-04-17T07:42:38.183</time></trkpt><trkpt lat="55.8286417" lon="48.9382683"><time>2021-04-17T07:42:41.190</time></trkpt><trkpt lat="55.8286700" lon="48.9382383"><time>2021-04-17T07:42:44.017</time></trkpt><trkpt lat="55.8286833" lon="48.9382217"><time>2021-04-17T07:42:44.170</time></trkpt><trkpt lat="55.8287233" lon="48.9382967"><time>2021-04-17T07:42:51.177</time></trkpt><trkpt lat="55.8287067" lon="48.9383800"><time>2021-04-17T07:42:54.180</time></trkpt><trkpt lat="55.8286667" lon="48.9384333"><time>2021-04-17T07:42:57.177</time></trkpt><trkpt lat="55.8286267" lon="48.9384917"><time>2021-04-17T07:43:00.177</time></trkpt><trkpt lat="55.8285483" lon="48.9384650"><time>2021-04-17T07:43:22.177</time></trkpt><trkpt lat="55.8284967" lon="48.9384850"><time>2021-04-17T07:43:26.177</time></trkpt><trkpt lat="55.8284517" lon="48.9385117"><time>2021-04-17T07:43:29.173</time></trkpt><trkpt lat="55.8284017" lon="48.9385217"><time>2021-04-17T07:43:32.177</time></trkpt><trkpt lat="55.8283417" lon="48.9385233"><time>2021-04-17T07:43:35.173</time></trkpt><trkpt lat="55.8283000" lon="48.9385550"><time>2021-04-17T07:43:38.177</time></trkpt><trkpt lat="55.8282667" lon="48.9386467"><time>2021-04-17T07:43:42.177</time></trkpt><trkpt lat="55.8282300" lon="48.9387117"><time>2021-04-17T07:43:45.177</time></trkpt><trkpt lat="55.8281900" lon="48.9388017"><time>2021-04-17T07:43:48.180</time></trkpt><trkpt lat="55.8281533" lon="48.9388583"><time>2021-04-17T07:43:50.177</time></trkpt><trkpt lat="55.8280983" lon="48.9389283"><time>2021-04-17T07:43:53.173</time></trkpt><trkpt lat="55.8280450" lon="48.9389900"><time>2021-04-17T07:43:55.177</time></trkpt><trkpt lat="55.8279983" lon="48.9390500"><time>2021-04-17T07:43:57.177</time></trkpt><trkpt lat="55.8279467" lon="48.9391267"><time>2021-04-17T07:43:59.177</time></trkpt><trkpt lat="55.8279033" lon="48.9391867"><time>2021-04-17T07:44:01.173</time></trkpt><trkpt lat="55.8278683" lon="48.9392450"><time>2021-04-17T07:44:03.197</time></trkpt><trkpt lat="55.8278400" lon="48.9393100"><time>2021-04-17T07:44:05.177</time></trkpt><trkpt lat="55.8278267" lon="48.9394200"><time>2021-04-17T07:44:08.177</time></trkpt><trkpt lat="55.8278333" lon="48.9395067"><time>2021-04-17T07:44:11.177</time></trkpt><trkpt lat="55.8278317" lon="48.9395983"><time>2021-04-17T07:44:15.177</time></trkpt><trkpt lat="55.8277917" lon="48.9396583"><time>2021-04-17T07:44:20.177</time></trkpt><trkpt lat="55.8277550" lon="48.9397200"><time>2021-04-17T07:44:22.177</time></trkpt><trkpt lat="55.8277133" lon="48.9397617"><time>2021-04-17T07:44:25.173</time></trkpt><trkpt lat="55.8276717" lon="48.9398150"><time>2021-04-17T07:44:28.177</time></trkpt><trkpt lat="55.8276250" lon="48.9398300"><time>2021-04-17T07:44:31.177</time></trkpt><trkpt lat="55.8275650" lon="48.9398700"><time>2021-04-17T07:44:34.187</time></trkpt><trkpt lat="55.8275083" lon="48.9399200"><time>2021-04-17T07:44:36.177</time></trkpt><trkpt lat="55.8274467" lon="48.9399683"><time>2021-04-17T07:44:39.173</time></trkpt><trkpt lat="55.8273983" lon="48.9400350"><time>2021-04-17T07:44:41.177</time></trkpt><trkpt lat="55.8273500" lon="48.9401133"><time>2021-04-17T07:44:43.177</time></trkpt><trkpt lat="55.8273017" lon="48.9401733"><time>2021-04-17T07:44:45.173</time></trkpt><trkpt lat="55.8272517" lon="48.9402267"><time>2021-04-17T07:44:47.177</time></trkpt><trkpt lat="55.8271900" lon="48.9403067"><time>2021-04-17T07:44:49.177</time></trkpt><trkpt lat="55.8271233" lon="48.9403933"><time>2021-04-17T07:44:51.177</time></trkpt><trkpt lat="55.8270733" lon="48.9404650"><time>2021-04-17T07:44:53.177</time></trkpt><trkpt lat="55.8270117" lon="48.9405300"><time>2021-04-17T07:44:55.177</time></trkpt><trkpt lat="55.8269633" lon="48.9405817"><time>2021-04-17T07:44:57.177</time></trkpt><trkpt lat="55.8269067" lon="48.9406317"><time>2021-04-17T07:44:59.177</time></trkpt><trkpt lat="55.8268517" lon="48.9406617"><time>2021-04-17T07:45:01.173</time></trkpt><trkpt lat="55.8268033" lon="48.9406850"><time>2021-04-17T07:45:03.173</time></trkpt><trkpt lat="55.8267567" lon="48.9407033"><time>2021-04-17T07:45:05.177</time></trkpt><trkpt lat="55.8267117" lon="48.9407133"><time>2021-04-17T07:45:07.173</time></trkpt><trkpt lat="55.8266633" lon="48.9407233"><time>2021-04-17T07:45:09.177</time></trkpt><trkpt lat="55.8266067" lon="48.9407433"><time>2021-04-17T07:45:12.177</time></trkpt><trkpt lat="55.8265633" lon="48.9407683"><time>2021-04-17T07:45:15.177</time></trkpt><trkpt lat="55.8265083" lon="48.9407967"><time>2021-04-17T07:45:18.177</time></trkpt><trkpt lat="55.8264533" lon="48.9408483"><time>2021-04-17T07:45:21.173</time></trkpt><trkpt lat="55.8264017" lon="48.9408850"><time>2021-04-17T07:45:24.177</time></trkpt><trkpt lat="55.8263433" lon="48.9408900"><time>2021-04-17T07:45:27.177</time></trkpt><trkpt lat="55.8262783" lon="48.9408933"><time>2021-04-17T07:45:30.177</time></trkpt><trkpt lat="55.8262333" lon="48.9409017"><time>2021-04-17T07:45:33.200</time></trkpt><trkpt lat="55.8261850" lon="48.9409067"><time>2021-04-17T07:45:37.177</time></trkpt><trkpt lat="55.8261333" lon="48.9409200"><time>2021-04-17T07:45:39.177</time></trkpt><trkpt lat="55.8260750" lon="48.9409300"><time>2021-04-17T07:45:41.177</time></trkpt><trkpt lat="55.8260133" lon="48.9409450"><time>2021-04-17T07:45:44.173</time></trkpt><trkpt lat="55.8259600" lon="48.9409733"><time>2021-04-17T07:45:47.177</time></trkpt><trkpt lat="55.8259117" lon="48.9409867"><time>2021-04-17T07:45:49.177</time></trkpt><trkpt lat="55.8258433" lon="48.9410483"><time>2021-04-17T07:45:55.177</time></trkpt><trkpt lat="55.8258050" lon="48.9411033"><time>2021-04-17T07:45:58.177</time></trkpt><trkpt lat="55.8257583" lon="48.9411483"><time>2021-04-17T07:46:02.177</time></trkpt><trkpt lat="55.8257100" lon="48.9412017"><time>2021-04-17T07:46:06.177</time></trkpt><trkpt lat="55.8256217" lon="48.9412250"><time>2021-04-17T07:46:46.177</time></trkpt><trkpt lat="55.8255850" lon="48.9412833"><time>2021-04-17T07:46:50.173</time></trkpt><trkpt lat="55.8255400" lon="48.9413200"><time>2021-04-17T07:46:56.173</time></trkpt><trkpt lat="55.8254983" lon="48.9413583"><time>2021-04-17T07:46:58.180</time></trkpt><trkpt lat="55.8254367" lon="48.9414000"><time>2021-04-17T07:47:01.177</time></trkpt><trkpt lat="55.8253983" lon="48.9414550"><time>2021-04-17T07:47:04.173</time></trkpt><trkpt lat="55.8253633" lon="48.9415100"><time>2021-04-17T07:47:06.180</time></trkpt><trkpt lat="55.8253300" lon="48.9415750"><time>2021-04-17T07:47:10.177</time></trkpt><trkpt lat="55.8252833" lon="48.9416517"><time>2021-04-17T07:47:14.173</time></trkpt><trkpt lat="55.8252633" lon="48.9417267"><time>2021-04-17T07:47:18.173</time></trkpt><trkpt lat="55.8252483" lon="48.9418117"><time>2021-04-17T07:47:20.177</time></trkpt><trkpt lat="55.8252267" lon="48.9419000"><time>2021-04-17T07:47:23.183</time></trkpt><trkpt lat="55.8252000" lon="48.9419717"><time>2021-04-17T07:47:25.177</time></trkpt><trkpt lat="55.8251767" lon="48.9420400"><time>2021-04-17T07:47:27.177</time></trkpt><trkpt lat="55.8251383" lon="48.9421350"><time>2021-04-17T07:47:30.173</time></trkpt><trkpt lat="55.8250983" lon="48.9422000"><time>2021-04-17T07:47:32.177</time></trkpt><trkpt lat="55.8250433" lon="48.9422567"><time>2021-04-17T07:47:35.177</time></trkpt><trkpt lat="55.8250050" lon="48.9423133"><time>2021-04-17T07:47:39.177</time></trkpt><trkpt lat="55.8249633" lon="48.9423750"><time>2021-04-17T07:47:43.177</time></trkpt><trkpt lat="55.8249300" lon="48.9424717"><time>2021-04-17T07:47:46.177</time></trkpt><trkpt lat="55.8249333" lon="48.9425767"><time>2021-04-17T07:47:50.173</time></trkpt><trkpt lat="55.8249367" lon="48.9426867"><time>2021-04-17T07:47:53.177</time></trkpt><trkpt lat="55.8249017" lon="48.9427817"><time>2021-04-17T07:47:55.177</time></trkpt><trkpt lat="55.8248783" lon="48.9428600"><time>2021-04-17T07:47:59.177</time></trkpt><trkpt lat="55.8248317" lon="48.9428183"><time>2021-04-17T07:48:08.173</time></trkpt><trkpt lat="55.8247750" lon="48.9427983"><time>2021-04-17T07:48:12.180</time></trkpt><trkpt lat="55.8247083" lon="48.9427950"><time>2021-04-17T07:48:15.177</time></trkpt><trkpt lat="55.8246617" lon="48.9427817"><time>2021-04-17T07:48:17.177</time></trkpt><trkpt lat="55.8246117" lon="48.9427533"><time>2021-04-17T07:48:20.173</time></trkpt><trkpt lat="55.8245600" lon="48.9427517"><time>2021-04-17T07:48:22.177</time></trkpt><trkpt lat="55.8245133" lon="48.9427400"><time>2021-04-17T07:48:24.177</time></trkpt><trkpt lat="55.8244667" lon="48.9427000"><time>2021-04-17T07:48:27.177</time></trkpt><trkpt lat="55.8244083" lon="48.9426583"><time>2021-04-17T07:48:30.177</time></trkpt><trkpt lat="55.8243567" lon="48.9426033"><time>2021-04-17T07:48:33.177</time></trkpt><trkpt lat="55.8243150" lon="48.9425667"><time>2021-04-17T07:48:35.177</time></trkpt><trkpt lat="55.8242600" lon="48.9425283"><time>2021-04-17T07:48:37.193</time></trkpt><trkpt lat="55.8242117" lon="48.9424967"><time>2021-04-17T07:48:39.173</time></trkpt><trkpt lat="55.8241583" lon="48.9424517"><time>2021-04-17T07:48:42.180</time></trkpt><trkpt lat="55.8241000" lon="48.9423833"><time>2021-04-17T07:48:45.173</time></trkpt><trkpt lat="55.8240567" lon="48.9423450"><time>2021-04-17T07:48:49.173</time></trkpt><trkpt lat="55.8240233" lon="48.9422750"><time>2021-04-17T07:48:53.180</time></trkpt><trkpt lat="55.8240133" lon="48.9422350"><time>2021-04-17T07:48:54.187</time></trkpt><trkpt lat="55.8240000" lon="48.9421767"><time>2021-04-17T07:48:55.173</time></trkpt><trkpt lat="55.8239967" lon="48.9420867"><time>2021-04-17T07:48:57.177</time></trkpt><trkpt lat="55.8239167" lon="48.9420767"><time>2021-04-17T07:49:00.177</time></trkpt><trkpt lat="55.8238833" lon="48.9422167"><time>2021-04-17T07:49:01.177</time></trkpt><trkpt lat="55.8238167" lon="48.9422267"><time>2021-04-17T07:49:02.177</time></trkpt><trkpt lat="55.8237583" lon="48.9422317"><time>2021-04-17T07:49:04.173</time></trkpt><trkpt lat="55.8237033" lon="48.9422267"><time>2021-04-17T07:49:06.180</time></trkpt><trkpt lat="55.8236583" lon="48.9421850"><time>2021-04-17T07:49:12.177</time></trkpt><trkpt lat="55.8236033" lon="48.9421933"><time>2021-04-17T07:49:18.177</time></trkpt><trkpt lat="55.8235583" lon="48.9421550"><time>2021-04-17T07:49:24.177</time></trkpt><trkpt lat="55.8235100" lon="48.9421183"><time>2021-04-17T07:49:27.177</time></trkpt><trkpt lat="55.8234600" lon="48.9420717"><time>2021-04-17T07:49:30.177</time></trkpt><trkpt lat="55.8234117" lon="48.9420000"><time>2021-04-17T07:49:33.177</time></trkpt><trkpt lat="55.8233617" lon="48.9419267"><time>2021-04-17T07:49:36.177</time></trkpt><trkpt lat="55.8233233" lon="48.9418783"><time>2021-04-17T07:49:38.177</time></trkpt><trkpt lat="55.8232667" lon="48.9418383"><time>2021-04-17T07:49:41.177</time></trkpt><trkpt lat="55.8232050" lon="48.9417983"><time>2021-04-17T07:49:44.177</time></trkpt><trkpt lat="55.8231633" lon="48.9417600"><time>2021-04-17T07:49:46.177</time></trkpt><trkpt lat="55.8231050" lon="48.9417167"><time>2021-04-17T07:49:49.173</time></trkpt><trkpt lat="55.8230567" lon="48.9416600"><time>2021-04-17T07:49:52.173</time></trkpt><trkpt lat="55.8230083" lon="48.9416333"><time>2021-04-17T07:49:54.177</time></trkpt><trkpt lat="55.8229483" lon="48.9415967"><time>2021-04-17T07:49:57.177</time></trkpt><trkpt lat="55.8228950" lon="48.9415450"><time>2021-04-17T07:50:00.177</time></trkpt><trkpt lat="55.8228600" lon="48.9414950"><time>2021-04-17T07:50:02.177</time></trkpt><trkpt lat="55.8228167" lon="48.9414367"><time>2021-04-17T07:50:05.177</time></trkpt><trkpt lat="55.8227633" lon="48.9413883"><time>2021-04-17T07:50:08.177</time></trkpt><trkpt lat="55.8227217" lon="48.9413567"><time>2021-04-17T07:50:10.177</time></trkpt><trkpt lat="55.8226600" lon="48.9413067"><time>2021-04-17T07:50:13.173</time></trkpt><trkpt lat="55.8226217" lon="48.9412367"><time>2021-04-17T07:50:15.173</time></trkpt><trkpt lat="55.8225533" lon="48.9411833"><time>2021-04-17T07:50:18.177</time></trkpt><trkpt lat="55.8225150" lon="48.9411417"><time>2021-04-17T07:50:20.177</time></trkpt><trkpt lat="55.8224717" lon="48.9410767"><time>2021-04-17T07:50:22.177</time></trkpt><trkpt lat="55.8224300" lon="48.9410300"><time>2021-04-17T07:50:24.177</time></trkpt><trkpt lat="55.8223733" lon="48.9409733"><time>2021-04-17T07:50:27.177</time></trkpt><trkpt lat="55.8223300" lon="48.9409383"><time>2021-04-17T07:50:29.173</time></trkpt><trkpt lat="55.8222833" lon="48.9408967"><time>2021-04-17T07:50:31.177</time></trkpt><trkpt lat="55.8222350" lon="48.9408467"><time>2021-04-17T07:50:33.177</time></trkpt><trkpt lat="55.8221850" lon="48.9408017"><time>2021-04-17T07:50:35.177</time></trkpt><trkpt lat="55.8221433" lon="48.9407500"><time>2021-04-17T07:50:37.177</time></trkpt><trkpt lat="55.8220967" lon="48.9406883"><time>2021-04-17T07:50:39.177</time></trkpt><trkpt lat="55.8220550" lon="48.9406500"><time>2021-04-17T07:50:41.177</time></trkpt><trkpt lat="55.8220233" lon="48.9405900"><time>2021-04-17T07:50:43.177</time></trkpt><trkpt lat="55.8219900" lon="48.9405217"><time>2021-04-17T07:50:46.170</time></trkpt><trkpt lat="55.8219383" lon="48.9404417"><time>2021-04-17T07:50:49.177</time></trkpt><trkpt lat="55.8219000" lon="48.9404000"><time>2021-04-17T07:50:51.177</time></trkpt><trkpt lat="55.8218500" lon="48.9403100"><time>2021-04-17T07:51:02.177</time></trkpt><trkpt lat="55.8218117" lon="48.9402617"><time>2021-04-17T07:51:05.177</time></trkpt><trkpt lat="55.8217667" lon="48.9402317"><time>2021-04-17T07:51:08.177</time></trkpt><trkpt lat="55.8217200" lon="48.9401900"><time>2021-04-17T07:51:11.177</time></trkpt><trkpt lat="55.8216633" lon="48.9401417"><time>2021-04-17T07:51:14.177</time></trkpt><trkpt lat="55.8216250" lon="48.9400850"><time>2021-04-17T07:51:18.187</time></trkpt><trkpt lat="55.8215850" lon="48.9400350"><time>2021-04-17T07:51:21.177</time></trkpt><trkpt lat="55.8215433" lon="48.9400000"><time>2021-04-17T07:51:23.177</time></trkpt><trkpt lat="55.8215000" lon="48.9399150"><time>2021-04-17T07:51:25.177</time></trkpt><trkpt lat="55.8214450" lon="48.9398600"><time>2021-04-17T07:51:34.177</time></trkpt><trkpt lat="55.8214033" lon="48.9398250"><time>2021-04-17T07:51:37.177</time></trkpt><trkpt lat="55.8213583" lon="48.9397400"><time>2021-04-17T07:51:40.177</time></trkpt><trkpt lat="55.8213133" lon="48.9397033"><time>2021-04-17T07:51:42.203</time></trkpt><trkpt lat="55.8212583" lon="48.9396667"><time>2021-04-17T07:51:44.180</time></trkpt><trkpt lat="55.8212067" lon="48.9396233"><time>2021-04-17T07:51:46.177</time></trkpt><trkpt lat="55.8211600" lon="48.9395867"><time>2021-04-17T07:51:48.177</time></trkpt><trkpt lat="55.8211167" lon="48.9395633"><time>2021-04-17T07:51:50.177</time></trkpt><trkpt lat="55.8210583" lon="48.9395100"><time>2021-04-17T07:51:53.177</time></trkpt><trkpt lat="55.8210150" lon="48.9394467"><time>2021-04-17T07:51:56.177</time></trkpt><trkpt lat="55.8209550" lon="48.9393967"><time>2021-04-17T07:51:59.177</time></trkpt><trkpt lat="55.8209133" lon="48.9393667"><time>2021-04-17T07:52:01.180</time></trkpt><trkpt lat="55.8208717" lon="48.9393183"><time>2021-04-17T07:52:03.177</time></trkpt><trkpt lat="55.8208250" lon="48.9392700"><time>2021-04-17T07:52:05.177</time></trkpt><trkpt lat="55.8207733" lon="48.9392300"><time>2021-04-17T07:52:07.177</time></trkpt><trkpt lat="55.8207300" lon="48.9391850"><time>2021-04-17T07:52:09.180</time></trkpt><trkpt lat="55.8206850" lon="48.9391400"><time>2021-04-17T07:52:11.177</time></trkpt><trkpt lat="55.8206383" lon="48.9390883"><time>2021-04-17T07:52:13.177</time></trkpt><trkpt lat="55.8205917" lon="48.9390017"><time>2021-04-17T07:52:15.177</time></trkpt><trkpt lat="55.8205450" lon="48.9389350"><time>2021-04-17T07:52:19.180</time></trkpt><trkpt lat="55.8205000" lon="48.9388900"><time>2021-04-17T07:52:23.177</time></trkpt><trkpt lat="55.8204567" lon="48.9388483"><time>2021-04-17T07:52:26.177</time></trkpt><trkpt lat="55.8204000" lon="48.9388200"><time>2021-04-17T07:52:29.177</time></trkpt><trkpt lat="55.8203600" lon="48.9387800"><time>2021-04-17T07:52:31.203</time></trkpt><trkpt lat="55.8203117" lon="48.9387167"><time>2021-04-17T07:52:34.177</time></trkpt><trkpt lat="55.8202567" lon="48.9386500"><time>2021-04-17T07:52:37.177</time></trkpt><trkpt lat="55.8202217" lon="48.9385900"><time>2021-04-17T07:52:39.177</time></trkpt><trkpt lat="55.8201983" lon="48.9385183"><time>2021-04-17T07:52:41.177</time></trkpt><trkpt lat="55.8201633" lon="48.9384633"><time>2021-04-17T07:52:45.170</time></trkpt><trkpt lat="55.8201533" lon="48.9384600"><time>2021-04-17T07:52:47.887</time></trkpt><trkpt lat="55.8201150" lon="48.9384550"><time>2021-04-17T07:52:52.173</time></trkpt><trkpt lat="55.8200417" lon="48.9385067"><time>2021-04-17T07:52:55.180</time></trkpt><trkpt lat="55.8199783" lon="48.9384867"><time>2021-04-17T07:52:57.177</time></trkpt><trkpt lat="55.8199600" lon="48.9384083"><time>2021-04-17T07:53:00.177</time></trkpt><trkpt lat="55.8198967" lon="48.9383467"><time>2021-04-17T07:53:03.183</time></trkpt><trkpt lat="55.8198433" lon="48.9383117"><time>2021-04-17T07:53:05.173</time></trkpt><trkpt lat="55.8198117" lon="48.9382083"><time>2021-04-17T07:53:08.173</time></trkpt><trkpt lat="55.8197817" lon="48.9381217"><time>2021-04-17T07:53:10.177</time></trkpt><trkpt lat="55.8197217" lon="48.9380750"><time>2021-04-17T07:53:12.177</time></trkpt><trkpt lat="55.8196583" lon="48.9380300"><time>2021-04-17T07:53:14.177</time></trkpt><trkpt lat="55.8196800" lon="48.9381200"><time>2021-04-17T07:53:16.177</time></trkpt><trkpt lat="55.8197400" lon="48.9381317"><time>2021-04-17T07:53:18.180</time></trkpt><trkpt lat="55.8197850" lon="48.9380950"><time>2021-04-17T07:53:19.177</time></trkpt><trkpt lat="55.8198400" lon="48.9380533"><time>2021-04-17T07:53:20.177</time></trkpt><trkpt lat="55.8199033" lon="48.9379733"><time>2021-04-17T07:53:21.177</time></trkpt><trkpt lat="55.8199500" lon="48.9379133"><time>2021-04-17T07:53:22.177</time></trkpt><trkpt lat="55.8200700" lon="48.9377483"><time>2021-04-17T07:53:23.177</time></trkpt><trkpt lat="55.8201300" lon="48.9376917"><time>2021-04-17T07:53:24.177</time></trkpt><trkpt lat="55.8201917" lon="48.9376533"><time>2021-04-17T07:53:25.180</time></trkpt><trkpt lat="55.8202383" lon="48.9375933"><time>2021-04-17T07:53:26.177</time></trkpt><trkpt lat="55.8202967" lon="48.9375017"><time>2021-04-17T07:53:27.177</time></trkpt><trkpt lat="55.8203400" lon="48.9374383"><time>2021-04-17T07:53:28.177</time></trkpt><trkpt lat="55.8203850" lon="48.9374033"><time>2021-04-17T07:53:29.177</time></trkpt><trkpt lat="55.8204467" lon="48.9373333"><time>2021-04-17T07:53:31.177</time></trkpt><trkpt lat="55.8205067" lon="48.9372483"><time>2021-04-17T07:53:33.177</time></trkpt><trkpt lat="55.8205650" lon="48.9371633"><time>2021-04-17T07:53:35.203</time></trkpt><trkpt lat="55.8206333" lon="48.9371400"><time>2021-04-17T07:53:38.177</time></trkpt><trkpt lat="55.8206833" lon="48.9371250"><time>2021-04-17T07:53:40.173</time></trkpt><trkpt lat="55.8207350" lon="48.9371217"><time>2021-04-17T07:53:43.177</time></trkpt><trkpt lat="55.8207833" lon="48.9371000"><time>2021-04-17T07:53:46.177</time></trkpt><trkpt lat="55.8208517" lon="48.9370967"><time>2021-04-17T07:53:49.177</time></trkpt><trkpt lat="55.8209000" lon="48.9371200"><time>2021-04-17T07:53:53.177</time></trkpt><trkpt lat="55.8209367" lon="48.9370533"><time>2021-04-17T07:54:03.177</time></trkpt><trkpt lat="55.8209767" lon="48.9369633"><time>2021-04-17T07:54:07.177</time></trkpt><trkpt lat="55.8210133" lon="48.9369050"><time>2021-04-17T07:54:09.177</time></trkpt><trkpt lat="55.8210450" lon="48.9368467"><time>2021-04-17T07:54:11.177</time></trkpt><trkpt lat="55.8210750" lon="48.9367650"><time>2021-04-17T07:54:15.177</time></trkpt><trkpt lat="55.8211117" lon="48.9366933"><time>2021-04-17T07:54:18.177</time></trkpt><trkpt lat="55.8211517" lon="48.9366267"><time>2021-04-17T07:54:21.180</time></trkpt><trkpt lat="55.8211883" lon="48.9365750"><time>2021-04-17T07:54:23.177</time></trkpt><trkpt lat="55.8212267" lon="48.9365167"><time>2021-04-17T07:54:26.177</time></trkpt><trkpt lat="55.8212267" lon="48.9364233"><time>2021-04-17T07:54:34.197</time></trkpt><trkpt lat="55.8212417" lon="48.9363200"><time>2021-04-17T07:54:37.177</time></trkpt><trkpt lat="55.8212733" lon="48.9362367"><time>2021-04-17T07:54:40.177</time></trkpt><trkpt lat="55.8213067" lon="48.9361817"><time>2021-04-17T07:54:42.177</time></trkpt><trkpt lat="55.8213483" lon="48.9361267"><time>2021-04-17T07:54:46.013</time></trkpt><trkpt lat="55.8213767" lon="48.9360533"><time>2021-04-17T07:54:48.170</time></trkpt><trkpt lat="55.8213967" lon="48.9360067"><time>2021-04-17T07:54:51.113</time></trkpt><trkpt lat="55.8214083" lon="48.9359850"><time>2021-04-17T07:54:51.187</time></trkpt><trkpt lat="55.8214550" lon="48.9359367"><time>2021-04-17T07:54:53.193</time></trkpt><trkpt lat="55.8215100" lon="48.9359067"><time>2021-04-17T07:54:55.170</time></trkpt><trkpt lat="55.8215633" lon="48.9358767"><time>2021-04-17T07:54:58.177</time></trkpt><trkpt lat="55.8216083" lon="48.9358867"><time>2021-04-17T07:55:03.207</time></trkpt><trkpt lat="55.8216417" lon="48.9359433"><time>2021-04-17T07:55:12.190</time></trkpt><trkpt lat="55.8215817" lon="48.9358133"><time>2021-04-17T07:55:52.173</time></trkpt><trkpt lat="55.8215683" lon="48.9357333"><time>2021-04-17T07:56:04.180</time></trkpt><trkpt lat="55.8215417" lon="48.9356667"><time>2021-04-17T07:56:09.173</time></trkpt><trkpt lat="55.8215183" lon="48.9355883"><time>2021-04-17T07:56:12.177</time></trkpt><trkpt lat="55.8214950" lon="48.9355117"><time>2021-04-17T07:56:28.180</time></trkpt><trkpt lat="55.8214867" lon="48.9354233"><time>2021-04-17T07:56:33.177</time></trkpt><trkpt lat="55.8214967" lon="48.9353367"><time>2021-04-17T07:56:39.177</time></trkpt><trkpt lat="55.8215217" lon="48.9352633"><time>2021-04-17T07:56:49.170</time></trkpt><trkpt lat="55.8215583" lon="48.9352150"><time>2021-04-17T07:57:02.180</time></trkpt><trkpt lat="55.8215867" lon="48.9351333"><time>2021-04-17T07:57:06.177</time></trkpt><trkpt lat="55.8216200" lon="48.9350767"><time>2021-04-17T07:57:09.173</time></trkpt><trkpt lat="55.8216500" lon="48.9350167"><time>2021-04-17T07:57:19.173</time></trkpt><trkpt lat="55.8216667" lon="48.9349417"><time>2021-04-17T07:57:22.177</time></trkpt><trkpt lat="55.8216800" lon="48.9348483"><time>2021-04-17T07:57:25.213</time></trkpt><trkpt lat="55.8216967" lon="48.9347600"><time>2021-04-17T07:57:29.173</time></trkpt><trkpt lat="55.8217067" lon="48.9346800"><time>2021-04-17T07:57:34.173</time></trkpt><trkpt lat="55.8217217" lon="48.9345983"><time>2021-04-17T07:57:37.177</time></trkpt><trkpt lat="55.8217300" lon="48.9345067"><time>2021-04-17T07:57:40.177</time></trkpt><trkpt lat="55.8217317" lon="48.9344233"><time>2021-04-17T07:57:42.187</time></trkpt><trkpt lat="55.8217350" lon="48.9343300"><time>2021-04-17T07:57:45.177</time></trkpt><trkpt lat="55.8217517" lon="48.9342383"><time>2021-04-17T07:57:48.177</time></trkpt><trkpt lat="55.8217700" lon="48.9341433"><time>2021-04-17T07:57:52.180</time></trkpt><trkpt lat="55.8217917" lon="48.9340633"><time>2021-04-17T07:57:55.177</time></trkpt><trkpt lat="55.8217983" lon="48.9339717"><time>2021-04-17T07:57:59.173</time></trkpt><trkpt lat="55.8218183" lon="48.9338800"><time>2021-04-17T07:58:02.177</time></trkpt><trkpt lat="55.8218217" lon="48.9337983"><time>2021-04-17T07:58:06.177</time></trkpt><trkpt lat="55.8218317" lon="48.9337167"><time>2021-04-17T07:58:10.173</time></trkpt><trkpt lat="55.8218317" lon="48.9336183"><time>2021-04-17T07:58:13.177</time></trkpt><trkpt lat="55.8218350" lon="48.9335217"><time>2021-04-17T07:58:16.177</time></trkpt><trkpt lat="55.8218400" lon="48.9334167"><time>2021-04-17T07:58:19.203</time></trkpt><trkpt lat="55.8218483" lon="48.9332950"><time>2021-04-17T07:58:22.177</time></trkpt><trkpt lat="55.8218350" lon="48.9332100"><time>2021-04-17T07:58:24.177</time></trkpt><trkpt lat="55.8218317" lon="48.9330983"><time>2021-04-17T07:58:26.173</time></trkpt><trkpt lat="55.8218317" lon="48.9330000"><time>2021-04-17T07:58:28.177</time></trkpt><trkpt lat="55.8218750" lon="48.9329250"><time>2021-04-17T07:58:33.177</time></trkpt><trkpt lat="55.8218967" lon="48.9328333"><time>2021-04-17T07:58:36.177</time></trkpt><trkpt lat="55.8219117" lon="48.9327483"><time>2021-04-17T07:58:40.177</time></trkpt><trkpt lat="55.8219250" lon="48.9326650"><time>2021-04-17T07:58:43.177</time></trkpt><trkpt lat="55.8219300" lon="48.9325800"><time>2021-04-17T07:58:47.177</time></trkpt><trkpt lat="55.8219383" lon="48.9324867"><time>2021-04-17T07:58:51.177</time></trkpt><trkpt lat="55.8219100" lon="48.9324183"><time>2021-04-17T07:58:56.177</time></trkpt><trkpt lat="55.8219217" lon="48.9322700"><time>2021-04-17T07:59:14.177</time></trkpt><trkpt lat="55.8219400" lon="48.9321917"><time>2021-04-17T07:59:20.173</time></trkpt><trkpt lat="55.8219950" lon="48.9321717"><time>2021-04-17T07:59:27.173</time></trkpt><trkpt lat="55.8220267" lon="48.9322617"><time>2021-04-17T07:59:31.177</time></trkpt><trkpt lat="55.8220767" lon="48.9323133"><time>2021-04-17T07:59:34.173</time></trkpt><trkpt lat="55.8221283" lon="48.9322467"><time>2021-04-17T07:59:38.177</time></trkpt><trkpt lat="55.8221867" lon="48.9322283"><time>2021-04-17T07:59:40.177</time></trkpt><trkpt lat="55.8222267" lon="48.9321500"><time>2021-04-17T07:59:42.177</time></trkpt><trkpt lat="55.8222533" lon="48.9320767"><time>2021-04-17T07:59:44.173</time></trkpt><trkpt lat="55.8222933" lon="48.9319483"><time>2021-04-17T07:59:46.177</time></trkpt><trkpt lat="55.8223083" lon="48.9318600"><time>2021-04-17T07:59:48.180</time></trkpt><trkpt lat="55.8223050" lon="48.9317083"><time>2021-04-17T07:59:57.177</time></trkpt><trkpt lat="55.8223133" lon="48.9316117"><time>2021-04-17T08:00:14.177</time></trkpt><trkpt lat="55.8223267" lon="48.9315150"><time>2021-04-17T08:00:17.177</time></trkpt><trkpt lat="55.8223300" lon="48.9314067"><time>2021-04-17T08:00:20.173</time></trkpt><trkpt lat="55.8223233" lon="48.9313033"><time>2021-04-17T08:00:22.177</time></trkpt><trkpt lat="55.8223067" lon="48.9312033"><time>2021-04-17T08:00:24.177</time></trkpt><trkpt lat="55.8222900" lon="48.9311133"><time>2021-04-17T08:00:26.177</time></trkpt><trkpt lat="55.8222717" lon="48.9310250"><time>2021-04-17T08:00:28.177</time></trkpt><trkpt lat="55.8222583" lon="48.9309317"><time>2021-04-17T08:00:30.177</time></trkpt><trkpt lat="55.8222617" lon="48.9308267"><time>2021-04-17T08:00:32.177</time></trkpt><trkpt lat="55.8222650" lon="48.9307133"><time>2021-04-17T08:00:34.177</time></trkpt><trkpt lat="55.8222733" lon="48.9306000"><time>2021-04-17T08:00:36.180</time></trkpt><trkpt lat="55.8222983" lon="48.9304700"><time>2021-04-17T08:00:38.177</time></trkpt><trkpt lat="55.8223033" lon="48.9303900"><time>2021-04-17T08:00:41.177</time></trkpt><trkpt lat="55.8223067" lon="48.9302783"><time>2021-04-17T08:00:44.177</time></trkpt><trkpt lat="55.8223317" lon="48.9302083"><time>2021-04-17T08:00:47.177</time></trkpt><trkpt lat="55.8223633" lon="48.9301517"><time>2021-04-17T08:00:52.177</time></trkpt><trkpt lat="55.8224100" lon="48.9301317"><time>2021-04-17T08:00:55.177</time></trkpt><trkpt lat="55.8224633" lon="48.9301033"><time>2021-04-17T08:00:58.177</time></trkpt><trkpt lat="55.8225267" lon="48.9300750"><time>2021-04-17T08:01:01.203</time></trkpt><trkpt lat="55.8225683" lon="48.9300433"><time>2021-04-17T08:01:03.177</time></trkpt><trkpt lat="55.8226083" lon="48.9299983"><time>2021-04-17T08:01:05.177</time></trkpt><trkpt lat="55.8226567" lon="48.9299200"><time>2021-04-17T08:01:08.177</time></trkpt><trkpt lat="55.8226867" lon="48.9298550"><time>2021-04-17T08:01:10.177</time></trkpt><trkpt lat="55.8227300" lon="48.9297800"><time>2021-04-17T08:01:13.177</time></trkpt><trkpt lat="55.8227700" lon="48.9297350"><time>2021-04-17T08:01:16.177</time></trkpt><trkpt lat="55.8228100" lon="48.9296617"><time>2021-04-17T08:01:20.177</time></trkpt><trkpt lat="55.8228383" lon="48.9295867"><time>2021-04-17T08:01:22.177</time></trkpt><trkpt lat="55.8228783" lon="48.9295483"><time>2021-04-17T08:01:24.180</time></trkpt><trkpt lat="55.8229250" lon="48.9295100"><time>2021-04-17T08:01:27.177</time></trkpt><trkpt lat="55.8229717" lon="48.9294817"><time>2021-04-17T08:01:30.180</time></trkpt><trkpt lat="55.8230233" lon="48.9294383"><time>2021-04-17T08:01:34.177</time></trkpt><trkpt lat="55.8230683" lon="48.9294300"><time>2021-04-17T08:01:46.177</time></trkpt><trkpt lat="55.8231200" lon="48.9294117"><time>2021-04-17T08:01:49.177</time></trkpt><trkpt lat="55.8231617" lon="48.9293733"><time>2021-04-17T08:01:51.177</time></trkpt><trkpt lat="55.8231983" lon="48.9293083"><time>2021-04-17T08:01:53.177</time></trkpt><trkpt lat="55.8232500" lon="48.9292450"><time>2021-04-17T08:01:56.177</time></trkpt><trkpt lat="55.8233083" lon="48.9292133"><time>2021-04-17T08:01:58.177</time></trkpt><trkpt lat="55.8233550" lon="48.9291900"><time>2021-04-17T08:02:01.177</time></trkpt><trkpt lat="55.8234067" lon="48.9291783"><time>2021-04-17T08:02:05.197</time></trkpt><trkpt lat="55.8234600" lon="48.9291800"><time>2021-04-17T08:02:08.177</time></trkpt><trkpt lat="55.8235150" lon="48.9291450"><time>2021-04-17T08:02:11.177</time></trkpt><trkpt lat="55.8235667" lon="48.9291117"><time>2021-04-17T08:02:15.180</time></trkpt><trkpt lat="55.8236133" lon="48.9290933"><time>2021-04-17T08:02:19.177</time></trkpt><trkpt lat="55.8236717" lon="48.9291100"><time>2021-04-17T08:02:23.177</time></trkpt><trkpt lat="55.8236867" lon="48.9291133"><time>2021-04-17T08:02:29.507</time></trkpt><trkpt lat="55.8236983" lon="48.9291783"><time>2021-04-17T08:02:40.177</time></trkpt><trkpt lat="55.8237167" lon="48.9290917"><time>2021-04-17T08:02:51.177</time></trkpt><trkpt lat="55.8237100" lon="48.9289983"><time>2021-04-17T08:02:56.173</time></trkpt><trkpt lat="55.8237533" lon="48.9289683"><time>2021-04-17T08:03:03.173</time></trkpt><trkpt lat="55.8238317" lon="48.9289350"><time>2021-04-17T08:03:06.177</time></trkpt><trkpt lat="55.8238400" lon="48.9288500"><time>2021-04-17T08:03:08.177</time></trkpt><trkpt lat="55.8238733" lon="48.9287950"><time>2021-04-17T08:03:09.177</time></trkpt><trkpt lat="55.8238883" lon="48.9287150"><time>2021-04-17T08:03:11.177</time></trkpt><trkpt lat="55.8239167" lon="48.9286233"><time>2021-04-17T08:03:13.177</time></trkpt><trkpt lat="55.8239467" lon="48.9285600"><time>2021-04-17T08:03:14.177</time></trkpt><trkpt lat="55.8240100" lon="48.9284183"><time>2021-04-17T08:03:16.177</time></trkpt><trkpt lat="55.8240617" lon="48.9283350"><time>2021-04-17T08:03:17.177</time></trkpt><trkpt lat="55.8241183" lon="48.9282950"><time>2021-04-17T08:03:19.177</time></trkpt><trkpt lat="55.8241767" lon="48.9283017"><time>2021-04-17T08:03:21.177</time></trkpt><trkpt lat="55.8242283" lon="48.9283650"><time>2021-04-17T08:03:23.177</time></trkpt><trkpt lat="55.8242717" lon="48.9284150"><time>2021-04-17T08:03:26.177</time></trkpt><trkpt lat="55.8243300" lon="48.9284267"><time>2021-04-17T08:03:29.177</time></trkpt><trkpt lat="55.8243750" lon="48.9284233"><time>2021-04-17T08:03:31.177</time></trkpt><trkpt lat="55.8244200" lon="48.9284450"><time>2021-04-17T08:03:33.177</time></trkpt><trkpt lat="55.8244700" lon="48.9284733"><time>2021-04-17T08:03:35.177</time></trkpt><trkpt lat="55.8245250" lon="48.9285100"><time>2021-04-17T08:03:37.177</time></trkpt><trkpt lat="55.8245683" lon="48.9285417"><time>2021-04-17T08:03:39.177</time></trkpt><trkpt lat="55.8246183" lon="48.9285733"><time>2021-04-17T08:03:41.177</time></trkpt><trkpt lat="55.8246817" lon="48.9286117"><time>2021-04-17T08:03:43.177</time></trkpt><trkpt lat="55.8247567" lon="48.9286467"><time>2021-04-17T08:03:45.177</time></trkpt><trkpt lat="55.8248350" lon="48.9286567"><time>2021-04-17T08:03:47.177</time></trkpt><trkpt lat="55.8249050" lon="48.9286600"><time>2021-04-17T08:03:49.177</time></trkpt><trkpt lat="55.8249650" lon="48.9286717"><time>2021-04-17T08:03:51.177</time></trkpt><trkpt lat="55.8250233" lon="48.9286667"><time>2021-04-17T08:03:53.177</time></trkpt><trkpt lat="55.8250700" lon="48.9286933"><time>2021-04-17T08:03:55.177</time></trkpt><trkpt lat="55.8251133" lon="48.9287233"><time>2021-04-17T08:03:57.177</time></trkpt><trkpt lat="55.8251600" lon="48.9287817"><time>2021-04-17T08:04:00.177</time></trkpt><trkpt lat="55.8252200" lon="48.9288217"><time>2021-04-17T08:04:03.177</time></trkpt><trkpt lat="55.8252867" lon="48.9288250"><time>2021-04-17T08:04:06.180</time></trkpt><trkpt lat="55.8253383" lon="48.9288333"><time>2021-04-17T08:04:08.177</time></trkpt><trkpt lat="55.8253850" lon="48.9288400"><time>2021-04-17T08:04:10.177</time></trkpt><trkpt lat="55.8254433" lon="48.9288533"><time>2021-04-17T08:04:12.180</time></trkpt><trkpt lat="55.8254950" lon="48.9288517"><time>2021-04-17T08:04:14.177</time></trkpt><trkpt lat="55.8255517" lon="48.9288717"><time>2021-04-17T08:04:16.177</time></trkpt><trkpt lat="55.8256150" lon="48.9288567"><time>2021-04-17T08:04:18.180</time></trkpt><trkpt lat="55.8256533" lon="48.9287900"><time>2021-04-17T08:04:21.177</time></trkpt><trkpt lat="55.8256917" lon="48.9287167"><time>2021-04-17T08:04:24.177</time></trkpt><trkpt lat="55.8257300" lon="48.9286600"><time>2021-04-17T08:04:26.187</time></trkpt><trkpt lat="55.8257883" lon="48.9286150"><time>2021-04-17T08:04:29.177</time></trkpt><trkpt lat="55.8258367" lon="48.9286333"><time>2021-04-17T08:04:32.177</time></trkpt><trkpt lat="55.8258967" lon="48.9286717"><time>2021-04-17T08:04:38.177</time></trkpt><trkpt lat="55.8259433" lon="48.9287417"><time>2021-04-17T08:04:42.177</time></trkpt><trkpt lat="55.8259683" lon="48.9288117"><time>2021-04-17T08:04:45.180</time></trkpt><trkpt lat="55.8260050" lon="48.9288883"><time>2021-04-17T08:04:48.177</time></trkpt><trkpt lat="55.8260583" lon="48.9289383"><time>2021-04-17T08:04:51.177</time></trkpt><trkpt lat="55.8261050" lon="48.9289817"><time>2021-04-17T08:04:53.177</time></trkpt><trkpt lat="55.8261500" lon="48.9290333"><time>2021-04-17T08:04:55.177</time></trkpt><trkpt lat="55.8261950" lon="48.9290650"><time>2021-04-17T08:04:58.177</time></trkpt><trkpt lat="55.8262467" lon="48.9290950"><time>2021-04-17T08:05:02.177</time></trkpt><trkpt lat="55.8263200" lon="48.9291317"><time>2021-04-17T08:05:05.177</time></trkpt><trkpt lat="55.8263717" lon="48.9291717"><time>2021-04-17T08:05:07.177</time></trkpt><trkpt lat="55.8264267" lon="48.9292167"><time>2021-04-17T08:05:09.177</time></trkpt><trkpt lat="55.8264733" lon="48.9292567"><time>2021-04-17T08:05:11.180</time></trkpt><trkpt lat="55.8265317" lon="48.9293033"><time>2021-04-17T08:05:13.180</time></trkpt><trkpt lat="55.8265800" lon="48.9293367"><time>2021-04-17T08:05:15.177</time></trkpt><trkpt lat="55.8266250" lon="48.9293917"><time>2021-04-17T08:05:17.177</time></trkpt><trkpt lat="55.8266550" lon="48.9294583"><time>2021-04-17T08:05:19.180</time></trkpt><trkpt lat="55.8266733" lon="48.9295367"><time>2021-04-17T08:05:25.183</time></trkpt><trkpt lat="55.8266683" lon="48.9295567"><time>2021-04-17T08:05:27.187</time></trkpt><trkpt lat="55.8267483" lon="48.9295483"><time>2021-04-17T08:05:30.187</time></trkpt><trkpt lat="55.8268050" lon="48.9295167"><time>2021-04-17T08:05:34.177</time></trkpt><trkpt lat="55.8268483" lon="48.9294767"><time>2021-04-17T08:05:37.180</time></trkpt><trkpt lat="55.8268150" lon="48.9293933"><time>2021-04-17T08:05:43.177</time></trkpt><trkpt lat="55.8267367" lon="48.9293733"><time>2021-04-17T08:05:54.177</time></trkpt><trkpt lat="55.8266900" lon="48.9293467"><time>2021-04-17T08:06:00.177</time></trkpt><trkpt lat="55.8267117" lon="48.9292683"><time>2021-04-17T08:06:10.177</time></trkpt><trkpt lat="55.8267533" lon="48.9291900"><time>2021-04-17T08:06:14.177</time></trkpt><trkpt lat="55.8267717" lon="48.9290933"><time>2021-04-17T08:06:17.177</time></trkpt><trkpt lat="55.8267717" lon="48.9290083"><time>2021-04-17T08:06:20.177</time></trkpt><trkpt lat="55.8267800" lon="48.9289117"><time>2021-04-17T08:06:24.177</time></trkpt><trkpt lat="55.8267917" lon="48.9288217"><time>2021-04-17T08:06:28.177</time></trkpt><trkpt lat="55.8268167" lon="48.9287533"><time>2021-04-17T08:06:31.177</time></trkpt><trkpt lat="55.8268350" lon="48.9286550"><time>2021-04-17T08:06:34.177</time></trkpt><trkpt lat="55.8268450" lon="48.9285750"><time>2021-04-17T08:06:36.177</time></trkpt><trkpt lat="55.8268600" lon="48.9284800"><time>2021-04-17T08:06:39.177</time></trkpt><trkpt lat="55.8268783" lon="48.9283883"><time>2021-04-17T08:06:42.180</time></trkpt><trkpt lat="55.8268750" lon="48.9283067"><time>2021-04-17T08:06:45.177</time></trkpt><trkpt lat="55.8268583" lon="48.9282150"><time>2021-04-17T08:06:49.177</time></trkpt><trkpt lat="55.8268567" lon="48.9281317"><time>2021-04-17T08:06:53.207</time></trkpt><trkpt lat="55.8268450" lon="48.9280183"><time>2021-04-17T08:06:56.177</time></trkpt><trkpt lat="55.8268467" lon="48.9278967"><time>2021-04-17T08:06:59.177</time></trkpt><trkpt lat="55.8268517" lon="48.9278100"><time>2021-04-17T08:07:01.177</time></trkpt><trkpt lat="55.8268700" lon="48.9277233"><time>2021-04-17T08:07:03.177</time></trkpt><trkpt lat="55.8268850" lon="48.9276400"><time>2021-04-17T08:07:05.177</time></trkpt><trkpt lat="55.8268983" lon="48.9275517"><time>2021-04-17T08:07:07.177</time></trkpt><trkpt lat="55.8269067" lon="48.9274717"><time>2021-04-17T08:07:10.177</time></trkpt><trkpt lat="55.8268900" lon="48.9273717"><time>2021-04-17T08:07:13.177</time></trkpt><trkpt lat="55.8268783" lon="48.9272617"><time>2021-04-17T08:07:16.177</time></trkpt><trkpt lat="55.8268733" lon="48.9271733"><time>2021-04-17T08:07:18.177</time></trkpt><trkpt lat="55.8268650" lon="48.9270683"><time>2021-04-17T08:07:20.177</time></trkpt><trkpt lat="55.8268567" lon="48.9269717"><time>2021-04-17T08:07:23.177</time></trkpt><trkpt lat="55.8268433" lon="48.9268883"><time>2021-04-17T08:07:25.177</time></trkpt><trkpt lat="55.8268200" lon="48.9267967"><time>2021-04-17T08:07:27.177</time></trkpt><trkpt lat="55.8268033" lon="48.9267050"><time>2021-04-17T08:07:29.177</time></trkpt><trkpt lat="55.8267833" lon="48.9266300"><time>2021-04-17T08:07:31.177</time></trkpt><trkpt lat="55.8267617" lon="48.9265550"><time>2021-04-17T08:07:33.177</time></trkpt><trkpt lat="55.8267600" lon="48.9264650"><time>2021-04-17T08:07:35.177</time></trkpt><trkpt lat="55.8267717" lon="48.9263867"><time>2021-04-17T08:07:37.177</time></trkpt><trkpt lat="55.8267883" lon="48.9262950"><time>2021-04-17T08:07:39.177</time></trkpt><trkpt lat="55.8267567" lon="48.9262067"><time>2021-04-17T08:07:42.177</time></trkpt><trkpt lat="55.8267283" lon="48.9261267"><time>2021-04-17T08:07:45.177</time></trkpt><trkpt lat="55.8266867" lon="48.9260467"><time>2021-04-17T08:07:48.187</time></trkpt><trkpt lat="55.8266600" lon="48.9259767"><time>2021-04-17T08:07:50.177</time></trkpt><trkpt lat="55.8266333" lon="48.9259100"><time>2021-04-17T08:07:52.177</time></trkpt><trkpt lat="55.8265983" lon="48.9258567"><time>2021-04-17T08:07:55.177</time></trkpt><trkpt lat="55.8265850" lon="48.9257483"><time>2021-04-17T08:07:58.177</time></trkpt><trkpt lat="55.8265683" lon="48.9256600"><time>2021-04-17T08:08:02.177</time></trkpt><trkpt lat="55.8265500" lon="48.9255783"><time>2021-04-17T08:08:06.177</time></trkpt><trkpt lat="55.8265583" lon="48.9254517"><time>2021-04-17T08:08:10.177</time></trkpt><trkpt lat="55.8265667" lon="48.9253683"><time>2021-04-17T08:08:12.177</time></trkpt><trkpt lat="55.8265750" lon="48.9252617"><time>2021-04-17T08:08:15.177</time></trkpt><trkpt lat="55.8265767" lon="48.9251800"><time>2021-04-17T08:08:18.177</time></trkpt><trkpt lat="55.8265733" lon="48.9250867"><time>2021-04-17T08:08:21.177</time></trkpt><trkpt lat="55.8265833" lon="48.9249767"><time>2021-04-17T08:08:24.177</time></trkpt><trkpt lat="55.8265967" lon="48.9248717"><time>2021-04-17T08:08:27.180</time></trkpt><trkpt lat="55.8265867" lon="48.9247717"><time>2021-04-17T08:08:30.180</time></trkpt><trkpt lat="55.8266000" lon="48.9246883"><time>2021-04-17T08:08:32.177</time></trkpt><trkpt lat="55.8266183" lon="48.9246067"><time>2021-04-17T08:08:35.173</time></trkpt><trkpt lat="55.8266367" lon="48.9245150"><time>2021-04-17T08:08:38.177</time></trkpt><trkpt lat="55.8266567" lon="48.9244233"><time>2021-04-17T08:08:40.177</time></trkpt><trkpt lat="55.8266633" lon="48.9243150"><time>2021-04-17T08:08:42.177</time></trkpt><trkpt lat="55.8266783" lon="48.9242150"><time>2021-04-17T08:08:44.177</time></trkpt><trkpt lat="55.8266817" lon="48.9241267"><time>2021-04-17T08:08:46.177</time></trkpt><trkpt lat="55.8267133" lon="48.9240567"><time>2021-04-17T08:08:48.177</time></trkpt><trkpt lat="55.8267350" lon="48.9239383"><time>2021-04-17T08:08:51.173</time></trkpt><trkpt lat="55.8267533" lon="48.9238650"><time>2021-04-17T08:08:53.177</time></trkpt><trkpt lat="55.8267550" lon="48.9237633"><time>2021-04-17T08:08:56.173</time></trkpt><trkpt lat="55.8267583" lon="48.9236767"><time>2021-04-17T08:08:58.177</time></trkpt><trkpt lat="55.8267767" lon="48.9235667"><time>2021-04-17T08:09:01.177</time></trkpt><trkpt lat="55.8267983" lon="48.9234667"><time>2021-04-17T08:09:04.177</time></trkpt><trkpt lat="55.8268100" lon="48.9233450"><time>2021-04-17T08:09:07.177</time></trkpt><trkpt lat="55.8268417" lon="48.9232533"><time>2021-04-17T08:09:11.177</time></trkpt><trkpt lat="55.8268733" lon="48.9231817"><time>2021-04-17T08:09:14.177</time></trkpt><trkpt lat="55.8268950" lon="48.9230933"><time>2021-04-17T08:09:18.180</time></trkpt><trkpt lat="55.8269083" lon="48.9230083"><time>2021-04-17T08:09:22.177</time></trkpt><trkpt lat="55.8269150" lon="48.9229000"><time>2021-04-17T08:09:37.177</time></trkpt><trkpt lat="55.8269067" lon="48.9228167"><time>2021-04-17T08:09:41.177</time></trkpt><trkpt lat="55.8268883" lon="48.9227167"><time>2021-04-17T08:09:44.177</time></trkpt><trkpt lat="55.8268617" lon="48.9226283"><time>2021-04-17T08:09:47.177</time></trkpt><trkpt lat="55.8268233" lon="48.9225267"><time>2021-04-17T08:09:50.177</time></trkpt><trkpt lat="55.8267900" lon="48.9224383"><time>2021-04-17T08:09:53.177</time></trkpt><trkpt lat="55.8267550" lon="48.9223617"><time>2021-04-17T08:09:56.177</time></trkpt><trkpt lat="55.8267400" lon="48.9222733"><time>2021-04-17T08:09:59.177</time></trkpt><trkpt lat="55.8267267" lon="48.9221617"><time>2021-04-17T08:10:02.177</time></trkpt><trkpt lat="55.8267517" lon="48.9220650"><time>2021-04-17T08:10:05.177</time></trkpt><trkpt lat="55.8267633" lon="48.9219467"><time>2021-04-17T08:10:08.177</time></trkpt><trkpt lat="55.8267600" lon="48.9218533"><time>2021-04-17T08:10:10.173</time></trkpt><trkpt lat="55.8267433" lon="48.9217683"><time>2021-04-17T08:10:12.180</time></trkpt><trkpt lat="55.8267200" lon="48.9216850"><time>2021-04-17T08:10:14.177</time></trkpt><trkpt lat="55.8266883" lon="48.9215950"><time>2021-04-17T08:10:16.177</time></trkpt><trkpt lat="55.8266733" lon="48.9215050"><time>2021-04-17T08:10:18.177</time></trkpt><trkpt lat="55.8266500" lon="48.9214183"><time>2021-04-17T08:10:20.177</time></trkpt><trkpt lat="55.8266117" lon="48.9213167"><time>2021-04-17T08:10:22.177</time></trkpt><trkpt lat="55.8265800" lon="48.9212017"><time>2021-04-17T08:10:24.177</time></trkpt><trkpt lat="55.8265450" lon="48.9210950"><time>2021-04-17T08:10:26.177</time></trkpt><trkpt lat="55.8265083" lon="48.9209967"><time>2021-04-17T08:10:28.180</time></trkpt><trkpt lat="55.8264783" lon="48.9209217"><time>2021-04-17T08:10:30.180</time></trkpt><trkpt lat="55.8264450" lon="48.9208367"><time>2021-04-17T08:10:32.177</time></trkpt><trkpt lat="55.8264167" lon="48.9207550"><time>2021-04-17T08:10:34.180</time></trkpt><trkpt lat="55.8263833" lon="48.9206900"><time>2021-04-17T08:10:36.177</time></trkpt><trkpt lat="55.8263367" lon="48.9206233"><time>2021-04-17T08:10:38.177</time></trkpt><trkpt lat="55.8263050" lon="48.9205550"><time>2021-04-17T08:10:40.177</time></trkpt><trkpt lat="55.8262767" lon="48.9204717"><time>2021-04-17T08:10:42.177</time></trkpt><trkpt lat="55.8262500" lon="48.9203850"><time>2021-04-17T08:10:44.177</time></trkpt><trkpt lat="55.8262100" lon="48.9202767"><time>2021-04-17T08:10:57.177</time></trkpt><trkpt lat="55.8262167" lon="48.9201883"><time>2021-04-17T08:10:59.177</time></trkpt><trkpt lat="55.8262217" lon="48.9200733"><time>2021-04-17T08:11:02.177</time></trkpt><trkpt lat="55.8262200" lon="48.9199917"><time>2021-04-17T08:11:04.177</time></trkpt><trkpt lat="55.8262117" lon="48.9199117"><time>2021-04-17T08:11:06.180</time></trkpt><trkpt lat="55.8262033" lon="48.9198133"><time>2021-04-17T08:11:08.177</time></trkpt><trkpt lat="55.8261983" lon="48.9197150"><time>2021-04-17T08:11:10.187</time></trkpt><trkpt lat="55.8261867" lon="48.9196267"><time>2021-04-17T08:11:12.183</time></trkpt><trkpt lat="55.8261767" lon="48.9195317"><time>2021-04-17T08:11:14.177</time></trkpt><trkpt lat="55.8261750" lon="48.9194317"><time>2021-04-17T08:11:16.177</time></trkpt><trkpt lat="55.8261733" lon="48.9193417"><time>2021-04-17T08:11:18.177</time></trkpt><trkpt lat="55.8261667" lon="48.9192600"><time>2021-04-17T08:11:21.207</time></trkpt><trkpt lat="55.8261283" lon="48.9191817"><time>2021-04-17T08:12:02.177</time></trkpt><trkpt lat="55.8261400" lon="48.9190783"><time>2021-04-17T08:12:05.177</time></trkpt><trkpt lat="55.8261433" lon="48.9189667"><time>2021-04-17T08:12:08.177</time></trkpt><trkpt lat="55.8261600" lon="48.9188733"><time>2021-04-17T08:12:12.180</time></trkpt><trkpt lat="55.8261517" lon="48.9187533"><time>2021-04-17T08:12:15.177</time></trkpt><trkpt lat="55.8261400" lon="48.9186483"><time>2021-04-17T08:12:17.177</time></trkpt><trkpt lat="55.8261367" lon="48.9185217"><time>2021-04-17T08:12:19.177</time></trkpt><trkpt lat="55.8261367" lon="48.9184033"><time>2021-04-17T08:12:21.177</time></trkpt><trkpt lat="55.8261367" lon="48.9182950"><time>2021-04-17T08:12:23.177</time></trkpt><trkpt lat="55.8261050" lon="48.9181700"><time>2021-04-17T08:12:25.180</time></trkpt><trkpt lat="55.8260567" lon="48.9181150"><time>2021-04-17T08:12:27.177</time></trkpt><trkpt lat="55.8260033" lon="48.9180650"><time>2021-04-17T08:12:29.177</time></trkpt><trkpt lat="55.8259500" lon="48.9180217"><time>2021-04-17T08:12:31.177</time></trkpt><trkpt lat="55.8258983" lon="48.9179983"><time>2021-04-17T08:12:33.177</time></trkpt><trkpt lat="55.8258417" lon="48.9179667"><time>2021-04-17T08:12:35.177</time></trkpt><trkpt lat="55.8257733" lon="48.9179333"><time>2021-04-17T08:12:37.177</time></trkpt><trkpt lat="55.8257083" lon="48.9178950"><time>2021-04-17T08:12:39.177</time></trkpt><trkpt lat="55.8256567" lon="48.9178433"><time>2021-04-17T08:12:41.180</time></trkpt><trkpt lat="55.8256133" lon="48.9177833"><time>2021-04-17T08:12:43.177</time></trkpt><trkpt lat="55.8255767" lon="48.9177300"><time>2021-04-17T08:12:47.177</time></trkpt><trkpt lat="55.8255583" lon="48.9176483"><time>2021-04-17T08:12:51.177</time></trkpt><trkpt lat="55.8255217" lon="48.9175517"><time>2021-04-17T08:12:54.183</time></trkpt><trkpt lat="55.8254717" lon="48.9174917"><time>2021-04-17T08:12:57.177</time></trkpt><trkpt lat="55.8254150" lon="48.9174717"><time>2021-04-17T08:13:00.177</time></trkpt><trkpt lat="55.8253717" lon="48.9174367"><time>2021-04-17T08:13:03.177</time></trkpt><trkpt lat="55.8253500" lon="48.9173617"><time>2021-04-17T08:13:06.180</time></trkpt><trkpt lat="55.8253000" lon="48.9173217"><time>2021-04-17T08:13:09.177</time></trkpt><trkpt lat="55.8252400" lon="48.9173150"><time>2021-04-17T08:13:12.180</time></trkpt><trkpt lat="55.8251917" lon="48.9173133"><time>2021-04-17T08:13:15.177</time></trkpt><trkpt lat="55.8251467" lon="48.9173200"><time>2021-04-17T08:13:20.177</time></trkpt><trkpt lat="55.8250900" lon="48.9172967"><time>2021-04-17T08:13:25.177</time></trkpt><trkpt lat="55.8250317" lon="48.9172500"><time>2021-04-17T08:13:29.177</time></trkpt><trkpt lat="55.8249783" lon="48.9172350"><time>2021-04-17T08:13:36.177</time></trkpt><trkpt lat="55.8249333" lon="48.9172300"><time>2021-04-17T08:13:39.177</time></trkpt><trkpt lat="55.8248850" lon="48.9171583"><time>2021-04-17T08:13:42.180</time></trkpt><trkpt lat="55.8248450" lon="48.9170817"><time>2021-04-17T08:13:45.180</time></trkpt><trkpt lat="55.8247850" lon="48.9170550"><time>2021-04-17T08:13:47.177</time></trkpt><trkpt lat="55.8247400" lon="48.9170533"><time>2021-04-17T08:13:48.183</time></trkpt><trkpt lat="55.8246900" lon="48.9170517"><time>2021-04-17T08:13:49.177</time></trkpt><trkpt lat="55.8246317" lon="48.9170633"><time>2021-04-17T08:13:50.177</time></trkpt><trkpt lat="55.8246317" lon="48.9170633"><time>2021-04-17T08:13:51.143</time></trkpt><trkpt lat="55.8245833" lon="48.9169700"><time>2021-04-17T08:13:53.187</time></trkpt><trkpt lat="55.8245517" lon="48.9169117"><time>2021-04-17T08:13:55.190</time></trkpt><trkpt lat="55.8245983" lon="48.9169083"><time>2021-04-17T08:14:02.177</time></trkpt><trkpt lat="55.8246500" lon="48.9168783"><time>2021-04-17T08:14:11.177</time></trkpt><trkpt lat="55.8246533" lon="48.9167750"><time>2021-04-17T08:14:19.177</time></trkpt><trkpt lat="55.8246833" lon="48.9166867"><time>2021-04-17T08:14:22.177</time></trkpt><trkpt lat="55.8247100" lon="48.9166150"><time>2021-04-17T08:14:25.177</time></trkpt><trkpt lat="55.8247467" lon="48.9165450"><time>2021-04-17T08:14:28.177</time></trkpt><trkpt lat="55.8247850" lon="48.9164833"><time>2021-04-17T08:14:31.177</time></trkpt><trkpt lat="55.8248317" lon="48.9164367"><time>2021-04-17T08:14:34.177</time></trkpt><trkpt lat="55.8248633" lon="48.9163600"><time>2021-04-17T08:14:38.177</time></trkpt><trkpt lat="55.8249183" lon="48.9162633"><time>2021-04-17T08:14:47.177</time></trkpt><trkpt lat="55.8249617" lon="48.9162000"><time>2021-04-17T08:14:49.180</time></trkpt><trkpt lat="55.8250067" lon="48.9161417"><time>2021-04-17T08:14:51.177</time></trkpt><trkpt lat="55.8250583" lon="48.9161367"><time>2021-04-17T08:14:54.180</time></trkpt><trkpt lat="55.8251233" lon="48.9161667"><time>2021-04-17T08:14:57.177</time></trkpt><trkpt lat="55.8251683" lon="48.9162150"><time>2021-04-17T08:14:59.177</time></trkpt><trkpt lat="55.8252117" lon="48.9162583"><time>2021-04-17T08:15:01.177</time></trkpt><trkpt lat="55.8252733" lon="48.9162683"><time>2021-04-17T08:15:04.177</time></trkpt><trkpt lat="55.8253300" lon="48.9162833"><time>2021-04-17T08:15:07.180</time></trkpt><trkpt lat="55.8253750" lon="48.9162883"><time>2021-04-17T08:15:09.180</time></trkpt><trkpt lat="55.8254233" lon="48.9162933"><time>2021-04-17T08:15:12.177</time></trkpt><trkpt lat="55.8254750" lon="48.9162867"><time>2021-04-17T08:15:17.177</time></trkpt><trkpt lat="55.8255300" lon="48.9162950"><time>2021-04-17T08:15:20.177</time></trkpt><trkpt lat="55.8255850" lon="48.9163133"><time>2021-04-17T08:15:23.180</time></trkpt><trkpt lat="55.8256367" lon="48.9163300"><time>2021-04-17T08:15:26.177</time></trkpt><trkpt lat="55.8256900" lon="48.9163700"><time>2021-04-17T08:15:29.177</time></trkpt><trkpt lat="55.8257450" lon="48.9164000"><time>2021-04-17T08:15:31.177</time></trkpt><trkpt lat="55.8258100" lon="48.9164217"><time>2021-04-17T08:15:34.177</time></trkpt><trkpt lat="55.8258533" lon="48.9164483"><time>2021-04-17T08:15:36.177</time></trkpt><trkpt lat="55.8259167" lon="48.9164783"><time>2021-04-17T08:15:39.177</time></trkpt><trkpt lat="55.8259850" lon="48.9165000"><time>2021-04-17T08:15:42.177</time></trkpt><trkpt lat="55.8260317" lon="48.9165167"><time>2021-04-17T08:15:44.177</time></trkpt><trkpt lat="55.8260817" lon="48.9165400"><time>2021-04-17T08:15:47.177</time></trkpt><trkpt lat="55.8261333" lon="48.9165733"><time>2021-04-17T08:15:50.177</time></trkpt><trkpt lat="55.8261850" lon="48.9166183"><time>2021-04-17T08:15:53.177</time></trkpt><trkpt lat="55.8262267" lon="48.9166650"><time>2021-04-17T08:15:55.177</time></trkpt><trkpt lat="55.8262733" lon="48.9167167"><time>2021-04-17T08:15:57.177</time></trkpt><trkpt lat="55.8263217" lon="48.9167700"><time>2021-04-17T08:15:59.357</time></trkpt><trkpt lat="55.8263800" lon="48.9168217"><time>2021-04-17T08:16:01.177</time></trkpt><trkpt lat="55.8264300" lon="48.9168600"><time>2021-04-17T08:16:03.187</time></trkpt><trkpt lat="55.8264867" lon="48.9168950"><time>2021-04-17T08:16:05.177</time></trkpt><trkpt lat="55.8265583" lon="48.9169267"><time>2021-04-17T08:16:07.177</time></trkpt><trkpt lat="55.8266183" lon="48.9169583"><time>2021-04-17T08:16:09.177</time></trkpt><trkpt lat="55.8266767" lon="48.9169917"><time>2021-04-17T08:16:11.177</time></trkpt><trkpt lat="55.8267250" lon="48.9170300"><time>2021-04-17T08:16:13.177</time></trkpt><trkpt lat="55.8267717" lon="48.9170467"><time>2021-04-17T08:16:15.177</time></trkpt><trkpt lat="55.8268267" lon="48.9170950"><time>2021-04-17T08:16:17.177</time></trkpt><trkpt lat="55.8268633" lon="48.9171517"><time>2021-04-17T08:16:19.177</time></trkpt><trkpt lat="55.8269050" lon="48.9171867"><time>2021-04-17T08:16:21.203</time></trkpt><trkpt lat="55.8269533" lon="48.9172550"><time>2021-04-17T08:16:24.177</time></trkpt><trkpt lat="55.8270050" lon="48.9173100"><time>2021-04-17T08:16:27.173</time></trkpt><trkpt lat="55.8270400" lon="48.9173817"><time>2021-04-17T08:16:30.180</time></trkpt><trkpt lat="55.8270567" lon="48.9174367"><time>2021-04-17T08:16:32.437</time></trkpt><trkpt lat="55.8271033" lon="48.9174950"><time>2021-04-17T08:16:33.173</time></trkpt><trkpt lat="55.8271600" lon="48.9174850"><time>2021-04-17T08:16:34.173</time></trkpt><trkpt lat="55.8272317" lon="48.9175217"><time>2021-04-17T08:16:36.177</time></trkpt><trkpt lat="55.8272817" lon="48.9175150"><time>2021-04-17T08:16:37.173</time></trkpt><trkpt lat="55.8273333" lon="48.9175250"><time>2021-04-17T08:16:38.177</time></trkpt><trkpt lat="55.8273800" lon="48.9175367"><time>2021-04-17T08:16:39.177</time></trkpt><trkpt lat="55.8274250" lon="48.9174617"><time>2021-04-17T08:16:42.177</time></trkpt><trkpt lat="55.8273750" lon="48.9174950"><time>2021-04-17T08:16:44.173</time></trkpt><trkpt lat="55.8273133" lon="48.9173533"><time>2021-04-17T08:16:47.173</time></trkpt><trkpt lat="55.8273033" lon="48.9172617"><time>2021-04-17T08:16:48.180</time></trkpt><trkpt lat="55.8273017" lon="48.9171517"><time>2021-04-17T08:16:49.177</time></trkpt><trkpt lat="55.8273450" lon="48.9170733"><time>2021-04-17T08:16:52.177</time></trkpt><trkpt lat="55.8273883" lon="48.9170517"><time>2021-04-17T08:16:54.177</time></trkpt><trkpt lat="55.8274333" lon="48.9170333"><time>2021-04-17T08:17:03.177</time></trkpt><trkpt lat="55.8274800" lon="48.9169967"><time>2021-04-17T08:17:07.177</time></trkpt><trkpt lat="55.8275333" lon="48.9169650"><time>2021-04-17T08:17:10.177</time></trkpt><trkpt lat="55.8275833" lon="48.9169283"><time>2021-04-17T08:17:14.177</time></trkpt><trkpt lat="55.8276450" lon="48.9169050"><time>2021-04-17T08:17:18.177</time></trkpt><trkpt lat="55.8276900" lon="48.9168450"><time>2021-04-17T08:17:21.177</time></trkpt><trkpt lat="55.8277317" lon="48.9167983"><time>2021-04-17T08:17:23.177</time></trkpt><trkpt lat="55.8277817" lon="48.9167617"><time>2021-04-17T08:17:25.177</time></trkpt><trkpt lat="55.8278183" lon="48.9167133"><time>2021-04-17T08:17:28.177</time></trkpt><trkpt lat="55.8279033" lon="48.9166433"><time>2021-04-17T08:17:40.177</time></trkpt><trkpt lat="55.8279550" lon="48.9166733"><time>2021-04-17T08:17:43.177</time></trkpt><trkpt lat="55.8280000" lon="48.9166983"><time>2021-04-17T08:17:45.177</time></trkpt><trkpt lat="55.8280483" lon="48.9167400"><time>2021-04-17T08:17:47.177</time></trkpt><trkpt lat="55.8280967" lon="48.9167833"><time>2021-04-17T08:17:50.177</time></trkpt><trkpt lat="55.8281433" lon="48.9168467"><time>2021-04-17T08:17:53.177</time></trkpt><trkpt lat="55.8281983" lon="48.9168950"><time>2021-04-17T08:17:56.177</time></trkpt><trkpt lat="55.8282517" lon="48.9169483"><time>2021-04-17T08:17:59.173</time></trkpt><trkpt lat="55.8282917" lon="48.9169883"><time>2021-04-17T08:18:01.177</time></trkpt><trkpt lat="55.8283350" lon="48.9170500"><time>2021-04-17T08:18:04.177</time></trkpt><trkpt lat="55.8283850" lon="48.9171300"><time>2021-04-17T08:18:07.177</time></trkpt><trkpt lat="55.8284367" lon="48.9172150"><time>2021-04-17T08:18:10.177</time></trkpt><trkpt lat="55.8284783" lon="48.9172617"><time>2021-04-17T08:18:12.277</time></trkpt><trkpt lat="55.8285167" lon="48.9173383"><time>2021-04-17T08:18:14.173</time></trkpt><trkpt lat="55.8285533" lon="48.9174117"><time>2021-04-17T08:18:16.177</time></trkpt><trkpt lat="55.8285950" lon="48.9174967"><time>2021-04-17T08:18:18.183</time></trkpt><trkpt lat="55.8286367" lon="48.9175850"><time>2021-04-17T08:18:20.177</time></trkpt><trkpt lat="55.8286717" lon="48.9176533"><time>2021-04-17T08:18:22.177</time></trkpt><trkpt lat="55.8287000" lon="48.9177283"><time>2021-04-17T08:18:24.177</time></trkpt><trkpt lat="55.8287217" lon="48.9178283"><time>2021-04-17T08:18:27.180</time></trkpt><trkpt lat="55.8287600" lon="48.9178833"><time>2021-04-17T08:18:29.177</time></trkpt><trkpt lat="55.8288000" lon="48.9179267"><time>2021-04-17T08:18:31.177</time></trkpt><trkpt lat="55.8288400" lon="48.9179683"><time>2021-04-17T08:18:33.190</time></trkpt><trkpt lat="55.8289100" lon="48.9180133"><time>2021-04-17T08:18:36.177</time></trkpt><trkpt lat="55.8289533" lon="48.9180483"><time>2021-04-17T08:18:38.177</time></trkpt><trkpt lat="55.8289950" lon="48.9180900"><time>2021-04-17T08:18:40.177</time></trkpt><trkpt lat="55.8290500" lon="48.9181300"><time>2021-04-17T08:18:43.177</time></trkpt><trkpt lat="55.8290883" lon="48.9181750"><time>2021-04-17T08:18:45.180</time></trkpt><trkpt lat="55.8291333" lon="48.9182183"><time>2021-04-17T08:18:47.177</time></trkpt><trkpt lat="55.8291733" lon="48.9182683"><time>2021-04-17T08:18:49.183</time></trkpt><trkpt lat="55.8292283" lon="48.9183383"><time>2021-04-17T08:18:52.173</time></trkpt><trkpt lat="55.8292717" lon="48.9183983"><time>2021-04-17T08:18:55.177</time></trkpt><trkpt lat="55.8293083" lon="48.9184950"><time>2021-04-17T08:18:59.177</time></trkpt><trkpt lat="55.8293433" lon="48.9185867"><time>2021-04-17T08:19:02.177</time></trkpt><trkpt lat="55.8293800" lon="48.9186783"><time>2021-04-17T08:19:05.177</time></trkpt><trkpt lat="55.8294100" lon="48.9187467"><time>2021-04-17T08:19:07.177</time></trkpt><trkpt lat="55.8294417" lon="48.9188183"><time>2021-04-17T08:19:09.177</time></trkpt><trkpt lat="55.8294750" lon="48.9189000"><time>2021-04-17T08:19:12.177</time></trkpt><trkpt lat="55.8295183" lon="48.9189517"><time>2021-04-17T08:19:15.177</time></trkpt><trkpt lat="55.8295483" lon="48.9190350"><time>2021-04-17T08:19:18.203</time></trkpt><trkpt lat="55.8295733" lon="48.9191417"><time>2021-04-17T08:19:21.177</time></trkpt><trkpt lat="55.8295933" lon="48.9192500"><time>2021-04-17T08:19:24.177</time></trkpt><trkpt lat="55.8296267" lon="48.9193200"><time>2021-04-17T08:19:26.177</time></trkpt><trkpt lat="55.8296500" lon="48.9194100"><time>2021-04-17T08:19:28.177</time></trkpt><trkpt lat="55.8296650" lon="48.9195133"><time>2021-04-17T08:19:30.177</time></trkpt><trkpt lat="55.8296833" lon="48.9196183"><time>2021-04-17T08:19:32.183</time></trkpt><trkpt lat="55.8297067" lon="48.9196883"><time>2021-04-17T08:19:34.177</time></trkpt><trkpt lat="55.8297367" lon="48.9197500"><time>2021-04-17T08:19:36.177</time></trkpt><trkpt lat="55.8297617" lon="48.9198233"><time>2021-04-17T08:19:38.177</time></trkpt><trkpt lat="55.8297850" lon="48.9199117"><time>2021-04-17T08:19:40.177</time></trkpt><trkpt lat="55.8297983" lon="48.9199917"><time>2021-04-17T08:19:42.180</time></trkpt><trkpt lat="55.8298250" lon="48.9200817"><time>2021-04-17T08:19:44.177</time></trkpt><trkpt lat="55.8298533" lon="48.9201783"><time>2021-04-17T08:19:46.180</time></trkpt><trkpt lat="55.8298700" lon="48.9202833"><time>2021-04-17T08:19:48.183</time></trkpt><trkpt lat="55.8298733" lon="48.9203800"><time>2021-04-17T08:19:50.177</time></trkpt><trkpt lat="55.8298817" lon="48.9204717"><time>2021-04-17T08:19:52.177</time></trkpt><trkpt lat="55.8298950" lon="48.9205617"><time>2021-04-17T08:19:54.177</time></trkpt><trkpt lat="55.8298950" lon="48.9206533"><time>2021-04-17T08:19:57.177</time></trkpt><trkpt lat="55.8299150" lon="48.9207300"><time>2021-04-17T08:19:59.177</time></trkpt><trkpt lat="55.8299400" lon="48.9208100"><time>2021-04-17T08:20:01.177</time></trkpt><trkpt lat="55.8299683" lon="48.9208967"><time>2021-04-17T08:20:03.177</time></trkpt><trkpt lat="55.8299900" lon="48.9209750"><time>2021-04-17T08:20:05.173</time></trkpt><trkpt lat="55.8300300" lon="48.9210800"><time>2021-04-17T08:20:07.177</time></trkpt><trkpt lat="55.8300517" lon="48.9211933"><time>2021-04-17T08:20:09.180</time></trkpt><trkpt lat="55.8300800" lon="48.9212933"><time>2021-04-17T08:20:11.177</time></trkpt><trkpt lat="55.8300983" lon="48.9213900"><time>2021-04-17T08:20:13.177</time></trkpt><trkpt lat="55.8301233" lon="48.9214900"><time>2021-04-17T08:20:15.177</time></trkpt><trkpt lat="55.8301450" lon="48.9215800"><time>2021-04-17T08:20:17.180</time></trkpt><trkpt lat="55.8301667" lon="48.9216800"><time>2021-04-17T08:20:19.177</time></trkpt><trkpt lat="55.8301883" lon="48.9217817"><time>2021-04-17T08:20:21.173</time></trkpt><trkpt lat="55.8302100" lon="48.9218750"><time>2021-04-17T08:20:23.173</time></trkpt><trkpt lat="55.8302500" lon="48.9219533"><time>2021-04-17T08:20:25.177</time></trkpt><trkpt lat="55.8302650" lon="48.9220300"><time>2021-04-17T08:20:27.177</time></trkpt><trkpt lat="55.8302833" lon="48.9221083"><time>2021-04-17T08:20:29.180</time></trkpt><trkpt lat="55.8303083" lon="48.9222000"><time>2021-04-17T08:20:31.177</time></trkpt><trkpt lat="55.8303333" lon="48.9223233"><time>2021-04-17T08:20:33.177</time></trkpt><trkpt lat="55.8303467" lon="48.9224200"><time>2021-04-17T08:20:35.177</time></trkpt><trkpt lat="55.8303700" lon="48.9224983"><time>2021-04-17T08:20:37.183</time></trkpt><trkpt lat="55.8303917" lon="48.9225867"><time>2021-04-17T08:20:39.183</time></trkpt><trkpt lat="55.8304367" lon="48.9226633"><time>2021-04-17T08:20:41.173</time></trkpt><trkpt lat="55.8305033" lon="48.9227450"><time>2021-04-17T08:20:43.177</time></trkpt><trkpt lat="55.8305317" lon="48.9228100"><time>2021-04-17T08:20:45.177</time></trkpt><trkpt lat="55.8305833" lon="48.9228783"><time>2021-04-17T08:20:50.173</time></trkpt><trkpt lat="55.8306950" lon="48.9228767"><time>2021-04-17T08:20:53.177</time></trkpt><trkpt lat="55.8306950" lon="48.9228767"><time>2021-04-17T08:20:53.607</time></trkpt><trkpt lat="55.8307217" lon="48.9227800"><time>2021-04-17T08:20:55.187</time></trkpt><trkpt lat="55.8306817" lon="48.9228683"><time>2021-04-17T08:20:56.170</time></trkpt><trkpt lat="55.8306367" lon="48.9229567"><time>2021-04-17T08:20:58.173</time></trkpt><trkpt lat="55.8305717" lon="48.9229400"><time>2021-04-17T08:21:01.177</time></trkpt><trkpt lat="55.8305050" lon="48.9230317"><time>2021-04-17T08:21:02.177</time></trkpt><trkpt lat="55.8304367" lon="48.9230233"><time>2021-04-17T08:21:04.177</time></trkpt><trkpt lat="55.8303367" lon="48.9230017"><time>2021-04-17T08:21:06.173</time></trkpt><trkpt lat="55.8303867" lon="48.9230783"><time>2021-04-17T08:21:07.173</time></trkpt><trkpt lat="55.8304383" lon="48.9229950"><time>2021-04-17T08:21:08.177</time></trkpt><trkpt lat="55.8304467" lon="48.9230800"><time>2021-04-17T08:21:11.177</time></trkpt><trkpt lat="55.8304717" lon="48.9231583"><time>2021-04-17T08:21:15.177</time></trkpt><trkpt lat="55.8304717" lon="48.9232400"><time>2021-04-17T08:21:16.177</time></trkpt><trkpt lat="55.8304600" lon="48.9233367"><time>2021-04-17T08:21:17.180</time></trkpt><trkpt lat="55.8304600" lon="48.9234167"><time>2021-04-17T08:21:18.177</time></trkpt><trkpt lat="55.8304650" lon="48.9235800"><time>2021-04-17T08:21:20.177</time></trkpt><trkpt lat="55.8304833" lon="48.9236617"><time>2021-04-17T08:21:22.177</time></trkpt><trkpt lat="55.8304817" lon="48.9237483"><time>2021-04-17T08:21:25.177</time></trkpt><trkpt lat="55.8305100" lon="48.9239800"><time>2021-04-17T08:21:48.180</time></trkpt><trkpt lat="55.8305367" lon="48.9240567"><time>2021-04-17T08:21:52.177</time></trkpt><trkpt lat="55.8305633" lon="48.9241467"><time>2021-04-17T08:21:55.177</time></trkpt><trkpt lat="55.8305733" lon="48.9242400"><time>2021-04-17T08:21:58.180</time></trkpt><trkpt lat="55.8305683" lon="48.9243200"><time>2021-04-17T08:22:00.177</time></trkpt><trkpt lat="55.8305683" lon="48.9244050"><time>2021-04-17T08:22:02.173</time></trkpt><trkpt lat="55.8305733" lon="48.9245000"><time>2021-04-17T08:22:04.177</time></trkpt><trkpt lat="55.8305783" lon="48.9245917"><time>2021-04-17T08:22:06.203</time></trkpt><trkpt lat="55.8305717" lon="48.9247033"><time>2021-04-17T08:22:09.177</time></trkpt><trkpt lat="55.8305817" lon="48.9247950"><time>2021-04-17T08:22:12.177</time></trkpt><trkpt lat="55.8305883" lon="48.9249017"><time>2021-04-17T08:22:15.183</time></trkpt><trkpt lat="55.8305917" lon="48.9249917"><time>2021-04-17T08:22:17.207</time></trkpt><trkpt lat="55.8305933" lon="48.9250933"><time>2021-04-17T08:22:20.177</time></trkpt><trkpt lat="55.8305967" lon="48.9252117"><time>2021-04-17T08:22:23.177</time></trkpt><trkpt lat="55.8305900" lon="48.9253217"><time>2021-04-17T08:22:26.177</time></trkpt><trkpt lat="55.8305967" lon="48.9254067"><time>2021-04-17T08:22:28.173</time></trkpt><trkpt lat="55.8305867" lon="48.9255000"><time>2021-04-17T08:22:31.177</time></trkpt><trkpt lat="55.8305700" lon="48.9255883"><time>2021-04-17T08:22:34.303</time></trkpt><trkpt lat="55.8305433" lon="48.9257033"><time>2021-04-17T08:22:37.177</time></trkpt><trkpt lat="55.8305133" lon="48.9258083"><time>2021-04-17T08:22:39.180</time></trkpt><trkpt lat="55.8304717" lon="48.9258750"><time>2021-04-17T08:22:41.177</time></trkpt><trkpt lat="55.8304433" lon="48.9259717"><time>2021-04-17T08:22:44.177</time></trkpt><trkpt lat="55.8304183" lon="48.9260767"><time>2021-04-17T08:22:47.187</time></trkpt><trkpt lat="55.8303867" lon="48.9261683"><time>2021-04-17T08:22:49.177</time></trkpt><trkpt lat="55.8303783" lon="48.9262683"><time>2021-04-17T08:22:52.177</time></trkpt><trkpt lat="55.8303500" lon="48.9263650"><time>2021-04-17T08:22:55.177</time></trkpt><trkpt lat="55.8303317" lon="48.9264800"><time>2021-04-17T08:22:58.177</time></trkpt><trkpt lat="55.8303233" lon="48.9265600"><time>2021-04-17T08:23:00.177</time></trkpt><trkpt lat="55.8303083" lon="48.9266383"><time>2021-04-17T08:23:02.177</time></trkpt><trkpt lat="55.8302733" lon="48.9267167"><time>2021-04-17T08:23:04.177</time></trkpt><trkpt lat="55.8302500" lon="48.9267867"><time>2021-04-17T08:23:06.177</time></trkpt><trkpt lat="55.8302433" lon="48.9268783"><time>2021-04-17T08:23:08.177</time></trkpt><trkpt lat="55.8302283" lon="48.9269683"><time>2021-04-17T08:23:10.177</time></trkpt><trkpt lat="55.8302117" lon="48.9270650"><time>2021-04-17T08:23:12.177</time></trkpt><trkpt lat="55.8301883" lon="48.9271417"><time>2021-04-17T08:23:14.177</time></trkpt><trkpt lat="55.8301783" lon="48.9272267"><time>2021-04-17T08:23:16.177</time></trkpt><trkpt lat="55.8301633" lon="48.9273067"><time>2021-04-17T08:23:19.177</time></trkpt><trkpt lat="55.8301600" lon="48.9273867"><time>2021-04-17T08:23:22.177</time></trkpt><trkpt lat="55.8301583" lon="48.9274850"><time>2021-04-17T08:23:24.177</time></trkpt><trkpt lat="55.8301483" lon="48.9275733"><time>2021-04-17T08:23:26.177</time></trkpt><trkpt lat="55.8301250" lon="48.9276750"><time>2021-04-17T08:23:29.210</time></trkpt><trkpt lat="55.8300917" lon="48.9277600"><time>2021-04-17T08:23:33.177</time></trkpt><trkpt lat="55.8300667" lon="48.9278317"><time>2021-04-17T08:23:36.177</time></trkpt><trkpt lat="55.8300350" lon="48.9279250"><time>2021-04-17T08:23:39.177</time></trkpt><trkpt lat="55.8300133" lon="48.9280317"><time>2021-04-17T08:23:41.177</time></trkpt><trkpt lat="55.8299800" lon="48.9281117"><time>2021-04-17T08:23:44.177</time></trkpt><trkpt lat="55.8299450" lon="48.9281717"><time>2021-04-17T08:23:47.177</time></trkpt><trkpt lat="55.8299150" lon="48.9282383"><time>2021-04-17T08:23:50.177</time></trkpt><trkpt lat="55.8298817" lon="48.9283117"><time>2021-04-17T08:23:53.177</time></trkpt><trkpt lat="55.8298283" lon="48.9283600"><time>2021-04-17T08:23:56.177</time></trkpt><trkpt lat="55.8297933" lon="48.9284283"><time>2021-04-17T08:24:00.177</time></trkpt><trkpt lat="55.8297333" lon="48.9284233"><time>2021-04-17T08:24:05.177</time></trkpt><trkpt lat="55.8296883" lon="48.9283950"><time>2021-04-17T08:24:10.177</time></trkpt><trkpt lat="55.8296350" lon="48.9283883"><time>2021-04-17T08:24:16.177</time></trkpt><trkpt lat="55.8295933" lon="48.9283467"><time>2021-04-17T08:24:20.180</time></trkpt><trkpt lat="55.8295767" lon="48.9283283"><time>2021-04-17T08:24:30.450</time></trkpt><trkpt lat="55.8295333" lon="48.9282683"><time>2021-04-17T08:24:33.187</time></trkpt><trkpt lat="55.8295117" lon="48.9283467"><time>2021-04-17T08:24:37.530</time></trkpt><trkpt lat="55.8294600" lon="48.9284050"><time>2021-04-17T08:24:39.533</time></trkpt><trkpt lat="55.8294183" lon="48.9284600"><time>2021-04-17T08:24:42.173</time></trkpt><trkpt lat="55.8293650" lon="48.9285417"><time>2021-04-17T08:24:47.173</time></trkpt><trkpt lat="55.8294433" lon="48.9284583"><time>2021-04-17T08:24:50.173</time></trkpt><trkpt lat="55.8294000" lon="48.9283683"><time>2021-04-17T08:24:51.177</time></trkpt><trkpt lat="55.8294483" lon="48.9284783"><time>2021-04-17T08:24:53.177</time></trkpt><trkpt lat="55.8294317" lon="48.9285917"><time>2021-04-17T08:24:54.180</time></trkpt><trkpt lat="55.8294850" lon="48.9286750"><time>2021-04-17T08:24:55.177</time></trkpt><trkpt lat="55.8295083" lon="48.9287533"><time>2021-04-17T08:24:56.177</time></trkpt><trkpt lat="55.8295567" lon="48.9288033"><time>2021-04-17T08:24:58.173</time></trkpt><trkpt lat="55.8296467" lon="48.9288700"><time>2021-04-17T08:25:00.187</time></trkpt><trkpt lat="55.8296900" lon="48.9288950"><time>2021-04-17T08:25:01.177</time></trkpt><trkpt lat="55.8297350" lon="48.9289150"><time>2021-04-17T08:25:02.177</time></trkpt><trkpt lat="55.8298033" lon="48.9289333"><time>2021-04-17T08:25:04.177</time></trkpt><trkpt lat="55.8298483" lon="48.9289717"><time>2021-04-17T08:25:06.177</time></trkpt><trkpt lat="55.8298967" lon="48.9290067"><time>2021-04-17T08:25:08.177</time></trkpt><trkpt lat="55.8299450" lon="48.9290350"><time>2021-04-17T08:25:10.177</time></trkpt><trkpt lat="55.8299717" lon="48.9291450"><time>2021-04-17T08:25:13.177</time></trkpt><trkpt lat="55.8299933" lon="48.9292200"><time>2021-04-17T08:25:15.177</time></trkpt><trkpt lat="55.8300267" lon="48.9292950"><time>2021-04-17T08:25:17.177</time></trkpt><trkpt lat="55.8300467" lon="48.9293700"><time>2021-04-17T08:25:19.173</time></trkpt><trkpt lat="55.8300733" lon="48.9294567"><time>2021-04-17T08:25:21.177</time></trkpt><trkpt lat="55.8301117" lon="48.9295333"><time>2021-04-17T08:25:23.177</time></trkpt><trkpt lat="55.8301417" lon="48.9296150"><time>2021-04-17T08:25:26.180</time></trkpt><trkpt lat="55.8301750" lon="48.9297050"><time>2021-04-17T08:25:29.177</time></trkpt><trkpt lat="55.8302100" lon="48.9297983"><time>2021-04-17T08:25:32.177</time></trkpt><trkpt lat="55.8302483" lon="48.9298617"><time>2021-04-17T08:25:34.177</time></trkpt><trkpt lat="55.8302833" lon="48.9299367"><time>2021-04-17T08:25:36.177</time></trkpt><trkpt lat="55.8303133" lon="48.9300050"><time>2021-04-17T08:25:38.177</time></trkpt><trkpt lat="55.8303433" lon="48.9300850"><time>2021-04-17T08:25:40.177</time></trkpt><trkpt lat="55.8303750" lon="48.9301717"><time>2021-04-17T08:25:42.177</time></trkpt><trkpt lat="55.8304050" lon="48.9302600"><time>2021-04-17T08:25:44.177</time></trkpt><trkpt lat="55.8304167" lon="48.9303433"><time>2021-04-17T08:25:46.177</time></trkpt><trkpt lat="55.8304383" lon="48.9304367"><time>2021-04-17T08:25:48.177</time></trkpt><trkpt lat="55.8304500" lon="48.9305333"><time>2021-04-17T08:25:50.177</time></trkpt><trkpt lat="55.8304583" lon="48.9306150"><time>2021-04-17T08:25:52.177</time></trkpt><trkpt lat="55.8304633" lon="48.9307017"><time>2021-04-17T08:25:55.177</time></trkpt><trkpt lat="55.8304750" lon="48.9307850"><time>2021-04-17T08:25:58.177</time></trkpt><trkpt lat="55.8304983" lon="48.9308933"><time>2021-04-17T08:26:01.173</time></trkpt><trkpt lat="55.8304917" lon="48.9309867"><time>2021-04-17T08:26:04.177</time></trkpt><trkpt lat="55.8304967" lon="48.9310667"><time>2021-04-17T08:26:07.177</time></trkpt><trkpt lat="55.8304967" lon="48.9311567"><time>2021-04-17T08:26:10.177</time></trkpt><trkpt lat="55.8304983" lon="48.9312583"><time>2021-04-17T08:26:13.177</time></trkpt><trkpt lat="55.8304783" lon="48.9313683"><time>2021-04-17T08:26:16.177</time></trkpt><trkpt lat="55.8304883" lon="48.9314467"><time>2021-04-17T08:26:18.180</time></trkpt><trkpt lat="55.8305383" lon="48.9315217"><time>2021-04-17T08:26:21.177</time></trkpt><trkpt lat="55.8305733" lon="48.9316117"><time>2021-04-17T08:26:23.183</time></trkpt><trkpt lat="55.8305933" lon="48.9316933"><time>2021-04-17T08:26:25.177</time></trkpt><trkpt lat="55.8306100" lon="48.9317733"><time>2021-04-17T08:26:28.177</time></trkpt><trkpt lat="55.8306317" lon="48.9318450"><time>2021-04-17T08:26:30.177</time></trkpt><trkpt lat="55.8306917" lon="48.9318800"><time>2021-04-17T08:26:34.177</time></trkpt><trkpt lat="55.8307300" lon="48.9319283"><time>2021-04-17T08:26:37.203</time></trkpt><trkpt lat="55.8307733" lon="48.9319800"><time>2021-04-17T08:26:40.173</time></trkpt><trkpt lat="55.8308233" lon="48.9320583"><time>2021-04-17T08:26:43.180</time></trkpt><trkpt lat="55.8307900" lon="48.9321133"><time>2021-04-17T08:26:45.173</time></trkpt><trkpt lat="55.8308233" lon="48.9322167"><time>2021-04-17T08:26:48.177</time></trkpt><trkpt lat="55.8308233" lon="48.9322167"><time>2021-04-17T08:26:48.607</time></trkpt><trkpt lat="55.8308300" lon="48.9323167"><time>2021-04-17T08:26:50.180</time></trkpt><trkpt lat="55.8308383" lon="48.9324150"><time>2021-04-17T08:26:53.193</time></trkpt><trkpt lat="55.8308267" lon="48.9324950"><time>2021-04-17T08:26:55.177</time></trkpt><trkpt lat="55.8307867" lon="48.9325650"><time>2021-04-17T08:26:58.180</time></trkpt><trkpt lat="55.8308067" lon="48.9326750"><time>2021-04-17T08:27:01.177</time></trkpt><trkpt lat="55.8308717" lon="48.9326383"><time>2021-04-17T08:27:03.177</time></trkpt><trkpt lat="55.8309183" lon="48.9325883"><time>2021-04-17T08:27:05.187</time></trkpt><trkpt lat="55.8309600" lon="48.9325550"><time>2021-04-17T08:27:06.177</time></trkpt><trkpt lat="55.8310317" lon="48.9325483"><time>2021-04-17T08:27:08.173</time></trkpt><trkpt lat="55.8310867" lon="48.9325017"><time>2021-04-17T08:27:11.180</time></trkpt><trkpt lat="55.8311217" lon="48.9324417"><time>2021-04-17T08:27:14.197</time></trkpt><trkpt lat="55.8310983" lon="48.9323517"><time>2021-04-17T08:27:16.173</time></trkpt><trkpt lat="55.8310483" lon="48.9322783"><time>2021-04-17T08:27:18.187</time></trkpt><trkpt lat="55.8310050" lon="48.9322333"><time>2021-04-17T08:27:20.177</time></trkpt><trkpt lat="55.8309567" lon="48.9321767"><time>2021-04-17T08:27:23.183</time></trkpt><trkpt lat="55.8310183" lon="48.9321567"><time>2021-04-17T08:27:30.177</time></trkpt><trkpt lat="55.8310600" lon="48.9321217"><time>2021-04-17T08:27:33.207</time></trkpt><trkpt lat="55.8310983" lon="48.9320683"><time>2021-04-17T08:27:35.177</time></trkpt><trkpt lat="55.8311483" lon="48.9320033"><time>2021-04-17T08:27:38.177</time></trkpt><trkpt lat="55.8312000" lon="48.9319517"><time>2021-04-17T08:27:41.177</time></trkpt><trkpt lat="55.8312467" lon="48.9319000"><time>2021-04-17T08:27:43.177</time></trkpt><trkpt lat="55.8312850" lon="48.9318583"><time>2021-04-17T08:27:45.177</time></trkpt><trkpt lat="55.8313133" lon="48.9317683"><time>2021-04-17T08:27:48.177</time></trkpt><trkpt lat="55.8313300" lon="48.9316883"><time>2021-04-17T08:27:50.190</time></trkpt><trkpt lat="55.8313567" lon="48.9315967"><time>2021-04-17T08:27:52.177</time></trkpt><trkpt lat="55.8313917" lon="48.9315400"><time>2021-04-17T08:27:54.177</time></trkpt><trkpt lat="55.8314433" lon="48.9315233"><time>2021-04-17T08:27:57.177</time></trkpt><trkpt lat="55.8314983" lon="48.9314833"><time>2021-04-17T08:28:00.177</time></trkpt><trkpt lat="55.8315400" lon="48.9314533"><time>2021-04-17T08:28:02.173</time></trkpt><trkpt lat="55.8315833" lon="48.9314283"><time>2021-04-17T08:28:04.173</time></trkpt><trkpt lat="55.8316200" lon="48.9313700"><time>2021-04-17T08:28:06.177</time></trkpt><trkpt lat="55.8316533" lon="48.9312883"><time>2021-04-17T08:28:08.180</time></trkpt><trkpt lat="55.8316767" lon="48.9311867"><time>2021-04-17T08:28:10.177</time></trkpt><trkpt lat="55.8316933" lon="48.9310867"><time>2021-04-17T08:28:12.180</time></trkpt><trkpt lat="55.8317100" lon="48.9309950"><time>2021-04-17T08:28:14.177</time></trkpt><trkpt lat="55.8317033" lon="48.9309033"><time>2021-04-17T08:28:17.177</time></trkpt><trkpt lat="55.8317150" lon="48.9307967"><time>2021-04-17T08:28:20.177</time></trkpt><trkpt lat="55.8317283" lon="48.9307150"><time>2021-04-17T08:28:22.177</time></trkpt><trkpt lat="55.8317400" lon="48.9306333"><time>2021-04-17T08:28:24.177</time></trkpt><trkpt lat="55.8317567" lon="48.9305533"><time>2021-04-17T08:28:26.177</time></trkpt><trkpt lat="55.8317700" lon="48.9304733"><time>2021-04-17T08:28:28.177</time></trkpt><trkpt lat="55.8317850" lon="48.9303967"><time>2021-04-17T08:28:30.177</time></trkpt><trkpt lat="55.8318100" lon="48.9302883"><time>2021-04-17T08:28:33.177</time></trkpt><trkpt lat="55.8318250" lon="48.9302083"><time>2021-04-17T08:28:35.177</time></trkpt><trkpt lat="55.8318467" lon="48.9301150"><time>2021-04-17T08:28:37.177</time></trkpt><trkpt lat="55.8318683" lon="48.9300333"><time>2021-04-17T08:28:39.177</time></trkpt><trkpt lat="55.8318883" lon="48.9299550"><time>2021-04-17T08:28:41.177</time></trkpt><trkpt lat="55.8319100" lon="48.9298800"><time>2021-04-17T08:28:43.177</time></trkpt><trkpt lat="55.8319333" lon="48.9298050"><time>2021-04-17T08:28:45.177</time></trkpt><trkpt lat="55.8319517" lon="48.9297283"><time>2021-04-17T08:28:47.177</time></trkpt><trkpt lat="55.8319733" lon="48.9296483"><time>2021-04-17T08:28:49.177</time></trkpt><trkpt lat="55.8320033" lon="48.9295683"><time>2021-04-17T08:28:51.173</time></trkpt><trkpt lat="55.8320233" lon="48.9294617"><time>2021-04-17T08:28:54.183</time></trkpt><trkpt lat="55.8320383" lon="48.9293783"><time>2021-04-17T08:28:56.177</time></trkpt><trkpt lat="55.8320617" lon="48.9292967"><time>2021-04-17T08:28:58.177</time></trkpt><trkpt lat="55.8320817" lon="48.9292200"><time>2021-04-17T08:29:00.180</time></trkpt><trkpt lat="55.8321017" lon="48.9291350"><time>2021-04-17T08:29:02.177</time></trkpt><trkpt lat="55.8321200" lon="48.9290567"><time>2021-04-17T08:29:04.177</time></trkpt><trkpt lat="55.8321383" lon="48.9289833"><time>2021-04-17T08:29:06.203</time></trkpt><trkpt lat="55.8321583" lon="48.9289050"><time>2021-04-17T08:29:08.177</time></trkpt><trkpt lat="55.8321867" lon="48.9288300"><time>2021-04-17T08:29:10.177</time></trkpt><trkpt lat="55.8322233" lon="48.9287683"><time>2021-04-17T08:29:12.177</time></trkpt><trkpt lat="55.8322467" lon="48.9286900"><time>2021-04-17T08:29:14.177</time></trkpt><trkpt lat="55.8322567" lon="48.9286083"><time>2021-04-17T08:29:16.177</time></trkpt><trkpt lat="55.8322700" lon="48.9285167"><time>2021-04-17T08:29:18.177</time></trkpt><trkpt lat="55.8322833" lon="48.9284333"><time>2021-04-17T08:29:20.177</time></trkpt><trkpt lat="55.8322983" lon="48.9283467"><time>2021-04-17T08:29:22.177</time></trkpt><trkpt lat="55.8323200" lon="48.9282717"><time>2021-04-17T08:29:24.180</time></trkpt><trkpt lat="55.8323517" lon="48.9281983"><time>2021-04-17T08:29:26.177</time></trkpt><trkpt lat="55.8323900" lon="48.9281433"><time>2021-04-17T08:29:28.177</time></trkpt><trkpt lat="55.8324150" lon="48.9280717"><time>2021-04-17T08:29:30.177</time></trkpt><trkpt lat="55.8324250" lon="48.9279817"><time>2021-04-17T08:29:32.177</time></trkpt><trkpt lat="55.8324367" lon="48.9278850"><time>2021-04-17T08:29:34.177</time></trkpt><trkpt lat="55.8324567" lon="48.9277917"><time>2021-04-17T08:29:36.177</time></trkpt><trkpt lat="55.8325000" lon="48.9277333"><time>2021-04-17T08:29:38.180</time></trkpt><trkpt lat="55.8325450" lon="48.9277017"><time>2021-04-17T08:29:40.177</time></trkpt><trkpt lat="55.8325733" lon="48.9276283"><time>2021-04-17T08:29:42.177</time></trkpt><trkpt lat="55.8326000" lon="48.9275517"><time>2021-04-17T08:29:44.177</time></trkpt><trkpt lat="55.8326400" lon="48.9274900"><time>2021-04-17T08:29:46.177</time></trkpt><trkpt lat="55.8327017" lon="48.9274500"><time>2021-04-17T08:29:48.177</time></trkpt><trkpt lat="55.8327600" lon="48.9274017"><time>2021-04-17T08:29:50.173</time></trkpt><trkpt lat="55.8328000" lon="48.9273333"><time>2021-04-17T08:29:52.177</time></trkpt><trkpt lat="55.8328417" lon="48.9272683"><time>2021-04-17T08:29:54.177</time></trkpt><trkpt lat="55.8329000" lon="48.9272350"><time>2021-04-17T08:29:56.177</time></trkpt><trkpt lat="55.8329700" lon="48.9272300"><time>2021-04-17T08:29:58.177</time></trkpt><trkpt lat="55.8330300" lon="48.9272517"><time>2021-04-17T08:30:00.177</time></trkpt><trkpt lat="55.8330883" lon="48.9272567"><time>2021-04-17T08:30:02.177</time></trkpt><trkpt lat="55.8331483" lon="48.9272400"><time>2021-04-17T08:30:04.173</time></trkpt><trkpt lat="55.8331967" lon="48.9272067"><time>2021-04-17T08:30:06.177</time></trkpt><trkpt lat="55.8332450" lon="48.9271783"><time>2021-04-17T08:30:08.177</time></trkpt><trkpt lat="55.8333017" lon="48.9271867"><time>2021-04-17T08:30:11.177</time></trkpt><trkpt lat="55.8333550" lon="48.9271683"><time>2021-04-17T08:30:14.177</time></trkpt><trkpt lat="55.8334167" lon="48.9271700"><time>2021-04-17T08:30:17.177</time></trkpt><trkpt lat="55.8334683" lon="48.9271983"><time>2021-04-17T08:30:19.177</time></trkpt><trkpt lat="55.8335217" lon="48.9272483"><time>2021-04-17T08:30:21.177</time></trkpt><trkpt lat="55.8335833" lon="48.9273133"><time>2021-04-17T08:30:24.177</time></trkpt><trkpt lat="55.8336300" lon="48.9273433"><time>2021-04-17T08:30:27.177</time></trkpt><trkpt lat="55.8336850" lon="48.9273850"><time>2021-04-17T08:30:30.177</time></trkpt><trkpt lat="55.8337283" lon="48.9274267"><time>2021-04-17T08:30:33.177</time></trkpt><trkpt lat="55.8337800" lon="48.9274300"><time>2021-04-17T08:30:41.177</time></trkpt><trkpt lat="55.8338200" lon="48.9274750"><time>2021-04-17T08:30:45.177</time></trkpt><trkpt lat="55.8338567" lon="48.9275517"><time>2021-04-17T08:30:48.177</time></trkpt><trkpt lat="55.8339133" lon="48.9276133"><time>2021-04-17T08:30:51.177</time></trkpt><trkpt lat="55.8339600" lon="48.9276583"><time>2021-04-17T08:30:53.177</time></trkpt><trkpt lat="55.8340033" lon="48.9277100"><time>2021-04-17T08:30:55.177</time></trkpt><trkpt lat="55.8340517" lon="48.9277617"><time>2021-04-17T08:30:57.177</time></trkpt><trkpt lat="55.8340883" lon="48.9278100"><time>2021-04-17T08:30:59.177</time></trkpt><trkpt lat="55.8341183" lon="48.9278700"><time>2021-04-17T08:31:01.177</time></trkpt><trkpt lat="55.8341500" lon="48.9279267"><time>2021-04-17T08:31:03.177</time></trkpt><trkpt lat="55.8342067" lon="48.9279633"><time>2021-04-17T08:31:06.173</time></trkpt><trkpt lat="55.8342583" lon="48.9279950"><time>2021-04-17T08:31:10.177</time></trkpt><trkpt lat="55.8343067" lon="48.9280350"><time>2021-04-17T08:31:12.187</time></trkpt><trkpt lat="55.8343500" lon="48.9280750"><time>2021-04-17T08:31:14.177</time></trkpt><trkpt lat="55.8343817" lon="48.9281517"><time>2021-04-17T08:31:16.177</time></trkpt><trkpt lat="55.8343967" lon="48.9282350"><time>2021-04-17T08:31:18.180</time></trkpt><trkpt lat="55.8344000" lon="48.9283217"><time>2021-04-17T08:31:20.177</time></trkpt><trkpt lat="55.8344050" lon="48.9284067"><time>2021-04-17T08:31:22.177</time></trkpt><trkpt lat="55.8344183" lon="48.9284900"><time>2021-04-17T08:31:24.177</time></trkpt><trkpt lat="55.8344600" lon="48.9285667"><time>2021-04-17T08:31:27.180</time></trkpt><trkpt lat="55.8345067" lon="48.9285533"><time>2021-04-17T08:31:32.177</time></trkpt><trkpt lat="55.8345433" lon="48.9286100"><time>2021-04-17T08:31:37.177</time></trkpt><trkpt lat="55.8345917" lon="48.9285833"><time>2021-04-17T08:31:43.170</time></trkpt><trkpt lat="55.8346083" lon="48.9285867"><time>2021-04-17T08:31:46.313</time></trkpt><trkpt lat="55.8346217" lon="48.9286583"><time>2021-04-17T08:31:51.173</time></trkpt><trkpt lat="55.8345717" lon="48.9286983"><time>2021-04-17T08:31:55.177</time></trkpt><trkpt lat="55.8345583" lon="48.9287950"><time>2021-04-17T08:32:00.177</time></trkpt><trkpt lat="55.8345817" lon="48.9288850"><time>2021-04-17T08:32:05.173</time></trkpt><trkpt lat="55.8346267" lon="48.9289317"><time>2021-04-17T08:32:08.177</time></trkpt><trkpt lat="55.8346800" lon="48.9289833"><time>2021-04-17T08:32:11.177</time></trkpt><trkpt lat="55.8347267" lon="48.9290283"><time>2021-04-17T08:32:14.177</time></trkpt><trkpt lat="55.8347767" lon="48.9290733"><time>2021-04-17T08:32:17.177</time></trkpt><trkpt lat="55.8348183" lon="48.9291067"><time>2021-04-17T08:32:20.177</time></trkpt><trkpt lat="55.8348717" lon="48.9291367"><time>2021-04-17T08:32:24.177</time></trkpt><trkpt lat="55.8349217" lon="48.9291517"><time>2021-04-17T08:32:27.177</time></trkpt><trkpt lat="55.8349750" lon="48.9291933"><time>2021-04-17T08:32:30.177</time></trkpt><trkpt lat="55.8350233" lon="48.9292100"><time>2021-04-17T08:32:33.177</time></trkpt><trkpt lat="55.8350683" lon="48.9292317"><time>2021-04-17T08:32:35.177</time></trkpt><trkpt lat="55.8351283" lon="48.9292633"><time>2021-04-17T08:32:37.177</time></trkpt><trkpt lat="55.8351850" lon="48.9292950"><time>2021-04-17T08:32:39.177</time></trkpt><trkpt lat="55.8352383" lon="48.9293167"><time>2021-04-17T08:32:41.177</time></trkpt><trkpt lat="55.8352917" lon="48.9293483"><time>2021-04-17T08:32:43.177</time></trkpt><trkpt lat="55.8353417" lon="48.9293800"><time>2021-04-17T08:32:45.173</time></trkpt><trkpt lat="55.8353867" lon="48.9294100"><time>2021-04-17T08:32:48.203</time></trkpt><trkpt lat="55.8354333" lon="48.9294250"><time>2021-04-17T08:32:52.177</time></trkpt><trkpt lat="55.8354800" lon="48.9294333"><time>2021-04-17T08:32:55.177</time></trkpt><trkpt lat="55.8355283" lon="48.9294500"><time>2021-04-17T08:32:58.177</time></trkpt><trkpt lat="55.8355733" lon="48.9294867"><time>2021-04-17T08:33:01.177</time></trkpt><trkpt lat="55.8356167" lon="48.9295133"><time>2021-04-17T08:33:05.177</time></trkpt><trkpt lat="55.8356617" lon="48.9295350"><time>2021-04-17T08:33:08.177</time></trkpt><trkpt lat="55.8357217" lon="48.9295483"><time>2021-04-17T08:33:11.177</time></trkpt><trkpt lat="55.8357700" lon="48.9295833"><time>2021-04-17T08:33:14.177</time></trkpt><trkpt lat="55.8358400" lon="48.9296167"><time>2021-04-17T08:33:18.177</time></trkpt><trkpt lat="55.8358883" lon="48.9296467"><time>2021-04-17T08:33:20.177</time></trkpt><trkpt lat="55.8359350" lon="48.9296617"><time>2021-04-17T08:33:22.177</time></trkpt><trkpt lat="55.8359850" lon="48.9297033"><time>2021-04-17T08:33:25.180</time></trkpt><trkpt lat="55.8360333" lon="48.9297450"><time>2021-04-17T08:33:28.177</time></trkpt><trkpt lat="55.8360850" lon="48.9297667"><time>2021-04-17T08:33:32.177</time></trkpt><trkpt lat="55.8361500" lon="48.9298083"><time>2021-04-17T08:33:37.177</time></trkpt><trkpt lat="55.8362033" lon="48.9298433"><time>2021-04-17T08:33:39.177</time></trkpt><trkpt lat="55.8362617" lon="48.9298767"><time>2021-04-17T08:33:41.177</time></trkpt><trkpt lat="55.8363100" lon="48.9299150"><time>2021-04-17T08:33:43.177</time></trkpt><trkpt lat="55.8363750" lon="48.9299417"><time>2021-04-17T08:33:46.173</time></trkpt><trkpt lat="55.8364367" lon="48.9299767"><time>2021-04-17T08:33:49.177</time></trkpt><trkpt lat="55.8364867" lon="48.9300083"><time>2021-04-17T08:33:51.177</time></trkpt><trkpt lat="55.8365400" lon="48.9300417"><time>2021-04-17T08:33:53.177</time></trkpt><trkpt lat="55.8365883" lon="48.9300750"><time>2021-04-17T08:33:55.177</time></trkpt><trkpt lat="55.8366367" lon="48.9301150"><time>2021-04-17T08:33:57.177</time></trkpt><trkpt lat="55.8366967" lon="48.9301750"><time>2021-04-17T08:34:00.177</time></trkpt><trkpt lat="55.8367450" lon="48.9302250"><time>2021-04-17T08:34:02.177</time></trkpt><trkpt lat="55.8367917" lon="48.9302583"><time>2021-04-17T08:34:04.173</time></trkpt><trkpt lat="55.8368483" lon="48.9303133"><time>2021-04-17T08:34:07.177</time></trkpt><trkpt lat="55.8369000" lon="48.9303550"><time>2021-04-17T08:34:11.177</time></trkpt><trkpt lat="55.8369467" lon="48.9304017"><time>2021-04-17T08:34:13.177</time></trkpt><trkpt lat="55.8369967" lon="48.9304433"><time>2021-04-17T08:34:16.177</time></trkpt><trkpt lat="55.8370433" lon="48.9304883"><time>2021-04-17T08:34:18.177</time></trkpt><trkpt lat="55.8370867" lon="48.9305100"><time>2021-04-17T08:34:21.177</time></trkpt><trkpt lat="55.8371383" lon="48.9305667"><time>2021-04-17T08:34:24.177</time></trkpt><trkpt lat="55.8371817" lon="48.9305933"><time>2021-04-17T08:34:28.177</time></trkpt><trkpt lat="55.8372317" lon="48.9306417"><time>2021-04-17T08:34:31.180</time></trkpt><trkpt lat="55.8372850" lon="48.9307000"><time>2021-04-17T08:34:34.183</time></trkpt><trkpt lat="55.8373283" lon="48.9307433"><time>2021-04-17T08:34:36.177</time></trkpt><trkpt lat="55.8373900" lon="48.9307867"><time>2021-04-17T08:34:39.177</time></trkpt><trkpt lat="55.8374383" lon="48.9308167"><time>2021-04-17T08:34:41.177</time></trkpt><trkpt lat="55.8375033" lon="48.9308483"><time>2021-04-17T08:34:43.177</time></trkpt><trkpt lat="55.8375683" lon="48.9308750"><time>2021-04-17T08:34:45.177</time></trkpt><trkpt lat="55.8376200" lon="48.9308983"><time>2021-04-17T08:34:47.177</time></trkpt><trkpt lat="55.8376667" lon="48.9309133"><time>2021-04-17T08:34:49.177</time></trkpt><trkpt lat="55.8377167" lon="48.9309333"><time>2021-04-17T08:34:51.177</time></trkpt><trkpt lat="55.8377800" lon="48.9309733"><time>2021-04-17T08:34:53.180</time></trkpt><trkpt lat="55.8378467" lon="48.9309967"><time>2021-04-17T08:34:55.177</time></trkpt><trkpt lat="55.8379017" lon="48.9310200"><time>2021-04-17T08:34:57.177</time></trkpt><trkpt lat="55.8379650" lon="48.9310533"><time>2021-04-17T08:34:59.177</time></trkpt><trkpt lat="55.8380283" lon="48.9311200"><time>2021-04-17T08:35:01.177</time></trkpt><trkpt lat="55.8380883" lon="48.9311633"><time>2021-04-17T08:35:03.177</time></trkpt><trkpt lat="55.8381517" lon="48.9312100"><time>2021-04-17T08:35:05.173</time></trkpt><trkpt lat="55.8382067" lon="48.9312683"><time>2021-04-17T08:35:07.177</time></trkpt><trkpt lat="55.8382400" lon="48.9313233"><time>2021-04-17T08:35:09.177</time></trkpt><trkpt lat="55.8382683" lon="48.9313983"><time>2021-04-17T08:35:11.180</time></trkpt><trkpt lat="55.8382883" lon="48.9314717"><time>2021-04-17T08:35:13.177</time></trkpt><trkpt lat="55.8383183" lon="48.9315467"><time>2021-04-17T08:35:15.177</time></trkpt><trkpt lat="55.8383467" lon="48.9316183"><time>2021-04-17T08:35:17.177</time></trkpt><trkpt lat="55.8383650" lon="48.9317317"><time>2021-04-17T08:35:20.173</time></trkpt><trkpt lat="55.8383400" lon="48.9318417"><time>2021-04-17T08:35:23.173</time></trkpt><trkpt lat="55.8383083" lon="48.9317717"><time>2021-04-17T08:35:28.180</time></trkpt><trkpt lat="55.8382483" lon="48.9316467"><time>2021-04-17T08:35:30.177</time></trkpt><trkpt lat="55.8382117" lon="48.9315700"><time>2021-04-17T08:35:32.173</time></trkpt><trkpt lat="55.8381933" lon="48.9315333"><time>2021-04-17T08:35:33.617</time></trkpt><trkpt lat="55.8381833" lon="48.9314867"><time>2021-04-17T08:35:34.177</time></trkpt><trkpt lat="55.8381533" lon="48.9314217"><time>2021-04-17T08:35:36.187</time></trkpt><trkpt lat="55.8381917" lon="48.9315167"><time>2021-04-17T08:35:42.173</time></trkpt><trkpt lat="55.8382367" lon="48.9315683"><time>2021-04-17T08:35:44.177</time></trkpt><trkpt lat="55.8382767" lon="48.9316283"><time>2021-04-17T08:35:47.193</time></trkpt><trkpt lat="55.8383133" lon="48.9317067"><time>2021-04-17T08:35:52.173</time></trkpt><trkpt lat="55.8383300" lon="48.9317950"><time>2021-04-17T08:35:56.350</time></trkpt><trkpt lat="55.8383267" lon="48.9319333"><time>2021-04-17T08:35:58.177</time></trkpt><trkpt lat="55.8383767" lon="48.9320000"><time>2021-04-17T08:36:00.177</time></trkpt><trkpt lat="55.8384000" lon="48.9321083"><time>2021-04-17T08:36:31.177</time></trkpt><trkpt lat="55.8384500" lon="48.9319933"><time>2021-04-17T08:37:25.177</time></trkpt><trkpt lat="55.8384250" lon="48.9319233"><time>2021-04-17T08:37:30.180</time></trkpt><trkpt lat="55.8383950" lon="48.9318467"><time>2021-04-17T08:37:35.177</time></trkpt><trkpt lat="55.8383750" lon="48.9317750"><time>2021-04-17T08:37:40.177</time></trkpt><trkpt lat="55.8383633" lon="48.9316633"><time>2021-04-17T08:37:43.177</time></trkpt><trkpt lat="55.8383400" lon="48.9315667"><time>2021-04-17T08:37:46.177</time></trkpt><trkpt lat="55.8383100" lon="48.9315000"><time>2021-04-17T08:37:48.177</time></trkpt><trkpt lat="55.8382700" lon="48.9314083"><time>2021-04-17T08:37:51.177</time></trkpt><trkpt lat="55.8382300" lon="48.9313450"><time>2021-04-17T08:37:54.177</time></trkpt><trkpt lat="55.8381817" lon="48.9312817"><time>2021-04-17T08:37:58.177</time></trkpt><trkpt lat="55.8381383" lon="48.9312267"><time>2021-04-17T08:38:01.177</time></trkpt><trkpt lat="55.8380933" lon="48.9311983"><time>2021-04-17T08:38:03.177</time></trkpt><trkpt lat="55.8380383" lon="48.9311767"><time>2021-04-17T08:38:06.173</time></trkpt><trkpt lat="55.8379917" lon="48.9311467"><time>2021-04-17T08:38:08.177</time></trkpt><trkpt lat="55.8379450" lon="48.9311167"><time>2021-04-17T08:38:10.177</time></trkpt><trkpt lat="55.8378833" lon="48.9310600"><time>2021-04-17T08:38:13.177</time></trkpt><trkpt lat="55.8378333" lon="48.9310117"><time>2021-04-17T08:38:16.177</time></trkpt><trkpt lat="55.8377883" lon="48.9309767"><time>2021-04-17T08:38:18.177</time></trkpt><trkpt lat="55.8377433" lon="48.9309467"><time>2021-04-17T08:38:20.177</time></trkpt><trkpt lat="55.8376833" lon="48.9308933"><time>2021-04-17T08:38:22.177</time></trkpt><trkpt lat="55.8376250" lon="48.9308483"><time>2021-04-17T08:38:24.177</time></trkpt><trkpt lat="55.8375850" lon="48.9308033"><time>2021-04-17T08:38:26.177</time></trkpt><trkpt lat="55.8375367" lon="48.9307600"><time>2021-04-17T08:38:28.177</time></trkpt><trkpt lat="55.8374783" lon="48.9307167"><time>2021-04-17T08:38:31.177</time></trkpt><trkpt lat="55.8374150" lon="48.9306900"><time>2021-04-17T08:38:34.177</time></trkpt><trkpt lat="55.8373600" lon="48.9306483"><time>2021-04-17T08:38:37.177</time></trkpt><trkpt lat="55.8373067" lon="48.9306133"><time>2021-04-17T08:38:40.177</time></trkpt><trkpt lat="55.8372533" lon="48.9305583"><time>2021-04-17T08:38:43.177</time></trkpt><trkpt lat="55.8372100" lon="48.9304683"><time>2021-04-17T08:38:46.177</time></trkpt><trkpt lat="55.8371883" lon="48.9303900"><time>2021-04-17T08:38:50.177</time></trkpt><trkpt lat="55.8371350" lon="48.9303250"><time>2021-04-17T08:38:58.177</time></trkpt><trkpt lat="55.8371400" lon="48.9302333"><time>2021-04-17T08:39:01.177</time></trkpt><trkpt lat="55.8371583" lon="48.9301417"><time>2021-04-17T08:39:04.177</time></trkpt><trkpt lat="55.8371850" lon="48.9300483"><time>2021-04-17T08:39:07.177</time></trkpt><trkpt lat="55.8372050" lon="48.9299433"><time>2021-04-17T08:39:10.177</time></trkpt><trkpt lat="55.8371833" lon="48.9297683"><time>2021-04-17T08:39:22.177</time></trkpt><trkpt lat="55.8371900" lon="48.9296717"><time>2021-04-17T08:39:25.177</time></trkpt><trkpt lat="55.8371833" lon="48.9295717"><time>2021-04-17T08:39:28.177</time></trkpt><trkpt lat="55.8371817" lon="48.9294883"><time>2021-04-17T08:39:31.177</time></trkpt><trkpt lat="55.8371933" lon="48.9293983"><time>2021-04-17T08:39:35.187</time></trkpt><trkpt lat="55.8372100" lon="48.9293083"><time>2021-04-17T08:39:38.177</time></trkpt><trkpt lat="55.8372150" lon="48.9292183"><time>2021-04-17T08:39:41.177</time></trkpt><trkpt lat="55.8372333" lon="48.9291250"><time>2021-04-17T08:39:45.177</time></trkpt><trkpt lat="55.8372567" lon="48.9290517"><time>2021-04-17T08:39:48.177</time></trkpt><trkpt lat="55.8372667" lon="48.9289683"><time>2021-04-17T08:39:51.177</time></trkpt><trkpt lat="55.8372883" lon="48.9288683"><time>2021-04-17T08:39:54.177</time></trkpt><trkpt lat="55.8373017" lon="48.9287850"><time>2021-04-17T08:39:57.173</time></trkpt><trkpt lat="55.8372983" lon="48.9286883"><time>2021-04-17T08:40:00.177</time></trkpt><trkpt lat="55.8372800" lon="48.9286000"><time>2021-04-17T08:40:02.173</time></trkpt><trkpt lat="55.8372667" lon="48.9285200"><time>2021-04-17T08:40:04.177</time></trkpt><trkpt lat="55.8372567" lon="48.9284167"><time>2021-04-17T08:40:07.173</time></trkpt><trkpt lat="55.8372600" lon="48.9283200"><time>2021-04-17T08:40:10.197</time></trkpt><trkpt lat="55.8372917" lon="48.9282300"><time>2021-04-17T08:40:13.177</time></trkpt><trkpt lat="55.8373167" lon="48.9281417"><time>2021-04-17T08:40:16.177</time></trkpt><trkpt lat="55.8373333" lon="48.9280617"><time>2021-04-17T08:40:19.177</time></trkpt><trkpt lat="55.8373450" lon="48.9279750"><time>2021-04-17T08:40:22.177</time></trkpt><trkpt lat="55.8373600" lon="48.9278983"><time>2021-04-17T08:40:25.177</time></trkpt><trkpt lat="55.8373633" lon="48.9278133"><time>2021-04-17T08:40:28.177</time></trkpt><trkpt lat="55.8373783" lon="48.9277217"><time>2021-04-17T08:40:31.177</time></trkpt><trkpt lat="55.8373917" lon="48.9276300"><time>2021-04-17T08:40:34.177</time></trkpt><trkpt lat="55.8374067" lon="48.9275233"><time>2021-04-17T08:40:37.177</time></trkpt><trkpt lat="55.8374250" lon="48.9274450"><time>2021-04-17T08:40:40.177</time></trkpt><trkpt lat="55.8374500" lon="48.9273500"><time>2021-04-17T08:40:43.177</time></trkpt><trkpt lat="55.8374550" lon="48.9272683"><time>2021-04-17T08:40:46.177</time></trkpt><trkpt lat="55.8374600" lon="48.9271833"><time>2021-04-17T08:40:50.177</time></trkpt><trkpt lat="55.8374800" lon="48.9270933"><time>2021-04-17T08:40:54.177</time></trkpt><trkpt lat="55.8375033" lon="48.9269983"><time>2021-04-17T08:40:57.177</time></trkpt><trkpt lat="55.8375117" lon="48.9268950"><time>2021-04-17T08:41:00.177</time></trkpt><trkpt lat="55.8375367" lon="48.9268067"><time>2021-04-17T08:41:05.177</time></trkpt><trkpt lat="55.8375800" lon="48.9267483"><time>2021-04-17T08:41:08.177</time></trkpt><trkpt lat="55.8376133" lon="48.9266817"><time>2021-04-17T08:41:10.177</time></trkpt><trkpt lat="55.8376550" lon="48.9265900"><time>2021-04-17T08:41:13.177</time></trkpt><trkpt lat="55.8376783" lon="48.9265050"><time>2021-04-17T08:41:15.177</time></trkpt><trkpt lat="55.8376950" lon="48.9264283"><time>2021-04-17T08:41:17.177</time></trkpt><trkpt lat="55.8377167" lon="48.9263483"><time>2021-04-17T08:41:19.177</time></trkpt><trkpt lat="55.8377367" lon="48.9262667"><time>2021-04-17T08:41:21.177</time></trkpt><trkpt lat="55.8377583" lon="48.9261850"><time>2021-04-17T08:41:23.177</time></trkpt><trkpt lat="55.8377467" lon="48.9261017"><time>2021-04-17T08:41:25.177</time></trkpt><trkpt lat="55.8377417" lon="48.9260017"><time>2021-04-17T08:41:28.177</time></trkpt><trkpt lat="55.8377600" lon="48.9259000"><time>2021-04-17T08:41:31.177</time></trkpt><trkpt lat="55.8377867" lon="48.9258350"><time>2021-04-17T08:41:33.180</time></trkpt><trkpt lat="55.8378167" lon="48.9257433"><time>2021-04-17T08:41:36.177</time></trkpt><trkpt lat="55.8378400" lon="48.9256750"><time>2021-04-17T08:41:38.177</time></trkpt><trkpt lat="55.8378683" lon="48.9256117"><time>2021-04-17T08:41:40.177</time></trkpt><trkpt lat="55.8379067" lon="48.9255233"><time>2021-04-17T08:41:43.177</time></trkpt><trkpt lat="55.8379283" lon="48.9254283"><time>2021-04-17T08:41:46.177</time></trkpt><trkpt lat="55.8379533" lon="48.9253183"><time>2021-04-17T08:41:49.177</time></trkpt><trkpt lat="55.8379783" lon="48.9252283"><time>2021-04-17T08:41:52.173</time></trkpt><trkpt lat="55.8379933" lon="48.9251483"><time>2021-04-17T08:41:55.177</time></trkpt><trkpt lat="55.8380417" lon="48.9251033"><time>2021-04-17T08:42:00.177</time></trkpt><trkpt lat="55.8380817" lon="48.9250383"><time>2021-04-17T08:42:04.173</time></trkpt><trkpt lat="55.8381167" lon="48.9249533"><time>2021-04-17T08:42:07.170</time></trkpt><trkpt lat="55.8381517" lon="48.9248550"><time>2021-04-17T08:42:10.177</time></trkpt><trkpt lat="55.8381750" lon="48.9247500"><time>2021-04-17T08:42:13.177</time></trkpt><trkpt lat="55.8381983" lon="48.9246750"><time>2021-04-17T08:42:16.177</time></trkpt><trkpt lat="55.8382333" lon="48.9245833"><time>2021-04-17T08:42:19.183</time></trkpt><trkpt lat="55.8382583" lon="48.9244917"><time>2021-04-17T08:42:22.177</time></trkpt><trkpt lat="55.8382850" lon="48.9244183"><time>2021-04-17T08:42:25.177</time></trkpt><trkpt lat="55.8383250" lon="48.9243267"><time>2021-04-17T08:42:28.177</time></trkpt><trkpt lat="55.8383517" lon="48.9242583"><time>2021-04-17T08:42:31.177</time></trkpt><trkpt lat="55.8383683" lon="48.9241683"><time>2021-04-17T08:42:35.177</time></trkpt><trkpt lat="55.8383833" lon="48.9240833"><time>2021-04-17T08:42:38.177</time></trkpt><trkpt lat="55.8384267" lon="48.9240233"><time>2021-04-17T08:42:42.177</time></trkpt><trkpt lat="55.8384400" lon="48.9239250"><time>2021-04-17T08:42:46.173</time></trkpt><trkpt lat="55.8384700" lon="48.9238517"><time>2021-04-17T08:42:51.177</time></trkpt><trkpt lat="55.8385133" lon="48.9238233"><time>2021-04-17T08:42:55.177</time></trkpt><trkpt lat="55.8385483" lon="48.9237417"><time>2021-04-17T08:42:59.187</time></trkpt><trkpt lat="55.8385800" lon="48.9236517"><time>2021-04-17T08:43:02.177</time></trkpt><trkpt lat="55.8385983" lon="48.9235533"><time>2021-04-17T08:43:05.177</time></trkpt><trkpt lat="55.8386167" lon="48.9234517"><time>2021-04-17T08:43:08.177</time></trkpt><trkpt lat="55.8386417" lon="48.9233550"><time>2021-04-17T08:43:12.177</time></trkpt><trkpt lat="55.8386567" lon="48.9232500"><time>2021-04-17T08:43:15.177</time></trkpt><trkpt lat="55.8386383" lon="48.9231133"><time>2021-04-17T08:43:17.177</time></trkpt><trkpt lat="55.8386150" lon="48.9230133"><time>2021-04-17T08:43:19.177</time></trkpt><trkpt lat="55.8385933" lon="48.9229400"><time>2021-04-17T08:43:20.177</time></trkpt><trkpt lat="55.8385650" lon="48.9228600"><time>2021-04-17T08:43:21.177</time></trkpt><trkpt lat="55.8385217" lon="48.9227450"><time>2021-04-17T08:43:23.180</time></trkpt><trkpt lat="55.8384700" lon="48.9226567"><time>2021-04-17T08:43:25.177</time></trkpt><trkpt lat="55.8384333" lon="48.9225917"><time>2021-04-17T08:43:29.177</time></trkpt><trkpt lat="55.8383967" lon="48.9225117"><time>2021-04-17T08:43:31.177</time></trkpt><trkpt lat="55.8383617" lon="48.9224583"><time>2021-04-17T08:43:32.177</time></trkpt><trkpt lat="55.8383083" lon="48.9223650"><time>2021-04-17T08:43:34.177</time></trkpt><trkpt lat="55.8382467" lon="48.9223117"><time>2021-04-17T08:43:36.177</time></trkpt><trkpt lat="55.8381883" lon="48.9222867"><time>2021-04-17T08:43:38.177</time></trkpt><trkpt lat="55.8381450" lon="48.9222517"><time>2021-04-17T08:43:40.177</time></trkpt><trkpt lat="55.8381000" lon="48.9222150"><time>2021-04-17T08:43:42.177</time></trkpt><trkpt lat="55.8380417" lon="48.9221650"><time>2021-04-17T08:43:45.177</time></trkpt><trkpt lat="55.8379817" lon="48.9220967"><time>2021-04-17T08:43:47.177</time></trkpt><trkpt lat="55.8379267" lon="48.9220533"><time>2021-04-17T08:43:49.177</time></trkpt><trkpt lat="55.8378583" lon="48.9219967"><time>2021-04-17T08:43:51.197</time></trkpt><trkpt lat="55.8377883" lon="48.9219550"><time>2021-04-17T08:43:53.177</time></trkpt><trkpt lat="55.8377283" lon="48.9219267"><time>2021-04-17T08:43:55.177</time></trkpt><trkpt lat="55.8376833" lon="48.9218950"><time>2021-04-17T08:43:57.177</time></trkpt><trkpt lat="55.8376283" lon="48.9218500"><time>2021-04-17T08:43:59.177</time></trkpt><trkpt lat="55.8375867" lon="48.9218133"><time>2021-04-17T08:44:01.177</time></trkpt><trkpt lat="55.8375433" lon="48.9217667"><time>2021-04-17T08:44:04.173</time></trkpt><trkpt lat="55.8374950" lon="48.9217467"><time>2021-04-17T08:44:07.177</time></trkpt><trkpt lat="55.8374433" lon="48.9217033"><time>2021-04-17T08:44:11.177</time></trkpt><trkpt lat="55.8374000" lon="48.9216800"><time>2021-04-17T08:44:13.177</time></trkpt><trkpt lat="55.8373567" lon="48.9216567"><time>2021-04-17T08:44:15.177</time></trkpt><trkpt lat="55.8373033" lon="48.9216217"><time>2021-04-17T08:44:18.177</time></trkpt><trkpt lat="55.8372550" lon="48.9215717"><time>2021-04-17T08:44:21.177</time></trkpt><trkpt lat="55.8372067" lon="48.9215117"><time>2021-04-17T08:44:24.177</time></trkpt><trkpt lat="55.8371683" lon="48.9214400"><time>2021-04-17T08:44:26.173</time></trkpt><trkpt lat="55.8371317" lon="48.9213250"><time>2021-04-17T08:44:28.180</time></trkpt><trkpt lat="55.8371017" lon="48.9212167"><time>2021-04-17T08:44:30.173</time></trkpt><trkpt lat="55.8370700" lon="48.9211000"><time>2021-04-17T08:44:32.180</time></trkpt><trkpt lat="55.8370833" lon="48.9210200"><time>2021-04-17T08:44:35.183</time></trkpt><trkpt lat="55.8371267" lon="48.9209967"><time>2021-04-17T08:44:36.183</time></trkpt><trkpt lat="55.8371317" lon="48.9209450"><time>2021-04-17T08:44:37.507</time></trkpt><trkpt lat="55.8371333" lon="48.9208883"><time>2021-04-17T08:44:38.173</time></trkpt><trkpt lat="55.8371750" lon="48.9208183"><time>2021-04-17T08:44:40.237</time></trkpt><trkpt lat="55.8371367" lon="48.9207367"><time>2021-04-17T08:44:43.183</time></trkpt><trkpt lat="55.8370850" lon="48.9207567"><time>2021-04-17T08:44:48.173</time></trkpt><trkpt lat="55.8370567" lon="48.9208383"><time>2021-04-17T08:44:51.173</time></trkpt><trkpt lat="55.8370033" lon="48.9209367"><time>2021-04-17T08:44:54.167</time></trkpt><trkpt lat="55.8369200" lon="48.9208983"><time>2021-04-17T08:44:55.170</time></trkpt><trkpt lat="55.8369600" lon="48.9210133"><time>2021-04-17T08:44:56.173</time></trkpt><trkpt lat="55.8370017" lon="48.9210717"><time>2021-04-17T08:44:57.173</time></trkpt><trkpt lat="55.8370233" lon="48.9211517"><time>2021-04-17T08:45:00.177</time></trkpt><trkpt lat="55.8370600" lon="48.9212150"><time>2021-04-17T08:45:03.173</time></trkpt><trkpt lat="55.8370950" lon="48.9213183"><time>2021-04-17T08:45:09.177</time></trkpt><trkpt lat="55.8371383" lon="48.9213883"><time>2021-04-17T08:45:12.177</time></trkpt><trkpt lat="55.8371733" lon="48.9214450"><time>2021-04-17T08:45:16.177</time></trkpt><trkpt lat="55.8372283" lon="48.9214917"><time>2021-04-17T08:45:19.173</time></trkpt><trkpt lat="55.8372817" lon="48.9215200"><time>2021-04-17T08:45:21.177</time></trkpt><trkpt lat="55.8373417" lon="48.9215617"><time>2021-04-17T08:45:24.177</time></trkpt><trkpt lat="55.8373933" lon="48.9216183"><time>2021-04-17T08:45:27.177</time></trkpt><trkpt lat="55.8374483" lon="48.9216800"><time>2021-04-17T08:45:30.180</time></trkpt><trkpt lat="55.8375083" lon="48.9217250"><time>2021-04-17T08:45:32.177</time></trkpt><trkpt lat="55.8375617" lon="48.9217650"><time>2021-04-17T08:45:34.177</time></trkpt><trkpt lat="55.8376167" lon="48.9218100"><time>2021-04-17T08:45:36.177</time></trkpt><trkpt lat="55.8376667" lon="48.9218500"><time>2021-04-17T08:45:38.177</time></trkpt><trkpt lat="55.8377167" lon="48.9218867"><time>2021-04-17T08:45:40.177</time></trkpt><trkpt lat="55.8377633" lon="48.9219033"><time>2021-04-17T08:45:42.177</time></trkpt><trkpt lat="55.8378067" lon="48.9219367"><time>2021-04-17T08:45:44.173</time></trkpt><trkpt lat="55.8378567" lon="48.9219667"><time>2021-04-17T08:45:46.173</time></trkpt><trkpt lat="55.8379083" lon="48.9219783"><time>2021-04-17T08:45:48.177</time></trkpt><trkpt lat="55.8379550" lon="48.9220017"><time>2021-04-17T08:45:50.177</time></trkpt><trkpt lat="55.8380100" lon="48.9220317"><time>2021-04-17T08:45:53.177</time></trkpt><trkpt lat="55.8380583" lon="48.9220550"><time>2021-04-17T08:45:56.177</time></trkpt><trkpt lat="55.8381417" lon="48.9220950"><time>2021-04-17T08:46:03.177</time></trkpt><trkpt lat="55.8382050" lon="48.9221400"><time>2021-04-17T08:46:06.177</time></trkpt><trkpt lat="55.8382717" lon="48.9221917"><time>2021-04-17T08:46:09.170</time></trkpt><trkpt lat="55.8383183" lon="48.9222117"><time>2021-04-17T08:46:13.177</time></trkpt><trkpt lat="55.8384050" lon="48.9222833"><time>2021-04-17T08:46:24.177</time></trkpt><trkpt lat="55.8384517" lon="48.9222817"><time>2021-04-17T08:46:26.177</time></trkpt><trkpt lat="55.8385050" lon="48.9222750"><time>2021-04-17T08:46:29.207</time></trkpt><trkpt lat="55.8385533" lon="48.9222383"><time>2021-04-17T08:46:32.177</time></trkpt><trkpt lat="55.8385950" lon="48.9221750"><time>2021-04-17T08:46:35.177</time></trkpt><trkpt lat="55.8386317" lon="48.9221050"><time>2021-04-17T08:46:38.187</time></trkpt><trkpt lat="55.8386600" lon="48.9220383"><time>2021-04-17T08:46:41.177</time></trkpt><trkpt lat="55.8386850" lon="48.9219700"><time>2021-04-17T08:46:44.173</time></trkpt><trkpt lat="55.8387150" lon="48.9218833"><time>2021-04-17T08:46:47.177</time></trkpt><trkpt lat="55.8387633" lon="48.9218150"><time>2021-04-17T08:46:50.177</time></trkpt><trkpt lat="55.8388017" lon="48.9217317"><time>2021-04-17T08:46:53.177</time></trkpt><trkpt lat="55.8388467" lon="48.9216583"><time>2021-04-17T08:46:56.177</time></trkpt><trkpt lat="55.8388883" lon="48.9216133"><time>2021-04-17T08:46:58.177</time></trkpt><trkpt lat="55.8389367" lon="48.9215767"><time>2021-04-17T08:47:00.180</time></trkpt><trkpt lat="55.8389850" lon="48.9214967"><time>2021-04-17T08:47:03.177</time></trkpt><trkpt lat="55.8390167" lon="48.9214367"><time>2021-04-17T08:47:05.177</time></trkpt><trkpt lat="55.8390600" lon="48.9213733"><time>2021-04-17T08:47:07.177</time></trkpt><trkpt lat="55.8390950" lon="48.9212983"><time>2021-04-17T08:47:09.177</time></trkpt><trkpt lat="55.8391433" lon="48.9212200"><time>2021-04-17T08:47:12.177</time></trkpt><trkpt lat="55.8391917" lon="48.9211467"><time>2021-04-17T08:47:15.177</time></trkpt><trkpt lat="55.8392333" lon="48.9210917"><time>2021-04-17T08:47:17.177</time></trkpt><trkpt lat="55.8392717" lon="48.9210100"><time>2021-04-17T08:47:20.177</time></trkpt><trkpt lat="55.8393033" lon="48.9209483"><time>2021-04-17T08:47:22.177</time></trkpt><trkpt lat="55.8393350" lon="48.9208850"><time>2021-04-17T08:47:24.177</time></trkpt><trkpt lat="55.8393883" lon="48.9208200"><time>2021-04-17T08:47:27.177</time></trkpt><trkpt lat="55.8394333" lon="48.9207467"><time>2021-04-17T08:47:30.180</time></trkpt><trkpt lat="55.8394850" lon="48.9206850"><time>2021-04-17T08:47:33.177</time></trkpt><trkpt lat="55.8395333" lon="48.9206517"><time>2021-04-17T08:47:35.177</time></trkpt><trkpt lat="55.8395817" lon="48.9206117"><time>2021-04-17T08:47:37.177</time></trkpt><trkpt lat="55.8396283" lon="48.9205717"><time>2021-04-17T08:47:39.177</time></trkpt><trkpt lat="55.8396667" lon="48.9205250"><time>2021-04-17T08:47:41.177</time></trkpt><trkpt lat="55.8397017" lon="48.9204700"><time>2021-04-17T08:47:43.177</time></trkpt><trkpt lat="55.8397300" lon="48.9203917"><time>2021-04-17T08:47:45.177</time></trkpt><trkpt lat="55.8397733" lon="48.9203233"><time>2021-04-17T08:47:47.177</time></trkpt><trkpt lat="55.8398083" lon="48.9202400"><time>2021-04-17T08:47:49.177</time></trkpt><trkpt lat="55.8398500" lon="48.9201633"><time>2021-04-17T08:47:51.173</time></trkpt><trkpt lat="55.8398850" lon="48.9200900"><time>2021-04-17T08:47:53.177</time></trkpt><trkpt lat="55.8399017" lon="48.9199600"><time>2021-04-17T08:47:58.180</time></trkpt><trkpt lat="55.8398683" lon="48.9199000"><time>2021-04-17T08:48:02.177</time></trkpt><trkpt lat="55.8398583" lon="48.9199800"><time>2021-04-17T08:48:04.173</time></trkpt><trkpt lat="55.8399050" lon="48.9199850"><time>2021-04-17T08:48:08.173</time></trkpt><trkpt lat="55.8399367" lon="48.9199133"><time>2021-04-17T08:48:11.173</time></trkpt><trkpt lat="55.8399933" lon="48.9199000"><time>2021-04-17T08:48:12.177</time></trkpt><trkpt lat="55.8400333" lon="48.9197967"><time>2021-04-17T08:48:19.177</time></trkpt><trkpt lat="55.8400233" lon="48.9198767"><time>2021-04-17T08:48:35.177</time></trkpt><trkpt lat="55.8400267" lon="48.9199883"><time>2021-04-17T08:48:39.173</time></trkpt><trkpt lat="55.8400583" lon="48.9200833"><time>2021-04-17T08:48:41.177</time></trkpt><trkpt lat="55.8400817" lon="48.9201617"><time>2021-04-17T08:48:44.177</time></trkpt><trkpt lat="55.8401100" lon="48.9202283"><time>2021-04-17T08:48:46.193</time></trkpt><trkpt lat="55.8401083" lon="48.9203183"><time>2021-04-17T08:48:48.173</time></trkpt><trkpt lat="55.8401117" lon="48.9204183"><time>2021-04-17T08:48:52.173</time></trkpt><trkpt lat="55.8401183" lon="48.9205117"><time>2021-04-17T08:48:55.170</time></trkpt><trkpt lat="55.8401850" lon="48.9206017"><time>2021-04-17T08:48:57.183</time></trkpt><trkpt lat="55.8402567" lon="48.9206883"><time>2021-04-17T08:48:59.177</time></trkpt><trkpt lat="55.8403233" lon="48.9207750"><time>2021-04-17T08:49:01.173</time></trkpt><trkpt lat="55.8403733" lon="48.9208317"><time>2021-04-17T08:49:03.170</time></trkpt><trkpt lat="55.8404050" lon="48.9209117"><time>2021-04-17T08:49:06.207</time></trkpt><trkpt lat="55.8402850" lon="48.9209317"><time>2021-04-17T08:49:13.170</time></trkpt><trkpt lat="55.8402550" lon="48.9210250"><time>2021-04-17T08:49:14.170</time></trkpt><trkpt lat="55.8402383" lon="48.9210400"><time>2021-04-17T08:49:16.897</time></trkpt><trkpt lat="55.8402100" lon="48.9210367"><time>2021-04-17T08:49:18.180</time></trkpt><trkpt lat="55.8401850" lon="48.9211517"><time>2021-04-17T08:49:21.177</time></trkpt><trkpt lat="55.8400250" lon="48.9211783"><time>2021-04-17T08:49:24.177</time></trkpt><trkpt lat="55.8399950" lon="48.9211150"><time>2021-04-17T08:49:30.177</time></trkpt><trkpt lat="55.8400817" lon="48.9210483"><time>2021-04-17T08:49:35.177</time></trkpt><trkpt lat="55.8401283" lon="48.9209883"><time>2021-04-17T08:49:39.177</time></trkpt><trkpt lat="55.8401067" lon="48.9208817"><time>2021-04-17T08:49:45.177</time></trkpt><trkpt lat="55.8400767" lon="48.9207967"><time>2021-04-17T08:49:47.177</time></trkpt><trkpt lat="55.8400467" lon="48.9206917"><time>2021-04-17T08:49:49.177</time></trkpt><trkpt lat="55.8400183" lon="48.9205850"><time>2021-04-17T08:49:51.177</time></trkpt><trkpt lat="55.8399967" lon="48.9204867"><time>2021-04-17T08:49:53.177</time></trkpt><trkpt lat="55.8399833" lon="48.9203850"><time>2021-04-17T08:49:55.173</time></trkpt><trkpt lat="55.8399917" lon="48.9202900"><time>2021-04-17T08:49:57.177</time></trkpt><trkpt lat="55.8399933" lon="48.9201800"><time>2021-04-17T08:49:59.173</time></trkpt><trkpt lat="55.8400000" lon="48.9200967"><time>2021-04-17T08:50:01.177</time></trkpt><trkpt lat="55.8400217" lon="48.9200267"><time>2021-04-17T08:50:03.177</time></trkpt><trkpt lat="55.8400500" lon="48.9199633"><time>2021-04-17T08:50:05.177</time></trkpt><trkpt lat="55.8401067" lon="48.9198783"><time>2021-04-17T08:50:08.177</time></trkpt><trkpt lat="55.8401483" lon="48.9198000"><time>2021-04-17T08:50:10.170</time></trkpt><trkpt lat="55.8401967" lon="48.9197317"><time>2021-04-17T08:50:12.173</time></trkpt><trkpt lat="55.8402417" lon="48.9196400"><time>2021-04-17T08:50:15.177</time></trkpt><trkpt lat="55.8402650" lon="48.9195717"><time>2021-04-17T08:50:17.177</time></trkpt><trkpt lat="55.8403017" lon="48.9195100"><time>2021-04-17T08:50:19.177</time></trkpt><trkpt lat="55.8403517" lon="48.9194450"><time>2021-04-17T08:50:22.187</time></trkpt><trkpt lat="55.8403950" lon="48.9193933"><time>2021-04-17T08:50:25.177</time></trkpt><trkpt lat="55.8404650" lon="48.9193650"><time>2021-04-17T08:50:28.173</time></trkpt><trkpt lat="55.8405183" lon="48.9193267"><time>2021-04-17T08:50:31.177</time></trkpt><trkpt lat="55.8405667" lon="48.9193100"><time>2021-04-17T08:50:33.173</time></trkpt><trkpt lat="55.8406283" lon="48.9193183"><time>2021-04-17T08:50:35.177</time></trkpt><trkpt lat="55.8406917" lon="48.9193217"><time>2021-04-17T08:50:37.177</time></trkpt><trkpt lat="55.8407417" lon="48.9192900"><time>2021-04-17T08:50:39.177</time></trkpt><trkpt lat="55.8407867" lon="48.9192800"><time>2021-04-17T08:50:41.277</time></trkpt><trkpt lat="55.8408333" lon="48.9192600"><time>2021-04-17T08:50:43.177</time></trkpt><trkpt lat="55.8409033" lon="48.9192467"><time>2021-04-17T08:50:45.177</time></trkpt><trkpt lat="55.8409617" lon="48.9192650"><time>2021-04-17T08:50:48.177</time></trkpt><trkpt lat="55.8410083" lon="48.9192450"><time>2021-04-17T08:50:50.173</time></trkpt><trkpt lat="55.8410567" lon="48.9192150"><time>2021-04-17T08:50:53.177</time></trkpt><trkpt lat="55.8411183" lon="48.9192150"><time>2021-04-17T08:50:56.217</time></trkpt><trkpt lat="55.8411733" lon="48.9192433"><time>2021-04-17T08:50:58.177</time></trkpt><trkpt lat="55.8412267" lon="48.9192967"><time>2021-04-17T08:51:01.177</time></trkpt><trkpt lat="55.8412700" lon="48.9193433"><time>2021-04-17T08:51:03.173</time></trkpt><trkpt lat="55.8413250" lon="48.9194017"><time>2021-04-17T08:51:06.177</time></trkpt><trkpt lat="55.8413650" lon="48.9194483"><time>2021-04-17T08:51:08.177</time></trkpt><trkpt lat="55.8414167" lon="48.9195067"><time>2021-04-17T08:51:11.177</time></trkpt><trkpt lat="55.8414633" lon="48.9195567"><time>2021-04-17T08:51:13.177</time></trkpt><trkpt lat="55.8415117" lon="48.9196217"><time>2021-04-17T08:51:15.177</time></trkpt><trkpt lat="55.8415550" lon="48.9196767"><time>2021-04-17T08:51:17.177</time></trkpt><trkpt lat="55.8415967" lon="48.9197267"><time>2021-04-17T08:51:19.177</time></trkpt><trkpt lat="55.8416367" lon="48.9197683"><time>2021-04-17T08:51:21.177</time></trkpt><trkpt lat="55.8416833" lon="48.9198233"><time>2021-04-17T08:51:23.177</time></trkpt><trkpt lat="55.8417350" lon="48.9199033"><time>2021-04-17T08:51:26.173</time></trkpt><trkpt lat="55.8417783" lon="48.9199517"><time>2021-04-17T08:51:28.177</time></trkpt><trkpt lat="55.8418183" lon="48.9200033"><time>2021-04-17T08:51:30.177</time></trkpt><trkpt lat="55.8418633" lon="48.9200633"><time>2021-04-17T08:51:32.177</time></trkpt><trkpt lat="55.8419067" lon="48.9201250"><time>2021-04-17T08:51:34.173</time></trkpt><trkpt lat="55.8419450" lon="48.9201867"><time>2021-04-17T08:51:36.177</time></trkpt><trkpt lat="55.8419800" lon="48.9202533"><time>2021-04-17T08:51:38.177</time></trkpt><trkpt lat="55.8420117" lon="48.9203167"><time>2021-04-17T08:51:40.177</time></trkpt><trkpt lat="55.8420567" lon="48.9203800"><time>2021-04-17T08:51:42.177</time></trkpt><trkpt lat="55.8420950" lon="48.9204433"><time>2021-04-17T08:51:44.173</time></trkpt><trkpt lat="55.8421283" lon="48.9205100"><time>2021-04-17T08:51:46.177</time></trkpt><trkpt lat="55.8421783" lon="48.9205800"><time>2021-04-17T08:51:48.177</time></trkpt><trkpt lat="55.8422183" lon="48.9206550"><time>2021-04-17T08:51:50.177</time></trkpt><trkpt lat="55.8422600" lon="48.9207133"><time>2021-04-17T08:51:52.177</time></trkpt><trkpt lat="55.8423067" lon="48.9207850"><time>2021-04-17T08:51:55.177</time></trkpt><trkpt lat="55.8423583" lon="48.9208500"><time>2021-04-17T08:51:58.177</time></trkpt><trkpt lat="55.8424100" lon="48.9209200"><time>2021-04-17T08:52:01.177</time></trkpt><trkpt lat="55.8424600" lon="48.9209883"><time>2021-04-17T08:52:04.177</time></trkpt><trkpt lat="55.8424967" lon="48.9210367"><time>2021-04-17T08:52:06.177</time></trkpt><trkpt lat="55.8425367" lon="48.9210883"><time>2021-04-17T08:52:08.177</time></trkpt><trkpt lat="55.8425717" lon="48.9211433"><time>2021-04-17T08:52:10.180</time></trkpt><trkpt lat="55.8426083" lon="48.9212017"><time>2021-04-17T08:52:12.173</time></trkpt><trkpt lat="55.8426467" lon="48.9212817"><time>2021-04-17T08:52:15.177</time></trkpt><trkpt lat="55.8426783" lon="48.9213433"><time>2021-04-17T08:52:17.177</time></trkpt><trkpt lat="55.8427167" lon="48.9214267"><time>2021-04-17T08:52:20.177</time></trkpt><trkpt lat="55.8427567" lon="48.9215100"><time>2021-04-17T08:52:23.177</time></trkpt><trkpt lat="55.8427950" lon="48.9215733"><time>2021-04-17T08:52:25.177</time></trkpt><trkpt lat="55.8428383" lon="48.9216583"><time>2021-04-17T08:52:28.177</time></trkpt><trkpt lat="55.8428750" lon="48.9217267"><time>2021-04-17T08:52:30.177</time></trkpt><trkpt lat="55.8429117" lon="48.9218033"><time>2021-04-17T08:52:32.177</time></trkpt><trkpt lat="55.8429433" lon="48.9218667"><time>2021-04-17T08:52:34.177</time></trkpt><trkpt lat="55.8429767" lon="48.9219233"><time>2021-04-17T08:52:36.177</time></trkpt><trkpt lat="55.8430100" lon="48.9219817"><time>2021-04-17T08:52:38.177</time></trkpt><trkpt lat="55.8430433" lon="48.9220483"><time>2021-04-17T08:52:40.177</time></trkpt><trkpt lat="55.8430883" lon="48.9221233"><time>2021-04-17T08:52:43.177</time></trkpt><trkpt lat="55.8431383" lon="48.9222000"><time>2021-04-17T08:52:46.177</time></trkpt><trkpt lat="55.8431883" lon="48.9222767"><time>2021-04-17T08:52:49.177</time></trkpt><trkpt lat="55.8432233" lon="48.9223283"><time>2021-04-17T08:52:51.177</time></trkpt><trkpt lat="55.8432717" lon="48.9224167"><time>2021-04-17T08:52:54.177</time></trkpt><trkpt lat="55.8433100" lon="48.9224750"><time>2021-04-17T08:52:56.177</time></trkpt><trkpt lat="55.8433417" lon="48.9225367"><time>2021-04-17T08:52:58.177</time></trkpt><trkpt lat="55.8433867" lon="48.9226333"><time>2021-04-17T08:53:01.177</time></trkpt><trkpt lat="55.8434200" lon="48.9227317"><time>2021-04-17T08:53:04.177</time></trkpt><trkpt lat="55.8434667" lon="48.9228183"><time>2021-04-17T08:53:07.177</time></trkpt><trkpt lat="55.8435083" lon="48.9228950"><time>2021-04-17T08:53:10.177</time></trkpt><trkpt lat="55.8435550" lon="48.9229833"><time>2021-04-17T08:53:13.177</time></trkpt><trkpt lat="55.8435933" lon="48.9230500"><time>2021-04-17T08:53:15.177</time></trkpt><trkpt lat="55.8436367" lon="48.9231300"><time>2021-04-17T08:53:18.177</time></trkpt><trkpt lat="55.8436700" lon="48.9232000"><time>2021-04-17T08:53:21.177</time></trkpt><trkpt lat="55.8437133" lon="48.9232517"><time>2021-04-17T08:53:24.177</time></trkpt><trkpt lat="55.8437550" lon="48.9233317"><time>2021-04-17T08:53:28.177</time></trkpt><trkpt lat="55.8438000" lon="48.9234350"><time>2021-04-17T08:53:31.177</time></trkpt><trkpt lat="55.8438433" lon="48.9235117"><time>2021-04-17T08:53:33.177</time></trkpt><trkpt lat="55.8438800" lon="48.9235600"><time>2021-04-17T08:53:35.177</time></trkpt><trkpt lat="55.8439167" lon="48.9236250"><time>2021-04-17T08:53:37.177</time></trkpt><trkpt lat="55.8439517" lon="48.9236950"><time>2021-04-17T08:53:39.177</time></trkpt><trkpt lat="55.8439867" lon="48.9237683"><time>2021-04-17T08:53:41.177</time></trkpt><trkpt lat="55.8440250" lon="48.9238400"><time>2021-04-17T08:53:43.177</time></trkpt><trkpt lat="55.8440567" lon="48.9238983"><time>2021-04-17T08:53:45.177</time></trkpt><trkpt lat="55.8440967" lon="48.9239600"><time>2021-04-17T08:53:47.177</time></trkpt><trkpt lat="55.8441450" lon="48.9240233"><time>2021-04-17T08:53:49.173</time></trkpt><trkpt lat="55.8441883" lon="48.9240883"><time>2021-04-17T08:53:51.177</time></trkpt><trkpt lat="55.8442317" lon="48.9241667"><time>2021-04-17T08:53:53.177</time></trkpt><trkpt lat="55.8442850" lon="48.9242467"><time>2021-04-17T08:53:55.177</time></trkpt><trkpt lat="55.8443317" lon="48.9243300"><time>2021-04-17T08:53:57.177</time></trkpt><trkpt lat="55.8443667" lon="48.9243983"><time>2021-04-17T08:53:59.177</time></trkpt><trkpt lat="55.8444017" lon="48.9244633"><time>2021-04-17T08:54:01.177</time></trkpt><trkpt lat="55.8444383" lon="48.9245317"><time>2021-04-17T08:54:03.177</time></trkpt><trkpt lat="55.8444900" lon="48.9246017"><time>2021-04-17T08:54:05.177</time></trkpt><trkpt lat="55.8445367" lon="48.9246667"><time>2021-04-17T08:54:07.177</time></trkpt><trkpt lat="55.8445733" lon="48.9247283"><time>2021-04-17T08:54:09.177</time></trkpt><trkpt lat="55.8446117" lon="48.9247817"><time>2021-04-17T08:54:11.173</time></trkpt><trkpt lat="55.8446450" lon="48.9248400"><time>2021-04-17T08:54:13.170</time></trkpt><trkpt lat="55.8446800" lon="48.9248967"><time>2021-04-17T08:54:15.177</time></trkpt><trkpt lat="55.8447183" lon="48.9249700"><time>2021-04-17T08:54:17.177</time></trkpt><trkpt lat="55.8447533" lon="48.9250333"><time>2021-04-17T08:54:19.177</time></trkpt><trkpt lat="55.8448100" lon="48.9251050"><time>2021-04-17T08:54:22.177</time></trkpt><trkpt lat="55.8448500" lon="48.9251650"><time>2021-04-17T08:54:24.177</time></trkpt><trkpt lat="55.8448933" lon="48.9252300"><time>2021-04-17T08:54:26.177</time></trkpt><trkpt lat="55.8449317" lon="48.9252933"><time>2021-04-17T08:54:28.177</time></trkpt><trkpt lat="55.8449717" lon="48.9253500"><time>2021-04-17T08:54:30.177</time></trkpt><trkpt lat="55.8450183" lon="48.9254200"><time>2021-04-17T08:54:33.177</time></trkpt><trkpt lat="55.8450667" lon="48.9254950"><time>2021-04-17T08:54:36.187</time></trkpt><trkpt lat="55.8450983" lon="48.9255517"><time>2021-04-17T08:54:38.177</time></trkpt><trkpt lat="55.8451300" lon="48.9256117"><time>2021-04-17T08:54:40.177</time></trkpt><trkpt lat="55.8451667" lon="48.9256683"><time>2021-04-17T08:54:42.467</time></trkpt><trkpt lat="55.8452067" lon="48.9257200"><time>2021-04-17T08:54:44.170</time></trkpt><trkpt lat="55.8452517" lon="48.9257950"><time>2021-04-17T08:54:46.173</time></trkpt><trkpt lat="55.8453133" lon="48.9258867"><time>2021-04-17T08:54:48.177</time></trkpt><trkpt lat="55.8453467" lon="48.9259500"><time>2021-04-17T08:54:49.197</time></trkpt><trkpt lat="55.8453600" lon="48.9260000"><time>2021-04-17T08:54:51.167</time></trkpt><trkpt lat="55.8453700" lon="48.9260383"><time>2021-04-17T08:54:51.213</time></trkpt><trkpt lat="55.8453733" lon="48.9261467"><time>2021-04-17T08:54:53.187</time></trkpt><trkpt lat="55.8453350" lon="48.9260833"><time>2021-04-17T08:55:03.173</time></trkpt><trkpt lat="55.8453017" lon="48.9261450"><time>2021-04-17T08:55:05.177</time></trkpt><trkpt lat="55.8452933" lon="48.9262333"><time>2021-04-17T08:55:07.177</time></trkpt><trkpt lat="55.8452500" lon="48.9263233"><time>2021-04-17T08:55:23.177</time></trkpt><trkpt lat="55.8452167" lon="48.9263883"><time>2021-04-17T08:55:27.177</time></trkpt><trkpt lat="55.8451767" lon="48.9264317"><time>2021-04-17T08:55:34.177</time></trkpt><trkpt lat="55.8451333" lon="48.9264617"><time>2021-04-17T08:55:40.177</time></trkpt><trkpt lat="55.8451083" lon="48.9265317"><time>2021-04-17T08:55:48.177</time></trkpt><trkpt lat="55.8451033" lon="48.9266133"><time>2021-04-17T08:55:53.177</time></trkpt><trkpt lat="55.8450883" lon="48.9267000"><time>2021-04-17T08:55:59.177</time></trkpt><trkpt lat="55.8450567" lon="48.9267917"><time>2021-04-17T08:56:07.177</time></trkpt><trkpt lat="55.8450367" lon="48.9268833"><time>2021-04-17T08:56:22.173</time></trkpt><trkpt lat="55.8449883" lon="48.9269167"><time>2021-04-17T08:56:27.177</time></trkpt><trkpt lat="55.8449450" lon="48.9269767"><time>2021-04-17T08:56:31.177</time></trkpt><trkpt lat="55.8449050" lon="48.9270433"><time>2021-04-17T08:56:34.173</time></trkpt><trkpt lat="55.8448700" lon="48.9271283"><time>2021-04-17T08:56:37.177</time></trkpt><trkpt lat="55.8448367" lon="48.9271850"><time>2021-04-17T08:56:40.173</time></trkpt><trkpt lat="55.8447900" lon="48.9272400"><time>2021-04-17T08:56:45.177</time></trkpt><trkpt lat="55.8447500" lon="48.9272900"><time>2021-04-17T08:56:48.177</time></trkpt><trkpt lat="55.8447083" lon="48.9273500"><time>2021-04-17T08:56:51.177</time></trkpt><trkpt lat="55.8446550" lon="48.9274083"><time>2021-04-17T08:56:54.177</time></trkpt><trkpt lat="55.8446183" lon="48.9274733"><time>2021-04-17T08:56:57.173</time></trkpt><trkpt lat="55.8445733" lon="48.9275067"><time>2021-04-17T08:56:59.177</time></trkpt><trkpt lat="55.8445150" lon="48.9275433"><time>2021-04-17T08:57:02.173</time></trkpt><trkpt lat="55.8444733" lon="48.9275933"><time>2021-04-17T08:57:05.177</time></trkpt><trkpt lat="55.8444317" lon="48.9276517"><time>2021-04-17T08:57:08.177</time></trkpt><trkpt lat="55.8443750" lon="48.9276850"><time>2021-04-17T08:57:11.177</time></trkpt><trkpt lat="55.8443233" lon="48.9277400"><time>2021-04-17T08:57:14.177</time></trkpt><trkpt lat="55.8442833" lon="48.9278317"><time>2021-04-17T08:57:17.177</time></trkpt><trkpt lat="55.8442433" lon="48.9279017"><time>2021-04-17T08:57:21.173</time></trkpt><trkpt lat="55.8441867" lon="48.9279350"><time>2021-04-17T08:57:24.177</time></trkpt><trkpt lat="55.8441400" lon="48.9279667"><time>2021-04-17T08:57:26.177</time></trkpt><trkpt lat="55.8440850" lon="48.9280183"><time>2021-04-17T08:57:29.173</time></trkpt><trkpt lat="55.8440367" lon="48.9280567"><time>2021-04-17T08:57:31.177</time></trkpt><trkpt lat="55.8439967" lon="48.9280983"><time>2021-04-17T08:57:34.173</time></trkpt><trkpt lat="55.8439567" lon="48.9281550"><time>2021-04-17T08:57:37.173</time></trkpt><trkpt lat="55.8439000" lon="48.9282233"><time>2021-04-17T08:57:40.177</time></trkpt><trkpt lat="55.8438317" lon="48.9282600"><time>2021-04-17T08:57:42.173</time></trkpt><trkpt lat="55.8437767" lon="48.9283200"><time>2021-04-17T08:57:44.173</time></trkpt><trkpt lat="55.8437367" lon="48.9284050"><time>2021-04-17T08:57:47.177</time></trkpt><trkpt lat="55.8436883" lon="48.9284583"><time>2021-04-17T08:57:49.173</time></trkpt><trkpt lat="55.8436667" lon="48.9285767"><time>2021-04-17T08:57:52.173</time></trkpt><trkpt lat="55.8436417" lon="48.9286500"><time>2021-04-17T08:57:54.180</time></trkpt><trkpt lat="55.8436150" lon="48.9287167"><time>2021-04-17T08:57:55.177</time></trkpt><trkpt lat="55.8435883" lon="48.9287817"><time>2021-04-17T08:57:57.177</time></trkpt><trkpt lat="55.8435533" lon="48.9288567"><time>2021-04-17T08:58:00.177</time></trkpt><trkpt lat="55.8435300" lon="48.9289800"><time>2021-04-17T08:58:03.177</time></trkpt><trkpt lat="55.8435117" lon="48.9290650"><time>2021-04-17T08:58:05.177</time></trkpt><trkpt lat="55.8434633" lon="48.9291450"><time>2021-04-17T08:58:08.177</time></trkpt><trkpt lat="55.8434200" lon="48.9291983"><time>2021-04-17T08:58:11.170</time></trkpt><trkpt lat="55.8433933" lon="48.9292850"><time>2021-04-17T08:58:15.177</time></trkpt><trkpt lat="55.8433583" lon="48.9293667"><time>2021-04-17T08:58:19.177</time></trkpt><trkpt lat="55.8433283" lon="48.9294417"><time>2021-04-17T08:58:22.177</time></trkpt><trkpt lat="55.8433150" lon="48.9295317"><time>2021-04-17T08:58:25.177</time></trkpt><trkpt lat="55.8432967" lon="48.9296200"><time>2021-04-17T08:58:29.173</time></trkpt><trkpt lat="55.8432817" lon="48.9297183"><time>2021-04-17T08:58:33.177</time></trkpt><trkpt lat="55.8432617" lon="48.9298000"><time>2021-04-17T08:58:39.177</time></trkpt><trkpt lat="55.8432700" lon="48.9299300"><time>2021-04-17T08:58:59.173</time></trkpt><trkpt lat="55.8432433" lon="48.9300033"><time>2021-04-17T08:59:19.173</time></trkpt><trkpt lat="55.8432100" lon="48.9300700"><time>2021-04-17T08:59:25.177</time></trkpt><trkpt lat="55.8431767" lon="48.9301267"><time>2021-04-17T08:59:30.177</time></trkpt><trkpt lat="55.8431883" lon="48.9302250"><time>2021-04-17T08:59:35.177</time></trkpt><trkpt lat="55.8431667" lon="48.9303050"><time>2021-04-17T08:59:39.177</time></trkpt><trkpt lat="55.8431367" lon="48.9303900"><time>2021-04-17T08:59:44.177</time></trkpt><trkpt lat="55.8431167" lon="48.9304767"><time>2021-04-17T08:59:48.177</time></trkpt><trkpt lat="55.8431167" lon="48.9305583"><time>2021-04-17T08:59:51.177</time></trkpt><trkpt lat="55.8431050" lon="48.9306617"><time>2021-04-17T08:59:56.177</time></trkpt><trkpt lat="55.8430983" lon="48.9307517"><time>2021-04-17T09:00:00.177</time></trkpt><trkpt lat="55.8430767" lon="48.9308400"><time>2021-04-17T09:00:05.177</time></trkpt><trkpt lat="55.8430517" lon="48.9309517"><time>2021-04-17T09:00:08.197</time></trkpt><trkpt lat="55.8430383" lon="48.9310567"><time>2021-04-17T09:00:11.173</time></trkpt><trkpt lat="55.8430417" lon="48.9311467"><time>2021-04-17T09:00:13.173</time></trkpt><trkpt lat="55.8430417" lon="48.9312400"><time>2021-04-17T09:00:15.177</time></trkpt><trkpt lat="55.8430267" lon="48.9313167"><time>2021-04-17T09:00:17.177</time></trkpt><trkpt lat="55.8430050" lon="48.9314000"><time>2021-04-17T09:00:20.177</time></trkpt><trkpt lat="55.8429983" lon="48.9314967"><time>2021-04-17T09:00:22.177</time></trkpt><trkpt lat="55.8429783" lon="48.9315733"><time>2021-04-17T09:00:25.177</time></trkpt><trkpt lat="55.8429567" lon="48.9316450"><time>2021-04-17T09:00:29.177</time></trkpt><trkpt lat="55.8429367" lon="48.9317467"><time>2021-04-17T09:00:33.177</time></trkpt><trkpt lat="55.8429217" lon="48.9318383"><time>2021-04-17T09:00:36.177</time></trkpt><trkpt lat="55.8429283" lon="48.9319300"><time>2021-04-17T09:00:38.180</time></trkpt><trkpt lat="55.8429167" lon="48.9320300"><time>2021-04-17T09:00:40.177</time></trkpt><trkpt lat="55.8428850" lon="48.9321150"><time>2021-04-17T09:00:43.200</time></trkpt><trkpt lat="55.8428550" lon="48.9321767"><time>2021-04-17T09:00:46.177</time></trkpt><trkpt lat="55.8428300" lon="48.9322500"><time>2021-04-17T09:00:52.177</time></trkpt><trkpt lat="55.8427900" lon="48.9323300"><time>2021-04-17T09:01:00.177</time></trkpt><trkpt lat="55.8427450" lon="48.9323667"><time>2021-04-17T09:01:06.173</time></trkpt><trkpt lat="55.8427000" lon="48.9324017"><time>2021-04-17T09:01:09.177</time></trkpt><trkpt lat="55.8426517" lon="48.9324250"><time>2021-04-17T09:01:12.177</time></trkpt><trkpt lat="55.8425983" lon="48.9324483"><time>2021-04-17T09:01:14.177</time></trkpt><trkpt lat="55.8425417" lon="48.9325100"><time>2021-04-17T09:01:18.187</time></trkpt><trkpt lat="55.8424833" lon="48.9325050"><time>2021-04-17T09:01:21.177</time></trkpt><trkpt lat="55.8424250" lon="48.9325550"><time>2021-04-17T09:01:25.177</time></trkpt><trkpt lat="55.8423767" lon="48.9325767"><time>2021-04-17T09:01:28.177</time></trkpt><trkpt lat="55.8423250" lon="48.9326150"><time>2021-04-17T09:01:32.177</time></trkpt><trkpt lat="55.8422783" lon="48.9326583"><time>2021-04-17T09:01:36.177</time></trkpt><trkpt lat="55.8422267" lon="48.9326650"><time>2021-04-17T09:01:41.177</time></trkpt><trkpt lat="55.8421800" lon="48.9326883"><time>2021-04-17T09:01:45.177</time></trkpt><trkpt lat="55.8421333" lon="48.9327217"><time>2021-04-17T09:01:50.177</time></trkpt><trkpt lat="55.8420767" lon="48.9327200"><time>2021-04-17T09:01:57.177</time></trkpt><trkpt lat="55.8420050" lon="48.9327150"><time>2021-04-17T09:02:00.177</time></trkpt><trkpt lat="55.8419533" lon="48.9327467"><time>2021-04-17T09:02:03.177</time></trkpt><trkpt lat="55.8419017" lon="48.9327833"><time>2021-04-17T09:02:06.173</time></trkpt><trkpt lat="55.8418433" lon="48.9328267"><time>2021-04-17T09:02:09.177</time></trkpt><trkpt lat="55.8418000" lon="48.9328817"><time>2021-04-17T09:02:11.173</time></trkpt><trkpt lat="55.8417550" lon="48.9329433"><time>2021-04-17T09:02:14.177</time></trkpt><trkpt lat="55.8417200" lon="48.9330517"><time>2021-04-17T09:02:17.177</time></trkpt><trkpt lat="55.8417033" lon="48.9330867"><time>2021-04-17T09:02:18.680</time></trkpt><trkpt lat="55.8416883" lon="48.9331350"><time>2021-04-17T09:02:19.170</time></trkpt><trkpt lat="55.8416350" lon="48.9331483"><time>2021-04-17T09:02:22.173</time></trkpt><trkpt lat="55.8416050" lon="48.9332283"><time>2021-04-17T09:02:53.177</time></trkpt><trkpt lat="55.8415583" lon="48.9332567"><time>2021-04-17T09:02:57.177</time></trkpt><trkpt lat="55.8415183" lon="48.9332983"><time>2021-04-17T09:03:22.177</time></trkpt><trkpt lat="55.8414567" lon="48.9332733"><time>2021-04-17T09:03:25.177</time></trkpt><trkpt lat="55.8414133" lon="48.9332267"><time>2021-04-17T09:03:28.177</time></trkpt><trkpt lat="55.8413650" lon="48.9331783"><time>2021-04-17T09:03:32.177</time></trkpt><trkpt lat="55.8413233" lon="48.9331383"><time>2021-04-17T09:03:35.177</time></trkpt><trkpt lat="55.8412700" lon="48.9331000"><time>2021-04-17T09:03:38.177</time></trkpt><trkpt lat="55.8412167" lon="48.9330667"><time>2021-04-17T09:03:41.177</time></trkpt><trkpt lat="55.8411700" lon="48.9330283"><time>2021-04-17T09:03:44.177</time></trkpt><trkpt lat="55.8411133" lon="48.9330267"><time>2021-04-17T09:03:46.177</time></trkpt><trkpt lat="55.8410550" lon="48.9330783"><time>2021-04-17T09:03:49.177</time></trkpt><trkpt lat="55.8410200" lon="48.9331433"><time>2021-04-17T09:03:51.177</time></trkpt><trkpt lat="55.8410183" lon="48.9332350"><time>2021-04-17T09:03:55.177</time></trkpt><trkpt lat="55.8409900" lon="48.9333317"><time>2021-04-17T09:03:58.230</time></trkpt><trkpt lat="55.8409617" lon="48.9334100"><time>2021-04-17T09:04:01.177</time></trkpt><trkpt lat="55.8409583" lon="48.9335183"><time>2021-04-17T09:04:04.177</time></trkpt><trkpt lat="55.8409550" lon="48.9336033"><time>2021-04-17T09:04:06.177</time></trkpt><trkpt lat="55.8409333" lon="48.9336967"><time>2021-04-17T09:04:09.177</time></trkpt><trkpt lat="55.8409150" lon="48.9337750"><time>2021-04-17T09:04:12.170</time></trkpt><trkpt lat="55.8409000" lon="48.9338617"><time>2021-04-17T09:04:14.173</time></trkpt><trkpt lat="55.8408950" lon="48.9339567"><time>2021-04-17T09:04:16.177</time></trkpt><trkpt lat="55.8408850" lon="48.9340483"><time>2021-04-17T09:04:18.177</time></trkpt><trkpt lat="55.8408817" lon="48.9341333"><time>2021-04-17T09:04:20.177</time></trkpt><trkpt lat="55.8408650" lon="48.9342117"><time>2021-04-17T09:04:22.177</time></trkpt><trkpt lat="55.8408367" lon="48.9343117"><time>2021-04-17T09:04:24.177</time></trkpt><trkpt lat="55.8408183" lon="48.9343967"><time>2021-04-17T09:04:26.177</time></trkpt><trkpt lat="55.8408150" lon="48.9344900"><time>2021-04-17T09:04:28.177</time></trkpt><trkpt lat="55.8408233" lon="48.9345817"><time>2021-04-17T09:04:30.177</time></trkpt><trkpt lat="55.8408267" lon="48.9346667"><time>2021-04-17T09:04:32.180</time></trkpt><trkpt lat="55.8408150" lon="48.9347667"><time>2021-04-17T09:04:34.177</time></trkpt><trkpt lat="55.8408033" lon="48.9348550"><time>2021-04-17T09:04:36.173</time></trkpt><trkpt lat="55.8407633" lon="48.9349583"><time>2021-04-17T09:04:39.177</time></trkpt><trkpt lat="55.8407433" lon="48.9350467"><time>2021-04-17T09:04:41.177</time></trkpt><trkpt lat="55.8407167" lon="48.9351117"><time>2021-04-17T09:04:43.177</time></trkpt><trkpt lat="55.8407017" lon="48.9351900"><time>2021-04-17T09:04:45.177</time></trkpt><trkpt lat="55.8406817" lon="48.9352650"><time>2021-04-17T09:04:47.180</time></trkpt><trkpt lat="55.8406817" lon="48.9353517"><time>2021-04-17T09:04:49.173</time></trkpt><trkpt lat="55.8406700" lon="48.9354367"><time>2021-04-17T09:04:51.177</time></trkpt><trkpt lat="55.8406500" lon="48.9355183"><time>2021-04-17T09:04:53.177</time></trkpt><trkpt lat="55.8406300" lon="48.9355967"><time>2021-04-17T09:04:55.177</time></trkpt><trkpt lat="55.8406083" lon="48.9356983"><time>2021-04-17T09:04:57.177</time></trkpt><trkpt lat="55.8406117" lon="48.9358083"><time>2021-04-17T09:05:00.177</time></trkpt><trkpt lat="55.8406050" lon="48.9359117"><time>2021-04-17T09:05:03.177</time></trkpt><trkpt lat="55.8405900" lon="48.9360017"><time>2021-04-17T09:05:05.177</time></trkpt><trkpt lat="55.8405650" lon="48.9360750"><time>2021-04-17T09:05:07.173</time></trkpt><trkpt lat="55.8405383" lon="48.9361583"><time>2021-04-17T09:05:10.173</time></trkpt><trkpt lat="55.8405167" lon="48.9362283"><time>2021-04-17T09:05:12.177</time></trkpt><trkpt lat="55.8404967" lon="48.9363133"><time>2021-04-17T09:05:14.177</time></trkpt><trkpt lat="55.8404700" lon="48.9364167"><time>2021-04-17T09:05:17.177</time></trkpt><trkpt lat="55.8404433" lon="48.9365050"><time>2021-04-17T09:05:20.173</time></trkpt><trkpt lat="55.8404183" lon="48.9365967"><time>2021-04-17T09:05:23.177</time></trkpt><trkpt lat="55.8404050" lon="48.9366733"><time>2021-04-17T09:05:26.177</time></trkpt><trkpt lat="55.8403833" lon="48.9367717"><time>2021-04-17T09:05:29.177</time></trkpt><trkpt lat="55.8403717" lon="48.9368850"><time>2021-04-17T09:05:32.177</time></trkpt><trkpt lat="55.8403617" lon="48.9369833"><time>2021-04-17T09:05:34.180</time></trkpt><trkpt lat="55.8403483" lon="48.9370700"><time>2021-04-17T09:05:36.177</time></trkpt><trkpt lat="55.8403367" lon="48.9371483"><time>2021-04-17T09:05:38.177</time></trkpt><trkpt lat="55.8403350" lon="48.9372600"><time>2021-04-17T09:05:41.177</time></trkpt><trkpt lat="55.8403300" lon="48.9373533"><time>2021-04-17T09:05:46.177</time></trkpt><trkpt lat="55.8403517" lon="48.9374417"><time>2021-04-17T09:05:50.177</time></trkpt><trkpt lat="55.8403450" lon="48.9375350"><time>2021-04-17T09:05:54.177</time></trkpt><trkpt lat="55.8403350" lon="48.9376417"><time>2021-04-17T09:05:58.177</time></trkpt><trkpt lat="55.8403533" lon="48.9377717"><time>2021-04-17T09:06:01.177</time></trkpt><trkpt lat="55.8403783" lon="48.9378433"><time>2021-04-17T09:06:04.173</time></trkpt><trkpt lat="55.8404083" lon="48.9379067"><time>2021-04-17T09:06:09.177</time></trkpt><trkpt lat="55.8404333" lon="48.9379767"><time>2021-04-17T09:06:14.173</time></trkpt><trkpt lat="55.8403333" lon="48.9380617"><time>2021-04-17T09:06:25.177</time></trkpt><trkpt lat="55.8402817" lon="48.9380800"><time>2021-04-17T09:06:29.177</time></trkpt><trkpt lat="55.8402283" lon="48.9380650"><time>2021-04-17T09:06:33.177</time></trkpt><trkpt lat="55.8401733" lon="48.9380567"><time>2021-04-17T09:06:37.177</time></trkpt><trkpt lat="55.8401200" lon="48.9380483"><time>2021-04-17T09:06:41.177</time></trkpt><trkpt lat="55.8400783" lon="48.9381000"><time>2021-04-17T09:06:49.177</time></trkpt><trkpt lat="55.8401267" lon="48.9381717"><time>2021-04-17T09:07:06.173</time></trkpt><trkpt lat="55.8401300" lon="48.9382517"><time>2021-04-17T09:07:32.180</time></trkpt><trkpt lat="55.8401133" lon="48.9383333"><time>2021-04-17T09:07:45.173</time></trkpt><trkpt lat="55.8400950" lon="48.9383733"><time>2021-04-17T09:07:51.853</time></trkpt><trkpt lat="55.8400717" lon="48.9383867"><time>2021-04-17T09:07:55.170</time></trkpt><trkpt lat="55.8400200" lon="48.9384450"><time>2021-04-17T09:07:59.180</time></trkpt><trkpt lat="55.8399700" lon="48.9384717"><time>2021-04-17T09:08:02.170</time></trkpt><trkpt lat="55.8399117" lon="48.9384833"><time>2021-04-17T09:08:05.170</time></trkpt><trkpt lat="55.8398650" lon="48.9384800"><time>2021-04-17T09:08:09.173</time></trkpt><trkpt lat="55.8398533" lon="48.9383983"><time>2021-04-17T09:08:15.170</time></trkpt><trkpt lat="55.8398817" lon="48.9383033"><time>2021-04-17T09:08:18.170</time></trkpt><trkpt lat="55.8399533" lon="48.9382817"><time>2021-04-17T09:08:20.173</time></trkpt><trkpt lat="55.8399633" lon="48.9384483"><time>2021-04-17T09:08:32.213</time></trkpt><trkpt lat="55.8400300" lon="48.9385000"><time>2021-04-17T09:08:35.173</time></trkpt><trkpt lat="55.8400867" lon="48.9384933"><time>2021-04-17T09:08:39.177</time></trkpt><trkpt lat="55.8401150" lon="48.9385850"><time>2021-04-17T09:08:45.177</time></trkpt><trkpt lat="55.8401150" lon="48.9386833"><time>2021-04-17T09:08:49.177</time></trkpt><trkpt lat="55.8401000" lon="48.9387917"><time>2021-04-17T09:08:52.173</time></trkpt><trkpt lat="55.8400917" lon="48.9388767"><time>2021-04-17T09:08:54.173</time></trkpt><trkpt lat="55.8400833" lon="48.9389750"><time>2021-04-17T09:08:57.177</time></trkpt><trkpt lat="55.8400667" lon="48.9390617"><time>2021-04-17T09:09:02.173</time></trkpt><trkpt lat="55.8400617" lon="48.9391600"><time>2021-04-17T09:09:06.207</time></trkpt><trkpt lat="55.8400333" lon="48.9392600"><time>2021-04-17T09:09:09.210</time></trkpt><trkpt lat="55.8400267" lon="48.9393617"><time>2021-04-17T09:09:12.173</time></trkpt><trkpt lat="55.8400117" lon="48.9394450"><time>2021-04-17T09:09:15.177</time></trkpt><trkpt lat="55.8399900" lon="48.9395450"><time>2021-04-17T09:09:18.180</time></trkpt><trkpt lat="55.8399500" lon="48.9396417"><time>2021-04-17T09:09:21.173</time></trkpt><trkpt lat="55.8399200" lon="48.9397200"><time>2021-04-17T09:09:24.173</time></trkpt><trkpt lat="55.8399150" lon="48.9398367"><time>2021-04-17T09:09:28.173</time></trkpt><trkpt lat="55.8399250" lon="48.9399150"><time>2021-04-17T09:09:30.173</time></trkpt><trkpt lat="55.8399250" lon="48.9400067"><time>2021-04-17T09:09:33.170</time></trkpt><trkpt lat="55.8399583" lon="48.9400783"><time>2021-04-17T09:09:37.173</time></trkpt><trkpt lat="55.8399667" lon="48.9401683"><time>2021-04-17T09:09:42.177</time></trkpt><trkpt lat="55.8399433" lon="48.9402417"><time>2021-04-17T09:09:44.173</time></trkpt><trkpt lat="55.8399250" lon="48.9403150"><time>2021-04-17T09:09:46.173</time></trkpt><trkpt lat="55.8399083" lon="48.9404133"><time>2021-04-17T09:09:49.173</time></trkpt><trkpt lat="55.8398700" lon="48.9404600"><time>2021-04-17T09:09:52.173</time></trkpt><trkpt lat="55.8398367" lon="48.9405350"><time>2021-04-17T09:09:55.173</time></trkpt><trkpt lat="55.8397900" lon="48.9405517"><time>2021-04-17T09:09:57.177</time></trkpt><trkpt lat="55.8397500" lon="48.9405900"><time>2021-04-17T09:10:01.177</time></trkpt><trkpt lat="55.8397183" lon="48.9406467"><time>2021-04-17T09:10:05.173</time></trkpt><trkpt lat="55.8396833" lon="48.9407117"><time>2021-04-17T09:10:11.190</time></trkpt><trkpt lat="55.8396750" lon="48.9407967"><time>2021-04-17T09:10:16.170</time></trkpt><trkpt lat="55.8396800" lon="48.9408950"><time>2021-04-17T09:10:21.177</time></trkpt><trkpt lat="55.8396550" lon="48.9409867"><time>2021-04-17T09:10:26.173</time></trkpt><trkpt lat="55.8396200" lon="48.9410517"><time>2021-04-17T09:10:32.177</time></trkpt><trkpt lat="55.8395700" lon="48.9411167"><time>2021-04-17T09:10:37.197</time></trkpt><trkpt lat="55.8395150" lon="48.9412017"><time>2021-04-17T09:10:40.173</time></trkpt><trkpt lat="55.8394883" lon="48.9412733"><time>2021-04-17T09:10:42.177</time></trkpt><trkpt lat="55.8394450" lon="48.9413550"><time>2021-04-17T09:10:45.177</time></trkpt><trkpt lat="55.8394033" lon="48.9414217"><time>2021-04-17T09:10:48.177</time></trkpt><trkpt lat="55.8393517" lon="48.9414367"><time>2021-04-17T09:10:52.173</time></trkpt><trkpt lat="55.8392967" lon="48.9414617"><time>2021-04-17T09:10:57.177</time></trkpt><trkpt lat="55.8392500" lon="48.9414750"><time>2021-04-17T09:10:59.177</time></trkpt><trkpt lat="55.8391883" lon="48.9414700"><time>2021-04-17T09:11:02.177</time></trkpt><trkpt lat="55.8391217" lon="48.9414517"><time>2021-04-17T09:11:05.177</time></trkpt><trkpt lat="55.8390783" lon="48.9414233"><time>2021-04-17T09:11:07.180</time></trkpt><trkpt lat="55.8390200" lon="48.9413917"><time>2021-04-17T09:11:10.177</time></trkpt><trkpt lat="55.8389767" lon="48.9413567"><time>2021-04-17T09:11:12.177</time></trkpt><trkpt lat="55.8389133" lon="48.9413283"><time>2021-04-17T09:11:16.173</time></trkpt><trkpt lat="55.8388350" lon="48.9413450"><time>2021-04-17T09:11:18.177</time></trkpt><trkpt lat="55.8387717" lon="48.9413517"><time>2021-04-17T09:11:20.173</time></trkpt><trkpt lat="55.8387217" lon="48.9413833"><time>2021-04-17T09:11:22.173</time></trkpt><trkpt lat="55.8386750" lon="48.9413583"><time>2021-04-17T09:11:24.173</time></trkpt><trkpt lat="55.8386333" lon="48.9412917"><time>2021-04-17T09:11:26.173</time></trkpt><trkpt lat="55.8385883" lon="48.9412183"><time>2021-04-17T09:11:28.177</time></trkpt><trkpt lat="55.8385500" lon="48.9411567"><time>2021-04-17T09:11:29.190</time></trkpt><trkpt lat="55.8385017" lon="48.9411017"><time>2021-04-17T09:11:31.187</time></trkpt><trkpt lat="55.8384350" lon="48.9410450"><time>2021-04-17T09:11:33.173</time></trkpt><trkpt lat="55.8383883" lon="48.9410350"><time>2021-04-17T09:11:34.170</time></trkpt><trkpt lat="55.8383433" lon="48.9410283"><time>2021-04-17T09:11:35.170</time></trkpt><trkpt lat="55.8382750" lon="48.9410383"><time>2021-04-17T09:11:37.173</time></trkpt><trkpt lat="55.8382267" lon="48.9410200"><time>2021-04-17T09:11:39.177</time></trkpt><trkpt lat="55.8382100" lon="48.9409417"><time>2021-04-17T09:11:44.170</time></trkpt><trkpt lat="55.8382283" lon="48.9409150"><time>2021-04-17T09:11:46.797</time></trkpt><trkpt lat="55.8382483" lon="48.9408967"><time>2021-04-17T09:11:47.180</time></trkpt><trkpt lat="55.8382600" lon="48.9410067"><time>2021-04-17T09:11:53.173</time></trkpt><trkpt lat="55.8382833" lon="48.9412317"><time>2021-04-17T09:11:57.173</time></trkpt><trkpt lat="55.8382950" lon="48.9413167"><time>2021-04-17T09:12:00.177</time></trkpt><trkpt lat="55.8384183" lon="48.9413000"><time>2021-04-17T09:12:33.177</time></trkpt><trkpt lat="55.8384633" lon="48.9413083"><time>2021-04-17T09:12:36.177</time></trkpt><trkpt lat="55.8385133" lon="48.9413333"><time>2021-04-17T09:12:42.177</time></trkpt><trkpt lat="55.8384367" lon="48.9413733"><time>2021-04-17T09:13:01.177</time></trkpt><trkpt lat="55.8384600" lon="48.9414433"><time>2021-04-17T09:13:20.173</time></trkpt><trkpt lat="55.8383750" lon="48.9415317"><time>2021-04-17T09:13:46.177</time></trkpt><trkpt lat="55.8383283" lon="48.9415567"><time>2021-04-17T09:13:52.177</time></trkpt><trkpt lat="55.8382467" lon="48.9414767"><time>2021-04-17T09:14:30.177</time></trkpt><trkpt lat="55.8381933" lon="48.9414050"><time>2021-04-17T09:14:32.173</time></trkpt><trkpt lat="55.8381267" lon="48.9413483"><time>2021-04-17T09:14:34.177</time></trkpt><trkpt lat="55.8380900" lon="48.9412850"><time>2021-04-17T09:14:37.177</time></trkpt><trkpt lat="55.8380550" lon="48.9412067"><time>2021-04-17T09:14:40.177</time></trkpt><trkpt lat="55.8380167" lon="48.9411300"><time>2021-04-17T09:14:44.173</time></trkpt><trkpt lat="55.8379867" lon="48.9410667"><time>2021-04-17T09:14:46.177</time></trkpt><trkpt lat="55.8379433" lon="48.9410100"><time>2021-04-17T09:14:48.173</time></trkpt><trkpt lat="55.8379000" lon="48.9409400"><time>2021-04-17T09:14:51.177</time></trkpt><trkpt lat="55.8378600" lon="48.9408783"><time>2021-04-17T09:14:54.177</time></trkpt><trkpt lat="55.8378217" lon="48.9408367"><time>2021-04-17T09:14:57.177</time></trkpt><trkpt lat="55.8377717" lon="48.9407783"><time>2021-04-17T09:15:00.177</time></trkpt><trkpt lat="55.8377250" lon="48.9407250"><time>2021-04-17T09:15:03.177</time></trkpt><trkpt lat="55.8376783" lon="48.9406917"><time>2021-04-17T09:15:05.177</time></trkpt><trkpt lat="55.8376200" lon="48.9406517"><time>2021-04-17T09:15:08.177</time></trkpt><trkpt lat="55.8375750" lon="48.9406117"><time>2021-04-17T09:15:11.177</time></trkpt><trkpt lat="55.8375217" lon="48.9405667"><time>2021-04-17T09:15:14.177</time></trkpt><trkpt lat="55.8374800" lon="48.9405283"><time>2021-04-17T09:15:16.173</time></trkpt><trkpt lat="55.8374317" lon="48.9405067"><time>2021-04-17T09:15:18.177</time></trkpt><trkpt lat="55.8373767" lon="48.9404767"><time>2021-04-17T09:15:20.173</time></trkpt><trkpt lat="55.8373333" lon="48.9404433"><time>2021-04-17T09:15:22.173</time></trkpt><trkpt lat="55.8372767" lon="48.9404067"><time>2021-04-17T09:15:25.177</time></trkpt><trkpt lat="55.8372250" lon="48.9403583"><time>2021-04-17T09:15:28.177</time></trkpt><trkpt lat="55.8371817" lon="48.9403217"><time>2021-04-17T09:15:30.177</time></trkpt><trkpt lat="55.8371417" lon="48.9402817"><time>2021-04-17T09:15:32.173</time></trkpt><trkpt lat="55.8370917" lon="48.9402417"><time>2021-04-17T09:15:34.177</time></trkpt><trkpt lat="55.8370483" lon="48.9402033"><time>2021-04-17T09:15:36.177</time></trkpt><trkpt lat="55.8369967" lon="48.9401683"><time>2021-04-17T09:15:39.177</time></trkpt><trkpt lat="55.8369333" lon="48.9401567"><time>2021-04-17T09:15:42.177</time></trkpt><trkpt lat="55.8368850" lon="48.9401600"><time>2021-04-17T09:15:45.177</time></trkpt><trkpt lat="55.8368250" lon="48.9401383"><time>2021-04-17T09:15:48.177</time></trkpt><trkpt lat="55.8367583" lon="48.9401000"><time>2021-04-17T09:15:52.173</time></trkpt><trkpt lat="55.8367067" lon="48.9400683"><time>2021-04-17T09:15:55.177</time></trkpt><trkpt lat="55.8366467" lon="48.9400283"><time>2021-04-17T09:15:59.190</time></trkpt><trkpt lat="55.8366000" lon="48.9400150"><time>2021-04-17T09:16:02.177</time></trkpt><trkpt lat="55.8365533" lon="48.9400000"><time>2021-04-17T09:16:04.173</time></trkpt><trkpt lat="55.8364950" lon="48.9399550"><time>2021-04-17T09:16:06.177</time></trkpt><trkpt lat="55.8364333" lon="48.9399050"><time>2021-04-17T09:16:08.177</time></trkpt><trkpt lat="55.8363667" lon="48.9398517"><time>2021-04-17T09:16:10.177</time></trkpt><trkpt lat="55.8363017" lon="48.9398200"><time>2021-04-17T09:16:12.177</time></trkpt><trkpt lat="55.8362400" lon="48.9397617"><time>2021-04-17T09:16:14.173</time></trkpt><trkpt lat="55.8361917" lon="48.9397367"><time>2021-04-17T09:16:16.177</time></trkpt><trkpt lat="55.8361417" lon="48.9397200"><time>2021-04-17T09:16:18.177</time></trkpt><trkpt lat="55.8360933" lon="48.9397150"><time>2021-04-17T09:16:20.170</time></trkpt><trkpt lat="55.8360450" lon="48.9396867"><time>2021-04-17T09:16:22.177</time></trkpt><trkpt lat="55.8360000" lon="48.9396650"><time>2021-04-17T09:16:24.177</time></trkpt><trkpt lat="55.8359550" lon="48.9396283"><time>2021-04-17T09:16:26.177</time></trkpt><trkpt lat="55.8358983" lon="48.9395917"><time>2021-04-17T09:16:28.173</time></trkpt><trkpt lat="55.8358483" lon="48.9395750"><time>2021-04-17T09:16:31.177</time></trkpt><trkpt lat="55.8358100" lon="48.9396217"><time>2021-04-17T09:16:34.173</time></trkpt><trkpt lat="55.8357767" lon="48.9396800"><time>2021-04-17T09:16:37.177</time></trkpt><trkpt lat="55.8357333" lon="48.9397417"><time>2021-04-17T09:16:40.173</time></trkpt><trkpt lat="55.8357000" lon="48.9398250"><time>2021-04-17T09:16:43.183</time></trkpt><trkpt lat="55.8356800" lon="48.9399200"><time>2021-04-17T09:16:47.173</time></trkpt><trkpt lat="55.8356683" lon="48.9400567"><time>2021-04-17T09:16:50.183</time></trkpt><trkpt lat="55.8356533" lon="48.9401417"><time>2021-04-17T09:16:52.180</time></trkpt><trkpt lat="55.8356267" lon="48.9402233"><time>2021-04-17T09:16:54.170</time></trkpt><trkpt lat="55.8355833" lon="48.9402750"><time>2021-04-17T09:16:55.173</time></trkpt><trkpt lat="55.8355433" lon="48.9403333"><time>2021-04-17T09:16:58.183</time></trkpt><trkpt lat="55.8355433" lon="48.9403333"><time>2021-04-17T09:16:58.210</time></trkpt><trkpt lat="55.8354950" lon="48.9403600"><time>2021-04-17T09:17:00.180</time></trkpt><trkpt lat="55.8355483" lon="48.9403433"><time>2021-04-17T09:17:05.170</time></trkpt><trkpt lat="55.8355083" lon="48.9403000"><time>2021-04-17T09:17:11.173</time></trkpt><trkpt lat="55.8354517" lon="48.9402850"><time>2021-04-17T09:17:14.177</time></trkpt><trkpt lat="55.8354033" lon="48.9402317"><time>2021-04-17T09:17:30.173</time></trkpt><trkpt lat="55.8354183" lon="48.9401533"><time>2021-04-17T09:17:35.177</time></trkpt><trkpt lat="55.8354567" lon="48.9400717"><time>2021-04-17T09:17:42.177</time></trkpt><trkpt lat="55.8354933" lon="48.9400033"><time>2021-04-17T09:17:45.177</time></trkpt><trkpt lat="55.8355133" lon="48.9399200"><time>2021-04-17T09:17:48.177</time></trkpt><trkpt lat="55.8355383" lon="48.9398217"><time>2021-04-17T09:17:51.173</time></trkpt><trkpt lat="55.8355367" lon="48.9397150"><time>2021-04-17T09:17:54.177</time></trkpt><trkpt lat="55.8355250" lon="48.9396150"><time>2021-04-17T09:17:57.173</time></trkpt><trkpt lat="55.8355000" lon="48.9395350"><time>2021-04-17T09:17:59.173</time></trkpt><trkpt lat="55.8354767" lon="48.9394483"><time>2021-04-17T09:18:01.177</time></trkpt><trkpt lat="55.8354467" lon="48.9393783"><time>2021-04-17T09:18:03.177</time></trkpt><trkpt lat="55.8353967" lon="48.9393400"><time>2021-04-17T09:18:06.177</time></trkpt><trkpt lat="55.8353567" lon="48.9393033"><time>2021-04-17T09:18:10.177</time></trkpt><trkpt lat="55.8353083" lon="48.9392933"><time>2021-04-17T09:18:14.173</time></trkpt><trkpt lat="55.8352650" lon="48.9393183"><time>2021-04-17T09:18:20.170</time></trkpt><trkpt lat="55.8352167" lon="48.9393533"><time>2021-04-17T09:18:26.173</time></trkpt><trkpt lat="55.8351767" lon="48.9394017"><time>2021-04-17T09:18:34.173</time></trkpt><trkpt lat="55.8351533" lon="48.9394817"><time>2021-04-17T09:18:39.177</time></trkpt><trkpt lat="55.8351200" lon="48.9395400"><time>2021-04-17T09:18:42.177</time></trkpt><trkpt lat="55.8350983" lon="48.9396300"><time>2021-04-17T09:18:46.177</time></trkpt><trkpt lat="55.8350800" lon="48.9397150"><time>2021-04-17T09:18:51.177</time></trkpt><trkpt lat="55.8350450" lon="48.9397783"><time>2021-04-17T09:18:55.173</time></trkpt><trkpt lat="55.8350283" lon="48.9398533"><time>2021-04-17T09:18:59.177</time></trkpt><trkpt lat="55.8350467" lon="48.9399267"><time>2021-04-17T09:19:02.173</time></trkpt><trkpt lat="55.8350300" lon="48.9400083"><time>2021-04-17T09:19:08.173</time></trkpt><trkpt lat="55.8349967" lon="48.9400883"><time>2021-04-17T09:19:11.177</time></trkpt><trkpt lat="55.8349617" lon="48.9401517"><time>2021-04-17T09:19:14.173</time></trkpt><trkpt lat="55.8349167" lon="48.9401617"><time>2021-04-17T09:19:16.177</time></trkpt><trkpt lat="55.8348583" lon="48.9401600"><time>2021-04-17T09:19:19.177</time></trkpt><trkpt lat="55.8348100" lon="48.9401450"><time>2021-04-17T09:19:21.177</time></trkpt><trkpt lat="55.8347600" lon="48.9401333"><time>2021-04-17T09:19:24.177</time></trkpt><trkpt lat="55.8347083" lon="48.9401417"><time>2021-04-17T09:19:27.177</time></trkpt><trkpt lat="55.8346517" lon="48.9401267"><time>2021-04-17T09:19:30.177</time></trkpt><trkpt lat="55.8346017" lon="48.9401000"><time>2021-04-17T09:19:34.173</time></trkpt><trkpt lat="55.8345567" lon="48.9400933"><time>2021-04-17T09:19:39.177</time></trkpt><trkpt lat="55.8344700" lon="48.9400717"><time>2021-04-17T09:19:48.177</time></trkpt><trkpt lat="55.8344233" lon="48.9400400"><time>2021-04-17T09:19:51.177</time></trkpt><trkpt lat="55.8343800" lon="48.9400033"><time>2021-04-17T09:19:53.177</time></trkpt><trkpt lat="55.8343383" lon="48.9399617"><time>2021-04-17T09:19:58.177</time></trkpt><trkpt lat="55.8342967" lon="48.9398933"><time>2021-04-17T09:20:01.177</time></trkpt><trkpt lat="55.8342633" lon="48.9398133"><time>2021-04-17T09:20:04.173</time></trkpt><trkpt lat="55.8342267" lon="48.9397467"><time>2021-04-17T09:20:06.177</time></trkpt><trkpt lat="55.8341950" lon="48.9396583"><time>2021-04-17T09:20:09.177</time></trkpt><trkpt lat="55.8341733" lon="48.9395667"><time>2021-04-17T09:20:13.177</time></trkpt><trkpt lat="55.8341517" lon="48.9394933"><time>2021-04-17T09:20:16.177</time></trkpt><trkpt lat="55.8341150" lon="48.9394250"><time>2021-04-17T09:20:19.170</time></trkpt><trkpt lat="55.8340700" lon="48.9393567"><time>2021-04-17T09:20:22.173</time></trkpt><trkpt lat="55.8340367" lon="48.9393017"><time>2021-04-17T09:20:24.177</time></trkpt><trkpt lat="55.8339950" lon="48.9392517"><time>2021-04-17T09:20:26.173</time></trkpt><trkpt lat="55.8339633" lon="48.9391933"><time>2021-04-17T09:20:28.173</time></trkpt><trkpt lat="55.8339400" lon="48.9390917"><time>2021-04-17T09:20:31.173</time></trkpt><trkpt lat="55.8339233" lon="48.9389550"><time>2021-04-17T09:20:34.173</time></trkpt><trkpt lat="55.8339100" lon="48.9388467"><time>2021-04-17T09:20:36.177</time></trkpt><trkpt lat="55.8338917" lon="48.9387533"><time>2021-04-17T09:20:38.177</time></trkpt><trkpt lat="55.8338600" lon="48.9386267"><time>2021-04-17T09:20:41.173</time></trkpt><trkpt lat="55.8338333" lon="48.9385583"><time>2021-04-17T09:20:43.173</time></trkpt><trkpt lat="55.8337900" lon="48.9384733"><time>2021-04-17T09:20:45.177</time></trkpt><trkpt lat="55.8337567" lon="48.9383967"><time>2021-04-17T09:20:47.177</time></trkpt><trkpt lat="55.8337250" lon="48.9382983"><time>2021-04-17T09:20:50.173</time></trkpt><trkpt lat="55.8337550" lon="48.9382150"><time>2021-04-17T09:21:06.177</time></trkpt><trkpt lat="55.8337783" lon="48.9381367"><time>2021-04-17T09:21:09.177</time></trkpt><trkpt lat="55.8337917" lon="48.9380583"><time>2021-04-17T09:21:11.177</time></trkpt><trkpt lat="55.8338233" lon="48.9379900"><time>2021-04-17T09:21:13.173</time></trkpt><trkpt lat="55.8338450" lon="48.9378967"><time>2021-04-17T09:21:15.177</time></trkpt><trkpt lat="55.8338717" lon="48.9377933"><time>2021-04-17T09:21:17.177</time></trkpt><trkpt lat="55.8338867" lon="48.9376900"><time>2021-04-17T09:21:19.177</time></trkpt><trkpt lat="55.8339067" lon="48.9375867"><time>2021-04-17T09:21:21.177</time></trkpt><trkpt lat="55.8339333" lon="48.9374767"><time>2021-04-17T09:21:23.173</time></trkpt><trkpt lat="55.8339517" lon="48.9373967"><time>2021-04-17T09:21:25.177</time></trkpt><trkpt lat="55.8339500" lon="48.9373017"><time>2021-04-17T09:21:29.177</time></trkpt><trkpt lat="55.8339767" lon="48.9372233"><time>2021-04-17T09:21:34.177</time></trkpt><trkpt lat="55.8340233" lon="48.9371967"><time>2021-04-17T09:21:37.177</time></trkpt><trkpt lat="55.8340533" lon="48.9371300"><time>2021-04-17T09:21:39.187</time></trkpt><trkpt lat="55.8340750" lon="48.9370467"><time>2021-04-17T09:21:41.177</time></trkpt><trkpt lat="55.8340983" lon="48.9369383"><time>2021-04-17T09:21:44.173</time></trkpt><trkpt lat="55.8341150" lon="48.9368383"><time>2021-04-17T09:21:47.177</time></trkpt><trkpt lat="55.8341450" lon="48.9367633"><time>2021-04-17T09:21:50.173</time></trkpt><trkpt lat="55.8341717" lon="48.9366683"><time>2021-04-17T09:21:54.177</time></trkpt><trkpt lat="55.8342067" lon="48.9366117"><time>2021-04-17T09:21:57.180</time></trkpt><trkpt lat="55.8342417" lon="48.9365567"><time>2021-04-17T09:22:00.177</time></trkpt><trkpt lat="55.8342683" lon="48.9364917"><time>2021-04-17T09:22:03.177</time></trkpt><trkpt lat="55.8343033" lon="48.9364283"><time>2021-04-17T09:22:07.177</time></trkpt><trkpt lat="55.8343183" lon="48.9363433"><time>2021-04-17T09:22:11.177</time></trkpt><trkpt lat="55.8343483" lon="48.9362533"><time>2021-04-17T09:22:14.173</time></trkpt><trkpt lat="55.8343917" lon="48.9361717"><time>2021-04-17T09:22:17.177</time></trkpt><trkpt lat="55.8344017" lon="48.9360933"><time>2021-04-17T09:22:25.177</time></trkpt><trkpt lat="55.8344317" lon="48.9359983"><time>2021-04-17T09:22:28.173</time></trkpt><trkpt lat="55.8344717" lon="48.9359600"><time>2021-04-17T09:22:31.177</time></trkpt><trkpt lat="55.8345217" lon="48.9359083"><time>2021-04-17T09:22:36.177</time></trkpt><trkpt lat="55.8345517" lon="48.9358450"><time>2021-04-17T09:22:40.173</time></trkpt><trkpt lat="55.8345817" lon="48.9357833"><time>2021-04-17T09:22:43.177</time></trkpt><trkpt lat="55.8346200" lon="48.9357183"><time>2021-04-17T09:22:47.173</time></trkpt><trkpt lat="55.8346400" lon="48.9356350"><time>2021-04-17T09:22:52.173</time></trkpt><trkpt lat="55.8346617" lon="48.9355617"><time>2021-04-17T09:22:56.173</time></trkpt><trkpt lat="55.8346867" lon="48.9354883"><time>2021-04-17T09:23:00.177</time></trkpt><trkpt lat="55.8347250" lon="48.9354250"><time>2021-04-17T09:23:04.187</time></trkpt><trkpt lat="55.8347783" lon="48.9354067"><time>2021-04-17T09:23:08.173</time></trkpt><trkpt lat="55.8348183" lon="48.9353667"><time>2021-04-17T09:23:13.187</time></trkpt><trkpt lat="55.8348450" lon="48.9352883"><time>2021-04-17T09:23:20.173</time></trkpt><trkpt lat="55.8348767" lon="48.9352267"><time>2021-04-17T09:23:24.177</time></trkpt><trkpt lat="55.8349100" lon="48.9351583"><time>2021-04-17T09:23:28.173</time></trkpt><trkpt lat="55.8349500" lon="48.9351083"><time>2021-04-17T09:23:32.177</time></trkpt><trkpt lat="55.8349883" lon="48.9350333"><time>2021-04-17T09:23:38.173</time></trkpt><trkpt lat="55.8350150" lon="48.9349567"><time>2021-04-17T09:23:42.177</time></trkpt><trkpt lat="55.8350433" lon="48.9348767"><time>2021-04-17T09:23:53.177</time></trkpt><trkpt lat="55.8350283" lon="48.9347950"><time>2021-04-17T09:23:57.177</time></trkpt><trkpt lat="55.8350583" lon="48.9347250"><time>2021-04-17T09:24:01.200</time></trkpt><trkpt lat="55.8351100" lon="48.9346933"><time>2021-04-17T09:24:04.173</time></trkpt><trkpt lat="55.8351517" lon="48.9346467"><time>2021-04-17T09:24:08.173</time></trkpt><trkpt lat="55.8351833" lon="48.9345633"><time>2021-04-17T09:24:12.203</time></trkpt><trkpt lat="55.8352083" lon="48.9344850"><time>2021-04-17T09:24:16.177</time></trkpt><trkpt lat="55.8352317" lon="48.9344150"><time>2021-04-17T09:24:20.170</time></trkpt><trkpt lat="55.8352300" lon="48.9343300"><time>2021-04-17T09:24:24.177</time></trkpt><trkpt lat="55.8352333" lon="48.9342333"><time>2021-04-17T09:24:28.190</time></trkpt><trkpt lat="55.8352333" lon="48.9341267"><time>2021-04-17T09:24:32.177</time></trkpt><trkpt lat="55.8352433" lon="48.9340233"><time>2021-04-17T09:24:35.180</time></trkpt><trkpt lat="55.8352400" lon="48.9339083"><time>2021-04-17T09:24:38.177</time></trkpt><trkpt lat="55.8352483" lon="48.9338017"><time>2021-04-17T09:24:41.173</time></trkpt><trkpt lat="55.8352483" lon="48.9336883"><time>2021-04-17T09:24:43.177</time></trkpt><trkpt lat="55.8352517" lon="48.9336033"><time>2021-04-17T09:24:45.177</time></trkpt><trkpt lat="55.8352483" lon="48.9335117"><time>2021-04-17T09:24:48.177</time></trkpt><trkpt lat="55.8352467" lon="48.9334133"><time>2021-04-17T09:24:51.177</time></trkpt><trkpt lat="55.8352500" lon="48.9333333"><time>2021-04-17T09:24:53.177</time></trkpt><trkpt lat="55.8352517" lon="48.9332517"><time>2021-04-17T09:24:55.177</time></trkpt><trkpt lat="55.8352483" lon="48.9331383"><time>2021-04-17T09:24:58.173</time></trkpt><trkpt lat="55.8352517" lon="48.9330317"><time>2021-04-17T09:25:01.177</time></trkpt><trkpt lat="55.8352433" lon="48.9329417"><time>2021-04-17T09:25:03.177</time></trkpt><trkpt lat="55.8352333" lon="48.9328583"><time>2021-04-17T09:25:05.177</time></trkpt><trkpt lat="55.8352217" lon="48.9327767"><time>2021-04-17T09:25:07.177</time></trkpt><trkpt lat="55.8352217" lon="48.9326867"><time>2021-04-17T09:25:10.173</time></trkpt><trkpt lat="55.8352150" lon="48.9325833"><time>2021-04-17T09:25:13.177</time></trkpt><trkpt lat="55.8351967" lon="48.9324700"><time>2021-04-17T09:25:16.173</time></trkpt><trkpt lat="55.8351917" lon="48.9323850"><time>2021-04-17T09:25:18.177</time></trkpt><trkpt lat="55.8351767" lon="48.9322683"><time>2021-04-17T09:25:21.177</time></trkpt><trkpt lat="55.8351683" lon="48.9321717"><time>2021-04-17T09:25:23.177</time></trkpt><trkpt lat="55.8351717" lon="48.9320767"><time>2021-04-17T09:25:25.173</time></trkpt><trkpt lat="55.8351767" lon="48.9319667"><time>2021-04-17T09:25:28.173</time></trkpt><trkpt lat="55.8351833" lon="48.9318833"><time>2021-04-17T09:25:30.177</time></trkpt><trkpt lat="55.8351650" lon="48.9317733"><time>2021-04-17T09:25:33.173</time></trkpt><trkpt lat="55.8351517" lon="48.9316967"><time>2021-04-17T09:25:35.173</time></trkpt><trkpt lat="55.8351583" lon="48.9315917"><time>2021-04-17T09:25:39.173</time></trkpt><trkpt lat="55.8351467" lon="48.9314833"><time>2021-04-17T09:25:42.177</time></trkpt><trkpt lat="55.8351433" lon="48.9314033"><time>2021-04-17T09:25:44.180</time></trkpt><trkpt lat="55.8351350" lon="48.9313150"><time>2021-04-17T09:25:46.177</time></trkpt><trkpt lat="55.8351100" lon="48.9312183"><time>2021-04-17T09:25:48.177</time></trkpt><trkpt lat="55.8350917" lon="48.9311317"><time>2021-04-17T09:25:50.173</time></trkpt><trkpt lat="55.8350617" lon="48.9310550"><time>2021-04-17T09:25:52.173</time></trkpt><trkpt lat="55.8350283" lon="48.9309567"><time>2021-04-17T09:25:54.177</time></trkpt><trkpt lat="55.8349983" lon="48.9308817"><time>2021-04-17T09:25:56.177</time></trkpt><trkpt lat="55.8349417" lon="48.9307967"><time>2021-04-17T09:26:18.177</time></trkpt><trkpt lat="55.8349217" lon="48.9307217"><time>2021-04-17T09:26:23.173</time></trkpt><trkpt lat="55.8349033" lon="48.9306333"><time>2021-04-17T09:26:27.173</time></trkpt><trkpt lat="55.8348700" lon="48.9305400"><time>2021-04-17T09:26:31.177</time></trkpt><trkpt lat="55.8348417" lon="48.9304517"><time>2021-04-17T09:26:34.173</time></trkpt><trkpt lat="55.8348233" lon="48.9303550"><time>2021-04-17T09:26:37.177</time></trkpt><trkpt lat="55.8348100" lon="48.9302500"><time>2021-04-17T09:26:40.173</time></trkpt><trkpt lat="55.8347850" lon="48.9301533"><time>2021-04-17T09:26:43.173</time></trkpt><trkpt lat="55.8347567" lon="48.9300633"><time>2021-04-17T09:26:46.173</time></trkpt><trkpt lat="55.8347350" lon="48.9299733"><time>2021-04-17T09:26:49.173</time></trkpt><trkpt lat="55.8347317" lon="48.9298850"><time>2021-04-17T09:26:52.173</time></trkpt><trkpt lat="55.8347150" lon="48.9297933"><time>2021-04-17T09:26:56.173</time></trkpt><trkpt lat="55.8346967" lon="48.9296767"><time>2021-04-17T09:27:00.177</time></trkpt><trkpt lat="55.8346817" lon="48.9295650"><time>2021-04-17T09:27:03.177</time></trkpt><trkpt lat="55.8346683" lon="48.9294767"><time>2021-04-17T09:27:05.173</time></trkpt><trkpt lat="55.8346633" lon="48.9293733"><time>2021-04-17T09:27:08.173</time></trkpt><trkpt lat="55.8346600" lon="48.9292600"><time>2021-04-17T09:27:11.177</time></trkpt><trkpt lat="55.8346433" lon="48.9291717"><time>2021-04-17T09:27:13.173</time></trkpt><trkpt lat="55.8346233" lon="48.9290783"><time>2021-04-17T09:27:15.177</time></trkpt><trkpt lat="55.8346017" lon="48.9290000"><time>2021-04-17T09:27:17.177</time></trkpt><trkpt lat="55.8345850" lon="48.9289250"><time>2021-04-17T09:27:20.203</time></trkpt><trkpt lat="55.8345500" lon="48.9288633"><time>2021-04-17T09:27:23.173</time></trkpt><trkpt lat="55.8345250" lon="48.9287650"><time>2021-04-17T09:27:27.177</time></trkpt><trkpt lat="55.8344950" lon="48.9286700"><time>2021-04-17T09:27:31.177</time></trkpt><trkpt lat="55.8344617" lon="48.9285883"><time>2021-04-17T09:27:34.173</time></trkpt><trkpt lat="55.8344283" lon="48.9285233"><time>2021-04-17T09:27:37.173</time></trkpt><trkpt lat="55.8343867" lon="48.9284583"><time>2021-04-17T09:28:02.177</time></trkpt><trkpt lat="55.8343467" lon="48.9284017"><time>2021-04-17T09:28:16.177</time></trkpt><trkpt lat="55.8343250" lon="48.9283233"><time>2021-04-17T09:28:21.170</time></trkpt><trkpt lat="55.8342883" lon="48.9282733"><time>2021-04-17T09:28:28.173</time></trkpt><trkpt lat="55.8342683" lon="48.9281800"><time>2021-04-17T09:28:34.173</time></trkpt><trkpt lat="55.8342433" lon="48.9281133"><time>2021-04-17T09:28:37.173</time></trkpt><trkpt lat="55.8341967" lon="48.9280467"><time>2021-04-17T09:28:41.173</time></trkpt><trkpt lat="55.8341550" lon="48.9279850"><time>2021-04-17T09:28:44.173</time></trkpt><trkpt lat="55.8340650" lon="48.9279083"><time>2021-04-17T09:29:04.173</time></trkpt><trkpt lat="55.8340250" lon="48.9278683"><time>2021-04-17T09:29:07.177</time></trkpt><trkpt lat="55.8339917" lon="48.9278067"><time>2021-04-17T09:29:10.173</time></trkpt><trkpt lat="55.8339367" lon="48.9277233"><time>2021-04-17T09:29:13.173</time></trkpt><trkpt lat="55.8338867" lon="48.9276750"><time>2021-04-17T09:29:15.170</time></trkpt><trkpt lat="55.8338533" lon="48.9275700"><time>2021-04-17T09:29:18.177</time></trkpt><trkpt lat="55.8338350" lon="48.9274950"><time>2021-04-17T09:29:20.177</time></trkpt><trkpt lat="55.8337850" lon="48.9274117"><time>2021-04-17T09:29:23.173</time></trkpt><trkpt lat="55.8337267" lon="48.9273500"><time>2021-04-17T09:29:26.173</time></trkpt><trkpt lat="55.8336850" lon="48.9273117"><time>2021-04-17T09:29:28.173</time></trkpt><trkpt lat="55.8336350" lon="48.9272767"><time>2021-04-17T09:29:30.177</time></trkpt><trkpt lat="55.8335867" lon="48.9272217"><time>2021-04-17T09:29:32.173</time></trkpt><trkpt lat="55.8335400" lon="48.9271433"><time>2021-04-17T09:29:34.173</time></trkpt><trkpt lat="55.8335050" lon="48.9270533"><time>2021-04-17T09:29:36.173</time></trkpt><trkpt lat="55.8334833" lon="48.9269567"><time>2021-04-17T09:29:38.173</time></trkpt><trkpt lat="55.8334600" lon="48.9268717"><time>2021-04-17T09:29:40.173</time></trkpt><trkpt lat="55.8334417" lon="48.9267900"><time>2021-04-17T09:29:42.177</time></trkpt><trkpt lat="55.8334317" lon="48.9267033"><time>2021-04-17T09:29:44.173</time></trkpt><trkpt lat="55.8334167" lon="48.9266150"><time>2021-04-17T09:29:46.173</time></trkpt><trkpt lat="55.8334133" lon="48.9265083"><time>2021-04-17T09:29:49.173</time></trkpt><trkpt lat="55.8334033" lon="48.9264217"><time>2021-04-17T09:29:51.173</time></trkpt><trkpt lat="55.8333883" lon="48.9263200"><time>2021-04-17T09:29:53.173</time></trkpt><trkpt lat="55.8333617" lon="48.9262200"><time>2021-04-17T09:29:55.173</time></trkpt><trkpt lat="55.8333133" lon="48.9261333"><time>2021-04-17T09:29:57.173</time></trkpt><trkpt lat="55.8332683" lon="48.9260783"><time>2021-04-17T09:29:59.173</time></trkpt><trkpt lat="55.8332200" lon="48.9260450"><time>2021-04-17T09:30:01.173</time></trkpt><trkpt lat="55.8331717" lon="48.9260050"><time>2021-04-17T09:30:03.173</time></trkpt><trkpt lat="55.8331250" lon="48.9259650"><time>2021-04-17T09:30:05.173</time></trkpt><trkpt lat="55.8330800" lon="48.9259317"><time>2021-04-17T09:30:07.177</time></trkpt><trkpt lat="55.8330200" lon="48.9259067"><time>2021-04-17T09:30:10.173</time></trkpt><trkpt lat="55.8329967" lon="48.9258333"><time>2021-04-17T09:30:17.173</time></trkpt><trkpt lat="55.8330167" lon="48.9257617"><time>2021-04-17T09:30:21.170</time></trkpt><trkpt lat="55.8330433" lon="48.9256750"><time>2021-04-17T09:30:26.173</time></trkpt><trkpt lat="55.8330783" lon="48.9256200"><time>2021-04-17T09:30:29.177</time></trkpt><trkpt lat="55.8331333" lon="48.9255750"><time>2021-04-17T09:30:32.173</time></trkpt><trkpt lat="55.8331933" lon="48.9255417"><time>2021-04-17T09:30:34.173</time></trkpt><trkpt lat="55.8332417" lon="48.9255067"><time>2021-04-17T09:30:36.173</time></trkpt><trkpt lat="55.8332883" lon="48.9254700"><time>2021-04-17T09:30:38.173</time></trkpt><trkpt lat="55.8333367" lon="48.9254350"><time>2021-04-17T09:30:40.173</time></trkpt><trkpt lat="55.8333917" lon="48.9253683"><time>2021-04-17T09:30:43.173</time></trkpt><trkpt lat="55.8334450" lon="48.9252867"><time>2021-04-17T09:30:46.173</time></trkpt><trkpt lat="55.8334800" lon="48.9252300"><time>2021-04-17T09:30:48.173</time></trkpt><trkpt lat="55.8335167" lon="48.9251817"><time>2021-04-17T09:30:50.173</time></trkpt><trkpt lat="55.8335617" lon="48.9251283"><time>2021-04-17T09:30:53.173</time></trkpt><trkpt lat="55.8336000" lon="48.9250667"><time>2021-04-17T09:30:56.173</time></trkpt><trkpt lat="55.8336400" lon="48.9250267"><time>2021-04-17T09:30:58.187</time></trkpt><trkpt lat="55.8336733" lon="48.9249617"><time>2021-04-17T09:31:00.173</time></trkpt><trkpt lat="55.8336967" lon="48.9248883"><time>2021-04-17T09:31:02.177</time></trkpt><trkpt lat="55.8337100" lon="48.9248117"><time>2021-04-17T09:31:04.173</time></trkpt><trkpt lat="55.8337217" lon="48.9247183"><time>2021-04-17T09:31:07.173</time></trkpt><trkpt lat="55.8337400" lon="48.9246167"><time>2021-04-17T09:31:10.173</time></trkpt><trkpt lat="55.8337500" lon="48.9245150"><time>2021-04-17T09:31:12.177</time></trkpt><trkpt lat="55.8337700" lon="48.9244350"><time>2021-04-17T09:31:14.173</time></trkpt><trkpt lat="55.8337950" lon="48.9243283"><time>2021-04-17T09:31:17.173</time></trkpt><trkpt lat="55.8338083" lon="48.9242067"><time>2021-04-17T09:31:20.173</time></trkpt><trkpt lat="55.8338117" lon="48.9241250"><time>2021-04-17T09:31:22.173</time></trkpt><trkpt lat="55.8338283" lon="48.9240367"><time>2021-04-17T09:31:24.173</time></trkpt><trkpt lat="55.8338483" lon="48.9239417"><time>2021-04-17T09:31:26.173</time></trkpt><trkpt lat="55.8338583" lon="48.9238583"><time>2021-04-17T09:31:28.173</time></trkpt><trkpt lat="55.8338850" lon="48.9237833"><time>2021-04-17T09:31:31.180</time></trkpt><trkpt lat="55.8339050" lon="48.9236883"><time>2021-04-17T09:31:34.170</time></trkpt><trkpt lat="55.8339083" lon="48.9236633"><time>2021-04-17T09:31:35.587</time></trkpt><trkpt lat="55.8338850" lon="48.9235700"><time>2021-04-17T09:31:37.197</time></trkpt><trkpt lat="55.8338650" lon="48.9234300"><time>2021-04-17T09:31:39.177</time></trkpt><trkpt lat="55.8338150" lon="48.9234450"><time>2021-04-17T09:31:41.173</time></trkpt><trkpt lat="55.8338133" lon="48.9235267"><time>2021-04-17T09:31:45.173</time></trkpt><trkpt lat="55.8337917" lon="48.9236200"><time>2021-04-17T09:31:50.173</time></trkpt><trkpt lat="55.8338083" lon="48.9237200"><time>2021-04-17T09:31:53.173</time></trkpt><trkpt lat="55.8338200" lon="48.9237983"><time>2021-04-17T09:31:56.173</time></trkpt><trkpt lat="55.8338350" lon="48.9239050"><time>2021-04-17T09:32:00.177</time></trkpt><trkpt lat="55.8338400" lon="48.9239883"><time>2021-04-17T09:32:03.173</time></trkpt><trkpt lat="55.8338383" lon="48.9240717"><time>2021-04-17T09:32:07.173</time></trkpt><trkpt lat="55.8338300" lon="48.9241650"><time>2021-04-17T09:32:11.173</time></trkpt><trkpt lat="55.8338300" lon="48.9242700"><time>2021-04-17T09:32:15.173</time></trkpt><trkpt lat="55.8338200" lon="48.9243533"><time>2021-04-17T09:32:18.177</time></trkpt><trkpt lat="55.8338150" lon="48.9244450"><time>2021-04-17T09:32:21.170</time></trkpt><trkpt lat="55.8338117" lon="48.9245333"><time>2021-04-17T09:32:44.173</time></trkpt><trkpt lat="55.8338067" lon="48.9246133"><time>2021-04-17T09:32:47.173</time></trkpt><trkpt lat="55.8337883" lon="48.9246900"><time>2021-04-17T09:32:49.173</time></trkpt><trkpt lat="55.8337450" lon="48.9247400"><time>2021-04-17T09:32:51.173</time></trkpt><trkpt lat="55.8336983" lon="48.9247783"><time>2021-04-17T09:32:53.173</time></trkpt><trkpt lat="55.8336517" lon="48.9248617"><time>2021-04-17T09:32:56.173</time></trkpt><trkpt lat="55.8336150" lon="48.9249183"><time>2021-04-17T09:32:58.173</time></trkpt><trkpt lat="55.8335750" lon="48.9249667"><time>2021-04-17T09:33:00.177</time></trkpt><trkpt lat="55.8335200" lon="48.9250317"><time>2021-04-17T09:33:03.173</time></trkpt><trkpt lat="55.8334700" lon="48.9250850"><time>2021-04-17T09:33:06.177</time></trkpt><trkpt lat="55.8334350" lon="48.9251400"><time>2021-04-17T09:33:08.173</time></trkpt><trkpt lat="55.8333850" lon="48.9251933"><time>2021-04-17T09:33:10.173</time></trkpt><trkpt lat="55.8333300" lon="48.9252550"><time>2021-04-17T09:33:13.173</time></trkpt><trkpt lat="55.8332783" lon="48.9253167"><time>2021-04-17T09:33:16.173</time></trkpt><trkpt lat="55.8332400" lon="48.9253633"><time>2021-04-17T09:33:18.177</time></trkpt><trkpt lat="55.8331917" lon="48.9254233"><time>2021-04-17T09:33:22.173</time></trkpt><trkpt lat="55.8331550" lon="48.9254700"><time>2021-04-17T09:33:24.177</time></trkpt><trkpt lat="55.8331100" lon="48.9255100"><time>2021-04-17T09:33:26.173</time></trkpt><trkpt lat="55.8330650" lon="48.9255717"><time>2021-04-17T09:33:29.173</time></trkpt><trkpt lat="55.8330250" lon="48.9256200"><time>2021-04-17T09:33:48.173</time></trkpt><trkpt lat="55.8330167" lon="48.9257117"><time>2021-04-17T09:33:53.173</time></trkpt><trkpt lat="55.8330567" lon="48.9257617"><time>2021-04-17T09:33:57.173</time></trkpt><trkpt lat="55.8331017" lon="48.9258117"><time>2021-04-17T09:34:00.173</time></trkpt><trkpt lat="55.8331417" lon="48.9258550"><time>2021-04-17T09:34:02.173</time></trkpt><trkpt lat="55.8331967" lon="48.9259150"><time>2021-04-17T09:34:05.173</time></trkpt><trkpt lat="55.8332367" lon="48.9259683"><time>2021-04-17T09:34:07.173</time></trkpt><trkpt lat="55.8332833" lon="48.9260517"><time>2021-04-17T09:34:10.173</time></trkpt><trkpt lat="55.8333100" lon="48.9261317"><time>2021-04-17T09:34:12.177</time></trkpt><trkpt lat="55.8333283" lon="48.9262167"><time>2021-04-17T09:34:14.173</time></trkpt><trkpt lat="55.8333517" lon="48.9263117"><time>2021-04-17T09:34:16.173</time></trkpt><trkpt lat="55.8333667" lon="48.9263950"><time>2021-04-17T09:34:18.197</time></trkpt><trkpt lat="55.8333817" lon="48.9264917"><time>2021-04-17T09:34:21.170</time></trkpt><trkpt lat="55.8333983" lon="48.9266017"><time>2021-04-17T09:34:24.177</time></trkpt><trkpt lat="55.8334217" lon="48.9267017"><time>2021-04-17T09:34:27.173</time></trkpt><trkpt lat="55.8334333" lon="48.9267833"><time>2021-04-17T09:34:29.173</time></trkpt><trkpt lat="55.8334483" lon="48.9268633"><time>2021-04-17T09:34:31.173</time></trkpt><trkpt lat="55.8334683" lon="48.9269433"><time>2021-04-17T09:34:33.177</time></trkpt><trkpt lat="55.8334917" lon="48.9270133"><time>2021-04-17T09:34:35.173</time></trkpt><trkpt lat="55.8335300" lon="48.9270967"><time>2021-04-17T09:34:38.173</time></trkpt><trkpt lat="55.8335650" lon="48.9271483"><time>2021-04-17T09:34:40.173</time></trkpt><trkpt lat="55.8336117" lon="48.9272233"><time>2021-04-17T09:34:43.173</time></trkpt><trkpt lat="55.8336550" lon="48.9272867"><time>2021-04-17T09:34:45.173</time></trkpt><trkpt lat="55.8337017" lon="48.9273350"><time>2021-04-17T09:34:47.173</time></trkpt><trkpt lat="55.8337550" lon="48.9273883"><time>2021-04-17T09:34:50.173</time></trkpt><trkpt lat="55.8338000" lon="48.9273783"><time>2021-04-17T09:34:53.173</time></trkpt><trkpt lat="55.8338483" lon="48.9274267"><time>2021-04-17T09:34:56.173</time></trkpt><trkpt lat="55.8338867" lon="48.9275050"><time>2021-04-17T09:34:59.173</time></trkpt><trkpt lat="55.8339083" lon="48.9275900"><time>2021-04-17T09:35:02.173</time></trkpt><trkpt lat="55.8339617" lon="48.9276583"><time>2021-04-17T09:35:06.177</time></trkpt><trkpt lat="55.8339983" lon="48.9277050"><time>2021-04-17T09:35:08.173</time></trkpt><trkpt lat="55.8340433" lon="48.9277767"><time>2021-04-17T09:35:11.177</time></trkpt><trkpt lat="55.8340900" lon="48.9278433"><time>2021-04-17T09:35:14.173</time></trkpt><trkpt lat="55.8341283" lon="48.9278983"><time>2021-04-17T09:35:16.173</time></trkpt><trkpt lat="55.8341633" lon="48.9279600"><time>2021-04-17T09:35:18.173</time></trkpt><trkpt lat="55.8342067" lon="48.9280183"><time>2021-04-17T09:35:20.173</time></trkpt><trkpt lat="55.8342383" lon="48.9280767"><time>2021-04-17T09:35:22.173</time></trkpt><trkpt lat="55.8342600" lon="48.9281567"><time>2021-04-17T09:35:26.173</time></trkpt><trkpt lat="55.8342917" lon="48.9282150"><time>2021-04-17T09:35:29.173</time></trkpt><trkpt lat="55.8343133" lon="48.9282967"><time>2021-04-17T09:35:32.177</time></trkpt><trkpt lat="55.8343567" lon="48.9283383"><time>2021-04-17T09:35:35.173</time></trkpt><trkpt lat="55.8343900" lon="48.9284017"><time>2021-04-17T09:35:37.173</time></trkpt><trkpt lat="55.8344200" lon="48.9284850"><time>2021-04-17T09:35:39.173</time></trkpt><trkpt lat="55.8344550" lon="48.9285800"><time>2021-04-17T09:35:41.173</time></trkpt><trkpt lat="55.8344817" lon="48.9286717"><time>2021-04-17T09:35:43.173</time></trkpt><trkpt lat="55.8345017" lon="48.9287600"><time>2021-04-17T09:35:45.173</time></trkpt><trkpt lat="55.8345233" lon="48.9288400"><time>2021-04-17T09:35:47.173</time></trkpt><trkpt lat="55.8345467" lon="48.9289300"><time>2021-04-17T09:35:49.177</time></trkpt><trkpt lat="55.8345600" lon="48.9290133"><time>2021-04-17T09:35:51.173</time></trkpt><trkpt lat="55.8345867" lon="48.9291067"><time>2021-04-17T09:35:54.177</time></trkpt><trkpt lat="55.8345950" lon="48.9292067"><time>2021-04-17T09:35:58.173</time></trkpt><trkpt lat="55.8346117" lon="48.9293083"><time>2021-04-17T09:36:01.173</time></trkpt><trkpt lat="55.8346200" lon="48.9294083"><time>2021-04-17T09:36:04.173</time></trkpt><trkpt lat="55.8346350" lon="48.9294967"><time>2021-04-17T09:36:08.173</time></trkpt><trkpt lat="55.8346517" lon="48.9295767"><time>2021-04-17T09:36:11.173</time></trkpt><trkpt lat="55.8346683" lon="48.9296717"><time>2021-04-17T09:36:15.173</time></trkpt><trkpt lat="55.8346550" lon="48.9297650"><time>2021-04-17T09:36:20.173</time></trkpt><trkpt lat="55.8346567" lon="48.9298450"><time>2021-04-17T09:36:23.170</time></trkpt><trkpt lat="55.8346717" lon="48.9299333"><time>2021-04-17T09:36:26.173</time></trkpt><trkpt lat="55.8346933" lon="48.9300400"><time>2021-04-17T09:36:30.173</time></trkpt><trkpt lat="55.8347100" lon="48.9301300"><time>2021-04-17T09:36:33.173</time></trkpt><trkpt lat="55.8347300" lon="48.9302250"><time>2021-04-17T09:36:36.177</time></trkpt><trkpt lat="55.8347583" lon="48.9303167"><time>2021-04-17T09:36:39.177</time></trkpt><trkpt lat="55.8347900" lon="48.9304150"><time>2021-04-17T09:36:42.173</time></trkpt><trkpt lat="55.8348117" lon="48.9304983"><time>2021-04-17T09:36:46.173</time></trkpt><trkpt lat="55.8348283" lon="48.9306000"><time>2021-04-17T09:36:51.173</time></trkpt><trkpt lat="55.8348400" lon="48.9306850"><time>2021-04-17T09:36:54.173</time></trkpt><trkpt lat="55.8348533" lon="48.9307633"><time>2021-04-17T09:36:59.173</time></trkpt><trkpt lat="55.8348717" lon="48.9308483"><time>2021-04-17T09:37:04.173</time></trkpt><trkpt lat="55.8348983" lon="48.9309317"><time>2021-04-17T09:37:08.173</time></trkpt><trkpt lat="55.8349217" lon="48.9310283"><time>2021-04-17T09:37:12.173</time></trkpt><trkpt lat="55.8349400" lon="48.9311117"><time>2021-04-17T09:37:15.173</time></trkpt><trkpt lat="55.8349567" lon="48.9312033"><time>2021-04-17T09:37:18.177</time></trkpt><trkpt lat="55.8349833" lon="48.9312783"><time>2021-04-17T09:37:21.173</time></trkpt><trkpt lat="55.8349967" lon="48.9313867"><time>2021-04-17T09:37:25.173</time></trkpt><trkpt lat="55.8350033" lon="48.9314667"><time>2021-04-17T09:37:28.177</time></trkpt><trkpt lat="55.8350183" lon="48.9315433"><time>2021-04-17T09:37:31.173</time></trkpt><trkpt lat="55.8350333" lon="48.9316200"><time>2021-04-17T09:37:35.173</time></trkpt><trkpt lat="55.8350083" lon="48.9317083"><time>2021-04-17T09:37:55.173</time></trkpt><trkpt lat="55.8350417" lon="48.9317667"><time>2021-04-17T09:37:58.173</time></trkpt><trkpt lat="55.8350583" lon="48.9318417"><time>2021-04-17T09:38:02.173</time></trkpt><trkpt lat="55.8350883" lon="48.9319217"><time>2021-04-17T09:38:07.173</time></trkpt><trkpt lat="55.8351067" lon="48.9319967"><time>2021-04-17T09:38:10.173</time></trkpt><trkpt lat="55.8351183" lon="48.9320800"><time>2021-04-17T09:38:14.177</time></trkpt><trkpt lat="55.8351317" lon="48.9321633"><time>2021-04-17T09:38:18.173</time></trkpt><trkpt lat="55.8351600" lon="48.9322567"><time>2021-04-17T09:38:23.170</time></trkpt><trkpt lat="55.8351800" lon="48.9323367"><time>2021-04-17T09:38:26.177</time></trkpt><trkpt lat="55.8351917" lon="48.9324183"><time>2021-04-17T09:38:31.173</time></trkpt><trkpt lat="55.8351983" lon="48.9325067"><time>2021-04-17T09:38:40.173</time></trkpt><trkpt lat="55.8352017" lon="48.9325867"><time>2021-04-17T09:38:43.173</time></trkpt><trkpt lat="55.8352017" lon="48.9326850"><time>2021-04-17T09:38:47.173</time></trkpt><trkpt lat="55.8352083" lon="48.9327833"><time>2021-04-17T09:38:51.173</time></trkpt><trkpt lat="55.8352183" lon="48.9328683"><time>2021-04-17T09:38:54.173</time></trkpt><trkpt lat="55.8352217" lon="48.9329650"><time>2021-04-17T09:38:58.173</time></trkpt><trkpt lat="55.8352117" lon="48.9330650"><time>2021-04-17T09:39:02.170</time></trkpt><trkpt lat="55.8352133" lon="48.9331500"><time>2021-04-17T09:39:05.173</time></trkpt><trkpt lat="55.8352183" lon="48.9332583"><time>2021-04-17T09:39:09.173</time></trkpt><trkpt lat="55.8352217" lon="48.9333417"><time>2021-04-17T09:39:12.173</time></trkpt><trkpt lat="55.8352250" lon="48.9334400"><time>2021-04-17T09:39:16.173</time></trkpt><trkpt lat="55.8352250" lon="48.9335217"><time>2021-04-17T09:39:19.173</time></trkpt><trkpt lat="55.8352283" lon="48.9336117"><time>2021-04-17T09:39:22.173</time></trkpt><trkpt lat="55.8352250" lon="48.9337200"><time>2021-04-17T09:39:26.173</time></trkpt><trkpt lat="55.8352250" lon="48.9338083"><time>2021-04-17T09:39:30.173</time></trkpt><trkpt lat="55.8352133" lon="48.9339000"><time>2021-04-17T09:39:41.187</time></trkpt><trkpt lat="55.8352233" lon="48.9339850"><time>2021-04-17T09:39:44.170</time></trkpt><trkpt lat="55.8352367" lon="48.9340667"><time>2021-04-17T09:39:47.173</time></trkpt><trkpt lat="55.8352500" lon="48.9341600"><time>2021-04-17T09:39:50.173</time></trkpt><trkpt lat="55.8352567" lon="48.9342533"><time>2021-04-17T09:39:53.173</time></trkpt><trkpt lat="55.8352550" lon="48.9343533"><time>2021-04-17T09:39:56.173</time></trkpt><trkpt lat="55.8352500" lon="48.9344450"><time>2021-04-17T09:39:59.173</time></trkpt><trkpt lat="55.8352450" lon="48.9345433"><time>2021-04-17T09:40:03.173</time></trkpt><trkpt lat="55.8352383" lon="48.9346400"><time>2021-04-17T09:40:16.173</time></trkpt><trkpt lat="55.8352200" lon="48.9347233"><time>2021-04-17T09:40:19.170</time></trkpt><trkpt lat="55.8352283" lon="48.9348183"><time>2021-04-17T09:40:22.173</time></trkpt><trkpt lat="55.8352050" lon="48.9347383"><time>2021-04-17T09:40:35.173</time></trkpt><trkpt lat="55.8351817" lon="48.9346617"><time>2021-04-17T09:40:40.173</time></trkpt><trkpt lat="55.8351533" lon="48.9347400"><time>2021-04-17T09:40:51.173</time></trkpt><trkpt lat="55.8351100" lon="48.9347667"><time>2021-04-17T09:40:56.173</time></trkpt><trkpt lat="55.8350633" lon="48.9347967"><time>2021-04-17T09:41:01.173</time></trkpt><trkpt lat="55.8350367" lon="48.9348667"><time>2021-04-17T09:41:04.173</time></trkpt><trkpt lat="55.8350067" lon="48.9349333"><time>2021-04-17T09:41:08.173</time></trkpt><trkpt lat="55.8349683" lon="48.9350017"><time>2021-04-17T09:41:14.173</time></trkpt><trkpt lat="55.8349400" lon="48.9350867"><time>2021-04-17T09:41:18.173</time></trkpt><trkpt lat="55.8349117" lon="48.9351533"><time>2021-04-17T09:41:22.173</time></trkpt><trkpt lat="55.8348633" lon="48.9352250"><time>2021-04-17T09:41:28.173</time></trkpt><trkpt lat="55.8348233" lon="48.9352783"><time>2021-04-17T09:41:32.173</time></trkpt><trkpt lat="55.8347817" lon="48.9353333"><time>2021-04-17T09:41:36.173</time></trkpt><trkpt lat="55.8347233" lon="48.9353650"><time>2021-04-17T09:41:40.173</time></trkpt><trkpt lat="55.8346717" lon="48.9354050"><time>2021-04-17T09:41:45.173</time></trkpt><trkpt lat="55.8346417" lon="48.9354867"><time>2021-04-17T09:41:49.173</time></trkpt><trkpt lat="55.8346450" lon="48.9355750"><time>2021-04-17T09:41:55.173</time></trkpt><trkpt lat="55.8346033" lon="48.9356283"><time>2021-04-17T09:41:59.173</time></trkpt><trkpt lat="55.8345800" lon="48.9356983"><time>2021-04-17T09:42:03.173</time></trkpt><trkpt lat="55.8345367" lon="48.9357750"><time>2021-04-17T09:42:07.173</time></trkpt><trkpt lat="55.8345083" lon="48.9358400"><time>2021-04-17T09:42:11.173</time></trkpt><trkpt lat="55.8344700" lon="48.9358867"><time>2021-04-17T09:42:15.173</time></trkpt><trkpt lat="55.8344383" lon="48.9359500"><time>2021-04-17T09:42:19.173</time></trkpt><trkpt lat="55.8343967" lon="48.9360050"><time>2021-04-17T09:42:24.173</time></trkpt><trkpt lat="55.8343717" lon="48.9360833"><time>2021-04-17T09:42:28.173</time></trkpt><trkpt lat="55.8343450" lon="48.9361683"><time>2021-04-17T09:42:32.173</time></trkpt><trkpt lat="55.8343200" lon="48.9362433"><time>2021-04-17T09:42:35.177</time></trkpt><trkpt lat="55.8343017" lon="48.9363300"><time>2021-04-17T09:42:39.173</time></trkpt><trkpt lat="55.8342717" lon="48.9363983"><time>2021-04-17T09:42:46.173</time></trkpt><trkpt lat="55.8342550" lon="48.9364783"><time>2021-04-17T09:42:49.173</time></trkpt><trkpt lat="55.8342317" lon="48.9365483"><time>2021-04-17T09:42:52.173</time></trkpt><trkpt lat="55.8341917" lon="48.9366133"><time>2021-04-17T09:42:56.173</time></trkpt><trkpt lat="55.8341583" lon="48.9366933"><time>2021-04-17T09:43:00.173</time></trkpt><trkpt lat="55.8341300" lon="48.9367817"><time>2021-04-17T09:43:04.173</time></trkpt><trkpt lat="55.8341067" lon="48.9368783"><time>2021-04-17T09:43:08.173</time></trkpt><trkpt lat="55.8340750" lon="48.9369633"><time>2021-04-17T09:43:12.173</time></trkpt><trkpt lat="55.8340517" lon="48.9370433"><time>2021-04-17T09:43:15.173</time></trkpt><trkpt lat="55.8340217" lon="48.9371117"><time>2021-04-17T09:43:18.177</time></trkpt><trkpt lat="55.8339783" lon="48.9371767"><time>2021-04-17T09:43:22.173</time></trkpt><trkpt lat="55.8339350" lon="48.9372500"><time>2021-04-17T09:43:25.173</time></trkpt><trkpt lat="55.8339050" lon="48.9373183"><time>2021-04-17T09:43:28.173</time></trkpt><trkpt lat="55.8338767" lon="48.9374100"><time>2021-04-17T09:43:32.173</time></trkpt><trkpt lat="55.8338483" lon="48.9374967"><time>2021-04-17T09:43:36.177</time></trkpt><trkpt lat="55.8338250" lon="48.9375683"><time>2021-04-17T09:43:39.173</time></trkpt><trkpt lat="55.8338000" lon="48.9376817"><time>2021-04-17T09:43:42.173</time></trkpt><trkpt lat="55.8337633" lon="48.9377717"><time>2021-04-17T09:43:45.173</time></trkpt><trkpt lat="55.8337500" lon="48.9378483"><time>2021-04-17T09:43:47.173</time></trkpt><trkpt lat="55.8337183" lon="48.9379467"><time>2021-04-17T09:43:50.173</time></trkpt><trkpt lat="55.8336833" lon="48.9380017"><time>2021-04-17T09:43:52.173</time></trkpt><trkpt lat="55.8336483" lon="48.9380700"><time>2021-04-17T09:43:54.170</time></trkpt><trkpt lat="55.8336200" lon="48.9381850"><time>2021-04-17T09:43:57.173</time></trkpt><trkpt lat="55.8336033" lon="48.9382600"><time>2021-04-17T09:43:59.173</time></trkpt><trkpt lat="55.8335850" lon="48.9383600"><time>2021-04-17T09:44:02.173</time></trkpt><trkpt lat="55.8336017" lon="48.9384650"><time>2021-04-17T09:44:06.173</time></trkpt><trkpt lat="55.8336283" lon="48.9385417"><time>2021-04-17T09:44:09.173</time></trkpt><trkpt lat="55.8336600" lon="48.9386317"><time>2021-04-17T09:44:13.173</time></trkpt><trkpt lat="55.8336850" lon="48.9387233"><time>2021-04-17T09:44:16.177</time></trkpt><trkpt lat="55.8337117" lon="48.9388000"><time>2021-04-17T09:44:19.173</time></trkpt><trkpt lat="55.8337400" lon="48.9388817"><time>2021-04-17T09:44:22.173</time></trkpt><trkpt lat="55.8337750" lon="48.9389667"><time>2021-04-17T09:44:25.170</time></trkpt><trkpt lat="55.8338167" lon="48.9390250"><time>2021-04-17T09:44:28.173</time></trkpt><trkpt lat="55.8338467" lon="48.9391033"><time>2021-04-17T09:44:32.177</time></trkpt><trkpt lat="55.8338767" lon="48.9391717"><time>2021-04-17T09:44:35.173</time></trkpt><trkpt lat="55.8339100" lon="48.9392383"><time>2021-04-17T09:44:37.173</time></trkpt><trkpt lat="55.8339383" lon="48.9393033"><time>2021-04-17T09:44:39.173</time></trkpt><trkpt lat="55.8339750" lon="48.9393717"><time>2021-04-17T09:44:45.173</time></trkpt><trkpt lat="55.8340267" lon="48.9394433"><time>2021-04-17T09:44:52.173</time></trkpt><trkpt lat="55.8340483" lon="48.9395400"><time>2021-04-17T09:44:57.173</time></trkpt><trkpt lat="55.8340750" lon="48.9396200"><time>2021-04-17T09:45:04.173</time></trkpt><trkpt lat="55.8341083" lon="48.9397067"><time>2021-04-17T09:45:11.173</time></trkpt><trkpt lat="55.8341450" lon="48.9397583"><time>2021-04-17T09:45:14.173</time></trkpt><trkpt lat="55.8341767" lon="48.9398300"><time>2021-04-17T09:45:18.173</time></trkpt><trkpt lat="55.8342133" lon="48.9398833"><time>2021-04-17T09:45:22.173</time></trkpt><trkpt lat="55.8342500" lon="48.9399633"><time>2021-04-17T09:45:27.170</time></trkpt><trkpt lat="55.8342967" lon="48.9400317"><time>2021-04-17T09:45:31.173</time></trkpt><trkpt lat="55.8343517" lon="48.9401217"><time>2021-04-17T09:45:34.173</time></trkpt><trkpt lat="55.8343850" lon="48.9401767"><time>2021-04-17T09:45:36.177</time></trkpt><trkpt lat="55.8344167" lon="48.9402500"><time>2021-04-17T09:45:39.173</time></trkpt><trkpt lat="55.8344550" lon="48.9403150"><time>2021-04-17T09:45:43.177</time></trkpt><trkpt lat="55.8344700" lon="48.9403950"><time>2021-04-17T09:45:46.173</time></trkpt><trkpt lat="55.8344917" lon="48.9404700"><time>2021-04-17T09:45:51.173</time></trkpt><trkpt lat="55.8344917" lon="48.9405567"><time>2021-04-17T09:45:57.177</time></trkpt><trkpt lat="55.8345100" lon="48.9406450"><time>2021-04-17T09:46:02.170</time></trkpt><trkpt lat="55.8345017" lon="48.9407250"><time>2021-04-17T09:46:08.173</time></trkpt><trkpt lat="55.8345167" lon="48.9408033"><time>2021-04-17T09:46:15.173</time></trkpt><trkpt lat="55.8344950" lon="48.9409483"><time>2021-04-17T09:46:24.173</time></trkpt><trkpt lat="55.8344567" lon="48.9409983"><time>2021-04-17T09:46:27.170</time></trkpt><trkpt lat="55.8344400" lon="48.9410733"><time>2021-04-17T09:46:30.173</time></trkpt><trkpt lat="55.8344150" lon="48.9411733"><time>2021-04-17T09:46:33.173</time></trkpt><trkpt lat="55.8343817" lon="48.9412467"><time>2021-04-17T09:46:36.170</time></trkpt><trkpt lat="55.8343550" lon="48.9413267"><time>2021-04-17T09:46:39.173</time></trkpt><trkpt lat="55.8343000" lon="48.9413800"><time>2021-04-17T09:46:42.173</time></trkpt><trkpt lat="55.8342550" lon="48.9414183"><time>2021-04-17T09:46:44.327</time></trkpt><trkpt lat="55.8342067" lon="48.9414750"><time>2021-04-17T09:46:47.170</time></trkpt><trkpt lat="55.8342000" lon="48.9415600"><time>2021-04-17T09:46:49.170</time></trkpt><trkpt lat="55.8341517" lon="48.9416183"><time>2021-04-17T09:46:51.170</time></trkpt><trkpt lat="55.8341067" lon="48.9416600"><time>2021-04-17T09:46:53.170</time></trkpt><trkpt lat="55.8340667" lon="48.9417050"><time>2021-04-17T09:46:55.173</time></trkpt><trkpt lat="55.8340167" lon="48.9417700"><time>2021-04-17T09:46:58.173</time></trkpt><trkpt lat="55.8339800" lon="48.9418500"><time>2021-04-17T09:47:02.173</time></trkpt><trkpt lat="55.8339500" lon="48.9419333"><time>2021-04-17T09:47:05.170</time></trkpt><trkpt lat="55.8339167" lon="48.9420133"><time>2021-04-17T09:47:08.173</time></trkpt><trkpt lat="55.8338700" lon="48.9420633"><time>2021-04-17T09:47:11.170</time></trkpt><trkpt lat="55.8338383" lon="48.9421617"><time>2021-04-17T09:47:14.173</time></trkpt><trkpt lat="55.8338167" lon="48.9422333"><time>2021-04-17T09:47:17.170</time></trkpt><trkpt lat="55.8337950" lon="48.9423033"><time>2021-04-17T09:47:20.173</time></trkpt><trkpt lat="55.8337783" lon="48.9424167"><time>2021-04-17T09:47:23.173</time></trkpt><trkpt lat="55.8337450" lon="48.9424967"><time>2021-04-17T09:47:26.170</time></trkpt><trkpt lat="55.8337050" lon="48.9425650"><time>2021-04-17T09:47:29.170</time></trkpt><trkpt lat="55.8336700" lon="48.9426383"><time>2021-04-17T09:47:32.173</time></trkpt><trkpt lat="55.8336450" lon="48.9427350"><time>2021-04-17T09:47:35.173</time></trkpt><trkpt lat="55.8336267" lon="48.9428267"><time>2021-04-17T09:47:38.187</time></trkpt><trkpt lat="55.8336017" lon="48.9429250"><time>2021-04-17T09:47:41.173</time></trkpt><trkpt lat="55.8335933" lon="48.9430200"><time>2021-04-17T09:47:44.173</time></trkpt><trkpt lat="55.8335983" lon="48.9431100"><time>2021-04-17T09:47:48.173</time></trkpt><trkpt lat="55.8335483" lon="48.9432050"><time>2021-04-17T09:48:05.173</time></trkpt><trkpt lat="55.8335150" lon="48.9432667"><time>2021-04-17T09:48:09.173</time></trkpt><trkpt lat="55.8334817" lon="48.9433467"><time>2021-04-17T09:48:12.173</time></trkpt><trkpt lat="55.8334550" lon="48.9434600"><time>2021-04-17T09:48:15.173</time></trkpt><trkpt lat="55.8334383" lon="48.9435350"><time>2021-04-17T09:48:17.173</time></trkpt><trkpt lat="55.8334150" lon="48.9436333"><time>2021-04-17T09:48:20.173</time></trkpt><trkpt lat="55.8333900" lon="48.9437000"><time>2021-04-17T09:48:22.173</time></trkpt><trkpt lat="55.8333667" lon="48.9437733"><time>2021-04-17T09:48:24.173</time></trkpt><trkpt lat="55.8333417" lon="48.9438417"><time>2021-04-17T09:48:26.170</time></trkpt><trkpt lat="55.8333233" lon="48.9439200"><time>2021-04-17T09:48:28.173</time></trkpt><trkpt lat="55.8332917" lon="48.9440133"><time>2021-04-17T09:48:31.173</time></trkpt><trkpt lat="55.8332417" lon="48.9441033"><time>2021-04-17T09:48:34.173</time></trkpt><trkpt lat="55.8332083" lon="48.9441833"><time>2021-04-17T09:48:37.173</time></trkpt><trkpt lat="55.8331850" lon="48.9442617"><time>2021-04-17T09:48:41.173</time></trkpt><trkpt lat="55.8331733" lon="48.9443400"><time>2021-04-17T09:48:47.173</time></trkpt><trkpt lat="55.8331350" lon="48.9444150"><time>2021-04-17T09:48:50.173</time></trkpt><trkpt lat="55.8331067" lon="48.9444967"><time>2021-04-17T09:48:53.173</time></trkpt><trkpt lat="55.8330917" lon="48.9445850"><time>2021-04-17T09:48:56.173</time></trkpt><trkpt lat="55.8330900" lon="48.9446717"><time>2021-04-17T09:48:58.173</time></trkpt><trkpt lat="55.8330750" lon="48.9447700"><time>2021-04-17T09:49:01.173</time></trkpt><trkpt lat="55.8330500" lon="48.9448383"><time>2021-04-17T09:49:04.170</time></trkpt><trkpt lat="55.8330283" lon="48.9449233"><time>2021-04-17T09:49:07.173</time></trkpt><trkpt lat="55.8329950" lon="48.9450000"><time>2021-04-17T09:49:11.173</time></trkpt><trkpt lat="55.8329650" lon="48.9450967"><time>2021-04-17T09:49:14.173</time></trkpt><trkpt lat="55.8329400" lon="48.9451983"><time>2021-04-17T09:49:17.170</time></trkpt><trkpt lat="55.8329150" lon="48.9453000"><time>2021-04-17T09:49:20.173</time></trkpt><trkpt lat="55.8328967" lon="48.9453733"><time>2021-04-17T09:49:22.173</time></trkpt><trkpt lat="55.8328500" lon="48.9454400"><time>2021-04-17T09:49:25.173</time></trkpt><trkpt lat="55.8328200" lon="48.9455083"><time>2021-04-17T09:49:29.173</time></trkpt><trkpt lat="55.8327600" lon="48.9455350"><time>2021-04-17T09:49:40.173</time></trkpt><trkpt lat="55.8327133" lon="48.9455783"><time>2021-04-17T09:49:43.173</time></trkpt><trkpt lat="55.8326600" lon="48.9456050"><time>2021-04-17T09:49:46.170</time></trkpt><trkpt lat="55.8326050" lon="48.9456533"><time>2021-04-17T09:49:49.173</time></trkpt><trkpt lat="55.8325633" lon="48.9456833"><time>2021-04-17T09:49:52.173</time></trkpt><trkpt lat="55.8325567" lon="48.9457783"><time>2021-04-17T09:49:57.173</time></trkpt><trkpt lat="55.8325750" lon="48.9458733"><time>2021-04-17T09:50:01.173</time></trkpt><trkpt lat="55.8326150" lon="48.9459167"><time>2021-04-17T09:50:04.173</time></trkpt><trkpt lat="55.8326350" lon="48.9459950"><time>2021-04-17T09:50:10.173</time></trkpt><trkpt lat="55.8326200" lon="48.9460733"><time>2021-04-17T09:50:15.173</time></trkpt><trkpt lat="55.8325500" lon="48.9461017"><time>2021-04-17T09:50:31.173</time></trkpt><trkpt lat="55.8325233" lon="48.9460283"><time>2021-04-17T09:50:39.173</time></trkpt><trkpt lat="55.8324350" lon="48.9460517"><time>2021-04-17T09:50:54.173</time></trkpt><trkpt lat="55.8324067" lon="48.9461183"><time>2021-04-17T09:51:00.180</time></trkpt><trkpt lat="55.8324150" lon="48.9461817"><time>2021-04-17T09:51:04.467</time></trkpt><trkpt lat="55.8324517" lon="48.9461233"><time>2021-04-17T09:51:12.213</time></trkpt><trkpt lat="55.8325000" lon="48.9460617"><time>2021-04-17T09:51:16.173</time></trkpt><trkpt lat="55.8324967" lon="48.9459800"><time>2021-04-17T09:51:18.193</time></trkpt><trkpt lat="55.8324667" lon="48.9459133"><time>2021-04-17T09:51:23.190</time></trkpt><trkpt lat="55.8324183" lon="48.9458767"><time>2021-04-17T09:51:27.173</time></trkpt><trkpt lat="55.8323717" lon="48.9458333"><time>2021-04-17T09:51:51.173</time></trkpt><trkpt lat="55.8323217" lon="48.9457700"><time>2021-04-17T09:51:58.173</time></trkpt><trkpt lat="55.8322817" lon="48.9457033"><time>2021-04-17T09:52:02.170</time></trkpt><trkpt lat="55.8322617" lon="48.9456267"><time>2021-04-17T09:52:06.177</time></trkpt><trkpt lat="55.8322233" lon="48.9455733"><time>2021-04-17T09:52:10.170</time></trkpt><trkpt lat="55.8321733" lon="48.9455183"><time>2021-04-17T09:52:13.173</time></trkpt><trkpt lat="55.8321250" lon="48.9454867"><time>2021-04-17T09:52:16.173</time></trkpt><trkpt lat="55.8320800" lon="48.9454533"><time>2021-04-17T09:52:19.170</time></trkpt><trkpt lat="55.8320317" lon="48.9453983"><time>2021-04-17T09:52:22.173</time></trkpt><trkpt lat="55.8319950" lon="48.9453333"><time>2021-04-17T09:52:25.170</time></trkpt><trkpt lat="55.8319450" lon="48.9453050"><time>2021-04-17T09:52:27.167</time></trkpt><trkpt lat="55.8318983" lon="48.9452617"><time>2021-04-17T09:52:31.170</time></trkpt><trkpt lat="55.8318583" lon="48.9453383"><time>2021-04-17T09:52:36.173</time></trkpt><trkpt lat="55.8318050" lon="48.9453633"><time>2021-04-17T09:52:40.173</time></trkpt><trkpt lat="55.8317400" lon="48.9453550"><time>2021-04-17T09:52:42.173</time></trkpt><trkpt lat="55.8316833" lon="48.9453450"><time>2021-04-17T09:52:45.173</time></trkpt><trkpt lat="55.8316400" lon="48.9453117"><time>2021-04-17T09:52:48.177</time></trkpt><trkpt lat="55.8315967" lon="48.9452350"><time>2021-04-17T09:52:51.173</time></trkpt><trkpt lat="55.8315500" lon="48.9451833"><time>2021-04-17T09:52:53.177</time></trkpt><trkpt lat="55.8314883" lon="48.9451533"><time>2021-04-17T09:52:55.173</time></trkpt><trkpt lat="55.8314467" lon="48.9451150"><time>2021-04-17T09:53:00.173</time></trkpt><trkpt lat="55.8314017" lon="48.9450983"><time>2021-04-17T09:53:05.173</time></trkpt><trkpt lat="55.8313783" lon="48.9450300"><time>2021-04-17T09:53:09.197</time></trkpt><trkpt lat="55.8313367" lon="48.9449850"><time>2021-04-17T09:53:19.170</time></trkpt><trkpt lat="55.8313200" lon="48.9449083"><time>2021-04-17T09:53:24.173</time></trkpt><trkpt lat="55.8313167" lon="48.9448067"><time>2021-04-17T09:53:27.173</time></trkpt><trkpt lat="55.8313200" lon="48.9447150"><time>2021-04-17T09:53:30.177</time></trkpt><trkpt lat="55.8312983" lon="48.9446233"><time>2021-04-17T09:53:33.173</time></trkpt><trkpt lat="55.8312750" lon="48.9445433"><time>2021-04-17T09:53:36.173</time></trkpt><trkpt lat="55.8312250" lon="48.9444983"><time>2021-04-17T09:53:38.173</time></trkpt><trkpt lat="55.8311733" lon="48.9443983"><time>2021-04-17T09:53:40.173</time></trkpt><trkpt lat="55.8311400" lon="48.9443067"><time>2021-04-17T09:53:42.173</time></trkpt><trkpt lat="55.8311033" lon="48.9442267"><time>2021-04-17T09:53:44.173</time></trkpt><trkpt lat="55.8310533" lon="48.9441083"><time>2021-04-17T09:53:51.173</time></trkpt><trkpt lat="55.8310167" lon="48.9440283"><time>2021-04-17T09:53:53.173</time></trkpt><trkpt lat="55.8309917" lon="48.9439567"><time>2021-04-17T09:53:55.170</time></trkpt><trkpt lat="55.8309533" lon="48.9438983"><time>2021-04-17T09:54:00.173</time></trkpt><trkpt lat="55.8309933" lon="48.9438533"><time>2021-04-17T09:54:15.173</time></trkpt><trkpt lat="55.8310433" lon="48.9438450"><time>2021-04-17T09:54:17.173</time></trkpt><trkpt lat="55.8310883" lon="48.9438067"><time>2021-04-17T09:54:19.173</time></trkpt><trkpt lat="55.8311283" lon="48.9437633"><time>2021-04-17T09:54:21.173</time></trkpt><trkpt lat="55.8311700" lon="48.9437267"><time>2021-04-17T09:54:23.173</time></trkpt><trkpt lat="55.8312050" lon="48.9436717"><time>2021-04-17T09:54:25.173</time></trkpt><trkpt lat="55.8312333" lon="48.9435883"><time>2021-04-17T09:54:28.167</time></trkpt><trkpt lat="55.8312583" lon="48.9434933"><time>2021-04-17T09:54:31.173</time></trkpt><trkpt lat="55.8312850" lon="48.9433833"><time>2021-04-17T09:54:34.173</time></trkpt><trkpt lat="55.8313017" lon="48.9432767"><time>2021-04-17T09:54:37.173</time></trkpt><trkpt lat="55.8312883" lon="48.9431683"><time>2021-04-17T09:54:40.173</time></trkpt><trkpt lat="55.8312750" lon="48.9430817"><time>2021-04-17T09:54:42.173</time></trkpt><trkpt lat="55.8312517" lon="48.9429667"><time>2021-04-17T09:54:45.173</time></trkpt><trkpt lat="55.8312433" lon="48.9428500"><time>2021-04-17T09:54:48.173</time></trkpt><trkpt lat="55.8312550" lon="48.9427650"><time>2021-04-17T09:54:50.173</time></trkpt><trkpt lat="55.8312533" lon="48.9426817"><time>2021-04-17T09:54:52.173</time></trkpt><trkpt lat="55.8312433" lon="48.9426000"><time>2021-04-17T09:54:54.173</time></trkpt><trkpt lat="55.8312200" lon="48.9425033"><time>2021-04-17T09:54:56.173</time></trkpt><trkpt lat="55.8311933" lon="48.9423900"><time>2021-04-17T09:54:59.173</time></trkpt><trkpt lat="55.8311683" lon="48.9423133"><time>2021-04-17T09:55:01.173</time></trkpt><trkpt lat="55.8311417" lon="48.9422167"><time>2021-04-17T09:55:03.173</time></trkpt><trkpt lat="55.8311250" lon="48.9421233"><time>2021-04-17T09:55:05.173</time></trkpt><trkpt lat="55.8311117" lon="48.9420350"><time>2021-04-17T09:55:07.173</time></trkpt><trkpt lat="55.8310950" lon="48.9419267"><time>2021-04-17T09:55:09.173</time></trkpt><trkpt lat="55.8310900" lon="48.9418317"><time>2021-04-17T09:55:11.173</time></trkpt><trkpt lat="55.8310817" lon="48.9417100"><time>2021-04-17T09:55:13.173</time></trkpt><trkpt lat="55.8310650" lon="48.9416100"><time>2021-04-17T09:55:15.173</time></trkpt><trkpt lat="55.8310450" lon="48.9415200"><time>2021-04-17T09:55:17.173</time></trkpt><trkpt lat="55.8310217" lon="48.9414133"><time>2021-04-17T09:55:20.173</time></trkpt><trkpt lat="55.8310217" lon="48.9413300"><time>2021-04-17T09:55:22.173</time></trkpt><trkpt lat="55.8310567" lon="48.9412433"><time>2021-04-17T09:55:25.850</time></trkpt><trkpt lat="55.8310950" lon="48.9411867"><time>2021-04-17T09:55:28.170</time></trkpt><trkpt lat="55.8311200" lon="48.9411083"><time>2021-04-17T09:55:30.180</time></trkpt><trkpt lat="55.8311200" lon="48.9411083"><time>2021-04-17T09:55:30.507</time></trkpt><trkpt lat="55.8311383" lon="48.9410283"><time>2021-04-17T09:55:34.183</time></trkpt><trkpt lat="55.8310883" lon="48.9410000"><time>2021-04-17T09:55:36.173</time></trkpt><trkpt lat="55.8310300" lon="48.9409817"><time>2021-04-17T09:55:37.173</time></trkpt><trkpt lat="55.8309733" lon="48.9410533"><time>2021-04-17T09:55:40.173</time></trkpt><trkpt lat="55.8309500" lon="48.9411483"><time>2021-04-17T09:55:42.173</time></trkpt><trkpt lat="55.8309533" lon="48.9412367"><time>2021-04-17T09:55:44.173</time></trkpt><trkpt lat="55.8309633" lon="48.9413233"><time>2021-04-17T09:55:46.177</time></trkpt><trkpt lat="55.8309833" lon="48.9414217"><time>2021-04-17T09:55:49.173</time></trkpt><trkpt lat="55.8309967" lon="48.9415083"><time>2021-04-17T09:55:52.173</time></trkpt><trkpt lat="55.8310033" lon="48.9416200"><time>2021-04-17T09:55:55.173</time></trkpt><trkpt lat="55.8310250" lon="48.9417050"><time>2021-04-17T09:55:57.173</time></trkpt><trkpt lat="55.8310433" lon="48.9417967"><time>2021-04-17T09:56:00.173</time></trkpt><trkpt lat="55.8310600" lon="48.9418767"><time>2021-04-17T09:56:03.173</time></trkpt><trkpt lat="55.8310750" lon="48.9419667"><time>2021-04-17T09:56:10.173</time></trkpt><trkpt lat="55.8310950" lon="48.9420650"><time>2021-04-17T09:56:14.173</time></trkpt><trkpt lat="55.8311200" lon="48.9421417"><time>2021-04-17T09:56:18.173</time></trkpt><trkpt lat="55.8311400" lon="48.9422150"><time>2021-04-17T09:56:21.173</time></trkpt><trkpt lat="55.8311517" lon="48.9423000"><time>2021-04-17T09:56:25.173</time></trkpt><trkpt lat="55.8311550" lon="48.9423950"><time>2021-04-17T09:56:29.170</time></trkpt><trkpt lat="55.8311483" lon="48.9425067"><time>2021-04-17T09:56:33.173</time></trkpt><trkpt lat="55.8311700" lon="48.9425950"><time>2021-04-17T09:56:36.173</time></trkpt><trkpt lat="55.8311950" lon="48.9426717"><time>2021-04-17T09:56:38.173</time></trkpt><trkpt lat="55.8312150" lon="48.9427700"><time>2021-04-17T09:56:40.173</time></trkpt><trkpt lat="55.8312317" lon="48.9428517"><time>2021-04-17T09:56:42.173</time></trkpt><trkpt lat="55.8312500" lon="48.9429333"><time>2021-04-17T09:56:44.173</time></trkpt><trkpt lat="55.8312483" lon="48.9430133"><time>2021-04-17T09:56:46.173</time></trkpt><trkpt lat="55.8312350" lon="48.9431033"><time>2021-04-17T09:56:48.173</time></trkpt><trkpt lat="55.8312133" lon="48.9432000"><time>2021-04-17T09:56:50.173</time></trkpt><trkpt lat="55.8312050" lon="48.9432800"><time>2021-04-17T09:56:52.173</time></trkpt><trkpt lat="55.8312050" lon="48.9433717"><time>2021-04-17T09:56:55.170</time></trkpt><trkpt lat="55.8311900" lon="48.9434583"><time>2021-04-17T09:56:57.173</time></trkpt><trkpt lat="55.8311817" lon="48.9435433"><time>2021-04-17T09:56:59.173</time></trkpt><trkpt lat="55.8311817" lon="48.9436267"><time>2021-04-17T09:57:01.173</time></trkpt><trkpt lat="55.8311833" lon="48.9437200"><time>2021-04-17T09:57:03.173</time></trkpt><trkpt lat="55.8312017" lon="48.9438167"><time>2021-04-17T09:57:06.173</time></trkpt><trkpt lat="55.8312117" lon="48.9439433"><time>2021-04-17T09:57:09.170</time></trkpt><trkpt lat="55.8312200" lon="48.9440467"><time>2021-04-17T09:57:11.173</time></trkpt><trkpt lat="55.8312250" lon="48.9441333"><time>2021-04-17T09:57:13.173</time></trkpt><trkpt lat="55.8312233" lon="48.9442233"><time>2021-04-17T09:57:15.173</time></trkpt><trkpt lat="55.8312200" lon="48.9443200"><time>2021-04-17T09:57:17.173</time></trkpt><trkpt lat="55.8312283" lon="48.9444017"><time>2021-04-17T09:57:20.173</time></trkpt><trkpt lat="55.8312533" lon="48.9445233"><time>2021-04-17T09:57:25.320</time></trkpt><trkpt lat="55.8312717" lon="48.9446267"><time>2021-04-17T09:57:29.173</time></trkpt><trkpt lat="55.8312917" lon="48.9447150"><time>2021-04-17T09:57:33.170</time></trkpt><trkpt lat="55.8313200" lon="48.9448050"><time>2021-04-17T09:57:35.173</time></trkpt><trkpt lat="55.8313350" lon="48.9448833"><time>2021-04-17T09:57:38.173</time></trkpt><trkpt lat="55.8313400" lon="48.9449783"><time>2021-04-17T09:57:42.180</time></trkpt><trkpt lat="55.8313633" lon="48.9450483"><time>2021-04-17T09:57:48.177</time></trkpt><trkpt lat="55.8314083" lon="48.9450717"><time>2021-04-17T09:57:59.173</time></trkpt><trkpt lat="55.8314650" lon="48.9451067"><time>2021-04-17T09:58:03.173</time></trkpt><trkpt lat="55.8315117" lon="48.9451483"><time>2021-04-17T09:58:07.173</time></trkpt><trkpt lat="55.8315583" lon="48.9452000"><time>2021-04-17T09:58:10.173</time></trkpt><trkpt lat="55.8316100" lon="48.9452567"><time>2021-04-17T09:58:13.173</time></trkpt><trkpt lat="55.8316783" lon="48.9452683"><time>2021-04-17T09:58:16.173</time></trkpt><trkpt lat="55.8317217" lon="48.9453017"><time>2021-04-17T09:58:18.173</time></trkpt><trkpt lat="55.8317683" lon="48.9453783"><time>2021-04-17T09:58:21.173</time></trkpt><trkpt lat="55.8318083" lon="48.9454367"><time>2021-04-17T09:58:24.173</time></trkpt><trkpt lat="55.8318600" lon="48.9454667"><time>2021-04-17T09:58:27.173</time></trkpt><trkpt lat="55.8319050" lon="48.9454667"><time>2021-04-17T09:58:30.173</time></trkpt><trkpt lat="55.8319583" lon="48.9454700"><time>2021-04-17T09:58:34.197</time></trkpt><trkpt lat="55.8320033" lon="48.9455167"><time>2021-04-17T09:58:38.173</time></trkpt><trkpt lat="55.8320550" lon="48.9455450"><time>2021-04-17T09:58:43.173</time></trkpt><trkpt lat="55.8321067" lon="48.9455983"><time>2021-04-17T09:58:47.173</time></trkpt><trkpt lat="55.8321483" lon="48.9456433"><time>2021-04-17T09:58:50.173</time></trkpt><trkpt lat="55.8321900" lon="48.9456900"><time>2021-04-17T09:58:54.173</time></trkpt><trkpt lat="55.8322367" lon="48.9457383"><time>2021-04-17T09:58:58.170</time></trkpt><trkpt lat="55.8322883" lon="48.9457667"><time>2021-04-17T09:59:01.200</time></trkpt><trkpt lat="55.8323317" lon="48.9457917"><time>2021-04-17T09:59:07.173</time></trkpt><trkpt lat="55.8323783" lon="48.9458317"><time>2021-04-17T09:59:14.173</time></trkpt><trkpt lat="55.8324283" lon="48.9458133"><time>2021-04-17T09:59:21.177</time></trkpt><trkpt lat="55.8324700" lon="48.9457833"><time>2021-04-17T09:59:23.173</time></trkpt><trkpt lat="55.8325217" lon="48.9457650"><time>2021-04-17T09:59:25.173</time></trkpt><trkpt lat="55.8325733" lon="48.9457450"><time>2021-04-17T09:59:29.173</time></trkpt><trkpt lat="55.8326200" lon="48.9457250"><time>2021-04-17T09:59:34.173</time></trkpt><trkpt lat="55.8326683" lon="48.9457150"><time>2021-04-17T09:59:38.173</time></trkpt><trkpt lat="55.8327250" lon="48.9457367"><time>2021-04-17T09:59:42.173</time></trkpt><trkpt lat="55.8327717" lon="48.9457600"><time>2021-04-17T09:59:45.173</time></trkpt><trkpt lat="55.8328167" lon="48.9457917"><time>2021-04-17T09:59:48.177</time></trkpt><trkpt lat="55.8328717" lon="48.9458267"><time>2021-04-17T09:59:52.173</time></trkpt><trkpt lat="55.8329333" lon="48.9458567"><time>2021-04-17T09:59:55.173</time></trkpt><trkpt lat="55.8329833" lon="48.9458833"><time>2021-04-17T09:59:59.173</time></trkpt><trkpt lat="55.8330267" lon="48.9459083"><time>2021-04-17T10:00:02.173</time></trkpt><trkpt lat="55.8330717" lon="48.9459217"><time>2021-04-17T10:00:05.173</time></trkpt><trkpt lat="55.8331283" lon="48.9459617"><time>2021-04-17T10:00:09.173</time></trkpt><trkpt lat="55.8331750" lon="48.9459750"><time>2021-04-17T10:00:12.173</time></trkpt><trkpt lat="55.8332150" lon="48.9460117"><time>2021-04-17T10:00:15.173</time></trkpt><trkpt lat="55.8332517" lon="48.9460700"><time>2021-04-17T10:00:19.173</time></trkpt><trkpt lat="55.8332667" lon="48.9461483"><time>2021-04-17T10:00:26.173</time></trkpt><trkpt lat="55.8332533" lon="48.9462467"><time>2021-04-17T10:00:32.173</time></trkpt><trkpt lat="55.8332400" lon="48.9463483"><time>2021-04-17T10:00:35.173</time></trkpt><trkpt lat="55.8332283" lon="48.9464500"><time>2021-04-17T10:00:38.173</time></trkpt><trkpt lat="55.8332283" lon="48.9465383"><time>2021-04-17T10:00:40.173</time></trkpt><trkpt lat="55.8332250" lon="48.9466433"><time>2021-04-17T10:00:43.173</time></trkpt><trkpt lat="55.8332050" lon="48.9467500"><time>2021-04-17T10:00:46.173</time></trkpt><trkpt lat="55.8332150" lon="48.9468683"><time>2021-04-17T10:00:49.173</time></trkpt><trkpt lat="55.8332267" lon="48.9469767"><time>2021-04-17T10:00:52.173</time></trkpt><trkpt lat="55.8332383" lon="48.9470733"><time>2021-04-17T10:00:54.177</time></trkpt><trkpt lat="55.8332650" lon="48.9471717"><time>2021-04-17T10:00:56.177</time></trkpt><trkpt lat="55.8332717" lon="48.9472633"><time>2021-04-17T10:00:58.173</time></trkpt><trkpt lat="55.8332783" lon="48.9473433"><time>2021-04-17T10:01:00.173</time></trkpt><trkpt lat="55.8332917" lon="48.9474267"><time>2021-04-17T10:01:02.173</time></trkpt><trkpt lat="55.8333000" lon="48.9475183"><time>2021-04-17T10:01:04.173</time></trkpt><trkpt lat="55.8333200" lon="48.9476033"><time>2021-04-17T10:01:06.177</time></trkpt><trkpt lat="55.8333617" lon="48.9476833"><time>2021-04-17T10:01:09.173</time></trkpt><trkpt lat="55.8334000" lon="48.9477317"><time>2021-04-17T10:01:12.173</time></trkpt><trkpt lat="55.8334217" lon="48.9478050"><time>2021-04-17T10:01:14.173</time></trkpt><trkpt lat="55.8334500" lon="48.9478850"><time>2021-04-17T10:01:16.173</time></trkpt><trkpt lat="55.8334917" lon="48.9479333"><time>2021-04-17T10:01:19.173</time></trkpt><trkpt lat="55.8335417" lon="48.9480067"><time>2021-04-17T10:01:22.173</time></trkpt><trkpt lat="55.8335833" lon="48.9480650"><time>2021-04-17T10:01:24.173</time></trkpt><trkpt lat="55.8336417" lon="48.9481217"><time>2021-04-17T10:01:26.173</time></trkpt><trkpt lat="55.8336700" lon="48.9482217"><time>2021-04-17T10:01:29.173</time></trkpt><trkpt lat="55.8337067" lon="48.9483017"><time>2021-04-17T10:01:31.173</time></trkpt><trkpt lat="55.8337600" lon="48.9483717"><time>2021-04-17T10:01:34.173</time></trkpt><trkpt lat="55.8337967" lon="48.9484433"><time>2021-04-17T10:01:36.173</time></trkpt><trkpt lat="55.8338350" lon="48.9485000"><time>2021-04-17T10:01:38.173</time></trkpt><trkpt lat="55.8338817" lon="48.9485650"><time>2021-04-17T10:01:40.173</time></trkpt><trkpt lat="55.8339150" lon="48.9486350"><time>2021-04-17T10:01:42.173</time></trkpt><trkpt lat="55.8339517" lon="48.9487150"><time>2021-04-17T10:01:44.173</time></trkpt><trkpt lat="55.8339717" lon="48.9487917"><time>2021-04-17T10:01:46.173</time></trkpt><trkpt lat="55.8339950" lon="48.9488783"><time>2021-04-17T10:01:49.173</time></trkpt><trkpt lat="55.8340217" lon="48.9489733"><time>2021-04-17T10:01:52.177</time></trkpt><trkpt lat="55.8340467" lon="48.9490517"><time>2021-04-17T10:01:54.173</time></trkpt><trkpt lat="55.8340767" lon="48.9491283"><time>2021-04-17T10:01:56.173</time></trkpt><trkpt lat="55.8340933" lon="48.9492033"><time>2021-04-17T10:01:58.173</time></trkpt><trkpt lat="55.8341017" lon="48.9492900"><time>2021-04-17T10:02:00.173</time></trkpt><trkpt lat="55.8341033" lon="48.9493850"><time>2021-04-17T10:02:03.173</time></trkpt><trkpt lat="55.8341167" lon="48.9494633"><time>2021-04-17T10:02:06.173</time></trkpt><trkpt lat="55.8341250" lon="48.9495450"><time>2021-04-17T10:02:10.170</time></trkpt><trkpt lat="55.8341067" lon="48.9496367"><time>2021-04-17T10:02:15.173</time></trkpt><trkpt lat="55.8340900" lon="48.9497217"><time>2021-04-17T10:02:18.173</time></trkpt><trkpt lat="55.8341017" lon="48.9498183"><time>2021-04-17T10:02:22.173</time></trkpt><trkpt lat="55.8341033" lon="48.9499017"><time>2021-04-17T10:02:26.170</time></trkpt><trkpt lat="55.8341133" lon="48.9499117"><time>2021-04-17T10:02:28.463</time></trkpt><trkpt lat="55.8340583" lon="48.9498433"><time>2021-04-17T10:02:42.170</time></trkpt><trkpt lat="55.8340950" lon="48.9497833"><time>2021-04-17T10:02:46.170</time></trkpt><trkpt lat="55.8341283" lon="48.9497117"><time>2021-04-17T10:02:49.170</time></trkpt><trkpt lat="55.8341783" lon="48.9496517"><time>2021-04-17T10:02:51.187</time></trkpt><trkpt lat="55.8342117" lon="48.9494983"><time>2021-04-17T10:02:53.173</time></trkpt><trkpt lat="55.8342000" lon="48.9494033"><time>2021-04-17T10:03:00.173</time></trkpt><trkpt lat="55.8342117" lon="48.9493233"><time>2021-04-17T10:03:08.173</time></trkpt><trkpt lat="55.8341817" lon="48.9492533"><time>2021-04-17T10:03:11.173</time></trkpt><trkpt lat="55.8341383" lon="48.9491883"><time>2021-04-17T10:03:14.170</time></trkpt><trkpt lat="55.8340733" lon="48.9491550"><time>2021-04-17T10:03:16.173</time></trkpt><trkpt lat="55.8340200" lon="48.9490950"><time>2021-04-17T10:03:19.173</time></trkpt><trkpt lat="55.8340317" lon="48.9490117"><time>2021-04-17T10:03:22.173</time></trkpt><trkpt lat="55.8340183" lon="48.9489183"><time>2021-04-17T10:03:26.173</time></trkpt><trkpt lat="55.8339900" lon="48.9488417"><time>2021-04-17T10:03:29.173</time></trkpt><trkpt lat="55.8340117" lon="48.9487533"><time>2021-04-17T10:03:32.173</time></trkpt><trkpt lat="55.8340600" lon="48.9486933"><time>2021-04-17T10:03:36.173</time></trkpt><trkpt lat="55.8341117" lon="48.9486367"><time>2021-04-17T10:03:39.173</time></trkpt><trkpt lat="55.8341550" lon="48.9486000"><time>2021-04-17T10:03:42.173</time></trkpt><trkpt lat="55.8341817" lon="48.9485217"><time>2021-04-17T10:03:45.173</time></trkpt><trkpt lat="55.8341967" lon="48.9484300"><time>2021-04-17T10:03:48.173</time></trkpt><trkpt lat="55.8342150" lon="48.9483300"><time>2021-04-17T10:03:51.173</time></trkpt><trkpt lat="55.8342500" lon="48.9482433"><time>2021-04-17T10:03:54.177</time></trkpt><trkpt lat="55.8342800" lon="48.9481633"><time>2021-04-17T10:03:58.173</time></trkpt><trkpt lat="55.8342833" lon="48.9480800"><time>2021-04-17T10:04:07.173</time></trkpt><trkpt lat="55.8343083" lon="48.9479967"><time>2021-04-17T10:04:11.173</time></trkpt><trkpt lat="55.8343067" lon="48.9479033"><time>2021-04-17T10:04:14.173</time></trkpt><trkpt lat="55.8343233" lon="48.9478233"><time>2021-04-17T10:04:18.207</time></trkpt><trkpt lat="55.8343117" lon="48.9477400"><time>2021-04-17T10:04:23.173</time></trkpt><trkpt lat="55.8343350" lon="48.9476600"><time>2021-04-17T10:04:27.173</time></trkpt><trkpt lat="55.8343533" lon="48.9475800"><time>2021-04-17T10:04:31.170</time></trkpt><trkpt lat="55.8343817" lon="48.9475083"><time>2021-04-17T10:04:35.173</time></trkpt><trkpt lat="55.8344067" lon="48.9474300"><time>2021-04-17T10:04:39.173</time></trkpt><trkpt lat="55.8344150" lon="48.9473367"><time>2021-04-17T10:04:43.173</time></trkpt><trkpt lat="55.8344400" lon="48.9472617"><time>2021-04-17T10:04:49.173</time></trkpt><trkpt lat="55.8344767" lon="48.9472083"><time>2021-04-17T10:04:53.173</time></trkpt><trkpt lat="55.8345200" lon="48.9471817"><time>2021-04-17T10:04:56.197</time></trkpt><trkpt lat="55.8345583" lon="48.9471233"><time>2021-04-17T10:05:01.173</time></trkpt><trkpt lat="55.8346117" lon="48.9470883"><time>2021-04-17T10:05:06.173</time></trkpt><trkpt lat="55.8346667" lon="48.9470933"><time>2021-04-17T10:05:11.173</time></trkpt><trkpt lat="55.8347233" lon="48.9471100"><time>2021-04-17T10:05:14.173</time></trkpt><trkpt lat="55.8347817" lon="48.9471400"><time>2021-04-17T10:05:17.173</time></trkpt><trkpt lat="55.8348433" lon="48.9471667"><time>2021-04-17T10:05:20.173</time></trkpt><trkpt lat="55.8349050" lon="48.9471917"><time>2021-04-17T10:05:24.173</time></trkpt><trkpt lat="55.8349617" lon="48.9472150"><time>2021-04-17T10:05:27.173</time></trkpt><trkpt lat="55.8350183" lon="48.9472467"><time>2021-04-17T10:05:30.173</time></trkpt><trkpt lat="55.8350617" lon="48.9472800"><time>2021-04-17T10:05:32.170</time></trkpt><trkpt lat="55.8351050" lon="48.9473133"><time>2021-04-17T10:05:35.170</time></trkpt><trkpt lat="55.8351567" lon="48.9473483"><time>2021-04-17T10:05:38.173</time></trkpt><trkpt lat="55.8352033" lon="48.9473833"><time>2021-04-17T10:05:41.173</time></trkpt><trkpt lat="55.8352650" lon="48.9474167"><time>2021-04-17T10:05:44.173</time></trkpt><trkpt lat="55.8353267" lon="48.9474367"><time>2021-04-17T10:05:47.173</time></trkpt><trkpt lat="55.8353850" lon="48.9474583"><time>2021-04-17T10:05:49.173</time></trkpt><trkpt lat="55.8354417" lon="48.9474833"><time>2021-04-17T10:05:51.173</time></trkpt><trkpt lat="55.8354917" lon="48.9475050"><time>2021-04-17T10:05:53.173</time></trkpt><trkpt lat="55.8355383" lon="48.9475267"><time>2021-04-17T10:05:55.170</time></trkpt><trkpt lat="55.8355933" lon="48.9475583"><time>2021-04-17T10:05:57.173</time></trkpt><trkpt lat="55.8356567" lon="48.9475933"><time>2021-04-17T10:06:00.173</time></trkpt><trkpt lat="55.8357050" lon="48.9476317"><time>2021-04-17T10:06:02.173</time></trkpt><trkpt lat="55.8357467" lon="48.9476883"><time>2021-04-17T10:06:07.173</time></trkpt><trkpt lat="55.8357967" lon="48.9477150"><time>2021-04-17T10:06:10.173</time></trkpt><trkpt lat="55.8358483" lon="48.9477350"><time>2021-04-17T10:06:12.173</time></trkpt><trkpt lat="55.8358933" lon="48.9477617"><time>2021-04-17T10:06:14.173</time></trkpt><trkpt lat="55.8359467" lon="48.9478100"><time>2021-04-17T10:06:17.173</time></trkpt><trkpt lat="55.8359883" lon="48.9478517"><time>2021-04-17T10:06:20.173</time></trkpt><trkpt lat="55.8360383" lon="48.9478867"><time>2021-04-17T10:06:23.173</time></trkpt><trkpt lat="55.8360900" lon="48.9479067"><time>2021-04-17T10:06:26.173</time></trkpt><trkpt lat="55.8361333" lon="48.9479433"><time>2021-04-17T10:06:28.170</time></trkpt><trkpt lat="55.8361783" lon="48.9479500"><time>2021-04-17T10:06:30.173</time></trkpt><trkpt lat="55.8362267" lon="48.9479767"><time>2021-04-17T10:06:32.170</time></trkpt><trkpt lat="55.8362850" lon="48.9480100"><time>2021-04-17T10:06:34.173</time></trkpt><trkpt lat="55.8363333" lon="48.9480317"><time>2021-04-17T10:06:36.313</time></trkpt><trkpt lat="55.8364033" lon="48.9480650"><time>2021-04-17T10:06:39.173</time></trkpt><trkpt lat="55.8364550" lon="48.9481067"><time>2021-04-17T10:06:42.180</time></trkpt><trkpt lat="55.8365100" lon="48.9481400"><time>2021-04-17T10:06:45.170</time></trkpt><trkpt lat="55.8365633" lon="48.9481817"><time>2021-04-17T10:06:48.173</time></trkpt><trkpt lat="55.8366067" lon="48.9482217"><time>2021-04-17T10:06:50.170</time></trkpt><trkpt lat="55.8366650" lon="48.9482617"><time>2021-04-17T10:06:53.170</time></trkpt><trkpt lat="55.8367217" lon="48.9482967"><time>2021-04-17T10:06:56.170</time></trkpt><trkpt lat="55.8367700" lon="48.9483283"><time>2021-04-17T10:06:59.170</time></trkpt><trkpt lat="55.8368350" lon="48.9483800"><time>2021-04-17T10:07:01.173</time></trkpt><trkpt lat="55.8368983" lon="48.9484217"><time>2021-04-17T10:07:03.173</time></trkpt><trkpt lat="55.8369583" lon="48.9484433"><time>2021-04-17T10:07:06.170</time></trkpt><trkpt lat="55.8370133" lon="48.9483983"><time>2021-04-17T10:07:08.173</time></trkpt><trkpt lat="55.8370467" lon="48.9483183"><time>2021-04-17T10:07:11.177</time></trkpt><trkpt lat="55.8370550" lon="48.9482367"><time>2021-04-17T10:07:17.170</time></trkpt><trkpt lat="55.8370650" lon="48.9481317"><time>2021-04-17T10:07:20.173</time></trkpt><trkpt lat="55.8370767" lon="48.9480417"><time>2021-04-17T10:07:24.173</time></trkpt><trkpt lat="55.8371050" lon="48.9479533"><time>2021-04-17T10:07:27.173</time></trkpt><trkpt lat="55.8371617" lon="48.9478433"><time>2021-04-17T10:07:30.173</time></trkpt><trkpt lat="55.8372100" lon="48.9478267"><time>2021-04-17T10:07:31.173</time></trkpt><trkpt lat="55.8372900" lon="48.9478067"><time>2021-04-17T10:07:34.173</time></trkpt><trkpt lat="55.8373283" lon="48.9477283"><time>2021-04-17T10:07:37.173</time></trkpt><trkpt lat="55.8373350" lon="48.9476417"><time>2021-04-17T10:07:39.173</time></trkpt><trkpt lat="55.8373350" lon="48.9475583"><time>2021-04-17T10:07:41.170</time></trkpt><trkpt lat="55.8373433" lon="48.9474717"><time>2021-04-17T10:07:44.173</time></trkpt><trkpt lat="55.8373817" lon="48.9473533"><time>2021-04-17T10:07:47.197</time></trkpt><trkpt lat="55.8373917" lon="48.9472583"><time>2021-04-17T10:07:49.180</time></trkpt><trkpt lat="55.8373933" lon="48.9471550"><time>2021-04-17T10:07:53.170</time></trkpt><trkpt lat="55.8374267" lon="48.9471667"><time>2021-04-17T10:07:56.947</time></trkpt><trkpt lat="55.8374417" lon="48.9471600"><time>2021-04-17T10:07:58.170</time></trkpt><trkpt lat="55.8374033" lon="48.9471100"><time>2021-04-17T10:08:01.173</time></trkpt><trkpt lat="55.8373783" lon="48.9470383"><time>2021-04-17T10:08:05.183</time></trkpt><trkpt lat="55.8373367" lon="48.9469283"><time>2021-04-17T10:08:11.177</time></trkpt><trkpt lat="55.8373000" lon="48.9468783"><time>2021-04-17T10:08:13.183</time></trkpt><trkpt lat="55.8372783" lon="48.9467967"><time>2021-04-17T10:08:15.167</time></trkpt><trkpt lat="55.8372400" lon="48.9467500"><time>2021-04-17T10:08:17.177</time></trkpt><trkpt lat="55.8373167" lon="48.9468067"><time>2021-04-17T10:08:20.170</time></trkpt><trkpt lat="55.8373583" lon="48.9469633"><time>2021-04-17T10:09:19.173</time></trkpt><trkpt lat="55.8373667" lon="48.9470550"><time>2021-04-17T10:09:51.173</time></trkpt><trkpt lat="55.8373850" lon="48.9471367"><time>2021-04-17T10:09:57.183</time></trkpt><trkpt lat="55.8373633" lon="48.9472083"><time>2021-04-17T10:10:01.177</time></trkpt><trkpt lat="55.8373267" lon="48.9472617"><time>2021-04-17T10:10:04.173</time></trkpt><trkpt lat="55.8372817" lon="48.9473083"><time>2021-04-17T10:10:06.177</time></trkpt><trkpt lat="55.8372317" lon="48.9473533"><time>2021-04-17T10:10:08.173</time></trkpt><trkpt lat="55.8372033" lon="48.9474400"><time>2021-04-17T10:10:11.173</time></trkpt><trkpt lat="55.8372067" lon="48.9475450"><time>2021-04-17T10:10:14.173</time></trkpt><trkpt lat="55.8372150" lon="48.9476317"><time>2021-04-17T10:10:16.173</time></trkpt><trkpt lat="55.8371917" lon="48.9477300"><time>2021-04-17T10:10:20.173</time></trkpt><trkpt lat="55.8371550" lon="48.9478083"><time>2021-04-17T10:10:23.173</time></trkpt><trkpt lat="55.8371317" lon="48.9478933"><time>2021-04-17T10:10:26.173</time></trkpt><trkpt lat="55.8370983" lon="48.9479933"><time>2021-04-17T10:10:29.173</time></trkpt><trkpt lat="55.8370700" lon="48.9480950"><time>2021-04-17T10:10:32.173</time></trkpt><trkpt lat="55.8370450" lon="48.9481900"><time>2021-04-17T10:10:35.173</time></trkpt><trkpt lat="55.8370550" lon="48.9482950"><time>2021-04-17T10:10:38.173</time></trkpt><trkpt lat="55.8370900" lon="48.9483583"><time>2021-04-17T10:10:40.173</time></trkpt><trkpt lat="55.8371250" lon="48.9484150"><time>2021-04-17T10:10:42.300</time></trkpt><trkpt lat="55.8371667" lon="48.9484783"><time>2021-04-17T10:10:44.173</time></trkpt><trkpt lat="55.8372117" lon="48.9485467"><time>2021-04-17T10:10:46.173</time></trkpt><trkpt lat="55.8372583" lon="48.9485950"><time>2021-04-17T10:10:48.207</time></trkpt><trkpt lat="55.8373067" lon="48.9486600"><time>2021-04-17T10:10:51.177</time></trkpt><trkpt lat="55.8373417" lon="48.9487117"><time>2021-04-17T10:10:53.173</time></trkpt><trkpt lat="55.8373883" lon="48.9487583"><time>2021-04-17T10:10:55.173</time></trkpt><trkpt lat="55.8374267" lon="48.9488067"><time>2021-04-17T10:10:57.173</time></trkpt><trkpt lat="55.8374683" lon="48.9488500"><time>2021-04-17T10:10:59.173</time></trkpt><trkpt lat="55.8375117" lon="48.9488817"><time>2021-04-17T10:11:01.173</time></trkpt><trkpt lat="55.8375700" lon="48.9489200"><time>2021-04-17T10:11:04.173</time></trkpt><trkpt lat="55.8376183" lon="48.9489383"><time>2021-04-17T10:11:07.173</time></trkpt><trkpt lat="55.8376650" lon="48.9489383"><time>2021-04-17T10:11:10.173</time></trkpt><trkpt lat="55.8377100" lon="48.9489600"><time>2021-04-17T10:11:12.177</time></trkpt><trkpt lat="55.8377650" lon="48.9489517"><time>2021-04-17T10:11:15.173</time></trkpt><trkpt lat="55.8378317" lon="48.9489883"><time>2021-04-17T10:11:18.177</time></trkpt><trkpt lat="55.8378683" lon="48.9490400"><time>2021-04-17T10:11:20.173</time></trkpt><trkpt lat="55.8379050" lon="48.9490900"><time>2021-04-17T10:11:23.173</time></trkpt><trkpt lat="55.8379483" lon="48.9491400"><time>2021-04-17T10:11:26.173</time></trkpt><trkpt lat="55.8379967" lon="48.9491817"><time>2021-04-17T10:11:28.173</time></trkpt><trkpt lat="55.8380533" lon="48.9492333"><time>2021-04-17T10:11:31.170</time></trkpt><trkpt lat="55.8381050" lon="48.9492717"><time>2021-04-17T10:11:33.173</time></trkpt><trkpt lat="55.8381750" lon="48.9492900"><time>2021-04-17T10:11:35.173</time></trkpt><trkpt lat="55.8382383" lon="48.9493217"><time>2021-04-17T10:11:37.173</time></trkpt><trkpt lat="55.8382883" lon="48.9493467"><time>2021-04-17T10:11:39.173</time></trkpt><trkpt lat="55.8383350" lon="48.9493750"><time>2021-04-17T10:11:41.173</time></trkpt><trkpt lat="55.8383817" lon="48.9493950"><time>2021-04-17T10:11:43.173</time></trkpt><trkpt lat="55.8384467" lon="48.9494150"><time>2021-04-17T10:11:46.173</time></trkpt><trkpt lat="55.8385017" lon="48.9494400"><time>2021-04-17T10:11:48.173</time></trkpt><trkpt lat="55.8385500" lon="48.9494717"><time>2021-04-17T10:11:50.173</time></trkpt><trkpt lat="55.8385933" lon="48.9495017"><time>2021-04-17T10:11:52.173</time></trkpt><trkpt lat="55.8386500" lon="48.9495467"><time>2021-04-17T10:11:55.173</time></trkpt><trkpt lat="55.8386950" lon="48.9495767"><time>2021-04-17T10:11:58.173</time></trkpt><trkpt lat="55.8387383" lon="48.9496000"><time>2021-04-17T10:12:00.173</time></trkpt><trkpt lat="55.8387900" lon="48.9496500"><time>2021-04-17T10:12:03.173</time></trkpt><trkpt lat="55.8388267" lon="48.9497317"><time>2021-04-17T10:12:08.173</time></trkpt><trkpt lat="55.8388483" lon="48.9498117"><time>2021-04-17T10:12:13.173</time></trkpt><trkpt lat="55.8388517" lon="48.9499033"><time>2021-04-17T10:12:17.173</time></trkpt><trkpt lat="55.8388550" lon="48.9499867"><time>2021-04-17T10:12:21.173</time></trkpt><trkpt lat="55.8388617" lon="48.9500883"><time>2021-04-17T10:12:24.177</time></trkpt><trkpt lat="55.8388650" lon="48.9501767"><time>2021-04-17T10:12:27.173</time></trkpt><trkpt lat="55.8388700" lon="48.9502683"><time>2021-04-17T10:12:29.173</time></trkpt><trkpt lat="55.8388750" lon="48.9503733"><time>2021-04-17T10:12:31.187</time></trkpt><trkpt lat="55.8388700" lon="48.9504717"><time>2021-04-17T10:12:33.207</time></trkpt><trkpt lat="55.8388700" lon="48.9505783"><time>2021-04-17T10:12:35.170</time></trkpt><trkpt lat="55.8388733" lon="48.9506983"><time>2021-04-17T10:12:37.173</time></trkpt><trkpt lat="55.8388517" lon="48.9508000"><time>2021-04-17T10:12:39.173</time></trkpt><trkpt lat="55.8388283" lon="48.9508700"><time>2021-04-17T10:12:42.173</time></trkpt><trkpt lat="55.8388117" lon="48.9509550"><time>2021-04-17T10:12:45.173</time></trkpt><trkpt lat="55.8387950" lon="48.9510300"><time>2021-04-17T10:12:47.173</time></trkpt><trkpt lat="55.8387733" lon="48.9511033"><time>2021-04-17T10:12:50.173</time></trkpt><trkpt lat="55.8387567" lon="48.9511933"><time>2021-04-17T10:12:53.173</time></trkpt><trkpt lat="55.8387483" lon="48.9513117"><time>2021-04-17T10:12:56.173</time></trkpt><trkpt lat="55.8387500" lon="48.9514033"><time>2021-04-17T10:12:58.173</time></trkpt><trkpt lat="55.8387583" lon="48.9514883"><time>2021-04-17T10:13:00.173</time></trkpt><trkpt lat="55.8387583" lon="48.9515717"><time>2021-04-17T10:13:03.173</time></trkpt><trkpt lat="55.8387600" lon="48.9516650"><time>2021-04-17T10:13:08.173</time></trkpt><trkpt lat="55.8387783" lon="48.9517733"><time>2021-04-17T10:13:11.173</time></trkpt><trkpt lat="55.8387917" lon="48.9518567"><time>2021-04-17T10:13:13.173</time></trkpt><trkpt lat="55.8387900" lon="48.9519650"><time>2021-04-17T10:13:16.173</time></trkpt><trkpt lat="55.8388183" lon="48.9520483"><time>2021-04-17T10:13:20.173</time></trkpt><trkpt lat="55.8388450" lon="48.9521217"><time>2021-04-17T10:13:24.193</time></trkpt><trkpt lat="55.8388650" lon="48.9522033"><time>2021-04-17T10:13:27.173</time></trkpt><trkpt lat="55.8388867" lon="48.9522833"><time>2021-04-17T10:13:31.173</time></trkpt><trkpt lat="55.8389217" lon="48.9523533"><time>2021-04-17T10:13:35.173</time></trkpt><trkpt lat="55.8389567" lon="48.9524667"><time>2021-04-17T10:13:38.173</time></trkpt><trkpt lat="55.8389783" lon="48.9525433"><time>2021-04-17T10:13:40.173</time></trkpt><trkpt lat="55.8390033" lon="48.9526450"><time>2021-04-17T10:13:43.173</time></trkpt><trkpt lat="55.8390167" lon="48.9527233"><time>2021-04-17T10:13:46.173</time></trkpt><trkpt lat="55.8390133" lon="48.9528117"><time>2021-04-17T10:13:49.173</time></trkpt><trkpt lat="55.8390250" lon="48.9529017"><time>2021-04-17T10:13:53.247</time></trkpt><trkpt lat="55.8390633" lon="48.9530017"><time>2021-04-17T10:13:57.170</time></trkpt><trkpt lat="55.8390783" lon="48.9531500"><time>2021-04-17T10:13:59.170</time></trkpt><trkpt lat="55.8390983" lon="48.9532333"><time>2021-04-17T10:14:04.170</time></trkpt><trkpt lat="55.8391033" lon="48.9532367"><time>2021-04-17T10:14:05.590</time></trkpt><trkpt lat="55.8390233" lon="48.9532417"><time>2021-04-17T10:14:06.180</time></trkpt><trkpt lat="55.8390467" lon="48.9531600"><time>2021-04-17T10:14:10.180</time></trkpt><trkpt lat="55.8390600" lon="48.9532367"><time>2021-04-17T10:14:54.177</time></trkpt><trkpt lat="55.8390183" lon="48.9532850"><time>2021-04-17T10:14:56.177</time></trkpt><trkpt lat="55.8389800" lon="48.9533300"><time>2021-04-17T10:14:58.173</time></trkpt><trkpt lat="55.8389683" lon="48.9534083"><time>2021-04-17T10:15:01.177</time></trkpt><trkpt lat="55.8389317" lon="48.9534633"><time>2021-04-17T10:15:03.177</time></trkpt><trkpt lat="55.8388933" lon="48.9535283"><time>2021-04-17T10:15:06.180</time></trkpt><trkpt lat="55.8388700" lon="48.9536000"><time>2021-04-17T10:15:10.177</time></trkpt><trkpt lat="55.8388350" lon="48.9536667"><time>2021-04-17T10:15:13.177</time></trkpt><trkpt lat="55.8388083" lon="48.9537317"><time>2021-04-17T10:15:16.173</time></trkpt><trkpt lat="55.8388000" lon="48.9538267"><time>2021-04-17T10:15:20.173</time></trkpt><trkpt lat="55.8387867" lon="48.9539233"><time>2021-04-17T10:15:23.177</time></trkpt><trkpt lat="55.8387850" lon="48.9540083"><time>2021-04-17T10:15:25.177</time></trkpt><trkpt lat="55.8387950" lon="48.9540883"><time>2021-04-17T10:15:27.177</time></trkpt><trkpt lat="55.8388000" lon="48.9541700"><time>2021-04-17T10:15:29.173</time></trkpt><trkpt lat="55.8387767" lon="48.9542533"><time>2021-04-17T10:15:32.173</time></trkpt><trkpt lat="55.8387400" lon="48.9543483"><time>2021-04-17T10:15:35.177</time></trkpt><trkpt lat="55.8387283" lon="48.9544600"><time>2021-04-17T10:15:38.173</time></trkpt><trkpt lat="55.8387467" lon="48.9545600"><time>2021-04-17T10:15:40.177</time></trkpt><trkpt lat="55.8387483" lon="48.9546867"><time>2021-04-17T10:15:43.173</time></trkpt><trkpt lat="55.8387383" lon="48.9547900"><time>2021-04-17T10:15:45.177</time></trkpt><trkpt lat="55.8387300" lon="48.9548700"><time>2021-04-17T10:15:47.173</time></trkpt><trkpt lat="55.8387100" lon="48.9549533"><time>2021-04-17T10:15:49.173</time></trkpt><trkpt lat="55.8386717" lon="48.9550283"><time>2021-04-17T10:15:51.173</time></trkpt><trkpt lat="55.8386217" lon="48.9550733"><time>2021-04-17T10:15:53.173</time></trkpt><trkpt lat="55.8385767" lon="48.9550967"><time>2021-04-17T10:15:55.190</time></trkpt><trkpt lat="55.8385333" lon="48.9551250"><time>2021-04-17T10:15:57.177</time></trkpt><trkpt lat="55.8385167" lon="48.9552433"><time>2021-04-17T10:15:59.173</time></trkpt><trkpt lat="55.8385017" lon="48.9553300"><time>2021-04-17T10:16:01.177</time></trkpt><trkpt lat="55.8384800" lon="48.9554150"><time>2021-04-17T10:16:03.177</time></trkpt><trkpt lat="55.8384467" lon="48.9555000"><time>2021-04-17T10:16:05.173</time></trkpt><trkpt lat="55.8384167" lon="48.9555933"><time>2021-04-17T10:16:07.173</time></trkpt><trkpt lat="55.8383833" lon="48.9556767"><time>2021-04-17T10:16:09.173</time></trkpt><trkpt lat="55.8383183" lon="48.9557383"><time>2021-04-17T10:16:11.177</time></trkpt><trkpt lat="55.8382533" lon="48.9557917"><time>2021-04-17T10:16:13.177</time></trkpt><trkpt lat="55.8381933" lon="48.9558400"><time>2021-04-17T10:16:15.173</time></trkpt><trkpt lat="55.8381500" lon="48.9558883"><time>2021-04-17T10:16:17.173</time></trkpt><trkpt lat="55.8381183" lon="48.9559500"><time>2021-04-17T10:16:19.177</time></trkpt><trkpt lat="55.8380717" lon="48.9560150"><time>2021-04-17T10:16:21.173</time></trkpt><trkpt lat="55.8380367" lon="48.9560950"><time>2021-04-17T10:16:23.173</time></trkpt><trkpt lat="55.8380033" lon="48.9561700"><time>2021-04-17T10:16:25.173</time></trkpt><trkpt lat="55.8379567" lon="48.9562583"><time>2021-04-17T10:16:28.173</time></trkpt><trkpt lat="55.8379350" lon="48.9563317"><time>2021-04-17T10:16:32.177</time></trkpt><trkpt lat="55.8378967" lon="48.9564067"><time>2021-04-17T10:16:35.177</time></trkpt><trkpt lat="55.8378500" lon="48.9564950"><time>2021-04-17T10:16:38.180</time></trkpt><trkpt lat="55.8378050" lon="48.9565567"><time>2021-04-17T10:16:40.173</time></trkpt><trkpt lat="55.8377500" lon="48.9566267"><time>2021-04-17T10:16:43.173</time></trkpt><trkpt lat="55.8377117" lon="48.9566783"><time>2021-04-17T10:16:45.173</time></trkpt><trkpt lat="55.8376717" lon="48.9567483"><time>2021-04-17T10:16:47.177</time></trkpt><trkpt lat="55.8376467" lon="48.9568367"><time>2021-04-17T10:16:49.193</time></trkpt><trkpt lat="55.8376133" lon="48.9569250"><time>2021-04-17T10:16:51.173</time></trkpt><trkpt lat="55.8375700" lon="48.9569900"><time>2021-04-17T10:16:53.173</time></trkpt><trkpt lat="55.8375250" lon="48.9570450"><time>2021-04-17T10:16:55.173</time></trkpt><trkpt lat="55.8374850" lon="48.9571250"><time>2021-04-17T10:16:57.173</time></trkpt><trkpt lat="55.8374583" lon="48.9571950"><time>2021-04-17T10:16:59.173</time></trkpt><trkpt lat="55.8374333" lon="48.9572750"><time>2021-04-17T10:17:01.173</time></trkpt><trkpt lat="55.8374067" lon="48.9573683"><time>2021-04-17T10:17:03.173</time></trkpt><trkpt lat="55.8373867" lon="48.9574417"><time>2021-04-17T10:17:05.177</time></trkpt><trkpt lat="55.8373400" lon="48.9575150"><time>2021-04-17T10:17:08.173</time></trkpt><trkpt lat="55.8372967" lon="48.9575650"><time>2021-04-17T10:17:10.173</time></trkpt><trkpt lat="55.8372450" lon="48.9576350"><time>2021-04-17T10:17:13.243</time></trkpt><trkpt lat="55.8372117" lon="48.9576933"><time>2021-04-17T10:17:15.230</time></trkpt><trkpt lat="55.8371783" lon="48.9577617"><time>2021-04-17T10:17:17.177</time></trkpt><trkpt lat="55.8371567" lon="48.9578500"><time>2021-04-17T10:17:19.177</time></trkpt><trkpt lat="55.8371417" lon="48.9578983"><time>2021-04-17T10:17:21.247</time></trkpt><trkpt lat="55.8371800" lon="48.9577333"><time>2021-04-17T10:17:28.210</time></trkpt><trkpt lat="55.8372267" lon="48.9577533"><time>2021-04-17T10:17:32.177</time></trkpt><trkpt lat="55.8372767" lon="48.9577333"><time>2021-04-17T10:17:45.173</time></trkpt><trkpt lat="55.8373000" lon="48.9576383"><time>2021-04-17T10:17:48.173</time></trkpt><trkpt lat="55.8373517" lon="48.9575633"><time>2021-04-17T10:17:51.177</time></trkpt><trkpt lat="55.8373917" lon="48.9575033"><time>2021-04-17T10:17:53.177</time></trkpt><trkpt lat="55.8374367" lon="48.9574583"><time>2021-04-17T10:17:55.173</time></trkpt><trkpt lat="55.8374733" lon="48.9573717"><time>2021-04-17T10:17:58.170</time></trkpt><trkpt lat="55.8375083" lon="48.9572917"><time>2021-04-17T10:18:01.173</time></trkpt><trkpt lat="55.8375517" lon="48.9571950"><time>2021-04-17T10:18:03.173</time></trkpt><trkpt lat="55.8375833" lon="48.9571167"><time>2021-04-17T10:18:04.173</time></trkpt><trkpt lat="55.8376400" lon="48.9570467"><time>2021-04-17T10:18:06.173</time></trkpt><trkpt lat="55.8376867" lon="48.9569833"><time>2021-04-17T10:18:08.173</time></trkpt><trkpt lat="55.8377483" lon="48.9569117"><time>2021-04-17T10:18:11.177</time></trkpt><trkpt lat="55.8377917" lon="48.9568433"><time>2021-04-17T10:18:13.177</time></trkpt><trkpt lat="55.8378217" lon="48.9567800"><time>2021-04-17T10:18:15.173</time></trkpt><trkpt lat="55.8378617" lon="48.9567067"><time>2021-04-17T10:18:18.173</time></trkpt><trkpt lat="55.8379100" lon="48.9566183"><time>2021-04-17T10:18:21.177</time></trkpt><trkpt lat="55.8379533" lon="48.9565650"><time>2021-04-17T10:18:23.173</time></trkpt><trkpt lat="55.8379983" lon="48.9565150"><time>2021-04-17T10:18:25.177</time></trkpt><trkpt lat="55.8380450" lon="48.9564700"><time>2021-04-17T10:18:27.173</time></trkpt><trkpt lat="55.8380883" lon="48.9563783"><time>2021-04-17T10:18:30.173</time></trkpt><trkpt lat="55.8381033" lon="48.9562950"><time>2021-04-17T10:18:32.173</time></trkpt><trkpt lat="55.8381567" lon="48.9562267"><time>2021-04-17T10:18:34.173</time></trkpt><trkpt lat="55.8382017" lon="48.9561417"><time>2021-04-17T10:18:36.177</time></trkpt><trkpt lat="55.8382600" lon="48.9560850"><time>2021-04-17T10:18:38.170</time></trkpt><trkpt lat="55.8383033" lon="48.9559917"><time>2021-04-17T10:18:40.177</time></trkpt><trkpt lat="55.8383483" lon="48.9559300"><time>2021-04-17T10:18:42.177</time></trkpt><trkpt lat="55.8383850" lon="48.9558667"><time>2021-04-17T10:18:44.173</time></trkpt><trkpt lat="55.8384167" lon="48.9557633"><time>2021-04-17T10:18:47.173</time></trkpt><trkpt lat="55.8384383" lon="48.9556833"><time>2021-04-17T10:18:49.177</time></trkpt><trkpt lat="55.8384533" lon="48.9556000"><time>2021-04-17T10:18:51.177</time></trkpt><trkpt lat="55.8384850" lon="48.9554983"><time>2021-04-17T10:18:54.180</time></trkpt><trkpt lat="55.8385250" lon="48.9554567"><time>2021-04-17T10:18:56.177</time></trkpt><trkpt lat="55.8385650" lon="48.9554117"><time>2021-04-17T10:18:58.177</time></trkpt><trkpt lat="55.8386117" lon="48.9553400"><time>2021-04-17T10:19:01.177</time></trkpt><trkpt lat="55.8386617" lon="48.9553433"><time>2021-04-17T10:19:03.177</time></trkpt><trkpt lat="55.8387117" lon="48.9553633"><time>2021-04-17T10:19:05.177</time></trkpt><trkpt lat="55.8387567" lon="48.9553833"><time>2021-04-17T10:19:08.173</time></trkpt><trkpt lat="55.8388167" lon="48.9554050"><time>2021-04-17T10:19:13.173</time></trkpt><trkpt lat="55.8388683" lon="48.9554300"><time>2021-04-17T10:19:17.177</time></trkpt><trkpt lat="55.8389083" lon="48.9554733"><time>2021-04-17T10:19:20.173</time></trkpt><trkpt lat="55.8389550" lon="48.9555317"><time>2021-04-17T10:19:23.173</time></trkpt><trkpt lat="55.8389767" lon="48.9556317"><time>2021-04-17T10:19:27.177</time></trkpt><trkpt lat="55.8390033" lon="48.9557383"><time>2021-04-17T10:19:30.177</time></trkpt><trkpt lat="55.8390283" lon="48.9558267"><time>2021-04-17T10:19:34.177</time></trkpt><trkpt lat="55.8390417" lon="48.9559183"><time>2021-04-17T10:19:38.173</time></trkpt><trkpt lat="55.8390533" lon="48.9560000"><time>2021-04-17T10:19:43.177</time></trkpt><trkpt lat="55.8390517" lon="48.9560950"><time>2021-04-17T10:19:48.173</time></trkpt><trkpt lat="55.8390550" lon="48.9561783"><time>2021-04-17T10:19:52.177</time></trkpt><trkpt lat="55.8390483" lon="48.9562817"><time>2021-04-17T10:20:00.177</time></trkpt><trkpt lat="55.8390267" lon="48.9563517"><time>2021-04-17T10:20:03.177</time></trkpt><trkpt lat="55.8390150" lon="48.9564567"><time>2021-04-17T10:20:36.177</time></trkpt><trkpt lat="55.8389650" lon="48.9564883"><time>2021-04-17T10:20:39.173</time></trkpt><trkpt lat="55.8389200" lon="48.9565550"><time>2021-04-17T10:20:42.177</time></trkpt><trkpt lat="55.8388733" lon="48.9565983"><time>2021-04-17T10:20:44.173</time></trkpt><trkpt lat="55.8388217" lon="48.9566500"><time>2021-04-17T10:20:46.173</time></trkpt><trkpt lat="55.8387733" lon="48.9567150"><time>2021-04-17T10:20:48.177</time></trkpt><trkpt lat="55.8387283" lon="48.9567750"><time>2021-04-17T10:20:50.177</time></trkpt><trkpt lat="55.8386867" lon="48.9568317"><time>2021-04-17T10:20:52.173</time></trkpt><trkpt lat="55.8386417" lon="48.9568867"><time>2021-04-17T10:20:54.177</time></trkpt><trkpt lat="55.8385983" lon="48.9569400"><time>2021-04-17T10:20:56.173</time></trkpt><trkpt lat="55.8385533" lon="48.9569967"><time>2021-04-17T10:20:58.190</time></trkpt><trkpt lat="55.8385117" lon="48.9570783"><time>2021-04-17T10:21:00.177</time></trkpt><trkpt lat="55.8384767" lon="48.9571600"><time>2021-04-17T10:21:02.173</time></trkpt><trkpt lat="55.8384417" lon="48.9572383"><time>2021-04-17T10:21:04.173</time></trkpt><trkpt lat="55.8384100" lon="48.9573100"><time>2021-04-17T10:21:06.180</time></trkpt><trkpt lat="55.8383700" lon="48.9573783"><time>2021-04-17T10:21:08.173</time></trkpt><trkpt lat="55.8383233" lon="48.9574433"><time>2021-04-17T10:21:10.173</time></trkpt><trkpt lat="55.8382917" lon="48.9575217"><time>2021-04-17T10:21:12.177</time></trkpt><trkpt lat="55.8382667" lon="48.9576083"><time>2021-04-17T10:21:14.173</time></trkpt><trkpt lat="55.8382467" lon="48.9576967"><time>2021-04-17T10:21:16.173</time></trkpt><trkpt lat="55.8382367" lon="48.9577800"><time>2021-04-17T10:21:18.177</time></trkpt><trkpt lat="55.8382233" lon="48.9578600"><time>2021-04-17T10:21:20.177</time></trkpt><trkpt lat="55.8382050" lon="48.9579767"><time>2021-04-17T10:21:23.177</time></trkpt><trkpt lat="55.8381850" lon="48.9580567"><time>2021-04-17T10:21:25.173</time></trkpt><trkpt lat="55.8381750" lon="48.9581550"><time>2021-04-17T10:21:27.177</time></trkpt><trkpt lat="55.8381567" lon="48.9582350"><time>2021-04-17T10:21:29.173</time></trkpt><trkpt lat="55.8381350" lon="48.9583250"><time>2021-04-17T10:21:31.177</time></trkpt><trkpt lat="55.8381217" lon="48.9584217"><time>2021-04-17T10:21:33.173</time></trkpt><trkpt lat="55.8381083" lon="48.9585167"><time>2021-04-17T10:21:35.177</time></trkpt><trkpt lat="55.8380883" lon="48.9586183"><time>2021-04-17T10:21:37.173</time></trkpt><trkpt lat="55.8380617" lon="48.9586917"><time>2021-04-17T10:21:39.177</time></trkpt><trkpt lat="55.8380150" lon="48.9587483"><time>2021-04-17T10:21:41.177</time></trkpt><trkpt lat="55.8379767" lon="48.9587917"><time>2021-04-17T10:21:43.173</time></trkpt><trkpt lat="55.8379350" lon="48.9588333"><time>2021-04-17T10:21:45.287</time></trkpt><trkpt lat="55.8378883" lon="48.9588867"><time>2021-04-17T10:21:47.173</time></trkpt><trkpt lat="55.8378467" lon="48.9589217"><time>2021-04-17T10:21:51.180</time></trkpt><trkpt lat="55.8378300" lon="48.9589100"><time>2021-04-17T10:21:54.537</time></trkpt><trkpt lat="55.8378083" lon="48.9589917"><time>2021-04-17T10:21:59.173</time></trkpt><trkpt lat="55.8377833" lon="48.9590817"><time>2021-04-17T10:22:03.180</time></trkpt><trkpt lat="55.8377817" lon="48.9591667"><time>2021-04-17T10:22:08.170</time></trkpt><trkpt lat="55.8378433" lon="48.9591883"><time>2021-04-17T10:22:10.173</time></trkpt><trkpt lat="55.8378667" lon="48.9592700"><time>2021-04-17T10:22:21.177</time></trkpt><trkpt lat="55.8378750" lon="48.9593667"><time>2021-04-17T10:22:25.177</time></trkpt><trkpt lat="55.8378683" lon="48.9594483"><time>2021-04-17T10:22:28.173</time></trkpt><trkpt lat="55.8378667" lon="48.9595383"><time>2021-04-17T10:22:32.173</time></trkpt><trkpt lat="55.8378850" lon="48.9596150"><time>2021-04-17T10:22:36.173</time></trkpt><trkpt lat="55.8378850" lon="48.9597017"><time>2021-04-17T10:22:40.170</time></trkpt><trkpt lat="55.8378683" lon="48.9597883"><time>2021-04-17T10:22:44.173</time></trkpt><trkpt lat="55.8378567" lon="48.9598717"><time>2021-04-17T10:22:47.177</time></trkpt><trkpt lat="55.8378483" lon="48.9599800"><time>2021-04-17T10:22:50.180</time></trkpt><trkpt lat="55.8378367" lon="48.9600850"><time>2021-04-17T10:22:54.173</time></trkpt><trkpt lat="55.8377983" lon="48.9601650"><time>2021-04-17T10:22:57.177</time></trkpt><trkpt lat="55.8377483" lon="48.9602417"><time>2021-04-17T10:23:00.177</time></trkpt><trkpt lat="55.8377333" lon="48.9603183"><time>2021-04-17T10:23:02.173</time></trkpt><trkpt lat="55.8377017" lon="48.9604000"><time>2021-04-17T10:23:04.173</time></trkpt><trkpt lat="55.8376717" lon="48.9604833"><time>2021-04-17T10:23:06.173</time></trkpt><trkpt lat="55.8376433" lon="48.9605483"><time>2021-04-17T10:23:08.173</time></trkpt><trkpt lat="55.8376300" lon="48.9606717"><time>2021-04-17T10:23:11.173</time></trkpt><trkpt lat="55.8376200" lon="48.9607800"><time>2021-04-17T10:23:14.173</time></trkpt><trkpt lat="55.8376233" lon="48.9608867"><time>2021-04-17T10:23:17.173</time></trkpt><trkpt lat="55.8376317" lon="48.9609767"><time>2021-04-17T10:23:20.173</time></trkpt><trkpt lat="55.8376283" lon="48.9610833"><time>2021-04-17T10:23:23.173</time></trkpt><trkpt lat="55.8376317" lon="48.9611700"><time>2021-04-17T10:23:25.173</time></trkpt><trkpt lat="55.8376367" lon="48.9612650"><time>2021-04-17T10:23:27.173</time></trkpt><trkpt lat="55.8376483" lon="48.9613683"><time>2021-04-17T10:23:29.173</time></trkpt><trkpt lat="55.8376417" lon="48.9614683"><time>2021-04-17T10:23:31.177</time></trkpt><trkpt lat="55.8376183" lon="48.9615633"><time>2021-04-17T10:23:33.177</time></trkpt><trkpt lat="55.8376217" lon="48.9616717"><time>2021-04-17T10:23:35.173</time></trkpt><trkpt lat="55.8376250" lon="48.9617700"><time>2021-04-17T10:23:38.173</time></trkpt><trkpt lat="55.8376200" lon="48.9618533"><time>2021-04-17T10:23:41.177</time></trkpt><trkpt lat="55.8376250" lon="48.9619383"><time>2021-04-17T10:23:44.173</time></trkpt><trkpt lat="55.8376417" lon="48.9620967"><time>2021-04-17T10:23:57.173</time></trkpt><trkpt lat="55.8376367" lon="48.9622083"><time>2021-04-17T10:24:00.177</time></trkpt><trkpt lat="55.8376317" lon="48.9622883"><time>2021-04-17T10:24:02.173</time></trkpt><trkpt lat="55.8376333" lon="48.9623800"><time>2021-04-17T10:24:04.177</time></trkpt><trkpt lat="55.8376467" lon="48.9624633"><time>2021-04-17T10:24:06.180</time></trkpt><trkpt lat="55.8376550" lon="48.9625717"><time>2021-04-17T10:24:09.177</time></trkpt><trkpt lat="55.8376367" lon="48.9626650"><time>2021-04-17T10:24:12.177</time></trkpt><trkpt lat="55.8376333" lon="48.9627483"><time>2021-04-17T10:24:14.173</time></trkpt><trkpt lat="55.8376300" lon="48.9628367"><time>2021-04-17T10:24:16.173</time></trkpt><trkpt lat="55.8376300" lon="48.9629333"><time>2021-04-17T10:24:18.180</time></trkpt><trkpt lat="55.8376183" lon="48.9630217"><time>2021-04-17T10:24:20.173</time></trkpt><trkpt lat="55.8376267" lon="48.9631300"><time>2021-04-17T10:24:22.173</time></trkpt><trkpt lat="55.8376250" lon="48.9632267"><time>2021-04-17T10:24:24.177</time></trkpt><trkpt lat="55.8376183" lon="48.9633167"><time>2021-04-17T10:24:26.173</time></trkpt><trkpt lat="55.8376050" lon="48.9634017"><time>2021-04-17T10:24:28.173</time></trkpt><trkpt lat="55.8375817" lon="48.9635083"><time>2021-04-17T10:24:31.173</time></trkpt><trkpt lat="55.8375717" lon="48.9635950"><time>2021-04-17T10:24:33.173</time></trkpt><trkpt lat="55.8375750" lon="48.9637317"><time>2021-04-17T10:24:35.177</time></trkpt><trkpt lat="55.8375650" lon="48.9638717"><time>2021-04-17T10:24:37.173</time></trkpt><trkpt lat="55.8375533" lon="48.9639867"><time>2021-04-17T10:24:39.170</time></trkpt><trkpt lat="55.8375333" lon="48.9640767"><time>2021-04-17T10:24:41.173</time></trkpt><trkpt lat="55.8375067" lon="48.9641517"><time>2021-04-17T10:24:43.173</time></trkpt><trkpt lat="55.8374800" lon="48.9642267"><time>2021-04-17T10:24:45.177</time></trkpt><trkpt lat="55.8374700" lon="48.9643300"><time>2021-04-17T10:24:48.177</time></trkpt><trkpt lat="55.8374700" lon="48.9644333"><time>2021-04-17T10:24:51.173</time></trkpt><trkpt lat="55.8374667" lon="48.9645233"><time>2021-04-17T10:24:53.177</time></trkpt><trkpt lat="55.8374667" lon="48.9646167"><time>2021-04-17T10:24:55.177</time></trkpt><trkpt lat="55.8374600" lon="48.9646983"><time>2021-04-17T10:24:57.177</time></trkpt><trkpt lat="55.8374600" lon="48.9647983"><time>2021-04-17T10:25:00.177</time></trkpt><trkpt lat="55.8374500" lon="48.9648833"><time>2021-04-17T10:25:04.177</time></trkpt><trkpt lat="55.8374300" lon="48.9649683"><time>2021-04-17T10:25:07.173</time></trkpt><trkpt lat="55.8374033" lon="48.9650567"><time>2021-04-17T10:25:10.173</time></trkpt><trkpt lat="55.8373767" lon="48.9651600"><time>2021-04-17T10:25:13.177</time></trkpt><trkpt lat="55.8373417" lon="48.9652583"><time>2021-04-17T10:25:16.173</time></trkpt><trkpt lat="55.8373100" lon="48.9653300"><time>2021-04-17T10:25:18.177</time></trkpt><trkpt lat="55.8372800" lon="48.9653900"><time>2021-04-17T10:25:20.177</time></trkpt><trkpt lat="55.8372367" lon="48.9654267"><time>2021-04-17T10:25:22.173</time></trkpt><trkpt lat="55.8372133" lon="48.9655100"><time>2021-04-17T10:25:26.173</time></trkpt><trkpt lat="55.8371900" lon="48.9655850"><time>2021-04-17T10:25:30.203</time></trkpt><trkpt lat="55.8371717" lon="48.9656600"><time>2021-04-17T10:25:33.173</time></trkpt><trkpt lat="55.8371450" lon="48.9657250"><time>2021-04-17T10:25:37.177</time></trkpt><trkpt lat="55.8371283" lon="48.9658117"><time>2021-04-17T10:25:40.173</time></trkpt><trkpt lat="55.8371333" lon="48.9659050"><time>2021-04-17T10:25:44.173</time></trkpt><trkpt lat="55.8371317" lon="48.9660067"><time>2021-04-17T10:26:01.177</time></trkpt><trkpt lat="55.8371200" lon="48.9661000"><time>2021-04-17T10:26:06.177</time></trkpt><trkpt lat="55.8371317" lon="48.9661867"><time>2021-04-17T10:26:12.177</time></trkpt><trkpt lat="55.8371617" lon="48.9662517"><time>2021-04-17T10:26:16.170</time></trkpt><trkpt lat="55.8372033" lon="48.9663383"><time>2021-04-17T10:26:20.173</time></trkpt><trkpt lat="55.8372233" lon="48.9664200"><time>2021-04-17T10:26:22.173</time></trkpt><trkpt lat="55.8372333" lon="48.9665133"><time>2021-04-17T10:26:24.177</time></trkpt><trkpt lat="55.8372317" lon="48.9666083"><time>2021-04-17T10:26:26.177</time></trkpt><trkpt lat="55.8372250" lon="48.9666950"><time>2021-04-17T10:26:28.173</time></trkpt><trkpt lat="55.8372133" lon="48.9667867"><time>2021-04-17T10:26:30.177</time></trkpt><trkpt lat="55.8372033" lon="48.9668683"><time>2021-04-17T10:26:32.173</time></trkpt><trkpt lat="55.8371850" lon="48.9669733"><time>2021-04-17T10:26:34.177</time></trkpt><trkpt lat="55.8371767" lon="48.9670600"><time>2021-04-17T10:26:36.173</time></trkpt><trkpt lat="55.8371733" lon="48.9671733"><time>2021-04-17T10:26:38.173</time></trkpt><trkpt lat="55.8371717" lon="48.9672850"><time>2021-04-17T10:26:40.170</time></trkpt><trkpt lat="55.8371683" lon="48.9673850"><time>2021-04-17T10:26:42.187</time></trkpt><trkpt lat="55.8371550" lon="48.9674867"><time>2021-04-17T10:26:44.173</time></trkpt><trkpt lat="55.8371267" lon="48.9675817"><time>2021-04-17T10:26:46.173</time></trkpt><trkpt lat="55.8371067" lon="48.9676583"><time>2021-04-17T10:26:48.177</time></trkpt><trkpt lat="55.8370833" lon="48.9677383"><time>2021-04-17T10:26:50.173</time></trkpt><trkpt lat="55.8370600" lon="48.9678267"><time>2021-04-17T10:26:52.173</time></trkpt><trkpt lat="55.8370367" lon="48.9679200"><time>2021-04-17T10:26:54.177</time></trkpt><trkpt lat="55.8370167" lon="48.9680217"><time>2021-04-17T10:26:56.177</time></trkpt><trkpt lat="55.8369933" lon="48.9681217"><time>2021-04-17T10:26:58.173</time></trkpt><trkpt lat="55.8369717" lon="48.9682150"><time>2021-04-17T10:27:00.180</time></trkpt><trkpt lat="55.8369567" lon="48.9683000"><time>2021-04-17T10:27:02.177</time></trkpt><trkpt lat="55.8369400" lon="48.9683833"><time>2021-04-17T10:27:04.173</time></trkpt><trkpt lat="55.8369200" lon="48.9684817"><time>2021-04-17T10:27:06.177</time></trkpt><trkpt lat="55.8369033" lon="48.9685667"><time>2021-04-17T10:27:08.173</time></trkpt><trkpt lat="55.8368817" lon="48.9686483"><time>2021-04-17T10:27:10.173</time></trkpt><trkpt lat="55.8368583" lon="48.9687350"><time>2021-04-17T10:27:12.177</time></trkpt><trkpt lat="55.8368417" lon="48.9688250"><time>2021-04-17T10:27:14.177</time></trkpt><trkpt lat="55.8368200" lon="48.9689083"><time>2021-04-17T10:27:16.173</time></trkpt><trkpt lat="55.8368017" lon="48.9689867"><time>2021-04-17T10:27:18.177</time></trkpt><trkpt lat="55.8367817" lon="48.9690633"><time>2021-04-17T10:27:20.173</time></trkpt><trkpt lat="55.8367650" lon="48.9691450"><time>2021-04-17T10:27:22.173</time></trkpt><trkpt lat="55.8367617" lon="48.9692483"><time>2021-04-17T10:27:26.173</time></trkpt><trkpt lat="55.8367517" lon="48.9693367"><time>2021-04-17T10:27:29.177</time></trkpt><trkpt lat="55.8367417" lon="48.9694517"><time>2021-04-17T10:27:32.187</time></trkpt><trkpt lat="55.8367183" lon="48.9695650"><time>2021-04-17T10:27:35.173</time></trkpt><trkpt lat="55.8367000" lon="48.9696450"><time>2021-04-17T10:27:37.173</time></trkpt><trkpt lat="55.8366850" lon="48.9697317"><time>2021-04-17T10:27:39.173</time></trkpt><trkpt lat="55.8366733" lon="48.9698150"><time>2021-04-17T10:27:41.177</time></trkpt><trkpt lat="55.8366517" lon="48.9698950"><time>2021-04-17T10:27:43.173</time></trkpt><trkpt lat="55.8366400" lon="48.9699733"><time>2021-04-17T10:27:45.173</time></trkpt><trkpt lat="55.8366350" lon="48.9700700"><time>2021-04-17T10:27:47.173</time></trkpt><trkpt lat="55.8366183" lon="48.9701633"><time>2021-04-17T10:27:49.173</time></trkpt><trkpt lat="55.8366100" lon="48.9702450"><time>2021-04-17T10:27:51.173</time></trkpt><trkpt lat="55.8366017" lon="48.9703367"><time>2021-04-17T10:27:53.173</time></trkpt><trkpt lat="55.8365950" lon="48.9704317"><time>2021-04-17T10:27:55.173</time></trkpt><trkpt lat="55.8365850" lon="48.9705100"><time>2021-04-17T10:27:57.177</time></trkpt><trkpt lat="55.8365667" lon="48.9705900"><time>2021-04-17T10:27:59.173</time></trkpt><trkpt lat="55.8365467" lon="48.9706633"><time>2021-04-17T10:28:01.173</time></trkpt><trkpt lat="55.8365283" lon="48.9707400"><time>2021-04-17T10:28:03.173</time></trkpt><trkpt lat="55.8365150" lon="48.9708483"><time>2021-04-17T10:28:06.180</time></trkpt><trkpt lat="55.8364983" lon="48.9709667"><time>2021-04-17T10:28:09.173</time></trkpt><trkpt lat="55.8364800" lon="48.9710483"><time>2021-04-17T10:28:11.173</time></trkpt><trkpt lat="55.8364667" lon="48.9711300"><time>2021-04-17T10:28:13.173</time></trkpt><trkpt lat="55.8364450" lon="48.9712400"><time>2021-04-17T10:28:16.173</time></trkpt><trkpt lat="55.8364267" lon="48.9713150"><time>2021-04-17T10:28:18.177</time></trkpt><trkpt lat="55.8364117" lon="48.9713933"><time>2021-04-17T10:28:20.173</time></trkpt><trkpt lat="55.8363950" lon="48.9714700"><time>2021-04-17T10:28:22.173</time></trkpt><trkpt lat="55.8363733" lon="48.9715500"><time>2021-04-17T10:28:24.173</time></trkpt><trkpt lat="55.8363483" lon="48.9716267"><time>2021-04-17T10:28:26.173</time></trkpt><trkpt lat="55.8363283" lon="48.9717283"><time>2021-04-17T10:28:29.173</time></trkpt><trkpt lat="55.8363083" lon="48.9718217"><time>2021-04-17T10:28:37.173</time></trkpt><trkpt lat="55.8362817" lon="48.9719367"><time>2021-04-17T10:28:40.170</time></trkpt><trkpt lat="55.8362600" lon="48.9720083"><time>2021-04-17T10:28:42.170</time></trkpt><trkpt lat="55.8362383" lon="48.9720800"><time>2021-04-17T10:28:44.173</time></trkpt><trkpt lat="55.8362050" lon="48.9721850"><time>2021-04-17T10:28:47.173</time></trkpt><trkpt lat="55.8361867" lon="48.9722633"><time>2021-04-17T10:28:49.173</time></trkpt><trkpt lat="55.8361617" lon="48.9723400"><time>2021-04-17T10:28:51.177</time></trkpt><trkpt lat="55.8361483" lon="48.9724217"><time>2021-04-17T10:28:53.173</time></trkpt><trkpt lat="55.8361150" lon="48.9725167"><time>2021-04-17T10:28:56.173</time></trkpt><trkpt lat="55.8360900" lon="48.9726150"><time>2021-04-17T10:28:59.177</time></trkpt><trkpt lat="55.8360700" lon="48.9726967"><time>2021-04-17T10:29:01.177</time></trkpt><trkpt lat="55.8360583" lon="48.9728200"><time>2021-04-17T10:29:04.173</time></trkpt><trkpt lat="55.8360500" lon="48.9729083"><time>2021-04-17T10:29:06.177</time></trkpt><trkpt lat="55.8360333" lon="48.9729867"><time>2021-04-17T10:29:08.173</time></trkpt><trkpt lat="55.8360217" lon="48.9730650"><time>2021-04-17T10:29:10.173</time></trkpt><trkpt lat="55.8360050" lon="48.9731700"><time>2021-04-17T10:29:13.210</time></trkpt><trkpt lat="55.8359900" lon="48.9732700"><time>2021-04-17T10:29:16.170</time></trkpt><trkpt lat="55.8360283" lon="48.9732283"><time>2021-04-17T10:29:28.173</time></trkpt><trkpt lat="55.8359967" lon="48.9731700"><time>2021-04-17T10:30:31.237</time></trkpt><trkpt lat="55.8359967" lon="48.9730717"><time>2021-04-17T10:30:35.173</time></trkpt><trkpt lat="55.8360017" lon="48.9729850"><time>2021-04-17T10:30:38.173</time></trkpt><trkpt lat="55.8360150" lon="48.9728867"><time>2021-04-17T10:30:42.173</time></trkpt><trkpt lat="55.8360400" lon="48.9727950"><time>2021-04-17T10:30:46.173</time></trkpt><trkpt lat="55.8360600" lon="48.9727017"><time>2021-04-17T10:30:50.173</time></trkpt><trkpt lat="55.8360750" lon="48.9726233"><time>2021-04-17T10:30:53.173</time></trkpt><trkpt lat="55.8360950" lon="48.9725233"><time>2021-04-17T10:30:57.173</time></trkpt><trkpt lat="55.8361200" lon="48.9724067"><time>2021-04-17T10:31:00.180</time></trkpt><trkpt lat="55.8361133" lon="48.9723267"><time>2021-04-17T10:31:02.177</time></trkpt><trkpt lat="55.8360967" lon="48.9722517"><time>2021-04-17T10:31:06.173</time></trkpt><trkpt lat="55.8360600" lon="48.9721883"><time>2021-04-17T10:31:10.173</time></trkpt><trkpt lat="55.8360483" lon="48.9721067"><time>2021-04-17T10:31:17.173</time></trkpt><trkpt lat="55.8360400" lon="48.9720217"><time>2021-04-17T10:31:21.173</time></trkpt><trkpt lat="55.8360517" lon="48.9719500"><time>2021-04-17T10:31:26.327</time></trkpt><trkpt lat="55.8360533" lon="48.9719367"><time>2021-04-17T10:31:27.170</time></trkpt><trkpt lat="55.8360267" lon="48.9718517"><time>2021-04-17T10:31:45.173</time></trkpt><trkpt lat="55.8359683" lon="48.9718250"><time>2021-04-17T10:31:49.173</time></trkpt><trkpt lat="55.8359117" lon="48.9717700"><time>2021-04-17T10:31:52.180</time></trkpt><trkpt lat="55.8358600" lon="48.9717300"><time>2021-04-17T10:31:56.177</time></trkpt><trkpt lat="55.8358133" lon="48.9716683"><time>2021-04-17T10:32:01.173</time></trkpt><trkpt lat="55.8357517" lon="48.9716433"><time>2021-04-17T10:32:06.173</time></trkpt><trkpt lat="55.8357017" lon="48.9716683"><time>2021-04-17T10:32:09.173</time></trkpt><trkpt lat="55.8356617" lon="48.9716317"><time>2021-04-17T10:32:13.173</time></trkpt><trkpt lat="55.8356150" lon="48.9716050"><time>2021-04-17T10:32:17.173</time></trkpt><trkpt lat="55.8355700" lon="48.9715883"><time>2021-04-17T10:32:22.173</time></trkpt><trkpt lat="55.8355300" lon="48.9715517"><time>2021-04-17T10:32:26.173</time></trkpt><trkpt lat="55.8354950" lon="48.9714967"><time>2021-04-17T10:32:29.173</time></trkpt><trkpt lat="55.8354467" lon="48.9714767"><time>2021-04-17T10:32:33.173</time></trkpt><trkpt lat="55.8354017" lon="48.9714850"><time>2021-04-17T10:32:40.173</time></trkpt><trkpt lat="55.8353550" lon="48.9714850"><time>2021-04-17T10:32:45.173</time></trkpt><trkpt lat="55.8353000" lon="48.9715133"><time>2021-04-17T10:32:50.173</time></trkpt><trkpt lat="55.8352533" lon="48.9715383"><time>2021-04-17T10:32:53.173</time></trkpt><trkpt lat="55.8352183" lon="48.9715900"><time>2021-04-17T10:33:01.173</time></trkpt><trkpt lat="55.8351633" lon="48.9715967"><time>2021-04-17T10:33:07.173</time></trkpt><trkpt lat="55.8351150" lon="48.9716150"><time>2021-04-17T10:33:11.173</time></trkpt><trkpt lat="55.8350600" lon="48.9716550"><time>2021-04-17T10:33:15.173</time></trkpt><trkpt lat="55.8350133" lon="48.9716833"><time>2021-04-17T10:33:18.173</time></trkpt><trkpt lat="55.8349683" lon="48.9717350"><time>2021-04-17T10:33:23.173</time></trkpt><trkpt lat="55.8349417" lon="48.9718083"><time>2021-04-17T10:33:27.173</time></trkpt><trkpt lat="55.8349167" lon="48.9718783"><time>2021-04-17T10:33:32.173</time></trkpt><trkpt lat="55.8348617" lon="48.9718750"><time>2021-04-17T10:33:36.173</time></trkpt><trkpt lat="55.8348050" lon="48.9718733"><time>2021-04-17T10:33:40.173</time></trkpt><trkpt lat="55.8347600" lon="48.9718950"><time>2021-04-17T10:33:44.173</time></trkpt><trkpt lat="55.8347117" lon="48.9718750"><time>2021-04-17T10:33:48.173</time></trkpt><trkpt lat="55.8346533" lon="48.9718717"><time>2021-04-17T10:33:52.173</time></trkpt><trkpt lat="55.8346050" lon="48.9718600"><time>2021-04-17T10:33:55.173</time></trkpt><trkpt lat="55.8345567" lon="48.9718283"><time>2021-04-17T10:33:58.173</time></trkpt><trkpt lat="55.8345083" lon="48.9718033"><time>2021-04-17T10:34:02.173</time></trkpt><trkpt lat="55.8344417" lon="48.9718233"><time>2021-04-17T10:34:06.173</time></trkpt><trkpt lat="55.8344083" lon="48.9718933"><time>2021-04-17T10:34:09.173</time></trkpt><trkpt lat="55.8343900" lon="48.9719683"><time>2021-04-17T10:34:18.197</time></trkpt><trkpt lat="55.8343117" lon="48.9719500"><time>2021-04-17T10:34:25.197</time></trkpt><trkpt lat="55.8342450" lon="48.9719083"><time>2021-04-17T10:34:30.173</time></trkpt><trkpt lat="55.8341983" lon="48.9718483"><time>2021-04-17T10:34:33.173</time></trkpt><trkpt lat="55.8341567" lon="48.9718133"><time>2021-04-17T10:34:36.173</time></trkpt><trkpt lat="55.8341117" lon="48.9718100"><time>2021-04-17T10:34:40.173</time></trkpt><trkpt lat="55.8340700" lon="48.9718400"><time>2021-04-17T10:34:45.173</time></trkpt><trkpt lat="55.8340250" lon="48.9718933"><time>2021-04-17T10:34:50.173</time></trkpt><trkpt lat="55.8339883" lon="48.9719500"><time>2021-04-17T10:34:54.173</time></trkpt><trkpt lat="55.8339467" lon="48.9719933"><time>2021-04-17T10:34:57.173</time></trkpt><trkpt lat="55.8339133" lon="48.9720650"><time>2021-04-17T10:35:01.177</time></trkpt><trkpt lat="55.8338900" lon="48.9721383"><time>2021-04-17T10:35:06.173</time></trkpt><trkpt lat="55.8338450" lon="48.9721533"><time>2021-04-17T10:35:21.173</time></trkpt><trkpt lat="55.8338400" lon="48.9722483"><time>2021-04-17T10:35:32.173</time></trkpt><trkpt lat="55.8338383" lon="48.9723450"><time>2021-04-17T10:35:35.173</time></trkpt><trkpt lat="55.8338250" lon="48.9724350"><time>2021-04-17T10:35:38.173</time></trkpt><trkpt lat="55.8337983" lon="48.9725283"><time>2021-04-17T10:35:41.173</time></trkpt><trkpt lat="55.8337883" lon="48.9726217"><time>2021-04-17T10:35:44.593</time></trkpt><trkpt lat="55.8337550" lon="48.9726900"><time>2021-04-17T10:35:47.177</time></trkpt><trkpt lat="55.8337033" lon="48.9727250"><time>2021-04-17T10:35:50.167</time></trkpt><trkpt lat="55.8336950" lon="48.9727300"><time>2021-04-17T10:35:53.727</time></trkpt><trkpt lat="55.8337100" lon="48.9728083"><time>2021-04-17T10:36:00.170</time></trkpt><trkpt lat="55.8337233" lon="48.9729600"><time>2021-04-17T10:36:04.170</time></trkpt><trkpt lat="55.8337700" lon="48.9729683"><time>2021-04-17T10:36:07.170</time></trkpt><trkpt lat="55.8337683" lon="48.9728883"><time>2021-04-17T10:36:23.170</time></trkpt><trkpt lat="55.8337717" lon="48.9727950"><time>2021-04-17T10:36:26.173</time></trkpt><trkpt lat="55.8337800" lon="48.9726950"><time>2021-04-17T10:36:29.170</time></trkpt><trkpt lat="55.8337833" lon="48.9726117"><time>2021-04-17T10:36:31.170</time></trkpt><trkpt lat="55.8337900" lon="48.9725250"><time>2021-04-17T10:36:33.170</time></trkpt><trkpt lat="55.8337883" lon="48.9724350"><time>2021-04-17T10:36:35.173</time></trkpt><trkpt lat="55.8337883" lon="48.9723367"><time>2021-04-17T10:36:38.173</time></trkpt><trkpt lat="55.8337650" lon="48.9722617"><time>2021-04-17T10:36:40.170</time></trkpt><trkpt lat="55.8337317" lon="48.9721950"><time>2021-04-17T10:36:42.170</time></trkpt><trkpt lat="55.8336883" lon="48.9721467"><time>2021-04-17T10:36:44.170</time></trkpt><trkpt lat="55.8336417" lon="48.9721200"><time>2021-04-17T10:36:46.173</time></trkpt><trkpt lat="55.8335983" lon="48.9720783"><time>2021-04-17T10:36:48.173</time></trkpt><trkpt lat="55.8335467" lon="48.9719983"><time>2021-04-17T10:36:51.173</time></trkpt><trkpt lat="55.8334900" lon="48.9719583"><time>2021-04-17T10:36:54.170</time></trkpt><trkpt lat="55.8334483" lon="48.9719117"><time>2021-04-17T10:36:57.177</time></trkpt><trkpt lat="55.8334000" lon="48.9718750"><time>2021-04-17T10:36:59.170</time></trkpt><trkpt lat="55.8333417" lon="48.9717633"><time>2021-04-17T10:37:01.173</time></trkpt><trkpt lat="55.8332933" lon="48.9716850"><time>2021-04-17T10:37:03.173</time></trkpt><trkpt lat="55.8332467" lon="48.9716117"><time>2021-04-17T10:37:05.173</time></trkpt><trkpt lat="55.8332150" lon="48.9715317"><time>2021-04-17T10:37:08.170</time></trkpt><trkpt lat="55.8331617" lon="48.9714767"><time>2021-04-17T10:37:11.170</time></trkpt><trkpt lat="55.8331133" lon="48.9714300"><time>2021-04-17T10:37:14.173</time></trkpt><trkpt lat="55.8330567" lon="48.9714183"><time>2021-04-17T10:37:18.173</time></trkpt><trkpt lat="55.8330083" lon="48.9714383"><time>2021-04-17T10:37:23.173</time></trkpt><trkpt lat="55.8329767" lon="48.9713700"><time>2021-04-17T10:37:30.173</time></trkpt><trkpt lat="55.8329600" lon="48.9712667"><time>2021-04-17T10:37:33.173</time></trkpt><trkpt lat="55.8329467" lon="48.9711517"><time>2021-04-17T10:37:36.173</time></trkpt><trkpt lat="55.8329250" lon="48.9710800"><time>2021-04-17T10:37:38.177</time></trkpt><trkpt lat="55.8328967" lon="48.9710133"><time>2021-04-17T10:37:40.173</time></trkpt><trkpt lat="55.8328867" lon="48.9709267"><time>2021-04-17T10:37:43.173</time></trkpt><trkpt lat="55.8328800" lon="48.9708383"><time>2021-04-17T10:37:46.173</time></trkpt><trkpt lat="55.8328667" lon="48.9707400"><time>2021-04-17T10:37:49.173</time></trkpt><trkpt lat="55.8328600" lon="48.9706600"><time>2021-04-17T10:37:51.173</time></trkpt><trkpt lat="55.8328533" lon="48.9705800"><time>2021-04-17T10:37:53.173</time></trkpt><trkpt lat="55.8328433" lon="48.9704933"><time>2021-04-17T10:37:55.173</time></trkpt><trkpt lat="55.8328300" lon="48.9704167"><time>2021-04-17T10:37:58.170</time></trkpt><trkpt lat="55.8327933" lon="48.9702950"><time>2021-04-17T10:38:05.173</time></trkpt><trkpt lat="55.8327850" lon="48.9701833"><time>2021-04-17T10:38:07.173</time></trkpt><trkpt lat="55.8327767" lon="48.9700850"><time>2021-04-17T10:38:09.173</time></trkpt><trkpt lat="55.8327850" lon="48.9699717"><time>2021-04-17T10:38:12.173</time></trkpt><trkpt lat="55.8327917" lon="48.9698683"><time>2021-04-17T10:38:14.170</time></trkpt><trkpt lat="55.8327767" lon="48.9697567"><time>2021-04-17T10:38:17.173</time></trkpt><trkpt lat="55.8327350" lon="48.9697083"><time>2021-04-17T10:38:20.173</time></trkpt><trkpt lat="55.8326883" lon="48.9697333"><time>2021-04-17T10:38:24.170</time></trkpt><trkpt lat="55.8326683" lon="48.9697717"><time>2021-04-17T10:38:30.127</time></trkpt><trkpt lat="55.8326983" lon="48.9695800"><time>2021-04-17T10:38:35.173</time></trkpt><trkpt lat="55.8326500" lon="48.9695000"><time>2021-04-17T10:38:37.173</time></trkpt><trkpt lat="55.8326900" lon="48.9694567"><time>2021-04-17T10:38:58.173</time></trkpt><trkpt lat="55.8327400" lon="48.9694233"><time>2021-04-17T10:39:04.170</time></trkpt><trkpt lat="55.8327567" lon="48.9693450"><time>2021-04-17T10:39:10.170</time></trkpt><trkpt lat="55.8327783" lon="48.9692733"><time>2021-04-17T10:39:17.173</time></trkpt><trkpt lat="55.8328117" lon="48.9692017"><time>2021-04-17T10:39:21.173</time></trkpt><trkpt lat="55.8328317" lon="48.9691200"><time>2021-04-17T10:39:24.173</time></trkpt><trkpt lat="55.8328333" lon="48.9690350"><time>2021-04-17T10:39:26.170</time></trkpt><trkpt lat="55.8328517" lon="48.9689433"><time>2021-04-17T10:39:29.173</time></trkpt><trkpt lat="55.8328850" lon="48.9688550"><time>2021-04-17T10:39:32.173</time></trkpt><trkpt lat="55.8329000" lon="48.9687400"><time>2021-04-17T10:39:35.173</time></trkpt><trkpt lat="55.8329283" lon="48.9686333"><time>2021-04-17T10:39:38.170</time></trkpt><trkpt lat="55.8329517" lon="48.9685467"><time>2021-04-17T10:39:41.177</time></trkpt><trkpt lat="55.8329817" lon="48.9684550"><time>2021-04-17T10:39:44.170</time></trkpt><trkpt lat="55.8330050" lon="48.9683433"><time>2021-04-17T10:39:47.173</time></trkpt><trkpt lat="55.8330250" lon="48.9682533"><time>2021-04-17T10:39:49.173</time></trkpt><trkpt lat="55.8330383" lon="48.9681717"><time>2021-04-17T10:39:51.173</time></trkpt><trkpt lat="55.8330550" lon="48.9680533"><time>2021-04-17T10:39:54.170</time></trkpt><trkpt lat="55.8330517" lon="48.9679533"><time>2021-04-17T10:39:57.187</time></trkpt><trkpt lat="55.8330567" lon="48.9678433"><time>2021-04-17T10:40:01.173</time></trkpt><trkpt lat="55.8330567" lon="48.9677500"><time>2021-04-17T10:40:04.173</time></trkpt><trkpt lat="55.8330333" lon="48.9676667"><time>2021-04-17T10:40:07.173</time></trkpt><trkpt lat="55.8330167" lon="48.9675883"><time>2021-04-17T10:40:10.173</time></trkpt><trkpt lat="55.8330467" lon="48.9675017"><time>2021-04-17T10:40:13.173</time></trkpt><trkpt lat="55.8330583" lon="48.9674117"><time>2021-04-17T10:40:15.173</time></trkpt><trkpt lat="55.8330633" lon="48.9673083"><time>2021-04-17T10:40:18.173</time></trkpt><trkpt lat="55.8330700" lon="48.9671950"><time>2021-04-17T10:40:21.173</time></trkpt><trkpt lat="55.8330850" lon="48.9670983"><time>2021-04-17T10:40:23.173</time></trkpt><trkpt lat="55.8331033" lon="48.9670183"><time>2021-04-17T10:40:25.173</time></trkpt><trkpt lat="55.8331117" lon="48.9669350"><time>2021-04-17T10:40:27.173</time></trkpt><trkpt lat="55.8331267" lon="48.9668450"><time>2021-04-17T10:40:29.173</time></trkpt><trkpt lat="55.8331267" lon="48.9667650"><time>2021-04-17T10:40:31.173</time></trkpt><trkpt lat="55.8331283" lon="48.9666800"><time>2021-04-17T10:40:34.170</time></trkpt><trkpt lat="55.8331467" lon="48.9665733"><time>2021-04-17T10:40:39.173</time></trkpt><trkpt lat="55.8331650" lon="48.9664533"><time>2021-04-17T10:40:42.173</time></trkpt><trkpt lat="55.8331700" lon="48.9663533"><time>2021-04-17T10:40:45.170</time></trkpt><trkpt lat="55.8331900" lon="48.9662467"><time>2021-04-17T10:40:48.173</time></trkpt><trkpt lat="55.8332067" lon="48.9661700"><time>2021-04-17T10:40:50.173</time></trkpt><trkpt lat="55.8332150" lon="48.9660783"><time>2021-04-17T10:40:53.173</time></trkpt><trkpt lat="55.8331867" lon="48.9659817"><time>2021-04-17T10:40:57.173</time></trkpt><trkpt lat="55.8331683" lon="48.9658967"><time>2021-04-17T10:41:00.177</time></trkpt><trkpt lat="55.8331433" lon="48.9658250"><time>2021-04-17T10:41:03.177</time></trkpt><trkpt lat="55.8331367" lon="48.9657400"><time>2021-04-17T10:41:07.173</time></trkpt><trkpt lat="55.8331467" lon="48.9656583"><time>2021-04-17T10:41:10.173</time></trkpt><trkpt lat="55.8331467" lon="48.9655550"><time>2021-04-17T10:41:13.173</time></trkpt><trkpt lat="55.8331400" lon="48.9654733"><time>2021-04-17T10:41:16.173</time></trkpt><trkpt lat="55.8331183" lon="48.9653883"><time>2021-04-17T10:41:20.783</time></trkpt><trkpt lat="55.8330933" lon="48.9652867"><time>2021-04-17T10:41:24.170</time></trkpt><trkpt lat="55.8330800" lon="48.9652000"><time>2021-04-17T10:41:27.247</time></trkpt><trkpt lat="55.8330800" lon="48.9652000"><time>2021-04-17T10:41:27.273</time></trkpt><trkpt lat="55.8330617" lon="48.9651050"><time>2021-04-17T10:41:30.173</time></trkpt><trkpt lat="55.8330400" lon="48.9650333"><time>2021-04-17T10:41:32.190</time></trkpt><trkpt lat="55.8329900" lon="48.9649467"><time>2021-04-17T10:41:37.170</time></trkpt><trkpt lat="55.8329700" lon="48.9651483"><time>2021-04-17T10:42:21.173</time></trkpt><trkpt lat="55.8329900" lon="48.9650517"><time>2021-04-17T10:42:36.173</time></trkpt><trkpt lat="55.8330017" lon="48.9649567"><time>2021-04-17T10:42:41.173</time></trkpt><trkpt lat="55.8330133" lon="48.9648633"><time>2021-04-17T10:42:44.170</time></trkpt><trkpt lat="55.8329983" lon="48.9647733"><time>2021-04-17T10:42:47.173</time></trkpt><trkpt lat="55.8329883" lon="48.9646717"><time>2021-04-17T10:42:50.177</time></trkpt><trkpt lat="55.8329850" lon="48.9645633"><time>2021-04-17T10:42:53.173</time></trkpt><trkpt lat="55.8329833" lon="48.9644833"><time>2021-04-17T10:42:55.173</time></trkpt><trkpt lat="55.8329817" lon="48.9643817"><time>2021-04-17T10:42:58.173</time></trkpt><trkpt lat="55.8330017" lon="48.9642833"><time>2021-04-17T10:43:02.187</time></trkpt><trkpt lat="55.8330017" lon="48.9641933"><time>2021-04-17T10:43:05.173</time></trkpt><trkpt lat="55.8329500" lon="48.9641183"><time>2021-04-17T10:43:09.173</time></trkpt><trkpt lat="55.8329250" lon="48.9640483"><time>2021-04-17T10:43:11.173</time></trkpt><trkpt lat="55.8328900" lon="48.9639933"><time>2021-04-17T10:43:15.170</time></trkpt><trkpt lat="55.8328367" lon="48.9639750"><time>2021-04-17T10:43:20.170</time></trkpt><trkpt lat="55.8327900" lon="48.9639633"><time>2021-04-17T10:43:25.177</time></trkpt><trkpt lat="55.8327567" lon="48.9639000"><time>2021-04-17T10:43:29.317</time></trkpt><trkpt lat="55.8328000" lon="48.9637883"><time>2021-04-17T10:43:31.173</time></trkpt><trkpt lat="55.8327533" lon="48.9637833"><time>2021-04-17T10:43:36.173</time></trkpt><trkpt lat="55.8327033" lon="48.9638017"><time>2021-04-17T10:43:39.173</time></trkpt><trkpt lat="55.8326583" lon="48.9637800"><time>2021-04-17T10:43:42.173</time></trkpt><trkpt lat="55.8326083" lon="48.9637650"><time>2021-04-17T10:43:46.173</time></trkpt><trkpt lat="55.8325650" lon="48.9637300"><time>2021-04-17T10:43:50.173</time></trkpt><trkpt lat="55.8325200" lon="48.9637100"><time>2021-04-17T10:43:54.173</time></trkpt><trkpt lat="55.8324733" lon="48.9637333"><time>2021-04-17T10:43:58.173</time></trkpt><trkpt lat="55.8324283" lon="48.9637183"><time>2021-04-17T10:44:04.177</time></trkpt><trkpt lat="55.8323867" lon="48.9636850"><time>2021-04-17T10:44:08.173</time></trkpt><trkpt lat="55.8323483" lon="48.9636333"><time>2021-04-17T10:44:12.180</time></trkpt><trkpt lat="55.8323050" lon="48.9635733"><time>2021-04-17T10:44:16.173</time></trkpt><trkpt lat="55.8322633" lon="48.9635200"><time>2021-04-17T10:44:19.173</time></trkpt><trkpt lat="55.8322200" lon="48.9634733"><time>2021-04-17T10:44:22.170</time></trkpt><trkpt lat="55.8321733" lon="48.9634333"><time>2021-04-17T10:44:25.173</time></trkpt><trkpt lat="55.8321200" lon="48.9633983"><time>2021-04-17T10:44:29.173</time></trkpt><trkpt lat="55.8320633" lon="48.9634050"><time>2021-04-17T10:44:34.173</time></trkpt><trkpt lat="55.8319967" lon="48.9633683"><time>2021-04-17T10:44:37.173</time></trkpt><trkpt lat="55.8319450" lon="48.9633317"><time>2021-04-17T10:44:40.173</time></trkpt><trkpt lat="55.8319000" lon="48.9633133"><time>2021-04-17T10:44:43.173</time></trkpt><trkpt lat="55.8318550" lon="48.9632783"><time>2021-04-17T10:44:48.177</time></trkpt><trkpt lat="55.8318100" lon="48.9632417"><time>2021-04-17T10:44:51.197</time></trkpt><trkpt lat="55.8317517" lon="48.9631817"><time>2021-04-17T10:44:54.173</time></trkpt><trkpt lat="55.8316983" lon="48.9631733"><time>2021-04-17T10:44:56.173</time></trkpt><trkpt lat="55.8316300" lon="48.9631650"><time>2021-04-17T10:44:59.173</time></trkpt><trkpt lat="55.8315817" lon="48.9631367"><time>2021-04-17T10:45:01.173</time></trkpt><trkpt lat="55.8315400" lon="48.9630950"><time>2021-04-17T10:45:03.173</time></trkpt><trkpt lat="55.8314917" lon="48.9630683"><time>2021-04-17T10:45:06.173</time></trkpt><trkpt lat="55.8314350" lon="48.9630450"><time>2021-04-17T10:45:09.173</time></trkpt><trkpt lat="55.8313733" lon="48.9630017"><time>2021-04-17T10:45:12.177</time></trkpt><trkpt lat="55.8313400" lon="48.9629433"><time>2021-04-17T10:45:15.173</time></trkpt><trkpt lat="55.8313017" lon="48.9628683"><time>2021-04-17T10:45:18.173</time></trkpt><trkpt lat="55.8312567" lon="48.9627800"><time>2021-04-17T10:45:21.173</time></trkpt><trkpt lat="55.8312300" lon="48.9626800"><time>2021-04-17T10:45:24.177</time></trkpt><trkpt lat="55.8311917" lon="48.9625417"><time>2021-04-17T10:45:32.173</time></trkpt><trkpt lat="55.8311750" lon="48.9624667"><time>2021-04-17T10:45:35.173</time></trkpt><trkpt lat="55.8311567" lon="48.9623750"><time>2021-04-17T10:45:39.173</time></trkpt><trkpt lat="55.8311283" lon="48.9623033"><time>2021-04-17T10:45:43.173</time></trkpt><trkpt lat="55.8311000" lon="48.9622350"><time>2021-04-17T10:45:46.170</time></trkpt><trkpt lat="55.8310917" lon="48.9621467"><time>2021-04-17T10:45:52.173</time></trkpt><trkpt lat="55.8310867" lon="48.9620433"><time>2021-04-17T10:45:56.173</time></trkpt><trkpt lat="55.8310767" lon="48.9619533"><time>2021-04-17T10:46:00.173</time></trkpt><trkpt lat="55.8310650" lon="48.9618650"><time>2021-04-17T10:46:03.173</time></trkpt><trkpt lat="55.8310600" lon="48.9617733"><time>2021-04-17T10:46:05.170</time></trkpt><trkpt lat="55.8310417" lon="48.9616950"><time>2021-04-17T10:46:07.173</time></trkpt><trkpt lat="55.8310167" lon="48.9616100"><time>2021-04-17T10:46:09.173</time></trkpt><trkpt lat="55.8310017" lon="48.9615233"><time>2021-04-17T10:46:11.173</time></trkpt><trkpt lat="55.8309917" lon="48.9614400"><time>2021-04-17T10:46:13.173</time></trkpt><trkpt lat="55.8309817" lon="48.9613350"><time>2021-04-17T10:46:16.173</time></trkpt><trkpt lat="55.8309733" lon="48.9612267"><time>2021-04-17T10:46:19.177</time></trkpt><trkpt lat="55.8309667" lon="48.9611233"><time>2021-04-17T10:46:22.173</time></trkpt><trkpt lat="55.8309517" lon="48.9610333"><time>2021-04-17T10:46:24.173</time></trkpt><trkpt lat="55.8309450" lon="48.9609350"><time>2021-04-17T10:46:26.173</time></trkpt><trkpt lat="55.8309450" lon="48.9608367"><time>2021-04-17T10:46:29.173</time></trkpt><trkpt lat="55.8309400" lon="48.9607567"><time>2021-04-17T10:46:31.173</time></trkpt><trkpt lat="55.8309233" lon="48.9606267"><time>2021-04-17T10:46:34.173</time></trkpt><trkpt lat="55.8309000" lon="48.9605367"><time>2021-04-17T10:46:37.173</time></trkpt><trkpt lat="55.8308867" lon="48.9604550"><time>2021-04-17T10:46:39.177</time></trkpt><trkpt lat="55.8308667" lon="48.9603817"><time>2021-04-17T10:46:41.173</time></trkpt><trkpt lat="55.8308500" lon="48.9602767"><time>2021-04-17T10:46:44.173</time></trkpt><trkpt lat="55.8308433" lon="48.9601783"><time>2021-04-17T10:46:47.167</time></trkpt><trkpt lat="55.8308517" lon="48.9600783"><time>2021-04-17T10:46:49.173</time></trkpt><trkpt lat="55.8308550" lon="48.9599983"><time>2021-04-17T10:46:51.173</time></trkpt><trkpt lat="55.8308467" lon="48.9599167"><time>2021-04-17T10:46:53.173</time></trkpt><trkpt lat="55.8308267" lon="48.9598033"><time>2021-04-17T10:46:56.173</time></trkpt><trkpt lat="55.8308133" lon="48.9597167"><time>2021-04-17T10:46:58.173</time></trkpt><trkpt lat="55.8308000" lon="48.9596083"><time>2021-04-17T10:47:01.173</time></trkpt><trkpt lat="55.8307900" lon="48.9595150"><time>2021-04-17T10:47:03.173</time></trkpt><trkpt lat="55.8307817" lon="48.9594250"><time>2021-04-17T10:47:05.173</time></trkpt><trkpt lat="55.8307700" lon="48.9593367"><time>2021-04-17T10:47:07.187</time></trkpt><trkpt lat="55.8307583" lon="48.9592550"><time>2021-04-17T10:47:09.173</time></trkpt><trkpt lat="55.8307467" lon="48.9591533"><time>2021-04-17T10:47:12.173</time></trkpt><trkpt lat="55.8307367" lon="48.9590733"><time>2021-04-17T10:47:14.173</time></trkpt><trkpt lat="55.8307283" lon="48.9589833"><time>2021-04-17T10:47:17.173</time></trkpt><trkpt lat="55.8307233" lon="48.9588983"><time>2021-04-17T10:47:19.173</time></trkpt><trkpt lat="55.8307083" lon="48.9588167"><time>2021-04-17T10:47:21.173</time></trkpt><trkpt lat="55.8306883" lon="48.9587083"><time>2021-04-17T10:47:24.173</time></trkpt><trkpt lat="55.8306800" lon="48.9586150"><time>2021-04-17T10:47:26.173</time></trkpt><trkpt lat="55.8306667" lon="48.9585217"><time>2021-04-17T10:47:28.173</time></trkpt><trkpt lat="55.8306583" lon="48.9584217"><time>2021-04-17T10:47:30.173</time></trkpt><trkpt lat="55.8306483" lon="48.9583350"><time>2021-04-17T10:47:32.173</time></trkpt><trkpt lat="55.8306367" lon="48.9582550"><time>2021-04-17T10:47:34.177</time></trkpt><trkpt lat="55.8306200" lon="48.9581450"><time>2021-04-17T10:47:37.173</time></trkpt><trkpt lat="55.8305967" lon="48.9580383"><time>2021-04-17T10:47:40.173</time></trkpt><trkpt lat="55.8305800" lon="48.9579533"><time>2021-04-17T10:47:42.173</time></trkpt><trkpt lat="55.8305633" lon="48.9578650"><time>2021-04-17T10:47:45.173</time></trkpt><trkpt lat="55.8305617" lon="48.9577650"><time>2021-04-17T10:47:48.173</time></trkpt><trkpt lat="55.8305500" lon="48.9576850"><time>2021-04-17T10:47:50.173</time></trkpt><trkpt lat="55.8305383" lon="48.9575983"><time>2021-04-17T10:47:52.173</time></trkpt><trkpt lat="55.8305350" lon="48.9575117"><time>2021-04-17T10:47:54.173</time></trkpt><trkpt lat="55.8305250" lon="48.9574133"><time>2021-04-17T10:47:56.173</time></trkpt><trkpt lat="55.8305133" lon="48.9573200"><time>2021-04-17T10:47:58.173</time></trkpt><trkpt lat="55.8305050" lon="48.9572400"><time>2021-04-17T10:48:00.173</time></trkpt><trkpt lat="55.8304983" lon="48.9571367"><time>2021-04-17T10:48:03.173</time></trkpt><trkpt lat="55.8304850" lon="48.9570483"><time>2021-04-17T10:48:05.173</time></trkpt><trkpt lat="55.8304700" lon="48.9569350"><time>2021-04-17T10:48:08.173</time></trkpt><trkpt lat="55.8304683" lon="48.9568167"><time>2021-04-17T10:48:11.173</time></trkpt><trkpt lat="55.8304683" lon="48.9567300"><time>2021-04-17T10:48:13.173</time></trkpt><trkpt lat="55.8304817" lon="48.9566117"><time>2021-04-17T10:48:16.173</time></trkpt><trkpt lat="55.8304867" lon="48.9564967"><time>2021-04-17T10:48:19.173</time></trkpt><trkpt lat="55.8305017" lon="48.9564000"><time>2021-04-17T10:48:22.173</time></trkpt><trkpt lat="55.8305217" lon="48.9562950"><time>2021-04-17T10:48:26.173</time></trkpt><trkpt lat="55.8305300" lon="48.9562117"><time>2021-04-17T10:48:28.173</time></trkpt><trkpt lat="55.8305217" lon="48.9561233"><time>2021-04-17T10:48:30.177</time></trkpt><trkpt lat="55.8305133" lon="48.9560350"><time>2021-04-17T10:48:32.173</time></trkpt><trkpt lat="55.8304983" lon="48.9559383"><time>2021-04-17T10:48:35.173</time></trkpt><trkpt lat="55.8304883" lon="48.9558517"><time>2021-04-17T10:48:39.173</time></trkpt><trkpt lat="55.8304917" lon="48.9556600"><time>2021-04-17T10:49:04.173</time></trkpt><trkpt lat="55.8304650" lon="48.9555833"><time>2021-04-17T10:49:08.173</time></trkpt><trkpt lat="55.8304267" lon="48.9554733"><time>2021-04-17T10:49:11.173</time></trkpt><trkpt lat="55.8304067" lon="48.9554000"><time>2021-04-17T10:49:14.173</time></trkpt><trkpt lat="55.8303850" lon="48.9553200"><time>2021-04-17T10:49:18.173</time></trkpt><trkpt lat="55.8303567" lon="48.9552400"><time>2021-04-17T10:49:22.173</time></trkpt><trkpt lat="55.8303333" lon="48.9551500"><time>2021-04-17T10:49:26.173</time></trkpt><trkpt lat="55.8303033" lon="48.9550667"><time>2021-04-17T10:49:29.173</time></trkpt><trkpt lat="55.8302783" lon="48.9549850"><time>2021-04-17T10:49:33.173</time></trkpt><trkpt lat="55.8302567" lon="48.9549067"><time>2021-04-17T10:49:36.177</time></trkpt><trkpt lat="55.8302350" lon="48.9548100"><time>2021-04-17T10:49:40.173</time></trkpt><trkpt lat="55.8302250" lon="48.9547300"><time>2021-04-17T10:49:43.173</time></trkpt><trkpt lat="55.8302133" lon="48.9546267"><time>2021-04-17T10:49:47.173</time></trkpt><trkpt lat="55.8301933" lon="48.9545533"><time>2021-04-17T10:49:50.173</time></trkpt><trkpt lat="55.8301600" lon="48.9544950"><time>2021-04-17T10:49:53.173</time></trkpt><trkpt lat="55.8301350" lon="48.9544233"><time>2021-04-17T10:49:56.167</time></trkpt><trkpt lat="55.8300900" lon="48.9543400"><time>2021-04-17T10:49:59.193</time></trkpt><trkpt lat="55.8300700" lon="48.9542633"><time>2021-04-17T10:50:01.177</time></trkpt><trkpt lat="55.8300700" lon="48.9541833"><time>2021-04-17T10:50:04.177</time></trkpt><trkpt lat="55.8300833" lon="48.9540967"><time>2021-04-17T10:50:07.167</time></trkpt><trkpt lat="55.8301600" lon="48.9540050"><time>2021-04-17T10:50:11.170</time></trkpt><trkpt lat="55.8301950" lon="48.9539833"><time>2021-04-17T10:50:15.747</time></trkpt><trkpt lat="55.8302067" lon="48.9539983"><time>2021-04-17T10:50:16.187</time></trkpt><trkpt lat="55.8302083" lon="48.9540883"><time>2021-04-17T10:50:24.187</time></trkpt><trkpt lat="55.8301867" lon="48.9540167"><time>2021-04-17T10:50:30.173</time></trkpt><trkpt lat="55.8302267" lon="48.9540717"><time>2021-04-17T10:51:20.173</time></trkpt><trkpt lat="55.8302567" lon="48.9541383"><time>2021-04-17T10:51:26.170</time></trkpt><trkpt lat="55.8302800" lon="48.9542150"><time>2021-04-17T10:51:47.173</time></trkpt><trkpt lat="55.8303250" lon="48.9542167"><time>2021-04-17T10:51:49.173</time></trkpt><trkpt lat="55.8303800" lon="48.9542433"><time>2021-04-17T10:51:51.173</time></trkpt><trkpt lat="55.8304300" lon="48.9542400"><time>2021-04-17T10:51:53.173</time></trkpt><trkpt lat="55.8304750" lon="48.9542183"><time>2021-04-17T10:51:55.173</time></trkpt><trkpt lat="55.8305217" lon="48.9542333"><time>2021-04-17T10:51:58.173</time></trkpt><trkpt lat="55.8305583" lon="48.9542950"><time>2021-04-17T10:52:01.173</time></trkpt><trkpt lat="55.8306017" lon="48.9543667"><time>2021-04-17T10:52:03.173</time></trkpt><trkpt lat="55.8306267" lon="48.9544533"><time>2021-04-17T10:52:06.177</time></trkpt><trkpt lat="55.8306567" lon="48.9545200"><time>2021-04-17T10:52:09.173</time></trkpt><trkpt lat="55.8306867" lon="48.9545883"><time>2021-04-17T10:52:11.177</time></trkpt><trkpt lat="55.8307183" lon="48.9546650"><time>2021-04-17T10:52:13.173</time></trkpt><trkpt lat="55.8307400" lon="48.9547383"><time>2021-04-17T10:52:15.173</time></trkpt><trkpt lat="55.8307683" lon="48.9548367"><time>2021-04-17T10:52:18.173</time></trkpt><trkpt lat="55.8307917" lon="48.9549067"><time>2021-04-17T10:52:20.173</time></trkpt><trkpt lat="55.8308183" lon="48.9549800"><time>2021-04-17T10:52:22.173</time></trkpt><trkpt lat="55.8308400" lon="48.9550600"><time>2021-04-17T10:52:24.173</time></trkpt><trkpt lat="55.8308617" lon="48.9551783"><time>2021-04-17T10:52:27.173</time></trkpt><trkpt lat="55.8308867" lon="48.9552717"><time>2021-04-17T10:52:29.177</time></trkpt><trkpt lat="55.8309233" lon="48.9553467"><time>2021-04-17T10:52:31.173</time></trkpt><trkpt lat="55.8309583" lon="48.9554000"><time>2021-04-17T10:52:33.173</time></trkpt><trkpt lat="55.8309983" lon="48.9554867"><time>2021-04-17T10:52:36.173</time></trkpt><trkpt lat="55.8310333" lon="48.9555950"><time>2021-04-17T10:52:39.173</time></trkpt><trkpt lat="55.8310567" lon="48.9556817"><time>2021-04-17T10:52:41.173</time></trkpt><trkpt lat="55.8310717" lon="48.9557583"><time>2021-04-17T10:52:43.173</time></trkpt><trkpt lat="55.8310817" lon="48.9558367"><time>2021-04-17T10:52:45.173</time></trkpt><trkpt lat="55.8310983" lon="48.9559417"><time>2021-04-17T10:52:48.170</time></trkpt><trkpt lat="55.8311300" lon="48.9560283"><time>2021-04-17T10:52:51.177</time></trkpt><trkpt lat="55.8311650" lon="48.9561183"><time>2021-04-17T10:52:54.173</time></trkpt><trkpt lat="55.8311967" lon="48.9561800"><time>2021-04-17T10:52:58.170</time></trkpt><trkpt lat="55.8312100" lon="48.9562600"><time>2021-04-17T10:53:03.173</time></trkpt><trkpt lat="55.8312167" lon="48.9563450"><time>2021-04-17T10:53:06.173</time></trkpt><trkpt lat="55.8312267" lon="48.9564433"><time>2021-04-17T10:53:09.173</time></trkpt><trkpt lat="55.8312400" lon="48.9565200"><time>2021-04-17T10:53:11.173</time></trkpt><trkpt lat="55.8312500" lon="48.9566117"><time>2021-04-17T10:53:14.173</time></trkpt><trkpt lat="55.8312567" lon="48.9567067"><time>2021-04-17T10:53:17.173</time></trkpt><trkpt lat="55.8312750" lon="48.9567967"><time>2021-04-17T10:53:21.173</time></trkpt><trkpt lat="55.8312967" lon="48.9568667"><time>2021-04-17T10:53:24.177</time></trkpt><trkpt lat="55.8313200" lon="48.9569650"><time>2021-04-17T10:53:28.173</time></trkpt><trkpt lat="55.8313450" lon="48.9570783"><time>2021-04-17T10:53:31.173</time></trkpt><trkpt lat="55.8313533" lon="48.9571667"><time>2021-04-17T10:53:33.173</time></trkpt><trkpt lat="55.8313567" lon="48.9572750"><time>2021-04-17T10:53:36.177</time></trkpt><trkpt lat="55.8313767" lon="48.9573700"><time>2021-04-17T10:53:40.173</time></trkpt><trkpt lat="55.8314067" lon="48.9574483"><time>2021-04-17T10:53:43.173</time></trkpt><trkpt lat="55.8314267" lon="48.9575633"><time>2021-04-17T10:53:52.173</time></trkpt><trkpt lat="55.8314850" lon="48.9575917"><time>2021-04-17T10:54:00.177</time></trkpt><trkpt lat="55.8315383" lon="48.9575833"><time>2021-04-17T10:54:04.173</time></trkpt><trkpt lat="55.8315917" lon="48.9575867"><time>2021-04-17T10:54:09.173</time></trkpt><trkpt lat="55.8316450" lon="48.9575933"><time>2021-04-17T10:54:14.173</time></trkpt><trkpt lat="55.8316967" lon="48.9576083"><time>2021-04-17T10:54:17.173</time></trkpt><trkpt lat="55.8317467" lon="48.9575850"><time>2021-04-17T10:54:20.173</time></trkpt><trkpt lat="55.8318150" lon="48.9575483"><time>2021-04-17T10:54:29.173</time></trkpt><trkpt lat="55.8318500" lon="48.9574950"><time>2021-04-17T10:54:33.173</time></trkpt><trkpt lat="55.8318667" lon="48.9574083"><time>2021-04-17T10:54:37.173</time></trkpt><trkpt lat="55.8318933" lon="48.9573300"><time>2021-04-17T10:54:40.170</time></trkpt><trkpt lat="55.8319267" lon="48.9572450"><time>2021-04-17T10:54:43.173</time></trkpt><trkpt lat="55.8319633" lon="48.9571617"><time>2021-04-17T10:54:45.173</time></trkpt><trkpt lat="55.8319933" lon="48.9570917"><time>2021-04-17T10:54:47.173</time></trkpt><trkpt lat="55.8320283" lon="48.9570300"><time>2021-04-17T10:54:49.170</time></trkpt><trkpt lat="55.8320583" lon="48.9569400"><time>2021-04-17T10:54:52.173</time></trkpt><trkpt lat="55.8321033" lon="48.9569917"><time>2021-04-17T10:54:55.173</time></trkpt><trkpt lat="55.8321417" lon="48.9570483"><time>2021-04-17T10:54:57.173</time></trkpt><trkpt lat="55.8321783" lon="48.9570983"><time>2021-04-17T10:54:59.173</time></trkpt><trkpt lat="55.8322367" lon="48.9571417"><time>2021-04-17T10:55:02.173</time></trkpt><trkpt lat="55.8322917" lon="48.9571533"><time>2021-04-17T10:55:05.173</time></trkpt><trkpt lat="55.8323317" lon="48.9571967"><time>2021-04-17T10:55:07.173</time></trkpt><trkpt lat="55.8323750" lon="48.9572417"><time>2021-04-17T10:55:09.173</time></trkpt><trkpt lat="55.8324117" lon="48.9573250"><time>2021-04-17T10:55:12.173</time></trkpt><trkpt lat="55.8324150" lon="48.9574433"><time>2021-04-17T10:55:15.173</time></trkpt><trkpt lat="55.8324217" lon="48.9575317"><time>2021-04-17T10:55:17.173</time></trkpt><trkpt lat="55.8324267" lon="48.9576200"><time>2021-04-17T10:55:19.170</time></trkpt><trkpt lat="55.8324267" lon="48.9577217"><time>2021-04-17T10:55:21.173</time></trkpt><trkpt lat="55.8324433" lon="48.9578167"><time>2021-04-17T10:55:23.173</time></trkpt><trkpt lat="55.8324667" lon="48.9579167"><time>2021-04-17T10:55:25.173</time></trkpt><trkpt lat="55.8324767" lon="48.9579967"><time>2021-04-17T10:55:27.173</time></trkpt><trkpt lat="55.8325067" lon="48.9580600"><time>2021-04-17T10:55:29.173</time></trkpt><trkpt lat="55.8325517" lon="48.9581283"><time>2021-04-17T10:55:31.170</time></trkpt><trkpt lat="55.8326017" lon="48.9581833"><time>2021-04-17T10:55:33.173</time></trkpt><trkpt lat="55.8326450" lon="48.9582483"><time>2021-04-17T10:55:35.173</time></trkpt><trkpt lat="55.8326883" lon="48.9583050"><time>2021-04-17T10:55:37.173</time></trkpt><trkpt lat="55.8327283" lon="48.9583633"><time>2021-04-17T10:55:39.173</time></trkpt><trkpt lat="55.8327667" lon="48.9584200"><time>2021-04-17T10:55:41.173</time></trkpt><trkpt lat="55.8328100" lon="48.9584617"><time>2021-04-17T10:55:43.173</time></trkpt><trkpt lat="55.8328550" lon="48.9584850"><time>2021-04-17T10:55:45.173</time></trkpt><trkpt lat="55.8329000" lon="48.9584967"><time>2021-04-17T10:55:47.173</time></trkpt><trkpt lat="55.8329600" lon="48.9585017"><time>2021-04-17T10:55:50.173</time></trkpt><trkpt lat="55.8330017" lon="48.9584683"><time>2021-04-17T10:55:52.170</time></trkpt><trkpt lat="55.8330333" lon="48.9584067"><time>2021-04-17T10:55:54.177</time></trkpt><trkpt lat="55.8330917" lon="48.9583667"><time>2021-04-17T10:55:57.173</time></trkpt><trkpt lat="55.8331500" lon="48.9584033"><time>2021-04-17T10:56:00.177</time></trkpt><trkpt lat="55.8331917" lon="48.9584367"><time>2021-04-17T10:56:02.173</time></trkpt><trkpt lat="55.8332317" lon="48.9584800"><time>2021-04-17T10:56:04.170</time></trkpt><trkpt lat="55.8332850" lon="48.9585500"><time>2021-04-17T10:56:07.173</time></trkpt><trkpt lat="55.8333467" lon="48.9585800"><time>2021-04-17T10:56:10.173</time></trkpt><trkpt lat="55.8333933" lon="48.9585917"><time>2021-04-17T10:56:12.180</time></trkpt><trkpt lat="55.8334583" lon="48.9586117"><time>2021-04-17T10:56:15.177</time></trkpt><trkpt lat="55.8335100" lon="48.9586317"><time>2021-04-17T10:56:17.173</time></trkpt><trkpt lat="55.8335533" lon="48.9586633"><time>2021-04-17T10:56:19.173</time></trkpt><trkpt lat="55.8336050" lon="48.9587333"><time>2021-04-17T10:56:22.173</time></trkpt><trkpt lat="55.8336667" lon="48.9587483"><time>2021-04-17T10:56:25.173</time></trkpt><trkpt lat="55.8337217" lon="48.9587000"><time>2021-04-17T10:56:28.173</time></trkpt><trkpt lat="55.8337583" lon="48.9586450"><time>2021-04-17T10:56:30.173</time></trkpt><trkpt lat="55.8337983" lon="48.9586083"><time>2021-04-17T10:56:32.173</time></trkpt><trkpt lat="55.8338450" lon="48.9585733"><time>2021-04-17T10:56:34.173</time></trkpt><trkpt lat="55.8338900" lon="48.9585417"><time>2021-04-17T10:56:36.173</time></trkpt><trkpt lat="55.8339500" lon="48.9585000"><time>2021-04-17T10:56:39.173</time></trkpt><trkpt lat="55.8339883" lon="48.9584583"><time>2021-04-17T10:56:41.187</time></trkpt><trkpt lat="55.8340433" lon="48.9583933"><time>2021-04-17T10:56:44.173</time></trkpt><trkpt lat="55.8340833" lon="48.9583517"><time>2021-04-17T10:56:46.173</time></trkpt><trkpt lat="55.8341217" lon="48.9582883"><time>2021-04-17T10:56:50.167</time></trkpt><trkpt lat="55.8341500" lon="48.9582200"><time>2021-04-17T10:56:53.173</time></trkpt><trkpt lat="55.8341967" lon="48.9581767"><time>2021-04-17T10:56:55.173</time></trkpt><trkpt lat="55.8342600" lon="48.9581450"><time>2021-04-17T10:56:58.607</time></trkpt><trkpt lat="55.8343167" lon="48.9581317"><time>2021-04-17T10:57:01.170</time></trkpt><trkpt lat="55.8343883" lon="48.9581183"><time>2021-04-17T10:57:03.170</time></trkpt></trkseg></trk></gpx>